<?xml version="1.0" encoding="UTF-8" standalone="no" ?>
<gpx xmlns="http://www.topografix.com/GPX/1/1" xmlns:xsi="http://www.w3.org/2001/XMLSchema-instance" xsi:schemaLocation="http://www.topografix.com/GPX/1/1 http://www.topografix.com/GPX/1/1/gpx.xsd" version="1.1" creator="VisuGPX - https://www.visugpx.com">
  <metadata>
    <name>Payolle Col beyrede Col Aspin Hourquette</name>
    <desc><![CDATA[boucle au dÃ©part de Payolle, le col d'Aspin par les chemins puis le col de BeyrÃ¨de et retour vers Payolle]]></desc>
  </metadata>
  <trk>
    <name><![CDATA[23/08/2019 09:00:12]]></name>
    <trkseg>
      <trkpt lat="42.94168" lon="0.28563">
        <ele>1095</ele>
        <time>2019-08-23T07:00:12Z</time>
      </trkpt>
      <trkpt lat="42.94168" lon="0.28563">
        <ele>1095</ele>
        <time>2019-08-23T07:00:16Z</time>
      </trkpt>
      <trkpt lat="42.94168" lon="0.28563">
        <ele>1093.8000488281</ele>
        <time>2019-08-23T07:00:17Z</time>
      </trkpt>
      <trkpt lat="42.94168" lon="0.28563">
        <ele>1093.8000488281</ele>
        <time>2019-08-23T07:00:28Z</time>
      </trkpt>
      <trkpt lat="42.94168" lon="0.28563">
        <ele>1093.8000488281</ele>
        <time>2019-08-23T07:00:43Z</time>
      </trkpt>
      <trkpt lat="42.94168" lon="0.28563">
        <ele>1093.8000488281</ele>
        <time>2019-08-23T07:00:59Z</time>
      </trkpt>
      <trkpt lat="42.94168" lon="0.28563">
        <ele>1093.8000488281</ele>
        <time>2019-08-23T07:01:15Z</time>
      </trkpt>
      <trkpt lat="42.94168" lon="0.28563">
        <ele>1093.8000488281</ele>
        <time>2019-08-23T07:01:30Z</time>
      </trkpt>
      <trkpt lat="42.94168" lon="0.28563">
        <ele>1093.8000488281</ele>
        <time>2019-08-23T07:01:38Z</time>
      </trkpt>
      <trkpt lat="42.94167" lon="0.2856">
        <ele>1093.8000488281</ele>
        <time>2019-08-23T07:01:45Z</time>
      </trkpt>
      <trkpt lat="42.94167" lon="0.2856">
        <ele>1093.8000488281</ele>
        <time>2019-08-23T07:01:57Z</time>
      </trkpt>
      <trkpt lat="42.94167" lon="0.2856">
        <ele>1093.8000488281</ele>
        <time>2019-08-23T07:02:08Z</time>
      </trkpt>
      <trkpt lat="42.94163" lon="0.28557">
        <ele>1093.8000488281</ele>
        <time>2019-08-23T07:02:13Z</time>
      </trkpt>
      <trkpt lat="42.94162" lon="0.28557">
        <ele>1093.8000488281</ele>
        <time>2019-08-23T07:02:14Z</time>
      </trkpt>
      <trkpt lat="42.94155" lon="0.28561">
        <ele>1093.8000488281</ele>
        <time>2019-08-23T07:02:20Z</time>
      </trkpt>
      <trkpt lat="42.94149" lon="0.28567">
        <ele>1093.8000488281</ele>
        <time>2019-08-23T07:02:24Z</time>
      </trkpt>
      <trkpt lat="42.94147" lon="0.2857">
        <ele>1093.8000488281</ele>
        <time>2019-08-23T07:02:25Z</time>
      </trkpt>
      <trkpt lat="42.9413" lon="0.28587">
        <ele>1093.8000488281</ele>
        <time>2019-08-23T07:02:32Z</time>
      </trkpt>
      <trkpt lat="42.9411" lon="0.28611">
        <ele>1093.8000488281</ele>
        <time>2019-08-23T07:02:39Z</time>
      </trkpt>
      <trkpt lat="42.9409" lon="0.28643">
        <ele>1093.8000488281</ele>
        <time>2019-08-23T07:02:47Z</time>
      </trkpt>
      <trkpt lat="42.94083" lon="0.28655">
        <ele>1094.1999511719</ele>
        <time>2019-08-23T07:02:50Z</time>
      </trkpt>
      <trkpt lat="42.9408" lon="0.28659">
        <ele>1094.5999755859</ele>
        <time>2019-08-23T07:02:51Z</time>
      </trkpt>
      <trkpt lat="42.94078" lon="0.28663">
        <ele>1095</ele>
        <time>2019-08-23T07:02:52Z</time>
      </trkpt>
      <trkpt lat="42.94076" lon="0.28667">
        <ele>1095.4000244141</ele>
        <time>2019-08-23T07:02:53Z</time>
      </trkpt>
      <trkpt lat="42.94074" lon="0.28671">
        <ele>1095.8000488281</ele>
        <time>2019-08-23T07:02:54Z</time>
      </trkpt>
      <trkpt lat="42.94073" lon="0.28675">
        <ele>1095.8000488281</ele>
        <time>2019-08-23T07:02:55Z</time>
      </trkpt>
      <trkpt lat="42.94065" lon="0.28707">
        <ele>1095.8000488281</ele>
        <time>2019-08-23T07:03:01Z</time>
      </trkpt>
      <trkpt lat="42.94059" lon="0.28731">
        <ele>1096.1999511719</ele>
        <time>2019-08-23T07:03:06Z</time>
      </trkpt>
      <trkpt lat="42.94058" lon="0.28736">
        <ele>1096.8000488281</ele>
        <time>2019-08-23T07:03:07Z</time>
      </trkpt>
      <trkpt lat="42.94057" lon="0.2874">
        <ele>1097.1999511719</ele>
        <time>2019-08-23T07:03:08Z</time>
      </trkpt>
      <trkpt lat="42.94056" lon="0.28745">
        <ele>1097.5999755859</ele>
        <time>2019-08-23T07:03:09Z</time>
      </trkpt>
      <trkpt lat="42.94055" lon="0.2875">
        <ele>1098.1999511719</ele>
        <time>2019-08-23T07:03:10Z</time>
      </trkpt>
      <trkpt lat="42.94055" lon="0.28755">
        <ele>1098.1999511719</ele>
        <time>2019-08-23T07:03:11Z</time>
      </trkpt>
      <trkpt lat="42.94049" lon="0.28779">
        <ele>1098.5999755859</ele>
        <time>2019-08-23T07:03:16Z</time>
      </trkpt>
      <trkpt lat="42.94047" lon="0.28783">
        <ele>1099</ele>
        <time>2019-08-23T07:03:17Z</time>
      </trkpt>
      <trkpt lat="42.94046" lon="0.28788">
        <ele>1099.4000244141</ele>
        <time>2019-08-23T07:03:18Z</time>
      </trkpt>
      <trkpt lat="42.94044" lon="0.28793">
        <ele>1100</ele>
        <time>2019-08-23T07:03:19Z</time>
      </trkpt>
      <trkpt lat="42.94042" lon="0.28798">
        <ele>1100.4000244141</ele>
        <time>2019-08-23T07:03:20Z</time>
      </trkpt>
      <trkpt lat="42.94033" lon="0.28824">
        <ele>1100.8000488281</ele>
        <time>2019-08-23T07:03:26Z</time>
      </trkpt>
      <trkpt lat="42.94031" lon="0.28829">
        <ele>1101.1999511719</ele>
        <time>2019-08-23T07:03:27Z</time>
      </trkpt>
      <trkpt lat="42.94029" lon="0.28833">
        <ele>1101.5999755859</ele>
        <time>2019-08-23T07:03:28Z</time>
      </trkpt>
      <trkpt lat="42.94027" lon="0.28838">
        <ele>1102</ele>
        <time>2019-08-23T07:03:29Z</time>
      </trkpt>
      <trkpt lat="42.94026" lon="0.28842">
        <ele>1102.5999755859</ele>
        <time>2019-08-23T07:03:30Z</time>
      </trkpt>
      <trkpt lat="42.94021" lon="0.2886">
        <ele>1102.5999755859</ele>
        <time>2019-08-23T07:03:34Z</time>
      </trkpt>
      <trkpt lat="42.9402" lon="0.28865">
        <ele>1103</ele>
        <time>2019-08-23T07:03:35Z</time>
      </trkpt>
      <trkpt lat="42.94019" lon="0.28869">
        <ele>1103.4000244141</ele>
        <time>2019-08-23T07:03:36Z</time>
      </trkpt>
      <trkpt lat="42.94018" lon="0.28874">
        <ele>1103.8000488281</ele>
        <time>2019-08-23T07:03:37Z</time>
      </trkpt>
      <trkpt lat="42.94017" lon="0.28879">
        <ele>1104.1999511719</ele>
        <time>2019-08-23T07:03:38Z</time>
      </trkpt>
      <trkpt lat="42.94016" lon="0.28884">
        <ele>1104.5999755859</ele>
        <time>2019-08-23T07:03:39Z</time>
      </trkpt>
      <trkpt lat="42.94011" lon="0.28914">
        <ele>1104.5999755859</ele>
        <time>2019-08-23T07:03:45Z</time>
      </trkpt>
      <trkpt lat="42.94007" lon="0.28928">
        <ele>1105</ele>
        <time>2019-08-23T07:03:48Z</time>
      </trkpt>
      <trkpt lat="42.94006" lon="0.28933">
        <ele>1105.4000244141</ele>
        <time>2019-08-23T07:03:49Z</time>
      </trkpt>
      <trkpt lat="42.94006" lon="0.28938">
        <ele>1105.8000488281</ele>
        <time>2019-08-23T07:03:50Z</time>
      </trkpt>
      <trkpt lat="42.94005" lon="0.28943">
        <ele>1106.1999511719</ele>
        <time>2019-08-23T07:03:51Z</time>
      </trkpt>
      <trkpt lat="42.94004" lon="0.28948">
        <ele>1106.5999755859</ele>
        <time>2019-08-23T07:03:52Z</time>
      </trkpt>
      <trkpt lat="42.94004" lon="0.28953">
        <ele>1106.5999755859</ele>
        <time>2019-08-23T07:03:53Z</time>
      </trkpt>
      <trkpt lat="42.94001" lon="0.28998">
        <ele>1106.5999755859</ele>
        <time>2019-08-23T07:04:01Z</time>
      </trkpt>
      <trkpt lat="42.94001" lon="0.29004">
        <ele>1106.5999755859</ele>
        <time>2019-08-23T07:04:02Z</time>
      </trkpt>
      <trkpt lat="42.94001" lon="0.29027">
        <ele>1107.1999511719</ele>
        <time>2019-08-23T07:04:06Z</time>
      </trkpt>
      <trkpt lat="42.94" lon="0.29033">
        <ele>1107.5999755859</ele>
        <time>2019-08-23T07:04:07Z</time>
      </trkpt>
      <trkpt lat="42.94" lon="0.29038">
        <ele>1108</ele>
        <time>2019-08-23T07:04:08Z</time>
      </trkpt>
      <trkpt lat="42.93999" lon="0.29044">
        <ele>1108.4000244141</ele>
        <time>2019-08-23T07:04:09Z</time>
      </trkpt>
      <trkpt lat="42.93998" lon="0.2905">
        <ele>1108.8000488281</ele>
        <time>2019-08-23T07:04:10Z</time>
      </trkpt>
      <trkpt lat="42.93996" lon="0.29055">
        <ele>1108.8000488281</ele>
        <time>2019-08-23T07:04:11Z</time>
      </trkpt>
      <trkpt lat="42.93993" lon="0.29066">
        <ele>1108.8000488281</ele>
        <time>2019-08-23T07:04:13Z</time>
      </trkpt>
      <trkpt lat="42.93985" lon="0.29085">
        <ele>1108.8000488281</ele>
        <time>2019-08-23T07:04:17Z</time>
      </trkpt>
      <trkpt lat="42.9398" lon="0.29094">
        <ele>1109.1999511719</ele>
        <time>2019-08-23T07:04:19Z</time>
      </trkpt>
      <trkpt lat="42.93977" lon="0.29098">
        <ele>1109.5999755859</ele>
        <time>2019-08-23T07:04:20Z</time>
      </trkpt>
      <trkpt lat="42.93975" lon="0.29102">
        <ele>1110</ele>
        <time>2019-08-23T07:04:21Z</time>
      </trkpt>
      <trkpt lat="42.93972" lon="0.29105">
        <ele>1110.5999755859</ele>
        <time>2019-08-23T07:04:22Z</time>
      </trkpt>
      <trkpt lat="42.93968" lon="0.29108">
        <ele>1111</ele>
        <time>2019-08-23T07:04:23Z</time>
      </trkpt>
      <trkpt lat="42.93955" lon="0.2912">
        <ele>1111</ele>
        <time>2019-08-23T07:04:27Z</time>
      </trkpt>
      <trkpt lat="42.93951" lon="0.29122">
        <ele>1111</ele>
        <time>2019-08-23T07:04:28Z</time>
      </trkpt>
      <trkpt lat="42.93937" lon="0.29126">
        <ele>1111</ele>
        <time>2019-08-23T07:04:31Z</time>
      </trkpt>
      <trkpt lat="42.93926" lon="0.29127">
        <ele>1111</ele>
        <time>2019-08-23T07:04:33Z</time>
      </trkpt>
      <trkpt lat="42.93903" lon="0.29128">
        <ele>1111</ele>
        <time>2019-08-23T07:04:37Z</time>
      </trkpt>
      <trkpt lat="42.93878" lon="0.29128">
        <ele>1111</ele>
        <time>2019-08-23T07:04:41Z</time>
      </trkpt>
      <trkpt lat="42.93872" lon="0.29127">
        <ele>1110.4000244141</ele>
        <time>2019-08-23T07:04:42Z</time>
      </trkpt>
      <trkpt lat="42.93865" lon="0.29126">
        <ele>1110</ele>
        <time>2019-08-23T07:04:43Z</time>
      </trkpt>
      <trkpt lat="42.93859" lon="0.29124">
        <ele>1109.5999755859</ele>
        <time>2019-08-23T07:04:44Z</time>
      </trkpt>
      <trkpt lat="42.93852" lon="0.29122">
        <ele>1109</ele>
        <time>2019-08-23T07:04:45Z</time>
      </trkpt>
      <trkpt lat="42.93846" lon="0.2912">
        <ele>1108.5999755859</ele>
        <time>2019-08-23T07:04:46Z</time>
      </trkpt>
      <trkpt lat="42.9384" lon="0.29119">
        <ele>1108.5999755859</ele>
        <time>2019-08-23T07:04:47Z</time>
      </trkpt>
      <trkpt lat="42.93834" lon="0.2912">
        <ele>1108.5999755859</ele>
        <time>2019-08-23T07:04:48Z</time>
      </trkpt>
      <trkpt lat="42.93822" lon="0.29132">
        <ele>1108.5999755859</ele>
        <time>2019-08-23T07:04:51Z</time>
      </trkpt>
      <trkpt lat="42.93812" lon="0.2915">
        <ele>1109</ele>
        <time>2019-08-23T07:04:55Z</time>
      </trkpt>
      <trkpt lat="42.93809" lon="0.29153">
        <ele>1109.5999755859</ele>
        <time>2019-08-23T07:04:56Z</time>
      </trkpt>
      <trkpt lat="42.93806" lon="0.29156">
        <ele>1110</ele>
        <time>2019-08-23T07:04:57Z</time>
      </trkpt>
      <trkpt lat="42.93803" lon="0.2916">
        <ele>1110.4000244141</ele>
        <time>2019-08-23T07:04:58Z</time>
      </trkpt>
      <trkpt lat="42.938" lon="0.29163">
        <ele>1110.8000488281</ele>
        <time>2019-08-23T07:04:59Z</time>
      </trkpt>
      <trkpt lat="42.93793" lon="0.29168">
        <ele>1110.8000488281</ele>
        <time>2019-08-23T07:05:01Z</time>
      </trkpt>
      <trkpt lat="42.9379" lon="0.29171">
        <ele>1111.1999511719</ele>
        <time>2019-08-23T07:05:02Z</time>
      </trkpt>
      <trkpt lat="42.93786" lon="0.29173">
        <ele>1111.8000488281</ele>
        <time>2019-08-23T07:05:03Z</time>
      </trkpt>
      <trkpt lat="42.93783" lon="0.29176">
        <ele>1112.1999511719</ele>
        <time>2019-08-23T07:05:04Z</time>
      </trkpt>
      <trkpt lat="42.9378" lon="0.29178">
        <ele>1112.5999755859</ele>
        <time>2019-08-23T07:05:05Z</time>
      </trkpt>
      <trkpt lat="42.93776" lon="0.29181">
        <ele>1113</ele>
        <time>2019-08-23T07:05:06Z</time>
      </trkpt>
      <trkpt lat="42.93773" lon="0.29184">
        <ele>1113</ele>
        <time>2019-08-23T07:05:07Z</time>
      </trkpt>
      <trkpt lat="42.93767" lon="0.29191">
        <ele>1113</ele>
        <time>2019-08-23T07:05:09Z</time>
      </trkpt>
      <trkpt lat="42.93764" lon="0.29194">
        <ele>1113.4000244141</ele>
        <time>2019-08-23T07:05:10Z</time>
      </trkpt>
      <trkpt lat="42.93761" lon="0.29198">
        <ele>1114</ele>
        <time>2019-08-23T07:05:11Z</time>
      </trkpt>
      <trkpt lat="42.93759" lon="0.29201">
        <ele>1114.4000244141</ele>
        <time>2019-08-23T07:05:12Z</time>
      </trkpt>
      <trkpt lat="42.93756" lon="0.29204">
        <ele>1115.4000244141</ele>
        <time>2019-08-23T07:05:13Z</time>
      </trkpt>
      <trkpt lat="42.93741" lon="0.29225">
        <ele>1115.8000488281</ele>
        <time>2019-08-23T07:05:19Z</time>
      </trkpt>
      <trkpt lat="42.93738" lon="0.29228">
        <ele>1116.1999511719</ele>
        <time>2019-08-23T07:05:20Z</time>
      </trkpt>
      <trkpt lat="42.93734" lon="0.29231">
        <ele>1116.5999755859</ele>
        <time>2019-08-23T07:05:21Z</time>
      </trkpt>
      <trkpt lat="42.93731" lon="0.29233">
        <ele>1117</ele>
        <time>2019-08-23T07:05:22Z</time>
      </trkpt>
      <trkpt lat="42.93728" lon="0.29236">
        <ele>1117.4000244141</ele>
        <time>2019-08-23T07:05:23Z</time>
      </trkpt>
      <trkpt lat="42.93712" lon="0.29244">
        <ele>1117.4000244141</ele>
        <time>2019-08-23T07:05:28Z</time>
      </trkpt>
      <trkpt lat="42.93702" lon="0.29247">
        <ele>1117.8000488281</ele>
        <time>2019-08-23T07:05:31Z</time>
      </trkpt>
      <trkpt lat="42.93698" lon="0.29247">
        <ele>1118.1999511719</ele>
        <time>2019-08-23T07:05:32Z</time>
      </trkpt>
      <trkpt lat="42.93694" lon="0.29247">
        <ele>1118.5999755859</ele>
        <time>2019-08-23T07:05:33Z</time>
      </trkpt>
      <trkpt lat="42.93691" lon="0.29247">
        <ele>1119</ele>
        <time>2019-08-23T07:05:34Z</time>
      </trkpt>
      <trkpt lat="42.93687" lon="0.29247">
        <ele>1119.4000244141</ele>
        <time>2019-08-23T07:05:35Z</time>
      </trkpt>
      <trkpt lat="42.93679" lon="0.29245">
        <ele>1119.4000244141</ele>
        <time>2019-08-23T07:05:37Z</time>
      </trkpt>
      <trkpt lat="42.93668" lon="0.29238">
        <ele>1119.4000244141</ele>
        <time>2019-08-23T07:05:40Z</time>
      </trkpt>
      <trkpt lat="42.93639" lon="0.29213">
        <ele>1119.4000244141</ele>
        <time>2019-08-23T07:05:49Z</time>
      </trkpt>
      <trkpt lat="42.93629" lon="0.29204">
        <ele>1120</ele>
        <time>2019-08-23T07:05:52Z</time>
      </trkpt>
      <trkpt lat="42.93626" lon="0.29202">
        <ele>1120.4000244141</ele>
        <time>2019-08-23T07:05:53Z</time>
      </trkpt>
      <trkpt lat="42.93623" lon="0.29199">
        <ele>1120.8000488281</ele>
        <time>2019-08-23T07:05:54Z</time>
      </trkpt>
      <trkpt lat="42.9362" lon="0.29197">
        <ele>1121.1999511719</ele>
        <time>2019-08-23T07:05:55Z</time>
      </trkpt>
      <trkpt lat="42.93617" lon="0.29194">
        <ele>1121.5999755859</ele>
        <time>2019-08-23T07:05:56Z</time>
      </trkpt>
      <trkpt lat="42.93611" lon="0.29189">
        <ele>1121.5999755859</ele>
        <time>2019-08-23T07:05:58Z</time>
      </trkpt>
      <trkpt lat="42.93582" lon="0.29164">
        <ele>1121.5999755859</ele>
        <time>2019-08-23T07:06:07Z</time>
      </trkpt>
      <trkpt lat="42.93579" lon="0.29161">
        <ele>1122</ele>
        <time>2019-08-23T07:06:08Z</time>
      </trkpt>
      <trkpt lat="42.93577" lon="0.29158">
        <ele>1122.4000244141</ele>
        <time>2019-08-23T07:06:09Z</time>
      </trkpt>
      <trkpt lat="42.93574" lon="0.29155">
        <ele>1122.8000488281</ele>
        <time>2019-08-23T07:06:10Z</time>
      </trkpt>
      <trkpt lat="42.93571" lon="0.29152">
        <ele>1123.1999511719</ele>
        <time>2019-08-23T07:06:11Z</time>
      </trkpt>
      <trkpt lat="42.93567" lon="0.29149">
        <ele>1123.5999755859</ele>
        <time>2019-08-23T07:06:12Z</time>
      </trkpt>
      <trkpt lat="42.93564" lon="0.29146">
        <ele>1123.5999755859</ele>
        <time>2019-08-23T07:06:13Z</time>
      </trkpt>
      <trkpt lat="42.93538" lon="0.29125">
        <ele>1123.5999755859</ele>
        <time>2019-08-23T07:06:21Z</time>
      </trkpt>
      <trkpt lat="42.93518" lon="0.29112">
        <ele>1124.1999511719</ele>
        <time>2019-08-23T07:06:27Z</time>
      </trkpt>
      <trkpt lat="42.93514" lon="0.29112">
        <ele>1124.5999755859</ele>
        <time>2019-08-23T07:06:28Z</time>
      </trkpt>
      <trkpt lat="42.93511" lon="0.29113">
        <ele>1125</ele>
        <time>2019-08-23T07:06:29Z</time>
      </trkpt>
      <trkpt lat="42.93507" lon="0.29114">
        <ele>1125.4000244141</ele>
        <time>2019-08-23T07:06:30Z</time>
      </trkpt>
      <trkpt lat="42.93503" lon="0.29115">
        <ele>1125.8000488281</ele>
        <time>2019-08-23T07:06:31Z</time>
      </trkpt>
      <trkpt lat="42.93475" lon="0.29128">
        <ele>1125.8000488281</ele>
        <time>2019-08-23T07:06:39Z</time>
      </trkpt>
      <trkpt lat="42.93456" lon="0.29138">
        <ele>1126.4000244141</ele>
        <time>2019-08-23T07:06:45Z</time>
      </trkpt>
      <trkpt lat="42.93453" lon="0.2914">
        <ele>1126.8000488281</ele>
        <time>2019-08-23T07:06:46Z</time>
      </trkpt>
      <trkpt lat="42.93449" lon="0.29142">
        <ele>1127.1999511719</ele>
        <time>2019-08-23T07:06:47Z</time>
      </trkpt>
      <trkpt lat="42.93446" lon="0.29144">
        <ele>1127.5999755859</ele>
        <time>2019-08-23T07:06:48Z</time>
      </trkpt>
      <trkpt lat="42.93443" lon="0.29146">
        <ele>1128.1999511719</ele>
        <time>2019-08-23T07:06:49Z</time>
      </trkpt>
      <trkpt lat="42.93427" lon="0.29158">
        <ele>1128.1999511719</ele>
        <time>2019-08-23T07:06:54Z</time>
      </trkpt>
      <trkpt lat="42.9342" lon="0.29162">
        <ele>1128.1999511719</ele>
        <time>2019-08-23T07:06:56Z</time>
      </trkpt>
      <trkpt lat="42.93411" lon="0.29169">
        <ele>1128.5999755859</ele>
        <time>2019-08-23T07:06:59Z</time>
      </trkpt>
      <trkpt lat="42.93408" lon="0.29171">
        <ele>1129</ele>
        <time>2019-08-23T07:07:00Z</time>
      </trkpt>
      <trkpt lat="42.93405" lon="0.29174">
        <ele>1129.4000244141</ele>
        <time>2019-08-23T07:07:01Z</time>
      </trkpt>
      <trkpt lat="42.93402" lon="0.29176">
        <ele>1129.8000488281</ele>
        <time>2019-08-23T07:07:02Z</time>
      </trkpt>
      <trkpt lat="42.93399" lon="0.29179">
        <ele>1130.1999511719</ele>
        <time>2019-08-23T07:07:03Z</time>
      </trkpt>
      <trkpt lat="42.93378" lon="0.29193">
        <ele>1130.1999511719</ele>
        <time>2019-08-23T07:07:10Z</time>
      </trkpt>
      <trkpt lat="42.93376" lon="0.29195">
        <ele>1130.5999755859</ele>
        <time>2019-08-23T07:07:11Z</time>
      </trkpt>
      <trkpt lat="42.93373" lon="0.29197">
        <ele>1131.1999511719</ele>
        <time>2019-08-23T07:07:12Z</time>
      </trkpt>
      <trkpt lat="42.93371" lon="0.292">
        <ele>1131.5999755859</ele>
        <time>2019-08-23T07:07:13Z</time>
      </trkpt>
      <trkpt lat="42.93368" lon="0.29202">
        <ele>1132</ele>
        <time>2019-08-23T07:07:14Z</time>
      </trkpt>
      <trkpt lat="42.93365" lon="0.29203">
        <ele>1132.4000244141</ele>
        <time>2019-08-23T07:07:15Z</time>
      </trkpt>
      <trkpt lat="42.93359" lon="0.29208">
        <ele>1132.4000244141</ele>
        <time>2019-08-23T07:07:17Z</time>
      </trkpt>
      <trkpt lat="42.93343" lon="0.29223">
        <ele>1132.8000488281</ele>
        <time>2019-08-23T07:07:23Z</time>
      </trkpt>
      <trkpt lat="42.9334" lon="0.29226">
        <ele>1133.1999511719</ele>
        <time>2019-08-23T07:07:24Z</time>
      </trkpt>
      <trkpt lat="42.93338" lon="0.29229">
        <ele>1133.5999755859</ele>
        <time>2019-08-23T07:07:25Z</time>
      </trkpt>
      <trkpt lat="42.93336" lon="0.29232">
        <ele>1134</ele>
        <time>2019-08-23T07:07:26Z</time>
      </trkpt>
      <trkpt lat="42.93334" lon="0.29235">
        <ele>1134.4000244141</ele>
        <time>2019-08-23T07:07:27Z</time>
      </trkpt>
      <trkpt lat="42.93324" lon="0.2925">
        <ele>1134.4000244141</ele>
        <time>2019-08-23T07:07:32Z</time>
      </trkpt>
      <trkpt lat="42.93319" lon="0.2926">
        <ele>1134.8000488281</ele>
        <time>2019-08-23T07:07:35Z</time>
      </trkpt>
      <trkpt lat="42.93317" lon="0.29262">
        <ele>1135.4000244141</ele>
        <time>2019-08-23T07:07:36Z</time>
      </trkpt>
      <trkpt lat="42.93315" lon="0.29265">
        <ele>1135.8000488281</ele>
        <time>2019-08-23T07:07:37Z</time>
      </trkpt>
      <trkpt lat="42.93312" lon="0.29268">
        <ele>1136.1999511719</ele>
        <time>2019-08-23T07:07:38Z</time>
      </trkpt>
      <trkpt lat="42.9331" lon="0.2927">
        <ele>1136.5999755859</ele>
        <time>2019-08-23T07:07:39Z</time>
      </trkpt>
      <trkpt lat="42.93308" lon="0.29273">
        <ele>1136.5999755859</ele>
        <time>2019-08-23T07:07:40Z</time>
      </trkpt>
      <trkpt lat="42.93302" lon="0.29281">
        <ele>1137</ele>
        <time>2019-08-23T07:07:43Z</time>
      </trkpt>
      <trkpt lat="42.933" lon="0.29283">
        <ele>1137.4000244141</ele>
        <time>2019-08-23T07:07:44Z</time>
      </trkpt>
      <trkpt lat="42.93298" lon="0.29285">
        <ele>1137.8000488281</ele>
        <time>2019-08-23T07:07:45Z</time>
      </trkpt>
      <trkpt lat="42.93296" lon="0.29288">
        <ele>1138.1999511719</ele>
        <time>2019-08-23T07:07:46Z</time>
      </trkpt>
      <trkpt lat="42.93294" lon="0.2929">
        <ele>1138.8000488281</ele>
        <time>2019-08-23T07:07:47Z</time>
      </trkpt>
      <trkpt lat="42.93281" lon="0.29301">
        <ele>1138.8000488281</ele>
        <time>2019-08-23T07:07:52Z</time>
      </trkpt>
      <trkpt lat="42.93262" lon="0.29317">
        <ele>1139.1999511719</ele>
        <time>2019-08-23T07:07:59Z</time>
      </trkpt>
      <trkpt lat="42.93259" lon="0.2932">
        <ele>1139.5999755859</ele>
        <time>2019-08-23T07:08:00Z</time>
      </trkpt>
      <trkpt lat="42.93257" lon="0.29322">
        <ele>1140</ele>
        <time>2019-08-23T07:08:01Z</time>
      </trkpt>
      <trkpt lat="42.93253" lon="0.29324">
        <ele>1140.4000244141</ele>
        <time>2019-08-23T07:08:02Z</time>
      </trkpt>
      <trkpt lat="42.9325" lon="0.29326">
        <ele>1140.8000488281</ele>
        <time>2019-08-23T07:08:03Z</time>
      </trkpt>
      <trkpt lat="42.93244" lon="0.29329">
        <ele>1140.8000488281</ele>
        <time>2019-08-23T07:08:05Z</time>
      </trkpt>
      <trkpt lat="42.93218" lon="0.29348">
        <ele>1140.8000488281</ele>
        <time>2019-08-23T07:08:14Z</time>
      </trkpt>
      <trkpt lat="42.93213" lon="0.29353">
        <ele>1141.1999511719</ele>
        <time>2019-08-23T07:08:16Z</time>
      </trkpt>
      <trkpt lat="42.93211" lon="0.29355">
        <ele>1141.5999755859</ele>
        <time>2019-08-23T07:08:17Z</time>
      </trkpt>
      <trkpt lat="42.93208" lon="0.29357">
        <ele>1142</ele>
        <time>2019-08-23T07:08:18Z</time>
      </trkpt>
      <trkpt lat="42.93206" lon="0.29358">
        <ele>1142.4000244141</ele>
        <time>2019-08-23T07:08:19Z</time>
      </trkpt>
      <trkpt lat="42.93203" lon="0.2936">
        <ele>1142.8000488281</ele>
        <time>2019-08-23T07:08:20Z</time>
      </trkpt>
      <trkpt lat="42.93199" lon="0.29363">
        <ele>1142.8000488281</ele>
        <time>2019-08-23T07:08:22Z</time>
      </trkpt>
      <trkpt lat="42.93189" lon="0.29367">
        <ele>1143.4000244141</ele>
        <time>2019-08-23T07:08:26Z</time>
      </trkpt>
      <trkpt lat="42.93187" lon="0.29368">
        <ele>1143.8000488281</ele>
        <time>2019-08-23T07:08:27Z</time>
      </trkpt>
      <trkpt lat="42.93185" lon="0.29369">
        <ele>1144.1999511719</ele>
        <time>2019-08-23T07:08:28Z</time>
      </trkpt>
      <trkpt lat="42.93182" lon="0.2937">
        <ele>1144.5999755859</ele>
        <time>2019-08-23T07:08:29Z</time>
      </trkpt>
      <trkpt lat="42.9318" lon="0.2937">
        <ele>1145</ele>
        <time>2019-08-23T07:08:30Z</time>
      </trkpt>
      <trkpt lat="42.9317" lon="0.29374">
        <ele>1145</ele>
        <time>2019-08-23T07:08:34Z</time>
      </trkpt>
      <trkpt lat="42.93166" lon="0.29376">
        <ele>1145.4000244141</ele>
        <time>2019-08-23T07:08:36Z</time>
      </trkpt>
      <trkpt lat="42.93164" lon="0.29377">
        <ele>1145.8000488281</ele>
        <time>2019-08-23T07:08:37Z</time>
      </trkpt>
      <trkpt lat="42.93162" lon="0.29378">
        <ele>1146.1999511719</ele>
        <time>2019-08-23T07:08:38Z</time>
      </trkpt>
      <trkpt lat="42.9316" lon="0.29378">
        <ele>1146.8000488281</ele>
        <time>2019-08-23T07:08:39Z</time>
      </trkpt>
      <trkpt lat="42.93158" lon="0.29378">
        <ele>1147.1999511719</ele>
        <time>2019-08-23T07:08:40Z</time>
      </trkpt>
      <trkpt lat="42.93146" lon="0.29379">
        <ele>1147.5999755859</ele>
        <time>2019-08-23T07:08:45Z</time>
      </trkpt>
      <trkpt lat="42.93144" lon="0.2938">
        <ele>1148</ele>
        <time>2019-08-23T07:08:46Z</time>
      </trkpt>
      <trkpt lat="42.93142" lon="0.2938">
        <ele>1148.4000244141</ele>
        <time>2019-08-23T07:08:47Z</time>
      </trkpt>
      <trkpt lat="42.93141" lon="0.2938">
        <ele>1148.8000488281</ele>
        <time>2019-08-23T07:08:48Z</time>
      </trkpt>
      <trkpt lat="42.93139" lon="0.2938">
        <ele>1149.4000244141</ele>
        <time>2019-08-23T07:08:49Z</time>
      </trkpt>
      <trkpt lat="42.93129" lon="0.2938">
        <ele>1149.4000244141</ele>
        <time>2019-08-23T07:08:53Z</time>
      </trkpt>
      <trkpt lat="42.93127" lon="0.2938">
        <ele>1149.4000244141</ele>
        <time>2019-08-23T07:08:54Z</time>
      </trkpt>
      <trkpt lat="42.93124" lon="0.2938">
        <ele>1150.1999511719</ele>
        <time>2019-08-23T07:08:55Z</time>
      </trkpt>
      <trkpt lat="42.93122" lon="0.2938">
        <ele>1150.5999755859</ele>
        <time>2019-08-23T07:08:56Z</time>
      </trkpt>
      <trkpt lat="42.9312" lon="0.2938">
        <ele>1151</ele>
        <time>2019-08-23T07:08:57Z</time>
      </trkpt>
      <trkpt lat="42.93118" lon="0.2938">
        <ele>1151.4000244141</ele>
        <time>2019-08-23T07:08:58Z</time>
      </trkpt>
      <trkpt lat="42.93116" lon="0.29379">
        <ele>1151.4000244141</ele>
        <time>2019-08-23T07:08:59Z</time>
      </trkpt>
      <trkpt lat="42.93098" lon="0.29381">
        <ele>1151.8000488281</ele>
        <time>2019-08-23T07:09:06Z</time>
      </trkpt>
      <trkpt lat="42.93096" lon="0.29381">
        <ele>1152.1999511719</ele>
        <time>2019-08-23T07:09:07Z</time>
      </trkpt>
      <trkpt lat="42.93094" lon="0.29381">
        <ele>1152.5999755859</ele>
        <time>2019-08-23T07:09:08Z</time>
      </trkpt>
      <trkpt lat="42.93091" lon="0.29381">
        <ele>1153</ele>
        <time>2019-08-23T07:09:09Z</time>
      </trkpt>
      <trkpt lat="42.93089" lon="0.29382">
        <ele>1153.4000244141</ele>
        <time>2019-08-23T07:09:10Z</time>
      </trkpt>
      <trkpt lat="42.93078" lon="0.29382">
        <ele>1153.4000244141</ele>
        <time>2019-08-23T07:09:14Z</time>
      </trkpt>
      <trkpt lat="42.93065" lon="0.29383">
        <ele>1153.8000488281</ele>
        <time>2019-08-23T07:09:19Z</time>
      </trkpt>
      <trkpt lat="42.93062" lon="0.29384">
        <ele>1154.5999755859</ele>
        <time>2019-08-23T07:09:20Z</time>
      </trkpt>
      <trkpt lat="42.9306" lon="0.29384">
        <ele>1155</ele>
        <time>2019-08-23T07:09:21Z</time>
      </trkpt>
      <trkpt lat="42.93057" lon="0.29384">
        <ele>1155.4000244141</ele>
        <time>2019-08-23T07:09:22Z</time>
      </trkpt>
      <trkpt lat="42.93049" lon="0.29384">
        <ele>1155.4000244141</ele>
        <time>2019-08-23T07:09:25Z</time>
      </trkpt>
      <trkpt lat="42.9303" lon="0.29385">
        <ele>1155.4000244141</ele>
        <time>2019-08-23T07:09:33Z</time>
      </trkpt>
      <trkpt lat="42.93025" lon="0.29385">
        <ele>1155.8000488281</ele>
        <time>2019-08-23T07:09:35Z</time>
      </trkpt>
      <trkpt lat="42.93023" lon="0.29385">
        <ele>1156.4000244141</ele>
        <time>2019-08-23T07:09:36Z</time>
      </trkpt>
      <trkpt lat="42.93021" lon="0.29384">
        <ele>1156.8000488281</ele>
        <time>2019-08-23T07:09:37Z</time>
      </trkpt>
      <trkpt lat="42.93018" lon="0.29383">
        <ele>1157.1999511719</ele>
        <time>2019-08-23T07:09:38Z</time>
      </trkpt>
      <trkpt lat="42.93016" lon="0.29383">
        <ele>1157.5999755859</ele>
        <time>2019-08-23T07:09:39Z</time>
      </trkpt>
      <trkpt lat="42.93013" lon="0.29382">
        <ele>1157.5999755859</ele>
        <time>2019-08-23T07:09:40Z</time>
      </trkpt>
      <trkpt lat="42.92995" lon="0.29379">
        <ele>1158</ele>
        <time>2019-08-23T07:09:47Z</time>
      </trkpt>
      <trkpt lat="42.92992" lon="0.29379">
        <ele>1158.4000244141</ele>
        <time>2019-08-23T07:09:48Z</time>
      </trkpt>
      <trkpt lat="42.9299" lon="0.29379">
        <ele>1158.8000488281</ele>
        <time>2019-08-23T07:09:49Z</time>
      </trkpt>
      <trkpt lat="42.92988" lon="0.29379">
        <ele>1159.1999511719</ele>
        <time>2019-08-23T07:09:50Z</time>
      </trkpt>
      <trkpt lat="42.92985" lon="0.29378">
        <ele>1159.5999755859</ele>
        <time>2019-08-23T07:09:51Z</time>
      </trkpt>
      <trkpt lat="42.92975" lon="0.29377">
        <ele>1159.5999755859</ele>
        <time>2019-08-23T07:09:55Z</time>
      </trkpt>
      <trkpt lat="42.92961" lon="0.29377">
        <ele>1160</ele>
        <time>2019-08-23T07:10:01Z</time>
      </trkpt>
      <trkpt lat="42.92959" lon="0.29376">
        <ele>1160.5999755859</ele>
        <time>2019-08-23T07:10:02Z</time>
      </trkpt>
      <trkpt lat="42.92957" lon="0.29376">
        <ele>1161</ele>
        <time>2019-08-23T07:10:03Z</time>
      </trkpt>
      <trkpt lat="42.92955" lon="0.29376">
        <ele>1161.4000244141</ele>
        <time>2019-08-23T07:10:04Z</time>
      </trkpt>
      <trkpt lat="42.92953" lon="0.29376">
        <ele>1161.8000488281</ele>
        <time>2019-08-23T07:10:05Z</time>
      </trkpt>
      <trkpt lat="42.92949" lon="0.29376">
        <ele>1161.8000488281</ele>
        <time>2019-08-23T07:10:07Z</time>
      </trkpt>
      <trkpt lat="42.92933" lon="0.29372">
        <ele>1162.1999511719</ele>
        <time>2019-08-23T07:10:14Z</time>
      </trkpt>
      <trkpt lat="42.92931" lon="0.29372">
        <ele>1162.5999755859</ele>
        <time>2019-08-23T07:10:15Z</time>
      </trkpt>
      <trkpt lat="42.92928" lon="0.29371">
        <ele>1163</ele>
        <time>2019-08-23T07:10:16Z</time>
      </trkpt>
      <trkpt lat="42.92926" lon="0.29371">
        <ele>1163.4000244141</ele>
        <time>2019-08-23T07:10:17Z</time>
      </trkpt>
      <trkpt lat="42.92924" lon="0.29371">
        <ele>1163.8000488281</ele>
        <time>2019-08-23T07:10:18Z</time>
      </trkpt>
      <trkpt lat="42.92916" lon="0.29369">
        <ele>1163.8000488281</ele>
        <time>2019-08-23T07:10:22Z</time>
      </trkpt>
      <trkpt lat="42.92905" lon="0.29367">
        <ele>1164.4000244141</ele>
        <time>2019-08-23T07:10:27Z</time>
      </trkpt>
      <trkpt lat="42.92902" lon="0.29367">
        <ele>1164.8000488281</ele>
        <time>2019-08-23T07:10:28Z</time>
      </trkpt>
      <trkpt lat="42.929" lon="0.29366">
        <ele>1165.1999511719</ele>
        <time>2019-08-23T07:10:29Z</time>
      </trkpt>
      <trkpt lat="42.92898" lon="0.29366">
        <ele>1165.5999755859</ele>
        <time>2019-08-23T07:10:30Z</time>
      </trkpt>
      <trkpt lat="42.92896" lon="0.29365">
        <ele>1166</ele>
        <time>2019-08-23T07:10:31Z</time>
      </trkpt>
      <trkpt lat="42.92885" lon="0.29363">
        <ele>1166.4000244141</ele>
        <time>2019-08-23T07:10:36Z</time>
      </trkpt>
      <trkpt lat="42.92883" lon="0.29363">
        <ele>1166.8000488281</ele>
        <time>2019-08-23T07:10:37Z</time>
      </trkpt>
      <trkpt lat="42.9288" lon="0.29363">
        <ele>1167.1999511719</ele>
        <time>2019-08-23T07:10:38Z</time>
      </trkpt>
      <trkpt lat="42.92878" lon="0.29363">
        <ele>1167.5999755859</ele>
        <time>2019-08-23T07:10:39Z</time>
      </trkpt>
      <trkpt lat="42.92876" lon="0.29363">
        <ele>1168</ele>
        <time>2019-08-23T07:10:40Z</time>
      </trkpt>
      <trkpt lat="42.92868" lon="0.29359">
        <ele>1168</ele>
        <time>2019-08-23T07:10:44Z</time>
      </trkpt>
      <trkpt lat="42.92857" lon="0.29357">
        <ele>1168.5999755859</ele>
        <time>2019-08-23T07:10:49Z</time>
      </trkpt>
      <trkpt lat="42.92855" lon="0.29358">
        <ele>1169</ele>
        <time>2019-08-23T07:10:50Z</time>
      </trkpt>
      <trkpt lat="42.92853" lon="0.29359">
        <ele>1169.4000244141</ele>
        <time>2019-08-23T07:10:51Z</time>
      </trkpt>
      <trkpt lat="42.9285" lon="0.29359">
        <ele>1169.8000488281</ele>
        <time>2019-08-23T07:10:52Z</time>
      </trkpt>
      <trkpt lat="42.92848" lon="0.29358">
        <ele>1170.1999511719</ele>
        <time>2019-08-23T07:10:53Z</time>
      </trkpt>
      <trkpt lat="42.92846" lon="0.29358">
        <ele>1170.1999511719</ele>
        <time>2019-08-23T07:10:54Z</time>
      </trkpt>
      <trkpt lat="42.92839" lon="0.29359">
        <ele>1170.8000488281</ele>
        <time>2019-08-23T07:10:58Z</time>
      </trkpt>
      <trkpt lat="42.92836" lon="0.29359">
        <ele>1171.5999755859</ele>
        <time>2019-08-23T07:10:59Z</time>
      </trkpt>
      <trkpt lat="42.92834" lon="0.2936">
        <ele>1172</ele>
        <time>2019-08-23T07:11:00Z</time>
      </trkpt>
      <trkpt lat="42.92832" lon="0.2936">
        <ele>1172.4000244141</ele>
        <time>2019-08-23T07:11:01Z</time>
      </trkpt>
      <trkpt lat="42.92823" lon="0.29359">
        <ele>1172.8000488281</ele>
        <time>2019-08-23T07:11:06Z</time>
      </trkpt>
      <trkpt lat="42.92821" lon="0.2936">
        <ele>1173.1999511719</ele>
        <time>2019-08-23T07:11:07Z</time>
      </trkpt>
      <trkpt lat="42.92819" lon="0.2936">
        <ele>1173.5999755859</ele>
        <time>2019-08-23T07:11:08Z</time>
      </trkpt>
      <trkpt lat="42.92817" lon="0.2936">
        <ele>1174.1999511719</ele>
        <time>2019-08-23T07:11:09Z</time>
      </trkpt>
      <trkpt lat="42.92816" lon="0.2936">
        <ele>1174.5999755859</ele>
        <time>2019-08-23T07:11:10Z</time>
      </trkpt>
      <trkpt lat="42.92807" lon="0.29362">
        <ele>1175</ele>
        <time>2019-08-23T07:11:16Z</time>
      </trkpt>
      <trkpt lat="42.92805" lon="0.29363">
        <ele>1175.4000244141</ele>
        <time>2019-08-23T07:11:17Z</time>
      </trkpt>
      <trkpt lat="42.92804" lon="0.29363">
        <ele>1175.8000488281</ele>
        <time>2019-08-23T07:11:18Z</time>
      </trkpt>
      <trkpt lat="42.92802" lon="0.29363">
        <ele>1176.4000244141</ele>
        <time>2019-08-23T07:11:19Z</time>
      </trkpt>
      <trkpt lat="42.928" lon="0.29363">
        <ele>1176.8000488281</ele>
        <time>2019-08-23T07:11:20Z</time>
      </trkpt>
      <trkpt lat="42.92794" lon="0.29362">
        <ele>1176.8000488281</ele>
        <time>2019-08-23T07:11:23Z</time>
      </trkpt>
      <trkpt lat="42.92788" lon="0.29361">
        <ele>1177.1999511719</ele>
        <time>2019-08-23T07:11:26Z</time>
      </trkpt>
      <trkpt lat="42.92787" lon="0.29361">
        <ele>1177.5999755859</ele>
        <time>2019-08-23T07:11:27Z</time>
      </trkpt>
      <trkpt lat="42.92785" lon="0.2936">
        <ele>1178</ele>
        <time>2019-08-23T07:11:28Z</time>
      </trkpt>
      <trkpt lat="42.92783" lon="0.2936">
        <ele>1178.4000244141</ele>
        <time>2019-08-23T07:11:29Z</time>
      </trkpt>
      <trkpt lat="42.92781" lon="0.2936">
        <ele>1178.8000488281</ele>
        <time>2019-08-23T07:11:30Z</time>
      </trkpt>
      <trkpt lat="42.92769" lon="0.29358">
        <ele>1179.1999511719</ele>
        <time>2019-08-23T07:11:37Z</time>
      </trkpt>
      <trkpt lat="42.92767" lon="0.29358">
        <ele>1179.5999755859</ele>
        <time>2019-08-23T07:11:38Z</time>
      </trkpt>
      <trkpt lat="42.92765" lon="0.29357">
        <ele>1180.1999511719</ele>
        <time>2019-08-23T07:11:39Z</time>
      </trkpt>
      <trkpt lat="42.92763" lon="0.29356">
        <ele>1180.5999755859</ele>
        <time>2019-08-23T07:11:40Z</time>
      </trkpt>
      <trkpt lat="42.92762" lon="0.29355">
        <ele>1181</ele>
        <time>2019-08-23T07:11:41Z</time>
      </trkpt>
      <trkpt lat="42.92756" lon="0.29355">
        <ele>1181</ele>
        <time>2019-08-23T07:11:44Z</time>
      </trkpt>
      <trkpt lat="42.92745" lon="0.29351">
        <ele>1181.4000244141</ele>
        <time>2019-08-23T07:11:50Z</time>
      </trkpt>
      <trkpt lat="42.92743" lon="0.2935">
        <ele>1181.8000488281</ele>
        <time>2019-08-23T07:11:51Z</time>
      </trkpt>
      <trkpt lat="42.92742" lon="0.29349">
        <ele>1182.1999511719</ele>
        <time>2019-08-23T07:11:52Z</time>
      </trkpt>
      <trkpt lat="42.9274" lon="0.29348">
        <ele>1182.5999755859</ele>
        <time>2019-08-23T07:11:53Z</time>
      </trkpt>
      <trkpt lat="42.92738" lon="0.29347">
        <ele>1183</ele>
        <time>2019-08-23T07:11:54Z</time>
      </trkpt>
      <trkpt lat="42.92732" lon="0.29346">
        <ele>1183</ele>
        <time>2019-08-23T07:11:57Z</time>
      </trkpt>
      <trkpt lat="42.92717" lon="0.29342">
        <ele>1183</ele>
        <time>2019-08-23T07:12:04Z</time>
      </trkpt>
      <trkpt lat="42.92713" lon="0.2934">
        <ele>1183.4000244141</ele>
        <time>2019-08-23T07:12:06Z</time>
      </trkpt>
      <trkpt lat="42.92711" lon="0.2934">
        <ele>1183.8000488281</ele>
        <time>2019-08-23T07:12:07Z</time>
      </trkpt>
      <trkpt lat="42.92709" lon="0.29339">
        <ele>1184.1999511719</ele>
        <time>2019-08-23T07:12:08Z</time>
      </trkpt>
      <trkpt lat="42.92706" lon="0.29339">
        <ele>1184.5999755859</ele>
        <time>2019-08-23T07:12:09Z</time>
      </trkpt>
      <trkpt lat="42.92704" lon="0.29338">
        <ele>1185</ele>
        <time>2019-08-23T07:12:10Z</time>
      </trkpt>
      <trkpt lat="42.92703" lon="0.29338">
        <ele>1185</ele>
        <time>2019-08-23T07:12:11Z</time>
      </trkpt>
      <trkpt lat="42.9269" lon="0.29335">
        <ele>1185</ele>
        <time>2019-08-23T07:12:17Z</time>
      </trkpt>
      <trkpt lat="42.92683" lon="0.29334">
        <ele>1185.4000244141</ele>
        <time>2019-08-23T07:12:21Z</time>
      </trkpt>
      <trkpt lat="42.92681" lon="0.29333">
        <ele>1185.8000488281</ele>
        <time>2019-08-23T07:12:22Z</time>
      </trkpt>
      <trkpt lat="42.92679" lon="0.29332">
        <ele>1186.1999511719</ele>
        <time>2019-08-23T07:12:23Z</time>
      </trkpt>
      <trkpt lat="42.92677" lon="0.29332">
        <ele>1186.5999755859</ele>
        <time>2019-08-23T07:12:24Z</time>
      </trkpt>
      <trkpt lat="42.92675" lon="0.29331">
        <ele>1187</ele>
        <time>2019-08-23T07:12:25Z</time>
      </trkpt>
      <trkpt lat="42.92665" lon="0.29328">
        <ele>1187</ele>
        <time>2019-08-23T07:12:30Z</time>
      </trkpt>
      <trkpt lat="42.92658" lon="0.29326">
        <ele>1187.4000244141</ele>
        <time>2019-08-23T07:12:34Z</time>
      </trkpt>
      <trkpt lat="42.92656" lon="0.29325">
        <ele>1188</ele>
        <time>2019-08-23T07:12:35Z</time>
      </trkpt>
      <trkpt lat="42.92654" lon="0.29324">
        <ele>1188.4000244141</ele>
        <time>2019-08-23T07:12:36Z</time>
      </trkpt>
      <trkpt lat="42.92652" lon="0.29323">
        <ele>1189.1999511719</ele>
        <time>2019-08-23T07:12:37Z</time>
      </trkpt>
      <trkpt lat="42.92638" lon="0.2932">
        <ele>1189.5999755859</ele>
        <time>2019-08-23T07:12:44Z</time>
      </trkpt>
      <trkpt lat="42.92637" lon="0.29319">
        <ele>1190</ele>
        <time>2019-08-23T07:12:45Z</time>
      </trkpt>
      <trkpt lat="42.92635" lon="0.29319">
        <ele>1190.4000244141</ele>
        <time>2019-08-23T07:12:46Z</time>
      </trkpt>
      <trkpt lat="42.92634" lon="0.29318">
        <ele>1191</ele>
        <time>2019-08-23T07:12:47Z</time>
      </trkpt>
      <trkpt lat="42.92632" lon="0.29317">
        <ele>1191.4000244141</ele>
        <time>2019-08-23T07:12:48Z</time>
      </trkpt>
      <trkpt lat="42.92629" lon="0.29317">
        <ele>1191.4000244141</ele>
        <time>2019-08-23T07:12:50Z</time>
      </trkpt>
      <trkpt lat="42.92619" lon="0.29316">
        <ele>1191.8000488281</ele>
        <time>2019-08-23T07:12:55Z</time>
      </trkpt>
      <trkpt lat="42.92617" lon="0.29315">
        <ele>1192.1999511719</ele>
        <time>2019-08-23T07:12:56Z</time>
      </trkpt>
      <trkpt lat="42.92616" lon="0.29314">
        <ele>1192.5999755859</ele>
        <time>2019-08-23T07:12:57Z</time>
      </trkpt>
      <trkpt lat="42.92614" lon="0.29314">
        <ele>1193</ele>
        <time>2019-08-23T07:12:58Z</time>
      </trkpt>
      <trkpt lat="42.92612" lon="0.29313">
        <ele>1193.4000244141</ele>
        <time>2019-08-23T07:12:59Z</time>
      </trkpt>
      <trkpt lat="42.92601" lon="0.29308">
        <ele>1193.4000244141</ele>
        <time>2019-08-23T07:13:04Z</time>
      </trkpt>
      <trkpt lat="42.92595" lon="0.29303">
        <ele>1193.8000488281</ele>
        <time>2019-08-23T07:13:07Z</time>
      </trkpt>
      <trkpt lat="42.92593" lon="0.29302">
        <ele>1194.4000244141</ele>
        <time>2019-08-23T07:13:08Z</time>
      </trkpt>
      <trkpt lat="42.92591" lon="0.29301">
        <ele>1194.8000488281</ele>
        <time>2019-08-23T07:13:09Z</time>
      </trkpt>
      <trkpt lat="42.9259" lon="0.293">
        <ele>1195.1999511719</ele>
        <time>2019-08-23T07:13:10Z</time>
      </trkpt>
      <trkpt lat="42.92588" lon="0.29299">
        <ele>1195.5999755859</ele>
        <time>2019-08-23T07:13:11Z</time>
      </trkpt>
      <trkpt lat="42.92586" lon="0.29298">
        <ele>1195.5999755859</ele>
        <time>2019-08-23T07:13:12Z</time>
      </trkpt>
      <trkpt lat="42.92572" lon="0.29293">
        <ele>1196</ele>
        <time>2019-08-23T07:13:19Z</time>
      </trkpt>
      <trkpt lat="42.9257" lon="0.29292">
        <ele>1196.4000244141</ele>
        <time>2019-08-23T07:13:20Z</time>
      </trkpt>
      <trkpt lat="42.92569" lon="0.29291">
        <ele>1196.8000488281</ele>
        <time>2019-08-23T07:13:21Z</time>
      </trkpt>
      <trkpt lat="42.92567" lon="0.29291">
        <ele>1197.1999511719</ele>
        <time>2019-08-23T07:13:22Z</time>
      </trkpt>
      <trkpt lat="42.92566" lon="0.2929">
        <ele>1197.5999755859</ele>
        <time>2019-08-23T07:13:23Z</time>
      </trkpt>
      <trkpt lat="42.9256" lon="0.29288">
        <ele>1197.5999755859</ele>
        <time>2019-08-23T07:13:26Z</time>
      </trkpt>
      <trkpt lat="42.92551" lon="0.29284">
        <ele>1198</ele>
        <time>2019-08-23T07:13:31Z</time>
      </trkpt>
      <trkpt lat="42.92549" lon="0.29284">
        <ele>1198.5999755859</ele>
        <time>2019-08-23T07:13:32Z</time>
      </trkpt>
      <trkpt lat="42.92547" lon="0.29283">
        <ele>1199</ele>
        <time>2019-08-23T07:13:33Z</time>
      </trkpt>
      <trkpt lat="42.92545" lon="0.29283">
        <ele>1199.4000244141</ele>
        <time>2019-08-23T07:13:34Z</time>
      </trkpt>
      <trkpt lat="42.92544" lon="0.29283">
        <ele>1199.8000488281</ele>
        <time>2019-08-23T07:13:35Z</time>
      </trkpt>
      <trkpt lat="42.92533" lon="0.29282">
        <ele>1199.8000488281</ele>
        <time>2019-08-23T07:13:41Z</time>
      </trkpt>
      <trkpt lat="42.92529" lon="0.29283">
        <ele>1200.1999511719</ele>
        <time>2019-08-23T07:13:44Z</time>
      </trkpt>
      <trkpt lat="42.92527" lon="0.29284">
        <ele>1200.5999755859</ele>
        <time>2019-08-23T07:13:45Z</time>
      </trkpt>
      <trkpt lat="42.92526" lon="0.29284">
        <ele>1201</ele>
        <time>2019-08-23T07:13:46Z</time>
      </trkpt>
      <trkpt lat="42.92524" lon="0.29284">
        <ele>1201.4000244141</ele>
        <time>2019-08-23T07:13:47Z</time>
      </trkpt>
      <trkpt lat="42.92522" lon="0.29284">
        <ele>1202</ele>
        <time>2019-08-23T07:13:48Z</time>
      </trkpt>
      <trkpt lat="42.92513" lon="0.29285">
        <ele>1202</ele>
        <time>2019-08-23T07:13:53Z</time>
      </trkpt>
      <trkpt lat="42.92505" lon="0.29285">
        <ele>1202</ele>
        <time>2019-08-23T07:13:57Z</time>
      </trkpt>
      <trkpt lat="42.92503" lon="0.29284">
        <ele>1202.4000244141</ele>
        <time>2019-08-23T07:13:58Z</time>
      </trkpt>
      <trkpt lat="42.92501" lon="0.29285">
        <ele>1202.8000488281</ele>
        <time>2019-08-23T07:13:59Z</time>
      </trkpt>
      <trkpt lat="42.92499" lon="0.29285">
        <ele>1203.1999511719</ele>
        <time>2019-08-23T07:14:00Z</time>
      </trkpt>
      <trkpt lat="42.92497" lon="0.29285">
        <ele>1203.5999755859</ele>
        <time>2019-08-23T07:14:01Z</time>
      </trkpt>
      <trkpt lat="42.92495" lon="0.29284">
        <ele>1204</ele>
        <time>2019-08-23T07:14:02Z</time>
      </trkpt>
      <trkpt lat="42.92491" lon="0.29284">
        <ele>1204</ele>
        <time>2019-08-23T07:14:05Z</time>
      </trkpt>
      <trkpt lat="42.92483" lon="0.29286">
        <ele>1204.4000244141</ele>
        <time>2019-08-23T07:14:09Z</time>
      </trkpt>
      <trkpt lat="42.92481" lon="0.29286">
        <ele>1204.8000488281</ele>
        <time>2019-08-23T07:14:10Z</time>
      </trkpt>
      <trkpt lat="42.92479" lon="0.29287">
        <ele>1205.1999511719</ele>
        <time>2019-08-23T07:14:11Z</time>
      </trkpt>
      <trkpt lat="42.92478" lon="0.29288">
        <ele>1205.5999755859</ele>
        <time>2019-08-23T07:14:12Z</time>
      </trkpt>
      <trkpt lat="42.92476" lon="0.29289">
        <ele>1206</ele>
        <time>2019-08-23T07:14:13Z</time>
      </trkpt>
      <trkpt lat="42.92468" lon="0.29292">
        <ele>1206</ele>
        <time>2019-08-23T07:14:17Z</time>
      </trkpt>
      <trkpt lat="42.92463" lon="0.29291">
        <ele>1206.4000244141</ele>
        <time>2019-08-23T07:14:20Z</time>
      </trkpt>
      <trkpt lat="42.92461" lon="0.29291">
        <ele>1206.8000488281</ele>
        <time>2019-08-23T07:14:21Z</time>
      </trkpt>
      <trkpt lat="42.92459" lon="0.29291">
        <ele>1207.1999511719</ele>
        <time>2019-08-23T07:14:22Z</time>
      </trkpt>
      <trkpt lat="42.92457" lon="0.29291">
        <ele>1207.5999755859</ele>
        <time>2019-08-23T07:14:23Z</time>
      </trkpt>
      <trkpt lat="42.92455" lon="0.29292">
        <ele>1208.1999511719</ele>
        <time>2019-08-23T07:14:24Z</time>
      </trkpt>
      <trkpt lat="42.92453" lon="0.29293">
        <ele>1208.1999511719</ele>
        <time>2019-08-23T07:14:25Z</time>
      </trkpt>
      <trkpt lat="42.92436" lon="0.29297">
        <ele>1208.1999511719</ele>
        <time>2019-08-23T07:14:33Z</time>
      </trkpt>
      <trkpt lat="42.92434" lon="0.29298">
        <ele>1208.5999755859</ele>
        <time>2019-08-23T07:14:34Z</time>
      </trkpt>
      <trkpt lat="42.92432" lon="0.29298">
        <ele>1209</ele>
        <time>2019-08-23T07:14:35Z</time>
      </trkpt>
      <trkpt lat="42.9243" lon="0.29299">
        <ele>1209.4000244141</ele>
        <time>2019-08-23T07:14:36Z</time>
      </trkpt>
      <trkpt lat="42.92428" lon="0.293">
        <ele>1209.8000488281</ele>
        <time>2019-08-23T07:14:37Z</time>
      </trkpt>
      <trkpt lat="42.92426" lon="0.293">
        <ele>1210.1999511719</ele>
        <time>2019-08-23T07:14:38Z</time>
      </trkpt>
      <trkpt lat="42.92422" lon="0.29301">
        <ele>1210.1999511719</ele>
        <time>2019-08-23T07:14:40Z</time>
      </trkpt>
      <trkpt lat="42.92412" lon="0.29305">
        <ele>1210.5999755859</ele>
        <time>2019-08-23T07:14:45Z</time>
      </trkpt>
      <trkpt lat="42.9241" lon="0.29304">
        <ele>1211</ele>
        <time>2019-08-23T07:14:46Z</time>
      </trkpt>
      <trkpt lat="42.92408" lon="0.29304">
        <ele>1211.4000244141</ele>
        <time>2019-08-23T07:14:47Z</time>
      </trkpt>
      <trkpt lat="42.92406" lon="0.29305">
        <ele>1212</ele>
        <time>2019-08-23T07:14:48Z</time>
      </trkpt>
      <trkpt lat="42.92404" lon="0.29306">
        <ele>1212.4000244141</ele>
        <time>2019-08-23T07:14:49Z</time>
      </trkpt>
      <trkpt lat="42.924" lon="0.2931">
        <ele>1212.4000244141</ele>
        <time>2019-08-23T07:14:52Z</time>
      </trkpt>
      <trkpt lat="42.92396" lon="0.29313">
        <ele>1212.4000244141</ele>
        <time>2019-08-23T07:14:54Z</time>
      </trkpt>
      <trkpt lat="42.92389" lon="0.29317">
        <ele>1212.8000488281</ele>
        <time>2019-08-23T07:14:58Z</time>
      </trkpt>
      <trkpt lat="42.92388" lon="0.29318">
        <ele>1213.1999511719</ele>
        <time>2019-08-23T07:14:59Z</time>
      </trkpt>
      <trkpt lat="42.92386" lon="0.29319">
        <ele>1213.5999755859</ele>
        <time>2019-08-23T07:15:00Z</time>
      </trkpt>
      <trkpt lat="42.92384" lon="0.2932">
        <ele>1214</ele>
        <time>2019-08-23T07:15:01Z</time>
      </trkpt>
      <trkpt lat="42.92383" lon="0.29321">
        <ele>1214.4000244141</ele>
        <time>2019-08-23T07:15:02Z</time>
      </trkpt>
      <trkpt lat="42.92378" lon="0.29323">
        <ele>1214.4000244141</ele>
        <time>2019-08-23T07:15:05Z</time>
      </trkpt>
      <trkpt lat="42.9237" lon="0.29328">
        <ele>1214.8000488281</ele>
        <time>2019-08-23T07:15:10Z</time>
      </trkpt>
      <trkpt lat="42.92369" lon="0.29329">
        <ele>1215.1999511719</ele>
        <time>2019-08-23T07:15:11Z</time>
      </trkpt>
      <trkpt lat="42.92368" lon="0.29331">
        <ele>1215.5999755859</ele>
        <time>2019-08-23T07:15:12Z</time>
      </trkpt>
      <trkpt lat="42.92365" lon="0.29331">
        <ele>1216</ele>
        <time>2019-08-23T07:15:13Z</time>
      </trkpt>
      <trkpt lat="42.92363" lon="0.29331">
        <ele>1216.4000244141</ele>
        <time>2019-08-23T07:15:14Z</time>
      </trkpt>
      <trkpt lat="42.92359" lon="0.29332">
        <ele>1216.4000244141</ele>
        <time>2019-08-23T07:15:17Z</time>
      </trkpt>
      <trkpt lat="42.92349" lon="0.29337">
        <ele>1216.4000244141</ele>
        <time>2019-08-23T07:15:23Z</time>
      </trkpt>
      <trkpt lat="42.92346" lon="0.2934">
        <ele>1216.8000488281</ele>
        <time>2019-08-23T07:15:27Z</time>
      </trkpt>
      <trkpt lat="42.92346" lon="0.2934">
        <ele>1217.1999511719</ele>
        <time>2019-08-23T07:15:28Z</time>
      </trkpt>
      <trkpt lat="42.92346" lon="0.29341">
        <ele>1217.5999755859</ele>
        <time>2019-08-23T07:15:29Z</time>
      </trkpt>
      <trkpt lat="42.92347" lon="0.29341">
        <ele>1218.4000244141</ele>
        <time>2019-08-23T07:15:30Z</time>
      </trkpt>
      <trkpt lat="42.9235" lon="0.29342">
        <ele>1218.4000244141</ele>
        <time>2019-08-23T07:15:31Z</time>
      </trkpt>
      <trkpt lat="42.92351" lon="0.29341">
        <ele>1218.4000244141</ele>
        <time>2019-08-23T07:15:32Z</time>
      </trkpt>
      <trkpt lat="42.92365" lon="0.29342">
        <ele>1218.4000244141</ele>
        <time>2019-08-23T07:15:39Z</time>
      </trkpt>
      <trkpt lat="42.92378" lon="0.29344">
        <ele>1218.4000244141</ele>
        <time>2019-08-23T07:15:46Z</time>
      </trkpt>
      <trkpt lat="42.92382" lon="0.29345">
        <ele>1218.8000488281</ele>
        <time>2019-08-23T07:15:48Z</time>
      </trkpt>
      <trkpt lat="42.92384" lon="0.29346">
        <ele>1219.1999511719</ele>
        <time>2019-08-23T07:15:49Z</time>
      </trkpt>
      <trkpt lat="42.92386" lon="0.29348">
        <ele>1219.5999755859</ele>
        <time>2019-08-23T07:15:50Z</time>
      </trkpt>
      <trkpt lat="42.92387" lon="0.29348">
        <ele>1220</ele>
        <time>2019-08-23T07:15:51Z</time>
      </trkpt>
      <trkpt lat="42.92388" lon="0.29349">
        <ele>1220.4000244141</ele>
        <time>2019-08-23T07:15:52Z</time>
      </trkpt>
      <trkpt lat="42.92395" lon="0.2935">
        <ele>1220.4000244141</ele>
        <time>2019-08-23T07:15:58Z</time>
      </trkpt>
      <trkpt lat="42.92396" lon="0.2935">
        <ele>1221</ele>
        <time>2019-08-23T07:15:59Z</time>
      </trkpt>
      <trkpt lat="42.92397" lon="0.2935">
        <ele>1221.4000244141</ele>
        <time>2019-08-23T07:16:00Z</time>
      </trkpt>
      <trkpt lat="42.92398" lon="0.29349">
        <ele>1221.8000488281</ele>
        <time>2019-08-23T07:16:01Z</time>
      </trkpt>
      <trkpt lat="42.92399" lon="0.2935">
        <ele>1222.1999511719</ele>
        <time>2019-08-23T07:16:02Z</time>
      </trkpt>
      <trkpt lat="42.92401" lon="0.2935">
        <ele>1222.5999755859</ele>
        <time>2019-08-23T07:16:03Z</time>
      </trkpt>
      <trkpt lat="42.92408" lon="0.29352">
        <ele>1223</ele>
        <time>2019-08-23T07:16:09Z</time>
      </trkpt>
      <trkpt lat="42.92409" lon="0.29352">
        <ele>1223.4000244141</ele>
        <time>2019-08-23T07:16:10Z</time>
      </trkpt>
      <trkpt lat="42.92411" lon="0.29353">
        <ele>1223.8000488281</ele>
        <time>2019-08-23T07:16:11Z</time>
      </trkpt>
      <trkpt lat="42.92412" lon="0.29353">
        <ele>1224.1999511719</ele>
        <time>2019-08-23T07:16:12Z</time>
      </trkpt>
      <trkpt lat="42.92413" lon="0.29354">
        <ele>1224.5999755859</ele>
        <time>2019-08-23T07:16:13Z</time>
      </trkpt>
      <trkpt lat="42.92417" lon="0.29355">
        <ele>1224.5999755859</ele>
        <time>2019-08-23T07:16:16Z</time>
      </trkpt>
      <trkpt lat="42.92421" lon="0.29358">
        <ele>1225.1999511719</ele>
        <time>2019-08-23T07:16:19Z</time>
      </trkpt>
      <trkpt lat="42.92423" lon="0.29359">
        <ele>1225.5999755859</ele>
        <time>2019-08-23T07:16:20Z</time>
      </trkpt>
      <trkpt lat="42.92424" lon="0.2936">
        <ele>1226</ele>
        <time>2019-08-23T07:16:21Z</time>
      </trkpt>
      <trkpt lat="42.92425" lon="0.2936">
        <ele>1226.4000244141</ele>
        <time>2019-08-23T07:16:22Z</time>
      </trkpt>
      <trkpt lat="42.92427" lon="0.29361">
        <ele>1226.8000488281</ele>
        <time>2019-08-23T07:16:23Z</time>
      </trkpt>
      <trkpt lat="42.92433" lon="0.29364">
        <ele>1226.8000488281</ele>
        <time>2019-08-23T07:16:28Z</time>
      </trkpt>
      <trkpt lat="42.92439" lon="0.29369">
        <ele>1227.1999511719</ele>
        <time>2019-08-23T07:16:31Z</time>
      </trkpt>
      <trkpt lat="42.9244" lon="0.29371">
        <ele>1227.5999755859</ele>
        <time>2019-08-23T07:16:32Z</time>
      </trkpt>
      <trkpt lat="42.92441" lon="0.29372">
        <ele>1228</ele>
        <time>2019-08-23T07:16:33Z</time>
      </trkpt>
      <trkpt lat="42.92443" lon="0.29373">
        <ele>1228.4000244141</ele>
        <time>2019-08-23T07:16:34Z</time>
      </trkpt>
      <trkpt lat="42.92444" lon="0.29374">
        <ele>1229</ele>
        <time>2019-08-23T07:16:35Z</time>
      </trkpt>
      <trkpt lat="42.92451" lon="0.29381">
        <ele>1229</ele>
        <time>2019-08-23T07:16:41Z</time>
      </trkpt>
      <trkpt lat="42.92452" lon="0.29382">
        <ele>1229.4000244141</ele>
        <time>2019-08-23T07:16:42Z</time>
      </trkpt>
      <trkpt lat="42.92453" lon="0.29382">
        <ele>1229.8000488281</ele>
        <time>2019-08-23T07:16:43Z</time>
      </trkpt>
      <trkpt lat="42.92453" lon="0.29383">
        <ele>1230.5999755859</ele>
        <time>2019-08-23T07:16:44Z</time>
      </trkpt>
      <trkpt lat="42.92454" lon="0.29383">
        <ele>1231</ele>
        <time>2019-08-23T07:16:45Z</time>
      </trkpt>
      <trkpt lat="42.92457" lon="0.29386">
        <ele>1231</ele>
        <time>2019-08-23T07:16:48Z</time>
      </trkpt>
      <trkpt lat="42.92461" lon="0.29391">
        <ele>1231.4000244141</ele>
        <time>2019-08-23T07:16:52Z</time>
      </trkpt>
      <trkpt lat="42.92461" lon="0.29391">
        <ele>1231.8000488281</ele>
        <time>2019-08-23T07:16:53Z</time>
      </trkpt>
      <trkpt lat="42.92462" lon="0.29392">
        <ele>1232.1999511719</ele>
        <time>2019-08-23T07:16:54Z</time>
      </trkpt>
      <trkpt lat="42.92463" lon="0.29394">
        <ele>1232.5999755859</ele>
        <time>2019-08-23T07:16:55Z</time>
      </trkpt>
      <trkpt lat="42.92463" lon="0.29395">
        <ele>1233</ele>
        <time>2019-08-23T07:16:56Z</time>
      </trkpt>
      <trkpt lat="42.92469" lon="0.29401">
        <ele>1233</ele>
        <time>2019-08-23T07:17:01Z</time>
      </trkpt>
      <trkpt lat="42.92471" lon="0.29404">
        <ele>1233.5999755859</ele>
        <time>2019-08-23T07:17:03Z</time>
      </trkpt>
      <trkpt lat="42.92471" lon="0.29405">
        <ele>1234</ele>
        <time>2019-08-23T07:17:04Z</time>
      </trkpt>
      <trkpt lat="42.92472" lon="0.29407">
        <ele>1234.4000244141</ele>
        <time>2019-08-23T07:17:05Z</time>
      </trkpt>
      <trkpt lat="42.92474" lon="0.29409">
        <ele>1234.8000488281</ele>
        <time>2019-08-23T07:17:06Z</time>
      </trkpt>
      <trkpt lat="42.92475" lon="0.2941">
        <ele>1235.1999511719</ele>
        <time>2019-08-23T07:17:07Z</time>
      </trkpt>
      <trkpt lat="42.92477" lon="0.29412">
        <ele>1235.1999511719</ele>
        <time>2019-08-23T07:17:08Z</time>
      </trkpt>
      <trkpt lat="42.92483" lon="0.2942">
        <ele>1235.1999511719</ele>
        <time>2019-08-23T07:17:14Z</time>
      </trkpt>
      <trkpt lat="42.92484" lon="0.29421">
        <ele>1235.5999755859</ele>
        <time>2019-08-23T07:17:15Z</time>
      </trkpt>
      <trkpt lat="42.92484" lon="0.29422">
        <ele>1236</ele>
        <time>2019-08-23T07:17:16Z</time>
      </trkpt>
      <trkpt lat="42.92485" lon="0.29423">
        <ele>1236.4000244141</ele>
        <time>2019-08-23T07:17:17Z</time>
      </trkpt>
      <trkpt lat="42.92486" lon="0.29424">
        <ele>1237</ele>
        <time>2019-08-23T07:17:18Z</time>
      </trkpt>
      <trkpt lat="42.92488" lon="0.29426">
        <ele>1237.4000244141</ele>
        <time>2019-08-23T07:17:19Z</time>
      </trkpt>
      <trkpt lat="42.9249" lon="0.29428">
        <ele>1237.4000244141</ele>
        <time>2019-08-23T07:17:21Z</time>
      </trkpt>
      <trkpt lat="42.92495" lon="0.29431">
        <ele>1237.8000488281</ele>
        <time>2019-08-23T07:17:27Z</time>
      </trkpt>
      <trkpt lat="42.92496" lon="0.29433">
        <ele>1238.1999511719</ele>
        <time>2019-08-23T07:17:28Z</time>
      </trkpt>
      <trkpt lat="42.92498" lon="0.29434">
        <ele>1238.5999755859</ele>
        <time>2019-08-23T07:17:29Z</time>
      </trkpt>
      <trkpt lat="42.925" lon="0.29436">
        <ele>1239</ele>
        <time>2019-08-23T07:17:30Z</time>
      </trkpt>
      <trkpt lat="42.92501" lon="0.29438">
        <ele>1239.4000244141</ele>
        <time>2019-08-23T07:17:31Z</time>
      </trkpt>
      <trkpt lat="42.92505" lon="0.29441">
        <ele>1239.4000244141</ele>
        <time>2019-08-23T07:17:34Z</time>
      </trkpt>
      <trkpt lat="42.9251" lon="0.29445">
        <ele>1239.8000488281</ele>
        <time>2019-08-23T07:17:39Z</time>
      </trkpt>
      <trkpt lat="42.92511" lon="0.29446">
        <ele>1240.1999511719</ele>
        <time>2019-08-23T07:17:40Z</time>
      </trkpt>
      <trkpt lat="42.92512" lon="0.29448">
        <ele>1240.5999755859</ele>
        <time>2019-08-23T07:17:41Z</time>
      </trkpt>
      <trkpt lat="42.92514" lon="0.2945">
        <ele>1241</ele>
        <time>2019-08-23T07:17:42Z</time>
      </trkpt>
      <trkpt lat="42.92515" lon="0.29451">
        <ele>1241.4000244141</ele>
        <time>2019-08-23T07:17:43Z</time>
      </trkpt>
      <trkpt lat="42.92523" lon="0.29458">
        <ele>1241.4000244141</ele>
        <time>2019-08-23T07:17:49Z</time>
      </trkpt>
      <trkpt lat="42.92526" lon="0.29461">
        <ele>1242</ele>
        <time>2019-08-23T07:17:52Z</time>
      </trkpt>
      <trkpt lat="42.92528" lon="0.29462">
        <ele>1242.4000244141</ele>
        <time>2019-08-23T07:17:53Z</time>
      </trkpt>
      <trkpt lat="42.92529" lon="0.29463">
        <ele>1242.8000488281</ele>
        <time>2019-08-23T07:17:54Z</time>
      </trkpt>
      <trkpt lat="42.92531" lon="0.29464">
        <ele>1243.1999511719</ele>
        <time>2019-08-23T07:17:55Z</time>
      </trkpt>
      <trkpt lat="42.92532" lon="0.29465">
        <ele>1243.5999755859</ele>
        <time>2019-08-23T07:17:56Z</time>
      </trkpt>
      <trkpt lat="42.92539" lon="0.29472">
        <ele>1244</ele>
        <time>2019-08-23T07:18:03Z</time>
      </trkpt>
      <trkpt lat="42.9254" lon="0.29472">
        <ele>1244.4000244141</ele>
        <time>2019-08-23T07:18:04Z</time>
      </trkpt>
      <trkpt lat="42.92541" lon="0.29473">
        <ele>1244.8000488281</ele>
        <time>2019-08-23T07:18:05Z</time>
      </trkpt>
      <trkpt lat="42.92543" lon="0.29473">
        <ele>1245.4000244141</ele>
        <time>2019-08-23T07:18:06Z</time>
      </trkpt>
      <trkpt lat="42.92544" lon="0.29474">
        <ele>1245.8000488281</ele>
        <time>2019-08-23T07:18:07Z</time>
      </trkpt>
      <trkpt lat="42.92547" lon="0.29475">
        <ele>1245.8000488281</ele>
        <time>2019-08-23T07:18:10Z</time>
      </trkpt>
      <trkpt lat="42.92553" lon="0.2948">
        <ele>1246.1999511719</ele>
        <time>2019-08-23T07:18:15Z</time>
      </trkpt>
      <trkpt lat="42.92555" lon="0.29481">
        <ele>1246.5999755859</ele>
        <time>2019-08-23T07:18:16Z</time>
      </trkpt>
      <trkpt lat="42.92556" lon="0.29482">
        <ele>1247</ele>
        <time>2019-08-23T07:18:17Z</time>
      </trkpt>
      <trkpt lat="42.92557" lon="0.29483">
        <ele>1247.4000244141</ele>
        <time>2019-08-23T07:18:18Z</time>
      </trkpt>
      <trkpt lat="42.92558" lon="0.29483">
        <ele>1247.8000488281</ele>
        <time>2019-08-23T07:18:19Z</time>
      </trkpt>
      <trkpt lat="42.92562" lon="0.29485">
        <ele>1247.8000488281</ele>
        <time>2019-08-23T07:18:22Z</time>
      </trkpt>
      <trkpt lat="42.92567" lon="0.29489">
        <ele>1248.1999511719</ele>
        <time>2019-08-23T07:18:25Z</time>
      </trkpt>
      <trkpt lat="42.92568" lon="0.2949">
        <ele>1248.5999755859</ele>
        <time>2019-08-23T07:18:26Z</time>
      </trkpt>
      <trkpt lat="42.92569" lon="0.2949">
        <ele>1249</ele>
        <time>2019-08-23T07:18:27Z</time>
      </trkpt>
      <trkpt lat="42.92569" lon="0.29491">
        <ele>1249.4000244141</ele>
        <time>2019-08-23T07:18:28Z</time>
      </trkpt>
      <trkpt lat="42.92571" lon="0.29492">
        <ele>1249.8000488281</ele>
        <time>2019-08-23T07:18:29Z</time>
      </trkpt>
      <trkpt lat="42.92578" lon="0.29497">
        <ele>1249.8000488281</ele>
        <time>2019-08-23T07:18:34Z</time>
      </trkpt>
      <trkpt lat="42.92583" lon="0.295">
        <ele>1250.1999511719</ele>
        <time>2019-08-23T07:18:38Z</time>
      </trkpt>
      <trkpt lat="42.92585" lon="0.29502">
        <ele>1250.8000488281</ele>
        <time>2019-08-23T07:18:39Z</time>
      </trkpt>
      <trkpt lat="42.92587" lon="0.29502">
        <ele>1251.1999511719</ele>
        <time>2019-08-23T07:18:40Z</time>
      </trkpt>
      <trkpt lat="42.92588" lon="0.29503">
        <ele>1251.5999755859</ele>
        <time>2019-08-23T07:18:41Z</time>
      </trkpt>
      <trkpt lat="42.9259" lon="0.29504">
        <ele>1252</ele>
        <time>2019-08-23T07:18:42Z</time>
      </trkpt>
      <trkpt lat="42.92593" lon="0.29506">
        <ele>1252</ele>
        <time>2019-08-23T07:18:45Z</time>
      </trkpt>
      <trkpt lat="42.92595" lon="0.29507">
        <ele>1252</ele>
        <time>2019-08-23T07:18:47Z</time>
      </trkpt>
      <trkpt lat="42.926" lon="0.29512">
        <ele>1252.4000244141</ele>
        <time>2019-08-23T07:18:50Z</time>
      </trkpt>
      <trkpt lat="42.92601" lon="0.29514">
        <ele>1252.8000488281</ele>
        <time>2019-08-23T07:18:51Z</time>
      </trkpt>
      <trkpt lat="42.92603" lon="0.29515">
        <ele>1253.1999511719</ele>
        <time>2019-08-23T07:18:52Z</time>
      </trkpt>
      <trkpt lat="42.92604" lon="0.29515">
        <ele>1253.8000488281</ele>
        <time>2019-08-23T07:18:53Z</time>
      </trkpt>
      <trkpt lat="42.92606" lon="0.29517">
        <ele>1254.1999511719</ele>
        <time>2019-08-23T07:18:54Z</time>
      </trkpt>
      <trkpt lat="42.92609" lon="0.29519">
        <ele>1254.1999511719</ele>
        <time>2019-08-23T07:18:58Z</time>
      </trkpt>
      <trkpt lat="42.92616" lon="0.29523">
        <ele>1254.5999755859</ele>
        <time>2019-08-23T07:19:02Z</time>
      </trkpt>
      <trkpt lat="42.92618" lon="0.29523">
        <ele>1255</ele>
        <time>2019-08-23T07:19:03Z</time>
      </trkpt>
      <trkpt lat="42.92619" lon="0.29524">
        <ele>1255.4000244141</ele>
        <time>2019-08-23T07:19:04Z</time>
      </trkpt>
      <trkpt lat="42.92621" lon="0.29524">
        <ele>1255.8000488281</ele>
        <time>2019-08-23T07:19:05Z</time>
      </trkpt>
      <trkpt lat="42.92622" lon="0.29525">
        <ele>1256.1999511719</ele>
        <time>2019-08-23T07:19:06Z</time>
      </trkpt>
      <trkpt lat="42.92628" lon="0.29529">
        <ele>1256.1999511719</ele>
        <time>2019-08-23T07:19:11Z</time>
      </trkpt>
      <trkpt lat="42.92629" lon="0.2953">
        <ele>1256.5999755859</ele>
        <time>2019-08-23T07:19:13Z</time>
      </trkpt>
      <trkpt lat="42.9263" lon="0.29531">
        <ele>1257</ele>
        <time>2019-08-23T07:19:14Z</time>
      </trkpt>
      <trkpt lat="42.92631" lon="0.29532">
        <ele>1257.4000244141</ele>
        <time>2019-08-23T07:19:15Z</time>
      </trkpt>
      <trkpt lat="42.92633" lon="0.29532">
        <ele>1257.8000488281</ele>
        <time>2019-08-23T07:19:16Z</time>
      </trkpt>
      <trkpt lat="42.92634" lon="0.29532">
        <ele>1258.1999511719</ele>
        <time>2019-08-23T07:19:17Z</time>
      </trkpt>
      <trkpt lat="42.92642" lon="0.29538">
        <ele>1258.1999511719</ele>
        <time>2019-08-23T07:19:23Z</time>
      </trkpt>
      <trkpt lat="42.92643" lon="0.29538">
        <ele>1258.5999755859</ele>
        <time>2019-08-23T07:19:24Z</time>
      </trkpt>
      <trkpt lat="42.92645" lon="0.29539">
        <ele>1259</ele>
        <time>2019-08-23T07:19:25Z</time>
      </trkpt>
      <trkpt lat="42.92646" lon="0.29539">
        <ele>1259.4000244141</ele>
        <time>2019-08-23T07:19:26Z</time>
      </trkpt>
      <trkpt lat="42.92648" lon="0.2954">
        <ele>1260</ele>
        <time>2019-08-23T07:19:27Z</time>
      </trkpt>
      <trkpt lat="42.92649" lon="0.29542">
        <ele>1260.4000244141</ele>
        <time>2019-08-23T07:19:28Z</time>
      </trkpt>
      <trkpt lat="42.9265" lon="0.29542">
        <ele>1260.4000244141</ele>
        <time>2019-08-23T07:19:29Z</time>
      </trkpt>
      <trkpt lat="42.92651" lon="0.29542">
        <ele>1260.4000244141</ele>
        <time>2019-08-23T07:19:30Z</time>
      </trkpt>
      <trkpt lat="42.92655" lon="0.29546">
        <ele>1260.4000244141</ele>
        <time>2019-08-23T07:19:34Z</time>
      </trkpt>
      <trkpt lat="42.9266" lon="0.29548">
        <ele>1261.1999511719</ele>
        <time>2019-08-23T07:19:37Z</time>
      </trkpt>
      <trkpt lat="42.92661" lon="0.29549">
        <ele>1261.5999755859</ele>
        <time>2019-08-23T07:19:38Z</time>
      </trkpt>
      <trkpt lat="42.92662" lon="0.29549">
        <ele>1262</ele>
        <time>2019-08-23T07:19:39Z</time>
      </trkpt>
      <trkpt lat="42.92664" lon="0.29549">
        <ele>1262.4000244141</ele>
        <time>2019-08-23T07:19:40Z</time>
      </trkpt>
      <trkpt lat="42.92672" lon="0.29555">
        <ele>1262.4000244141</ele>
        <time>2019-08-23T07:19:46Z</time>
      </trkpt>
      <trkpt lat="42.92675" lon="0.29557">
        <ele>1262.8000488281</ele>
        <time>2019-08-23T07:19:48Z</time>
      </trkpt>
      <trkpt lat="42.92676" lon="0.29558">
        <ele>1263.1999511719</ele>
        <time>2019-08-23T07:19:49Z</time>
      </trkpt>
      <trkpt lat="42.92677" lon="0.29559">
        <ele>1263.5999755859</ele>
        <time>2019-08-23T07:19:50Z</time>
      </trkpt>
      <trkpt lat="42.92678" lon="0.2956">
        <ele>1264.1999511719</ele>
        <time>2019-08-23T07:19:51Z</time>
      </trkpt>
      <trkpt lat="42.9268" lon="0.29561">
        <ele>1264.5999755859</ele>
        <time>2019-08-23T07:19:52Z</time>
      </trkpt>
      <trkpt lat="42.92684" lon="0.29563">
        <ele>1264.5999755859</ele>
        <time>2019-08-23T07:19:56Z</time>
      </trkpt>
      <trkpt lat="42.92686" lon="0.29564">
        <ele>1265</ele>
        <time>2019-08-23T07:19:58Z</time>
      </trkpt>
      <trkpt lat="42.92688" lon="0.29566">
        <ele>1265.4000244141</ele>
        <time>2019-08-23T07:19:59Z</time>
      </trkpt>
      <trkpt lat="42.92689" lon="0.29567">
        <ele>1265.8000488281</ele>
        <time>2019-08-23T07:20:00Z</time>
      </trkpt>
      <trkpt lat="42.9269" lon="0.29567">
        <ele>1266.5999755859</ele>
        <time>2019-08-23T07:20:01Z</time>
      </trkpt>
      <trkpt lat="42.92691" lon="0.29568">
        <ele>1266.5999755859</ele>
        <time>2019-08-23T07:20:02Z</time>
      </trkpt>
      <trkpt lat="42.92698" lon="0.29572">
        <ele>1266.5999755859</ele>
        <time>2019-08-23T07:20:07Z</time>
      </trkpt>
      <trkpt lat="42.92706" lon="0.29582">
        <ele>1267</ele>
        <time>2019-08-23T07:20:11Z</time>
      </trkpt>
      <trkpt lat="42.92707" lon="0.29584">
        <ele>1267.4000244141</ele>
        <time>2019-08-23T07:20:12Z</time>
      </trkpt>
      <trkpt lat="42.92709" lon="0.29586">
        <ele>1267.8000488281</ele>
        <time>2019-08-23T07:20:13Z</time>
      </trkpt>
      <trkpt lat="42.9271" lon="0.29588">
        <ele>1268.1999511719</ele>
        <time>2019-08-23T07:20:14Z</time>
      </trkpt>
      <trkpt lat="42.92712" lon="0.2959">
        <ele>1268.5999755859</ele>
        <time>2019-08-23T07:20:15Z</time>
      </trkpt>
      <trkpt lat="42.92715" lon="0.29596">
        <ele>1268.5999755859</ele>
        <time>2019-08-23T07:20:19Z</time>
      </trkpt>
      <trkpt lat="42.92717" lon="0.29598">
        <ele>1268.5999755859</ele>
        <time>2019-08-23T07:20:20Z</time>
      </trkpt>
      <trkpt lat="42.9272" lon="0.29602">
        <ele>1268.5999755859</ele>
        <time>2019-08-23T07:20:23Z</time>
      </trkpt>
      <trkpt lat="42.92721" lon="0.29605">
        <ele>1269</ele>
        <time>2019-08-23T07:20:25Z</time>
      </trkpt>
      <trkpt lat="42.92721" lon="0.29607">
        <ele>1269.8000488281</ele>
        <time>2019-08-23T07:20:26Z</time>
      </trkpt>
      <trkpt lat="42.92722" lon="0.29609">
        <ele>1270.1999511719</ele>
        <time>2019-08-23T07:20:27Z</time>
      </trkpt>
      <trkpt lat="42.92723" lon="0.29611">
        <ele>1270.5999755859</ele>
        <time>2019-08-23T07:20:28Z</time>
      </trkpt>
      <trkpt lat="42.92725" lon="0.29619">
        <ele>1270.5999755859</ele>
        <time>2019-08-23T07:20:33Z</time>
      </trkpt>
      <trkpt lat="42.92721" lon="0.29626">
        <ele>1270.5999755859</ele>
        <time>2019-08-23T07:20:38Z</time>
      </trkpt>
      <trkpt lat="42.92713" lon="0.29635">
        <ele>1270.5999755859</ele>
        <time>2019-08-23T07:20:46Z</time>
      </trkpt>
      <trkpt lat="42.92706" lon="0.29642">
        <ele>1270.5999755859</ele>
        <time>2019-08-23T07:20:52Z</time>
      </trkpt>
      <trkpt lat="42.927" lon="0.29645">
        <ele>1270.5999755859</ele>
        <time>2019-08-23T07:20:56Z</time>
      </trkpt>
      <trkpt lat="42.92698" lon="0.29647">
        <ele>1270.5999755859</ele>
        <time>2019-08-23T07:20:57Z</time>
      </trkpt>
      <trkpt lat="42.9269" lon="0.29656">
        <ele>1270.5999755859</ele>
        <time>2019-08-23T07:21:02Z</time>
      </trkpt>
      <trkpt lat="42.9268" lon="0.29672">
        <ele>1271.1999511719</ele>
        <time>2019-08-23T07:21:09Z</time>
      </trkpt>
      <trkpt lat="42.92677" lon="0.29673">
        <ele>1271.5999755859</ele>
        <time>2019-08-23T07:21:10Z</time>
      </trkpt>
      <trkpt lat="42.92675" lon="0.29675">
        <ele>1272</ele>
        <time>2019-08-23T07:21:11Z</time>
      </trkpt>
      <trkpt lat="42.92673" lon="0.29677">
        <ele>1272.4000244141</ele>
        <time>2019-08-23T07:21:12Z</time>
      </trkpt>
      <trkpt lat="42.92671" lon="0.2968">
        <ele>1272.8000488281</ele>
        <time>2019-08-23T07:21:13Z</time>
      </trkpt>
      <trkpt lat="42.92667" lon="0.29684">
        <ele>1272.8000488281</ele>
        <time>2019-08-23T07:21:15Z</time>
      </trkpt>
      <trkpt lat="42.92653" lon="0.29699">
        <ele>1272.8000488281</ele>
        <time>2019-08-23T07:21:22Z</time>
      </trkpt>
      <trkpt lat="42.9264" lon="0.29714">
        <ele>1272.8000488281</ele>
        <time>2019-08-23T07:21:28Z</time>
      </trkpt>
      <trkpt lat="42.92632" lon="0.29726">
        <ele>1272.8000488281</ele>
        <time>2019-08-23T07:21:33Z</time>
      </trkpt>
      <trkpt lat="42.92619" lon="0.29744">
        <ele>1272.8000488281</ele>
        <time>2019-08-23T07:21:40Z</time>
      </trkpt>
      <trkpt lat="42.92609" lon="0.29759">
        <ele>1272.8000488281</ele>
        <time>2019-08-23T07:21:46Z</time>
      </trkpt>
      <trkpt lat="42.92598" lon="0.29771">
        <ele>1273.1999511719</ele>
        <time>2019-08-23T07:21:51Z</time>
      </trkpt>
      <trkpt lat="42.92596" lon="0.29773">
        <ele>1273.5999755859</ele>
        <time>2019-08-23T07:21:52Z</time>
      </trkpt>
      <trkpt lat="42.92594" lon="0.29775">
        <ele>1274</ele>
        <time>2019-08-23T07:21:53Z</time>
      </trkpt>
      <trkpt lat="42.92591" lon="0.29777">
        <ele>1274.4000244141</ele>
        <time>2019-08-23T07:21:54Z</time>
      </trkpt>
      <trkpt lat="42.92589" lon="0.29779">
        <ele>1274.8000488281</ele>
        <time>2019-08-23T07:21:55Z</time>
      </trkpt>
      <trkpt lat="42.9258" lon="0.29788">
        <ele>1274.8000488281</ele>
        <time>2019-08-23T07:21:59Z</time>
      </trkpt>
      <trkpt lat="42.92569" lon="0.29798">
        <ele>1274.8000488281</ele>
        <time>2019-08-23T07:22:04Z</time>
      </trkpt>
      <trkpt lat="42.92561" lon="0.29809">
        <ele>1274.8000488281</ele>
        <time>2019-08-23T07:22:08Z</time>
      </trkpt>
      <trkpt lat="42.92559" lon="0.29812">
        <ele>1274.8000488281</ele>
        <time>2019-08-23T07:22:09Z</time>
      </trkpt>
      <trkpt lat="42.92546" lon="0.29827">
        <ele>1274.8000488281</ele>
        <time>2019-08-23T07:22:15Z</time>
      </trkpt>
      <trkpt lat="42.92534" lon="0.29845">
        <ele>1274.8000488281</ele>
        <time>2019-08-23T07:22:22Z</time>
      </trkpt>
      <trkpt lat="42.92528" lon="0.29853">
        <ele>1274.8000488281</ele>
        <time>2019-08-23T07:22:26Z</time>
      </trkpt>
      <trkpt lat="42.92526" lon="0.29855">
        <ele>1274.8000488281</ele>
        <time>2019-08-23T07:22:27Z</time>
      </trkpt>
      <trkpt lat="42.92516" lon="0.29866">
        <ele>1274.8000488281</ele>
        <time>2019-08-23T07:22:33Z</time>
      </trkpt>
      <trkpt lat="42.92507" lon="0.29884">
        <ele>1274.8000488281</ele>
        <time>2019-08-23T07:22:40Z</time>
      </trkpt>
      <trkpt lat="42.92496" lon="0.29903">
        <ele>1274.8000488281</ele>
        <time>2019-08-23T07:22:47Z</time>
      </trkpt>
      <trkpt lat="42.92488" lon="0.29923">
        <ele>1274.8000488281</ele>
        <time>2019-08-23T07:22:54Z</time>
      </trkpt>
      <trkpt lat="42.92488" lon="0.29927">
        <ele>1274.8000488281</ele>
        <time>2019-08-23T07:22:55Z</time>
      </trkpt>
      <trkpt lat="42.92486" lon="0.29933">
        <ele>1274.8000488281</ele>
        <time>2019-08-23T07:22:57Z</time>
      </trkpt>
      <trkpt lat="42.92485" lon="0.29943">
        <ele>1274.8000488281</ele>
        <time>2019-08-23T07:23:01Z</time>
      </trkpt>
      <trkpt lat="42.92482" lon="0.29961">
        <ele>1274.8000488281</ele>
        <time>2019-08-23T07:23:07Z</time>
      </trkpt>
      <trkpt lat="42.92482" lon="0.29967">
        <ele>1275.1999511719</ele>
        <time>2019-08-23T07:23:09Z</time>
      </trkpt>
      <trkpt lat="42.92481" lon="0.29971">
        <ele>1275.5999755859</ele>
        <time>2019-08-23T07:23:10Z</time>
      </trkpt>
      <trkpt lat="42.92481" lon="0.29974">
        <ele>1276</ele>
        <time>2019-08-23T07:23:11Z</time>
      </trkpt>
      <trkpt lat="42.9248" lon="0.29976">
        <ele>1276.4000244141</ele>
        <time>2019-08-23T07:23:12Z</time>
      </trkpt>
      <trkpt lat="42.92479" lon="0.29979">
        <ele>1276.8000488281</ele>
        <time>2019-08-23T07:23:13Z</time>
      </trkpt>
      <trkpt lat="42.92474" lon="0.29993">
        <ele>1276.8000488281</ele>
        <time>2019-08-23T07:23:18Z</time>
      </trkpt>
      <trkpt lat="42.92471" lon="0.30013">
        <ele>1276.8000488281</ele>
        <time>2019-08-23T07:23:24Z</time>
      </trkpt>
      <trkpt lat="42.92466" lon="0.30032">
        <ele>1276.8000488281</ele>
        <time>2019-08-23T07:23:31Z</time>
      </trkpt>
      <trkpt lat="42.92463" lon="0.30047">
        <ele>1277.1999511719</ele>
        <time>2019-08-23T07:23:36Z</time>
      </trkpt>
      <trkpt lat="42.92462" lon="0.30049">
        <ele>1277.5999755859</ele>
        <time>2019-08-23T07:23:37Z</time>
      </trkpt>
      <trkpt lat="42.92462" lon="0.30053">
        <ele>1278</ele>
        <time>2019-08-23T07:23:38Z</time>
      </trkpt>
      <trkpt lat="42.92462" lon="0.30056">
        <ele>1278.4000244141</ele>
        <time>2019-08-23T07:23:39Z</time>
      </trkpt>
      <trkpt lat="42.92461" lon="0.30058">
        <ele>1278.8000488281</ele>
        <time>2019-08-23T07:23:40Z</time>
      </trkpt>
      <trkpt lat="42.92459" lon="0.30064">
        <ele>1278.8000488281</ele>
        <time>2019-08-23T07:23:43Z</time>
      </trkpt>
      <trkpt lat="42.92452" lon="0.30075">
        <ele>1278.8000488281</ele>
        <time>2019-08-23T07:23:48Z</time>
      </trkpt>
      <trkpt lat="42.92446" lon="0.30089">
        <ele>1279.1999511719</ele>
        <time>2019-08-23T07:23:54Z</time>
      </trkpt>
      <trkpt lat="42.92445" lon="0.30092">
        <ele>1279.5999755859</ele>
        <time>2019-08-23T07:23:55Z</time>
      </trkpt>
      <trkpt lat="42.92447" lon="0.30094">
        <ele>1280.1999511719</ele>
        <time>2019-08-23T07:23:56Z</time>
      </trkpt>
      <trkpt lat="42.92444" lon="0.30098">
        <ele>1280.5999755859</ele>
        <time>2019-08-23T07:23:57Z</time>
      </trkpt>
      <trkpt lat="42.92444" lon="0.30102">
        <ele>1281</ele>
        <time>2019-08-23T07:23:58Z</time>
      </trkpt>
      <trkpt lat="42.92442" lon="0.30109">
        <ele>1281</ele>
        <time>2019-08-23T07:24:00Z</time>
      </trkpt>
      <trkpt lat="42.92444" lon="0.3011">
        <ele>1281</ele>
        <time>2019-08-23T07:24:01Z</time>
      </trkpt>
      <trkpt lat="42.9244" lon="0.30114">
        <ele>1281</ele>
        <time>2019-08-23T07:24:02Z</time>
      </trkpt>
      <trkpt lat="42.92432" lon="0.30127">
        <ele>1281</ele>
        <time>2019-08-23T07:24:09Z</time>
      </trkpt>
      <trkpt lat="42.92429" lon="0.30131">
        <ele>1281.4000244141</ele>
        <time>2019-08-23T07:24:11Z</time>
      </trkpt>
      <trkpt lat="42.92428" lon="0.30133">
        <ele>1281.8000488281</ele>
        <time>2019-08-23T07:24:12Z</time>
      </trkpt>
      <trkpt lat="42.92427" lon="0.30135">
        <ele>1282.1999511719</ele>
        <time>2019-08-23T07:24:13Z</time>
      </trkpt>
      <trkpt lat="42.92426" lon="0.30137">
        <ele>1282.5999755859</ele>
        <time>2019-08-23T07:24:14Z</time>
      </trkpt>
      <trkpt lat="42.92424" lon="0.30139">
        <ele>1283</ele>
        <time>2019-08-23T07:24:15Z</time>
      </trkpt>
      <trkpt lat="42.92424" lon="0.3014">
        <ele>1283</ele>
        <time>2019-08-23T07:24:16Z</time>
      </trkpt>
      <trkpt lat="42.92414" lon="0.30142">
        <ele>1283</ele>
        <time>2019-08-23T07:24:22Z</time>
      </trkpt>
      <trkpt lat="42.92413" lon="0.30141">
        <ele>1283</ele>
        <time>2019-08-23T07:24:27Z</time>
      </trkpt>
      <trkpt lat="42.92414" lon="0.30142">
        <ele>1283.4000244141</ele>
        <time>2019-08-23T07:24:28Z</time>
      </trkpt>
      <trkpt lat="42.92414" lon="0.30142">
        <ele>1283.8000488281</ele>
        <time>2019-08-23T07:24:29Z</time>
      </trkpt>
      <trkpt lat="42.92414" lon="0.30142">
        <ele>1284.1999511719</ele>
        <time>2019-08-23T07:24:30Z</time>
      </trkpt>
      <trkpt lat="42.92414" lon="0.30142">
        <ele>1284.5999755859</ele>
        <time>2019-08-23T07:24:31Z</time>
      </trkpt>
      <trkpt lat="42.92414" lon="0.30142">
        <ele>1285</ele>
        <time>2019-08-23T07:24:32Z</time>
      </trkpt>
      <trkpt lat="42.92414" lon="0.30143">
        <ele>1285</ele>
        <time>2019-08-23T07:24:34Z</time>
      </trkpt>
      <trkpt lat="42.9242" lon="0.30152">
        <ele>1285</ele>
        <time>2019-08-23T07:24:40Z</time>
      </trkpt>
      <trkpt lat="42.92425" lon="0.30158">
        <ele>1285.4000244141</ele>
        <time>2019-08-23T07:24:43Z</time>
      </trkpt>
      <trkpt lat="42.92425" lon="0.30159">
        <ele>1286</ele>
        <time>2019-08-23T07:24:44Z</time>
      </trkpt>
      <trkpt lat="42.92425" lon="0.30159">
        <ele>1286.4000244141</ele>
        <time>2019-08-23T07:24:45Z</time>
      </trkpt>
      <trkpt lat="42.92425" lon="0.30159">
        <ele>1286.8000488281</ele>
        <time>2019-08-23T07:24:46Z</time>
      </trkpt>
      <trkpt lat="42.92425" lon="0.30159">
        <ele>1287.1999511719</ele>
        <time>2019-08-23T07:24:47Z</time>
      </trkpt>
      <trkpt lat="42.92437" lon="0.30171">
        <ele>1287.1999511719</ele>
        <time>2019-08-23T07:24:52Z</time>
      </trkpt>
      <trkpt lat="42.92449" lon="0.3018">
        <ele>1287.5999755859</ele>
        <time>2019-08-23T07:24:56Z</time>
      </trkpt>
      <trkpt lat="42.9245" lon="0.3018">
        <ele>1288</ele>
        <time>2019-08-23T07:24:57Z</time>
      </trkpt>
      <trkpt lat="42.92451" lon="0.3018">
        <ele>1288.8000488281</ele>
        <time>2019-08-23T07:24:58Z</time>
      </trkpt>
      <trkpt lat="42.92458" lon="0.30188">
        <ele>1289.1999511719</ele>
        <time>2019-08-23T07:24:59Z</time>
      </trkpt>
      <trkpt lat="42.92466" lon="0.30194">
        <ele>1289.1999511719</ele>
        <time>2019-08-23T07:25:03Z</time>
      </trkpt>
      <trkpt lat="42.92474" lon="0.30199">
        <ele>1289.1999511719</ele>
        <time>2019-08-23T07:25:06Z</time>
      </trkpt>
      <trkpt lat="42.92478" lon="0.30198">
        <ele>1289.8000488281</ele>
        <time>2019-08-23T07:25:08Z</time>
      </trkpt>
      <trkpt lat="42.92479" lon="0.30198">
        <ele>1290.1999511719</ele>
        <time>2019-08-23T07:25:09Z</time>
      </trkpt>
      <trkpt lat="42.92481" lon="0.30198">
        <ele>1290.5999755859</ele>
        <time>2019-08-23T07:25:10Z</time>
      </trkpt>
      <trkpt lat="42.92491" lon="0.30207">
        <ele>1291</ele>
        <time>2019-08-23T07:25:11Z</time>
      </trkpt>
      <trkpt lat="42.92495" lon="0.30212">
        <ele>1291.4000244141</ele>
        <time>2019-08-23T07:25:12Z</time>
      </trkpt>
      <trkpt lat="42.92501" lon="0.30215">
        <ele>1291.4000244141</ele>
        <time>2019-08-23T07:25:15Z</time>
      </trkpt>
      <trkpt lat="42.9251" lon="0.30218">
        <ele>1291.4000244141</ele>
        <time>2019-08-23T07:25:16Z</time>
      </trkpt>
      <trkpt lat="42.92523" lon="0.30223">
        <ele>1291.8000488281</ele>
        <time>2019-08-23T07:25:21Z</time>
      </trkpt>
      <trkpt lat="42.92525" lon="0.30224">
        <ele>1292.1999511719</ele>
        <time>2019-08-23T07:25:22Z</time>
      </trkpt>
      <trkpt lat="42.92528" lon="0.30224">
        <ele>1293.1999511719</ele>
        <time>2019-08-23T07:25:23Z</time>
      </trkpt>
      <trkpt lat="42.9253" lon="0.30224">
        <ele>1293.5999755859</ele>
        <time>2019-08-23T07:25:24Z</time>
      </trkpt>
      <trkpt lat="42.92538" lon="0.30224">
        <ele>1293.5999755859</ele>
        <time>2019-08-23T07:25:28Z</time>
      </trkpt>
      <trkpt lat="42.92547" lon="0.30225">
        <ele>1294</ele>
        <time>2019-08-23T07:25:33Z</time>
      </trkpt>
      <trkpt lat="42.92549" lon="0.30225">
        <ele>1294.4000244141</ele>
        <time>2019-08-23T07:25:34Z</time>
      </trkpt>
      <trkpt lat="42.9255" lon="0.30225">
        <ele>1294.8000488281</ele>
        <time>2019-08-23T07:25:35Z</time>
      </trkpt>
      <trkpt lat="42.92552" lon="0.30225">
        <ele>1295.1999511719</ele>
        <time>2019-08-23T07:25:36Z</time>
      </trkpt>
      <trkpt lat="42.92554" lon="0.30224">
        <ele>1295.5999755859</ele>
        <time>2019-08-23T07:25:37Z</time>
      </trkpt>
      <trkpt lat="42.92561" lon="0.30225">
        <ele>1295.5999755859</ele>
        <time>2019-08-23T07:25:42Z</time>
      </trkpt>
      <trkpt lat="42.92567" lon="0.30226">
        <ele>1296</ele>
        <time>2019-08-23T07:25:46Z</time>
      </trkpt>
      <trkpt lat="42.92569" lon="0.30227">
        <ele>1296.4000244141</ele>
        <time>2019-08-23T07:25:47Z</time>
      </trkpt>
      <trkpt lat="42.9257" lon="0.30227">
        <ele>1297.4000244141</ele>
        <time>2019-08-23T07:25:48Z</time>
      </trkpt>
      <trkpt lat="42.92572" lon="0.30227">
        <ele>1297.8000488281</ele>
        <time>2019-08-23T07:25:49Z</time>
      </trkpt>
      <trkpt lat="42.92578" lon="0.30229">
        <ele>1297.8000488281</ele>
        <time>2019-08-23T07:25:55Z</time>
      </trkpt>
      <trkpt lat="42.92584" lon="0.30229">
        <ele>1298.1999511719</ele>
        <time>2019-08-23T07:25:58Z</time>
      </trkpt>
      <trkpt lat="42.92585" lon="0.30229">
        <ele>1298.5999755859</ele>
        <time>2019-08-23T07:25:59Z</time>
      </trkpt>
      <trkpt lat="42.92586" lon="0.30229">
        <ele>1299</ele>
        <time>2019-08-23T07:26:00Z</time>
      </trkpt>
      <trkpt lat="42.92588" lon="0.30229">
        <ele>1299.5999755859</ele>
        <time>2019-08-23T07:26:01Z</time>
      </trkpt>
      <trkpt lat="42.9259" lon="0.30229">
        <ele>1300</ele>
        <time>2019-08-23T07:26:02Z</time>
      </trkpt>
      <trkpt lat="42.92599" lon="0.30229">
        <ele>1300</ele>
        <time>2019-08-23T07:26:07Z</time>
      </trkpt>
      <trkpt lat="42.92609" lon="0.3023">
        <ele>1300.4000244141</ele>
        <time>2019-08-23T07:26:12Z</time>
      </trkpt>
      <trkpt lat="42.9261" lon="0.3023">
        <ele>1301.1999511719</ele>
        <time>2019-08-23T07:26:13Z</time>
      </trkpt>
      <trkpt lat="42.92613" lon="0.3023">
        <ele>1301.5999755859</ele>
        <time>2019-08-23T07:26:14Z</time>
      </trkpt>
      <trkpt lat="42.92615" lon="0.3023">
        <ele>1302</ele>
        <time>2019-08-23T07:26:15Z</time>
      </trkpt>
      <trkpt lat="42.92625" lon="0.30228">
        <ele>1302</ele>
        <time>2019-08-23T07:26:21Z</time>
      </trkpt>
      <trkpt lat="42.9263" lon="0.30228">
        <ele>1302.4000244141</ele>
        <time>2019-08-23T07:26:25Z</time>
      </trkpt>
      <trkpt lat="42.92632" lon="0.30229">
        <ele>1303</ele>
        <time>2019-08-23T07:26:26Z</time>
      </trkpt>
      <trkpt lat="42.92634" lon="0.30229">
        <ele>1303.4000244141</ele>
        <time>2019-08-23T07:26:27Z</time>
      </trkpt>
      <trkpt lat="42.92635" lon="0.30228">
        <ele>1303.8000488281</ele>
        <time>2019-08-23T07:26:28Z</time>
      </trkpt>
      <trkpt lat="42.92636" lon="0.30228">
        <ele>1304.1999511719</ele>
        <time>2019-08-23T07:26:29Z</time>
      </trkpt>
      <trkpt lat="42.92639" lon="0.30229">
        <ele>1304.1999511719</ele>
        <time>2019-08-23T07:26:32Z</time>
      </trkpt>
      <trkpt lat="42.92647" lon="0.30231">
        <ele>1305</ele>
        <time>2019-08-23T07:26:37Z</time>
      </trkpt>
      <trkpt lat="42.9265" lon="0.30232">
        <ele>1305.4000244141</ele>
        <time>2019-08-23T07:26:38Z</time>
      </trkpt>
      <trkpt lat="42.92651" lon="0.30233">
        <ele>1305.8000488281</ele>
        <time>2019-08-23T07:26:39Z</time>
      </trkpt>
      <trkpt lat="42.92653" lon="0.30233">
        <ele>1306.1999511719</ele>
        <time>2019-08-23T07:26:40Z</time>
      </trkpt>
      <trkpt lat="42.92657" lon="0.30234">
        <ele>1306.1999511719</ele>
        <time>2019-08-23T07:26:44Z</time>
      </trkpt>
      <trkpt lat="42.92662" lon="0.30236">
        <ele>1306.5999755859</ele>
        <time>2019-08-23T07:26:48Z</time>
      </trkpt>
      <trkpt lat="42.92664" lon="0.30237">
        <ele>1307.1999511719</ele>
        <time>2019-08-23T07:26:49Z</time>
      </trkpt>
      <trkpt lat="42.92666" lon="0.30238">
        <ele>1307.5999755859</ele>
        <time>2019-08-23T07:26:50Z</time>
      </trkpt>
      <trkpt lat="42.92667" lon="0.30239">
        <ele>1308</ele>
        <time>2019-08-23T07:26:51Z</time>
      </trkpt>
      <trkpt lat="42.92669" lon="0.3024">
        <ele>1308.4000244141</ele>
        <time>2019-08-23T07:26:52Z</time>
      </trkpt>
      <trkpt lat="42.92674" lon="0.30244">
        <ele>1308.4000244141</ele>
        <time>2019-08-23T07:26:56Z</time>
      </trkpt>
      <trkpt lat="42.92682" lon="0.30252">
        <ele>1308.8000488281</ele>
        <time>2019-08-23T07:27:01Z</time>
      </trkpt>
      <trkpt lat="42.92683" lon="0.30254">
        <ele>1309.8000488281</ele>
        <time>2019-08-23T07:27:02Z</time>
      </trkpt>
      <trkpt lat="42.92683" lon="0.30256">
        <ele>1310.1999511719</ele>
        <time>2019-08-23T07:27:03Z</time>
      </trkpt>
      <trkpt lat="42.92684" lon="0.30258">
        <ele>1310.5999755859</ele>
        <time>2019-08-23T07:27:04Z</time>
      </trkpt>
      <trkpt lat="42.92689" lon="0.30268">
        <ele>1310.5999755859</ele>
        <time>2019-08-23T07:27:09Z</time>
      </trkpt>
      <trkpt lat="42.9269" lon="0.30269">
        <ele>1311</ele>
        <time>2019-08-23T07:27:10Z</time>
      </trkpt>
      <trkpt lat="42.92691" lon="0.30272">
        <ele>1311.4000244141</ele>
        <time>2019-08-23T07:27:11Z</time>
      </trkpt>
      <trkpt lat="42.92692" lon="0.30273">
        <ele>1312</ele>
        <time>2019-08-23T07:27:12Z</time>
      </trkpt>
      <trkpt lat="42.92693" lon="0.30275">
        <ele>1312.4000244141</ele>
        <time>2019-08-23T07:27:13Z</time>
      </trkpt>
      <trkpt lat="42.92693" lon="0.30277">
        <ele>1312.8000488281</ele>
        <time>2019-08-23T07:27:14Z</time>
      </trkpt>
      <trkpt lat="42.92693" lon="0.30278">
        <ele>1312.8000488281</ele>
        <time>2019-08-23T07:27:15Z</time>
      </trkpt>
      <trkpt lat="42.92697" lon="0.30288">
        <ele>1312.8000488281</ele>
        <time>2019-08-23T07:27:21Z</time>
      </trkpt>
      <trkpt lat="42.92698" lon="0.30293">
        <ele>1313.1999511719</ele>
        <time>2019-08-23T07:27:24Z</time>
      </trkpt>
      <trkpt lat="42.92698" lon="0.30295">
        <ele>1313.5999755859</ele>
        <time>2019-08-23T07:27:25Z</time>
      </trkpt>
      <trkpt lat="42.92698" lon="0.30297">
        <ele>1314</ele>
        <time>2019-08-23T07:27:26Z</time>
      </trkpt>
      <trkpt lat="42.92699" lon="0.30299">
        <ele>1315</ele>
        <time>2019-08-23T07:27:27Z</time>
      </trkpt>
      <trkpt lat="42.92698" lon="0.303">
        <ele>1315</ele>
        <time>2019-08-23T07:27:28Z</time>
      </trkpt>
      <trkpt lat="42.92698" lon="0.30307">
        <ele>1315</ele>
        <time>2019-08-23T07:27:32Z</time>
      </trkpt>
      <trkpt lat="42.92698" lon="0.30313">
        <ele>1315</ele>
        <time>2019-08-23T07:27:35Z</time>
      </trkpt>
      <trkpt lat="42.92698" lon="0.30314">
        <ele>1315.4000244141</ele>
        <time>2019-08-23T07:27:36Z</time>
      </trkpt>
      <trkpt lat="42.92697" lon="0.30316">
        <ele>1315.8000488281</ele>
        <time>2019-08-23T07:27:37Z</time>
      </trkpt>
      <trkpt lat="42.92697" lon="0.30318">
        <ele>1316.1999511719</ele>
        <time>2019-08-23T07:27:38Z</time>
      </trkpt>
      <trkpt lat="42.92696" lon="0.30319">
        <ele>1316.5999755859</ele>
        <time>2019-08-23T07:27:39Z</time>
      </trkpt>
      <trkpt lat="42.92696" lon="0.30321">
        <ele>1317</ele>
        <time>2019-08-23T07:27:40Z</time>
      </trkpt>
      <trkpt lat="42.92695" lon="0.30325">
        <ele>1317</ele>
        <time>2019-08-23T07:27:42Z</time>
      </trkpt>
      <trkpt lat="42.92697" lon="0.30341">
        <ele>1317</ele>
        <time>2019-08-23T07:27:48Z</time>
      </trkpt>
      <trkpt lat="42.92698" lon="0.30344">
        <ele>1317.4000244141</ele>
        <time>2019-08-23T07:27:49Z</time>
      </trkpt>
      <trkpt lat="42.92699" lon="0.30346">
        <ele>1317.8000488281</ele>
        <time>2019-08-23T07:27:50Z</time>
      </trkpt>
      <trkpt lat="42.927" lon="0.30348">
        <ele>1318.1999511719</ele>
        <time>2019-08-23T07:27:51Z</time>
      </trkpt>
      <trkpt lat="42.927" lon="0.3035">
        <ele>1319.1999511719</ele>
        <time>2019-08-23T07:27:52Z</time>
      </trkpt>
      <trkpt lat="42.92699" lon="0.30353">
        <ele>1319.1999511719</ele>
        <time>2019-08-23T07:27:54Z</time>
      </trkpt>
      <trkpt lat="42.92699" lon="0.30356">
        <ele>1319.1999511719</ele>
        <time>2019-08-23T07:27:55Z</time>
      </trkpt>
      <trkpt lat="42.92697" lon="0.30362">
        <ele>1319.1999511719</ele>
        <time>2019-08-23T07:27:59Z</time>
      </trkpt>
      <trkpt lat="42.92697" lon="0.30364">
        <ele>1319.1999511719</ele>
        <time>2019-08-23T07:28:00Z</time>
      </trkpt>
      <trkpt lat="42.92697" lon="0.30369">
        <ele>1319.5999755859</ele>
        <time>2019-08-23T07:28:02Z</time>
      </trkpt>
      <trkpt lat="42.92697" lon="0.3037">
        <ele>1320</ele>
        <time>2019-08-23T07:28:03Z</time>
      </trkpt>
      <trkpt lat="42.92697" lon="0.30372">
        <ele>1320.4000244141</ele>
        <time>2019-08-23T07:28:04Z</time>
      </trkpt>
      <trkpt lat="42.92696" lon="0.30373">
        <ele>1321</ele>
        <time>2019-08-23T07:28:05Z</time>
      </trkpt>
      <trkpt lat="42.92696" lon="0.30374">
        <ele>1321.4000244141</ele>
        <time>2019-08-23T07:28:06Z</time>
      </trkpt>
      <trkpt lat="42.92695" lon="0.30375">
        <ele>1321.4000244141</ele>
        <time>2019-08-23T07:28:07Z</time>
      </trkpt>
      <trkpt lat="42.92693" lon="0.30383">
        <ele>1321.4000244141</ele>
        <time>2019-08-23T07:28:11Z</time>
      </trkpt>
      <trkpt lat="42.92694" lon="0.3039">
        <ele>1321.4000244141</ele>
        <time>2019-08-23T07:28:14Z</time>
      </trkpt>
      <trkpt lat="42.92695" lon="0.30392">
        <ele>1321.8000488281</ele>
        <time>2019-08-23T07:28:15Z</time>
      </trkpt>
      <trkpt lat="42.92695" lon="0.30394">
        <ele>1322.5999755859</ele>
        <time>2019-08-23T07:28:16Z</time>
      </trkpt>
      <trkpt lat="42.92696" lon="0.30396">
        <ele>1323</ele>
        <time>2019-08-23T07:28:17Z</time>
      </trkpt>
      <trkpt lat="42.92696" lon="0.30399">
        <ele>1323.4000244141</ele>
        <time>2019-08-23T07:28:18Z</time>
      </trkpt>
      <trkpt lat="42.92696" lon="0.30403">
        <ele>1323.4000244141</ele>
        <time>2019-08-23T07:28:20Z</time>
      </trkpt>
      <trkpt lat="42.92695" lon="0.30414">
        <ele>1323.8000488281</ele>
        <time>2019-08-23T07:28:25Z</time>
      </trkpt>
      <trkpt lat="42.92696" lon="0.30416">
        <ele>1324.1999511719</ele>
        <time>2019-08-23T07:28:26Z</time>
      </trkpt>
      <trkpt lat="42.92696" lon="0.30417">
        <ele>1324.5999755859</ele>
        <time>2019-08-23T07:28:27Z</time>
      </trkpt>
      <trkpt lat="42.92696" lon="0.30419">
        <ele>1325</ele>
        <time>2019-08-23T07:28:28Z</time>
      </trkpt>
      <trkpt lat="42.92697" lon="0.30422">
        <ele>1325.4000244141</ele>
        <time>2019-08-23T07:28:29Z</time>
      </trkpt>
      <trkpt lat="42.927" lon="0.3043">
        <ele>1325.4000244141</ele>
        <time>2019-08-23T07:28:32Z</time>
      </trkpt>
      <trkpt lat="42.92699" lon="0.30439">
        <ele>1325.8000488281</ele>
        <time>2019-08-23T07:28:38Z</time>
      </trkpt>
      <trkpt lat="42.92699" lon="0.30441">
        <ele>1326.4000244141</ele>
        <time>2019-08-23T07:28:39Z</time>
      </trkpt>
      <trkpt lat="42.92698" lon="0.30442">
        <ele>1326.8000488281</ele>
        <time>2019-08-23T07:28:40Z</time>
      </trkpt>
      <trkpt lat="42.92698" lon="0.30444">
        <ele>1327.5999755859</ele>
        <time>2019-08-23T07:28:41Z</time>
      </trkpt>
      <trkpt lat="42.92695" lon="0.30449">
        <ele>1327.5999755859</ele>
        <time>2019-08-23T07:28:45Z</time>
      </trkpt>
      <trkpt lat="42.92692" lon="0.30455">
        <ele>1328</ele>
        <time>2019-08-23T07:28:49Z</time>
      </trkpt>
      <trkpt lat="42.92691" lon="0.30456">
        <ele>1328.4000244141</ele>
        <time>2019-08-23T07:28:50Z</time>
      </trkpt>
      <trkpt lat="42.92691" lon="0.30458">
        <ele>1328.8000488281</ele>
        <time>2019-08-23T07:28:51Z</time>
      </trkpt>
      <trkpt lat="42.9269" lon="0.3046">
        <ele>1329.1999511719</ele>
        <time>2019-08-23T07:28:52Z</time>
      </trkpt>
      <trkpt lat="42.92691" lon="0.3046">
        <ele>1329.5999755859</ele>
        <time>2019-08-23T07:28:53Z</time>
      </trkpt>
      <trkpt lat="42.92695" lon="0.30472">
        <ele>1329.5999755859</ele>
        <time>2019-08-23T07:28:57Z</time>
      </trkpt>
      <trkpt lat="42.92695" lon="0.30481">
        <ele>1330</ele>
        <time>2019-08-23T07:29:03Z</time>
      </trkpt>
      <trkpt lat="42.92696" lon="0.30483">
        <ele>1330.4000244141</ele>
        <time>2019-08-23T07:29:04Z</time>
      </trkpt>
      <trkpt lat="42.92697" lon="0.30484">
        <ele>1330.8000488281</ele>
        <time>2019-08-23T07:29:05Z</time>
      </trkpt>
      <trkpt lat="42.92697" lon="0.30487">
        <ele>1331.8000488281</ele>
        <time>2019-08-23T07:29:06Z</time>
      </trkpt>
      <trkpt lat="42.92696" lon="0.30489">
        <ele>1331.8000488281</ele>
        <time>2019-08-23T07:29:07Z</time>
      </trkpt>
      <trkpt lat="42.92695" lon="0.3049">
        <ele>1331.8000488281</ele>
        <time>2019-08-23T07:29:08Z</time>
      </trkpt>
      <trkpt lat="42.92695" lon="0.30502">
        <ele>1332.1999511719</ele>
        <time>2019-08-23T07:29:14Z</time>
      </trkpt>
      <trkpt lat="42.92695" lon="0.30503">
        <ele>1332.5999755859</ele>
        <time>2019-08-23T07:29:15Z</time>
      </trkpt>
      <trkpt lat="42.92694" lon="0.30505">
        <ele>1333</ele>
        <time>2019-08-23T07:29:16Z</time>
      </trkpt>
      <trkpt lat="42.92693" lon="0.30506">
        <ele>1333.4000244141</ele>
        <time>2019-08-23T07:29:17Z</time>
      </trkpt>
      <trkpt lat="42.92693" lon="0.30509">
        <ele>1333.8000488281</ele>
        <time>2019-08-23T07:29:18Z</time>
      </trkpt>
      <trkpt lat="42.92692" lon="0.30512">
        <ele>1333.8000488281</ele>
        <time>2019-08-23T07:29:20Z</time>
      </trkpt>
      <trkpt lat="42.92693" lon="0.30529">
        <ele>1333.8000488281</ele>
        <time>2019-08-23T07:29:26Z</time>
      </trkpt>
      <trkpt lat="42.92692" lon="0.30531">
        <ele>1334.1999511719</ele>
        <time>2019-08-23T07:29:27Z</time>
      </trkpt>
      <trkpt lat="42.92692" lon="0.30532">
        <ele>1334.5999755859</ele>
        <time>2019-08-23T07:29:28Z</time>
      </trkpt>
      <trkpt lat="42.92691" lon="0.30533">
        <ele>1335</ele>
        <time>2019-08-23T07:29:29Z</time>
      </trkpt>
      <trkpt lat="42.9269" lon="0.30535">
        <ele>1335.4000244141</ele>
        <time>2019-08-23T07:29:30Z</time>
      </trkpt>
      <trkpt lat="42.9269" lon="0.30537">
        <ele>1336</ele>
        <time>2019-08-23T07:29:31Z</time>
      </trkpt>
      <trkpt lat="42.9269" lon="0.3054">
        <ele>1336</ele>
        <time>2019-08-23T07:29:32Z</time>
      </trkpt>
      <trkpt lat="42.92689" lon="0.30556">
        <ele>1336.4000244141</ele>
        <time>2019-08-23T07:29:38Z</time>
      </trkpt>
      <trkpt lat="42.92689" lon="0.30558">
        <ele>1336.8000488281</ele>
        <time>2019-08-23T07:29:39Z</time>
      </trkpt>
      <trkpt lat="42.92688" lon="0.3056">
        <ele>1337.1999511719</ele>
        <time>2019-08-23T07:29:40Z</time>
      </trkpt>
      <trkpt lat="42.92688" lon="0.30563">
        <ele>1337.5999755859</ele>
        <time>2019-08-23T07:29:41Z</time>
      </trkpt>
      <trkpt lat="42.92687" lon="0.30564">
        <ele>1338</ele>
        <time>2019-08-23T07:29:42Z</time>
      </trkpt>
      <trkpt lat="42.92686" lon="0.30566">
        <ele>1338</ele>
        <time>2019-08-23T07:29:43Z</time>
      </trkpt>
      <trkpt lat="42.92681" lon="0.30572">
        <ele>1338</ele>
        <time>2019-08-23T07:29:48Z</time>
      </trkpt>
      <trkpt lat="42.92679" lon="0.30574">
        <ele>1338.4000244141</ele>
        <time>2019-08-23T07:29:50Z</time>
      </trkpt>
      <trkpt lat="42.92677" lon="0.30576">
        <ele>1338.8000488281</ele>
        <time>2019-08-23T07:29:51Z</time>
      </trkpt>
      <trkpt lat="42.92675" lon="0.30576">
        <ele>1339.4000244141</ele>
        <time>2019-08-23T07:29:52Z</time>
      </trkpt>
      <trkpt lat="42.92674" lon="0.30577">
        <ele>1339.8000488281</ele>
        <time>2019-08-23T07:29:53Z</time>
      </trkpt>
      <trkpt lat="42.92672" lon="0.30578">
        <ele>1340.1999511719</ele>
        <time>2019-08-23T07:29:54Z</time>
      </trkpt>
      <trkpt lat="42.92668" lon="0.30587">
        <ele>1340.1999511719</ele>
        <time>2019-08-23T07:30:00Z</time>
      </trkpt>
      <trkpt lat="42.92665" lon="0.3059">
        <ele>1340.5999755859</ele>
        <time>2019-08-23T07:30:02Z</time>
      </trkpt>
      <trkpt lat="42.92664" lon="0.30593">
        <ele>1341</ele>
        <time>2019-08-23T07:30:03Z</time>
      </trkpt>
      <trkpt lat="42.92664" lon="0.30594">
        <ele>1341.4000244141</ele>
        <time>2019-08-23T07:30:04Z</time>
      </trkpt>
      <trkpt lat="42.92662" lon="0.30595">
        <ele>1341.8000488281</ele>
        <time>2019-08-23T07:30:05Z</time>
      </trkpt>
      <trkpt lat="42.92661" lon="0.30597">
        <ele>1342.1999511719</ele>
        <time>2019-08-23T07:30:06Z</time>
      </trkpt>
      <trkpt lat="42.92655" lon="0.30602">
        <ele>1342.1999511719</ele>
        <time>2019-08-23T07:30:12Z</time>
      </trkpt>
      <trkpt lat="42.92652" lon="0.30604">
        <ele>1342.5999755859</ele>
        <time>2019-08-23T07:30:14Z</time>
      </trkpt>
      <trkpt lat="42.92652" lon="0.30606">
        <ele>1343</ele>
        <time>2019-08-23T07:30:15Z</time>
      </trkpt>
      <trkpt lat="42.92651" lon="0.30607">
        <ele>1343.5999755859</ele>
        <time>2019-08-23T07:30:16Z</time>
      </trkpt>
      <trkpt lat="42.9265" lon="0.30609">
        <ele>1344</ele>
        <time>2019-08-23T07:30:17Z</time>
      </trkpt>
      <trkpt lat="42.92649" lon="0.30611">
        <ele>1344.4000244141</ele>
        <time>2019-08-23T07:30:18Z</time>
      </trkpt>
      <trkpt lat="42.92643" lon="0.30619">
        <ele>1344.4000244141</ele>
        <time>2019-08-23T07:30:24Z</time>
      </trkpt>
      <trkpt lat="42.92639" lon="0.30624">
        <ele>1344.8000488281</ele>
        <time>2019-08-23T07:30:27Z</time>
      </trkpt>
      <trkpt lat="42.92638" lon="0.30625">
        <ele>1345.1999511719</ele>
        <time>2019-08-23T07:30:28Z</time>
      </trkpt>
      <trkpt lat="42.92637" lon="0.30626">
        <ele>1345.5999755859</ele>
        <time>2019-08-23T07:30:29Z</time>
      </trkpt>
      <trkpt lat="42.92635" lon="0.30628">
        <ele>1346.1999511719</ele>
        <time>2019-08-23T07:30:30Z</time>
      </trkpt>
      <trkpt lat="42.92634" lon="0.30629">
        <ele>1346.5999755859</ele>
        <time>2019-08-23T07:30:31Z</time>
      </trkpt>
      <trkpt lat="42.92624" lon="0.30635">
        <ele>1346.5999755859</ele>
        <time>2019-08-23T07:30:38Z</time>
      </trkpt>
      <trkpt lat="42.92622" lon="0.30638">
        <ele>1347</ele>
        <time>2019-08-23T07:30:40Z</time>
      </trkpt>
      <trkpt lat="42.92621" lon="0.30638">
        <ele>1347.4000244141</ele>
        <time>2019-08-23T07:30:41Z</time>
      </trkpt>
      <trkpt lat="42.92619" lon="0.30639">
        <ele>1347.8000488281</ele>
        <time>2019-08-23T07:30:42Z</time>
      </trkpt>
      <trkpt lat="42.92617" lon="0.3064">
        <ele>1348.1999511719</ele>
        <time>2019-08-23T07:30:43Z</time>
      </trkpt>
      <trkpt lat="42.92616" lon="0.30642">
        <ele>1348.5999755859</ele>
        <time>2019-08-23T07:30:44Z</time>
      </trkpt>
      <trkpt lat="42.92607" lon="0.30648">
        <ele>1348.5999755859</ele>
        <time>2019-08-23T07:30:50Z</time>
      </trkpt>
      <trkpt lat="42.92603" lon="0.30651">
        <ele>1349</ele>
        <time>2019-08-23T07:30:53Z</time>
      </trkpt>
      <trkpt lat="42.92602" lon="0.30652">
        <ele>1349.4000244141</ele>
        <time>2019-08-23T07:30:54Z</time>
      </trkpt>
      <trkpt lat="42.926" lon="0.30653">
        <ele>1349.8000488281</ele>
        <time>2019-08-23T07:30:55Z</time>
      </trkpt>
      <trkpt lat="42.92599" lon="0.30654">
        <ele>1350.1999511719</ele>
        <time>2019-08-23T07:30:56Z</time>
      </trkpt>
      <trkpt lat="42.92598" lon="0.30656">
        <ele>1350.5999755859</ele>
        <time>2019-08-23T07:30:57Z</time>
      </trkpt>
      <trkpt lat="42.92589" lon="0.30662">
        <ele>1350.5999755859</ele>
        <time>2019-08-23T07:31:02Z</time>
      </trkpt>
      <trkpt lat="42.9258" lon="0.3067">
        <ele>1350.5999755859</ele>
        <time>2019-08-23T07:31:08Z</time>
      </trkpt>
      <trkpt lat="42.92578" lon="0.30672">
        <ele>1351.4000244141</ele>
        <time>2019-08-23T07:31:09Z</time>
      </trkpt>
      <trkpt lat="42.92577" lon="0.30673">
        <ele>1351.8000488281</ele>
        <time>2019-08-23T07:31:10Z</time>
      </trkpt>
      <trkpt lat="42.92575" lon="0.30674">
        <ele>1352.1999511719</ele>
        <time>2019-08-23T07:31:11Z</time>
      </trkpt>
      <trkpt lat="42.92574" lon="0.30674">
        <ele>1352.5999755859</ele>
        <time>2019-08-23T07:31:12Z</time>
      </trkpt>
      <trkpt lat="42.92566" lon="0.30675">
        <ele>1352.5999755859</ele>
        <time>2019-08-23T07:31:16Z</time>
      </trkpt>
      <trkpt lat="42.92554" lon="0.30684">
        <ele>1352.5999755859</ele>
        <time>2019-08-23T07:31:25Z</time>
      </trkpt>
      <trkpt lat="42.92553" lon="0.30685">
        <ele>1353</ele>
        <time>2019-08-23T07:31:26Z</time>
      </trkpt>
      <trkpt lat="42.92551" lon="0.30686">
        <ele>1353.5999755859</ele>
        <time>2019-08-23T07:31:27Z</time>
      </trkpt>
      <trkpt lat="42.92549" lon="0.30686">
        <ele>1354</ele>
        <time>2019-08-23T07:31:28Z</time>
      </trkpt>
      <trkpt lat="42.92547" lon="0.30686">
        <ele>1354.4000244141</ele>
        <time>2019-08-23T07:31:29Z</time>
      </trkpt>
      <trkpt lat="42.92545" lon="0.30686">
        <ele>1354.8000488281</ele>
        <time>2019-08-23T07:31:30Z</time>
      </trkpt>
      <trkpt lat="42.9254" lon="0.30687">
        <ele>1354.8000488281</ele>
        <time>2019-08-23T07:31:33Z</time>
      </trkpt>
      <trkpt lat="42.92537" lon="0.30687">
        <ele>1354.8000488281</ele>
        <time>2019-08-23T07:31:36Z</time>
      </trkpt>
      <trkpt lat="42.92534" lon="0.30688">
        <ele>1354.8000488281</ele>
        <time>2019-08-23T07:31:37Z</time>
      </trkpt>
      <trkpt lat="42.92532" lon="0.30689">
        <ele>1355.1999511719</ele>
        <time>2019-08-23T07:31:39Z</time>
      </trkpt>
      <trkpt lat="42.92531" lon="0.3069">
        <ele>1355.8000488281</ele>
        <time>2019-08-23T07:31:40Z</time>
      </trkpt>
      <trkpt lat="42.92529" lon="0.3069">
        <ele>1356.1999511719</ele>
        <time>2019-08-23T07:31:41Z</time>
      </trkpt>
      <trkpt lat="42.92528" lon="0.30691">
        <ele>1356.5999755859</ele>
        <time>2019-08-23T07:31:42Z</time>
      </trkpt>
      <trkpt lat="42.92527" lon="0.30692">
        <ele>1357</ele>
        <time>2019-08-23T07:31:43Z</time>
      </trkpt>
      <trkpt lat="42.92526" lon="0.30693">
        <ele>1357</ele>
        <time>2019-08-23T07:31:44Z</time>
      </trkpt>
      <trkpt lat="42.92519" lon="0.30695">
        <ele>1357</ele>
        <time>2019-08-23T07:31:49Z</time>
      </trkpt>
      <trkpt lat="42.92517" lon="0.30697">
        <ele>1357</ele>
        <time>2019-08-23T07:31:51Z</time>
      </trkpt>
      <trkpt lat="42.92516" lon="0.30697">
        <ele>1357.4000244141</ele>
        <time>2019-08-23T07:31:52Z</time>
      </trkpt>
      <trkpt lat="42.92515" lon="0.30698">
        <ele>1357.8000488281</ele>
        <time>2019-08-23T07:31:53Z</time>
      </trkpt>
      <trkpt lat="42.92513" lon="0.30698">
        <ele>1358.4000244141</ele>
        <time>2019-08-23T07:31:54Z</time>
      </trkpt>
      <trkpt lat="42.92511" lon="0.30699">
        <ele>1358.8000488281</ele>
        <time>2019-08-23T07:31:55Z</time>
      </trkpt>
      <trkpt lat="42.9251" lon="0.307">
        <ele>1359.1999511719</ele>
        <time>2019-08-23T07:31:56Z</time>
      </trkpt>
      <trkpt lat="42.92507" lon="0.30702">
        <ele>1359.1999511719</ele>
        <time>2019-08-23T07:31:58Z</time>
      </trkpt>
      <trkpt lat="42.92506" lon="0.30703">
        <ele>1359.1999511719</ele>
        <time>2019-08-23T07:31:59Z</time>
      </trkpt>
      <trkpt lat="42.92497" lon="0.30707">
        <ele>1359.1999511719</ele>
        <time>2019-08-23T07:32:05Z</time>
      </trkpt>
      <trkpt lat="42.92494" lon="0.30709">
        <ele>1359.5999755859</ele>
        <time>2019-08-23T07:32:07Z</time>
      </trkpt>
      <trkpt lat="42.92493" lon="0.30709">
        <ele>1360</ele>
        <time>2019-08-23T07:32:08Z</time>
      </trkpt>
      <trkpt lat="42.92492" lon="0.3071">
        <ele>1360.4000244141</ele>
        <time>2019-08-23T07:32:09Z</time>
      </trkpt>
      <trkpt lat="42.9249" lon="0.3071">
        <ele>1360.8000488281</ele>
        <time>2019-08-23T07:32:10Z</time>
      </trkpt>
      <trkpt lat="42.92489" lon="0.30712">
        <ele>1361.1999511719</ele>
        <time>2019-08-23T07:32:11Z</time>
      </trkpt>
      <trkpt lat="42.92482" lon="0.30715">
        <ele>1361.1999511719</ele>
        <time>2019-08-23T07:32:16Z</time>
      </trkpt>
      <trkpt lat="42.92478" lon="0.30717">
        <ele>1361.1999511719</ele>
        <time>2019-08-23T07:32:19Z</time>
      </trkpt>
      <trkpt lat="42.92476" lon="0.30719">
        <ele>1361.5999755859</ele>
        <time>2019-08-23T07:32:21Z</time>
      </trkpt>
      <trkpt lat="42.92476" lon="0.3072">
        <ele>1362</ele>
        <time>2019-08-23T07:32:22Z</time>
      </trkpt>
      <trkpt lat="42.92474" lon="0.30721">
        <ele>1362.4000244141</ele>
        <time>2019-08-23T07:32:23Z</time>
      </trkpt>
      <trkpt lat="42.92473" lon="0.30721">
        <ele>1363.4000244141</ele>
        <time>2019-08-23T07:32:24Z</time>
      </trkpt>
      <trkpt lat="42.92467" lon="0.30723">
        <ele>1363.4000244141</ele>
        <time>2019-08-23T07:32:29Z</time>
      </trkpt>
      <trkpt lat="42.92459" lon="0.30727">
        <ele>1363.8000488281</ele>
        <time>2019-08-23T07:32:35Z</time>
      </trkpt>
      <trkpt lat="42.92457" lon="0.30728">
        <ele>1364.1999511719</ele>
        <time>2019-08-23T07:32:36Z</time>
      </trkpt>
      <trkpt lat="42.92455" lon="0.30729">
        <ele>1364.5999755859</ele>
        <time>2019-08-23T07:32:37Z</time>
      </trkpt>
      <trkpt lat="42.92454" lon="0.30729">
        <ele>1365</ele>
        <time>2019-08-23T07:32:38Z</time>
      </trkpt>
      <trkpt lat="42.92452" lon="0.3073">
        <ele>1365.4000244141</ele>
        <time>2019-08-23T07:32:39Z</time>
      </trkpt>
      <trkpt lat="42.92449" lon="0.30731">
        <ele>1365.4000244141</ele>
        <time>2019-08-23T07:32:41Z</time>
      </trkpt>
      <trkpt lat="42.92443" lon="0.30737">
        <ele>1365.4000244141</ele>
        <time>2019-08-23T07:32:46Z</time>
      </trkpt>
      <trkpt lat="42.92439" lon="0.30738">
        <ele>1365.8000488281</ele>
        <time>2019-08-23T07:32:48Z</time>
      </trkpt>
      <trkpt lat="42.92438" lon="0.30739">
        <ele>1366.8000488281</ele>
        <time>2019-08-23T07:32:49Z</time>
      </trkpt>
      <trkpt lat="42.92436" lon="0.30741">
        <ele>1367.1999511719</ele>
        <time>2019-08-23T07:32:50Z</time>
      </trkpt>
      <trkpt lat="42.92435" lon="0.30742">
        <ele>1367.5999755859</ele>
        <time>2019-08-23T07:32:51Z</time>
      </trkpt>
      <trkpt lat="42.92434" lon="0.30743">
        <ele>1367.5999755859</ele>
        <time>2019-08-23T07:32:52Z</time>
      </trkpt>
      <trkpt lat="42.92432" lon="0.3075">
        <ele>1367.5999755859</ele>
        <time>2019-08-23T07:32:56Z</time>
      </trkpt>
      <trkpt lat="42.92431" lon="0.30752">
        <ele>1367.5999755859</ele>
        <time>2019-08-23T07:32:59Z</time>
      </trkpt>
      <trkpt lat="42.92431" lon="0.30752">
        <ele>1367.5999755859</ele>
        <time>2019-08-23T07:33:08Z</time>
      </trkpt>
      <trkpt lat="42.92431" lon="0.30752">
        <ele>1367.5999755859</ele>
        <time>2019-08-23T07:33:19Z</time>
      </trkpt>
      <trkpt lat="42.92431" lon="0.30752">
        <ele>1367.5999755859</ele>
        <time>2019-08-23T07:33:30Z</time>
      </trkpt>
      <trkpt lat="42.9243" lon="0.30751">
        <ele>1367.5999755859</ele>
        <time>2019-08-23T07:33:42Z</time>
      </trkpt>
      <trkpt lat="42.9243" lon="0.30751">
        <ele>1367.5999755859</ele>
        <time>2019-08-23T07:33:55Z</time>
      </trkpt>
      <trkpt lat="42.9243" lon="0.30751">
        <ele>1367.5999755859</ele>
        <time>2019-08-23T07:34:06Z</time>
      </trkpt>
      <trkpt lat="42.9243" lon="0.30751">
        <ele>1367.5999755859</ele>
        <time>2019-08-23T07:34:18Z</time>
      </trkpt>
      <trkpt lat="42.92429" lon="0.30754">
        <ele>1367.5999755859</ele>
        <time>2019-08-23T07:34:25Z</time>
      </trkpt>
      <trkpt lat="42.92427" lon="0.30759">
        <ele>1368</ele>
        <time>2019-08-23T07:34:29Z</time>
      </trkpt>
      <trkpt lat="42.92427" lon="0.30761">
        <ele>1368.4000244141</ele>
        <time>2019-08-23T07:34:30Z</time>
      </trkpt>
      <trkpt lat="42.92428" lon="0.30762">
        <ele>1368.8000488281</ele>
        <time>2019-08-23T07:34:31Z</time>
      </trkpt>
      <trkpt lat="42.92428" lon="0.30763">
        <ele>1369.1999511719</ele>
        <time>2019-08-23T07:34:32Z</time>
      </trkpt>
      <trkpt lat="42.92429" lon="0.30764">
        <ele>1369.8000488281</ele>
        <time>2019-08-23T07:34:33Z</time>
      </trkpt>
      <trkpt lat="42.92429" lon="0.30766">
        <ele>1369.8000488281</ele>
        <time>2019-08-23T07:34:36Z</time>
      </trkpt>
      <trkpt lat="42.92433" lon="0.30773">
        <ele>1370.1999511719</ele>
        <time>2019-08-23T07:34:42Z</time>
      </trkpt>
      <trkpt lat="42.92434" lon="0.30775">
        <ele>1370.5999755859</ele>
        <time>2019-08-23T07:34:43Z</time>
      </trkpt>
      <trkpt lat="42.92434" lon="0.30776">
        <ele>1371</ele>
        <time>2019-08-23T07:34:44Z</time>
      </trkpt>
      <trkpt lat="42.92435" lon="0.30777">
        <ele>1371.4000244141</ele>
        <time>2019-08-23T07:34:45Z</time>
      </trkpt>
      <trkpt lat="42.92436" lon="0.30778">
        <ele>1371.8000488281</ele>
        <time>2019-08-23T07:34:46Z</time>
      </trkpt>
      <trkpt lat="42.92437" lon="0.30781">
        <ele>1371.8000488281</ele>
        <time>2019-08-23T07:34:48Z</time>
      </trkpt>
      <trkpt lat="42.92438" lon="0.3079">
        <ele>1371.8000488281</ele>
        <time>2019-08-23T07:34:54Z</time>
      </trkpt>
      <trkpt lat="42.92438" lon="0.30791">
        <ele>1372.1999511719</ele>
        <time>2019-08-23T07:34:55Z</time>
      </trkpt>
      <trkpt lat="42.92438" lon="0.30793">
        <ele>1372.5999755859</ele>
        <time>2019-08-23T07:34:56Z</time>
      </trkpt>
      <trkpt lat="42.92438" lon="0.30794">
        <ele>1373</ele>
        <time>2019-08-23T07:34:57Z</time>
      </trkpt>
      <trkpt lat="42.92437" lon="0.30796">
        <ele>1373.4000244141</ele>
        <time>2019-08-23T07:34:58Z</time>
      </trkpt>
      <trkpt lat="42.92437" lon="0.30797">
        <ele>1373.8000488281</ele>
        <time>2019-08-23T07:34:59Z</time>
      </trkpt>
      <trkpt lat="42.92437" lon="0.308">
        <ele>1373.8000488281</ele>
        <time>2019-08-23T07:35:01Z</time>
      </trkpt>
      <trkpt lat="42.92444" lon="0.30815">
        <ele>1373.8000488281</ele>
        <time>2019-08-23T07:35:07Z</time>
      </trkpt>
      <trkpt lat="42.92448" lon="0.30823">
        <ele>1374.1999511719</ele>
        <time>2019-08-23T07:35:10Z</time>
      </trkpt>
      <trkpt lat="42.92448" lon="0.30825">
        <ele>1374.5999755859</ele>
        <time>2019-08-23T07:35:11Z</time>
      </trkpt>
      <trkpt lat="42.92448" lon="0.30826">
        <ele>1375</ele>
        <time>2019-08-23T07:35:12Z</time>
      </trkpt>
      <trkpt lat="42.92448" lon="0.30827">
        <ele>1375.4000244141</ele>
        <time>2019-08-23T07:35:13Z</time>
      </trkpt>
      <trkpt lat="42.92448" lon="0.30829">
        <ele>1375.8000488281</ele>
        <time>2019-08-23T07:35:14Z</time>
      </trkpt>
      <trkpt lat="42.9245" lon="0.3084">
        <ele>1376.1999511719</ele>
        <time>2019-08-23T07:35:21Z</time>
      </trkpt>
      <trkpt lat="42.9245" lon="0.30842">
        <ele>1376.8000488281</ele>
        <time>2019-08-23T07:35:22Z</time>
      </trkpt>
      <trkpt lat="42.92451" lon="0.30844">
        <ele>1377.1999511719</ele>
        <time>2019-08-23T07:35:23Z</time>
      </trkpt>
      <trkpt lat="42.92452" lon="0.30846">
        <ele>1377.5999755859</ele>
        <time>2019-08-23T07:35:24Z</time>
      </trkpt>
      <trkpt lat="42.92451" lon="0.30849">
        <ele>1378</ele>
        <time>2019-08-23T07:35:25Z</time>
      </trkpt>
      <trkpt lat="42.92453" lon="0.30855">
        <ele>1378</ele>
        <time>2019-08-23T07:35:27Z</time>
      </trkpt>
      <trkpt lat="42.92453" lon="0.30858">
        <ele>1378</ele>
        <time>2019-08-23T07:35:28Z</time>
      </trkpt>
      <trkpt lat="42.92453" lon="0.3086">
        <ele>1378</ele>
        <time>2019-08-23T07:35:29Z</time>
      </trkpt>
      <trkpt lat="42.92453" lon="0.30871">
        <ele>1378</ele>
        <time>2019-08-23T07:35:34Z</time>
      </trkpt>
      <trkpt lat="42.92452" lon="0.30873">
        <ele>1378.4000244141</ele>
        <time>2019-08-23T07:35:35Z</time>
      </trkpt>
      <trkpt lat="42.92451" lon="0.30875">
        <ele>1378.8000488281</ele>
        <time>2019-08-23T07:35:36Z</time>
      </trkpt>
      <trkpt lat="42.92451" lon="0.30877">
        <ele>1379.1999511719</ele>
        <time>2019-08-23T07:35:37Z</time>
      </trkpt>
      <trkpt lat="42.92451" lon="0.30879">
        <ele>1379.5999755859</ele>
        <time>2019-08-23T07:35:38Z</time>
      </trkpt>
      <trkpt lat="42.92451" lon="0.30881">
        <ele>1380.1999511719</ele>
        <time>2019-08-23T07:35:39Z</time>
      </trkpt>
      <trkpt lat="42.92451" lon="0.30882">
        <ele>1380.1999511719</ele>
        <time>2019-08-23T07:35:40Z</time>
      </trkpt>
      <trkpt lat="42.9245" lon="0.30886">
        <ele>1380.1999511719</ele>
        <time>2019-08-23T07:35:42Z</time>
      </trkpt>
      <trkpt lat="42.92451" lon="0.30895">
        <ele>1380.5999755859</ele>
        <time>2019-08-23T07:35:47Z</time>
      </trkpt>
      <trkpt lat="42.92452" lon="0.30896">
        <ele>1381</ele>
        <time>2019-08-23T07:35:48Z</time>
      </trkpt>
      <trkpt lat="42.92452" lon="0.30897">
        <ele>1381.4000244141</ele>
        <time>2019-08-23T07:35:49Z</time>
      </trkpt>
      <trkpt lat="42.92453" lon="0.30899">
        <ele>1381.8000488281</ele>
        <time>2019-08-23T07:35:50Z</time>
      </trkpt>
      <trkpt lat="42.92454" lon="0.309">
        <ele>1382.1999511719</ele>
        <time>2019-08-23T07:35:51Z</time>
      </trkpt>
      <trkpt lat="42.92454" lon="0.30907">
        <ele>1382.5999755859</ele>
        <time>2019-08-23T07:35:58Z</time>
      </trkpt>
      <trkpt lat="42.92454" lon="0.30908">
        <ele>1383</ele>
        <time>2019-08-23T07:35:59Z</time>
      </trkpt>
      <trkpt lat="42.92454" lon="0.30907">
        <ele>1383.4000244141</ele>
        <time>2019-08-23T07:36:00Z</time>
      </trkpt>
      <trkpt lat="42.92454" lon="0.30908">
        <ele>1383.8000488281</ele>
        <time>2019-08-23T07:36:01Z</time>
      </trkpt>
      <trkpt lat="42.92454" lon="0.30909">
        <ele>1384.1999511719</ele>
        <time>2019-08-23T07:36:02Z</time>
      </trkpt>
      <trkpt lat="42.92454" lon="0.30911">
        <ele>1384.1999511719</ele>
        <time>2019-08-23T07:36:04Z</time>
      </trkpt>
      <trkpt lat="42.92455" lon="0.3092">
        <ele>1384.5999755859</ele>
        <time>2019-08-23T07:36:09Z</time>
      </trkpt>
      <trkpt lat="42.92456" lon="0.30921">
        <ele>1385</ele>
        <time>2019-08-23T07:36:10Z</time>
      </trkpt>
      <trkpt lat="42.92457" lon="0.30922">
        <ele>1385.4000244141</ele>
        <time>2019-08-23T07:36:11Z</time>
      </trkpt>
      <trkpt lat="42.92457" lon="0.30924">
        <ele>1385.8000488281</ele>
        <time>2019-08-23T07:36:12Z</time>
      </trkpt>
      <trkpt lat="42.92458" lon="0.30925">
        <ele>1386.1999511719</ele>
        <time>2019-08-23T07:36:13Z</time>
      </trkpt>
      <trkpt lat="42.92458" lon="0.3093">
        <ele>1386.1999511719</ele>
        <time>2019-08-23T07:36:17Z</time>
      </trkpt>
      <trkpt lat="42.92517" lon="0.30974">
        <ele>1386.1999511719</ele>
        <time>2019-08-23T07:36:19Z</time>
      </trkpt>
      <trkpt lat="42.92547" lon="0.30984">
        <ele>1386.1999511719</ele>
        <time>2019-08-23T07:36:23Z</time>
      </trkpt>
      <trkpt lat="42.92553" lon="0.30987">
        <ele>1386.5999755859</ele>
        <time>2019-08-23T07:36:25Z</time>
      </trkpt>
      <trkpt lat="42.92556" lon="0.30989">
        <ele>1387.1999511719</ele>
        <time>2019-08-23T07:36:26Z</time>
      </trkpt>
      <trkpt lat="42.92559" lon="0.3099">
        <ele>1387.5999755859</ele>
        <time>2019-08-23T07:36:27Z</time>
      </trkpt>
      <trkpt lat="42.9256" lon="0.3099">
        <ele>1388</ele>
        <time>2019-08-23T07:36:28Z</time>
      </trkpt>
      <trkpt lat="42.92562" lon="0.30991">
        <ele>1388.4000244141</ele>
        <time>2019-08-23T07:36:29Z</time>
      </trkpt>
      <trkpt lat="42.92575" lon="0.30999">
        <ele>1388.4000244141</ele>
        <time>2019-08-23T07:36:36Z</time>
      </trkpt>
      <trkpt lat="42.92579" lon="0.31001">
        <ele>1388.4000244141</ele>
        <time>2019-08-23T07:36:38Z</time>
      </trkpt>
      <trkpt lat="42.92581" lon="0.31003">
        <ele>1388.8000488281</ele>
        <time>2019-08-23T07:36:40Z</time>
      </trkpt>
      <trkpt lat="42.92583" lon="0.31003">
        <ele>1389.1999511719</ele>
        <time>2019-08-23T07:36:41Z</time>
      </trkpt>
      <trkpt lat="42.92584" lon="0.31004">
        <ele>1389.5999755859</ele>
        <time>2019-08-23T07:36:42Z</time>
      </trkpt>
      <trkpt lat="42.92585" lon="0.31005">
        <ele>1390</ele>
        <time>2019-08-23T07:36:43Z</time>
      </trkpt>
      <trkpt lat="42.92586" lon="0.31006">
        <ele>1390.4000244141</ele>
        <time>2019-08-23T07:36:44Z</time>
      </trkpt>
      <trkpt lat="42.92589" lon="0.3101">
        <ele>1390.4000244141</ele>
        <time>2019-08-23T07:36:48Z</time>
      </trkpt>
      <trkpt lat="42.92594" lon="0.31015">
        <ele>1390.4000244141</ele>
        <time>2019-08-23T07:36:53Z</time>
      </trkpt>
      <trkpt lat="42.92605" lon="0.31024">
        <ele>1390.4000244141</ele>
        <time>2019-08-23T07:36:58Z</time>
      </trkpt>
      <trkpt lat="42.92614" lon="0.31031">
        <ele>1390.8000488281</ele>
        <time>2019-08-23T07:37:01Z</time>
      </trkpt>
      <trkpt lat="42.92616" lon="0.31033">
        <ele>1391.1999511719</ele>
        <time>2019-08-23T07:37:02Z</time>
      </trkpt>
      <trkpt lat="42.92618" lon="0.31035">
        <ele>1391.5999755859</ele>
        <time>2019-08-23T07:37:03Z</time>
      </trkpt>
      <trkpt lat="42.92621" lon="0.31037">
        <ele>1392.1999511719</ele>
        <time>2019-08-23T07:37:04Z</time>
      </trkpt>
      <trkpt lat="42.92623" lon="0.31038">
        <ele>1392.5999755859</ele>
        <time>2019-08-23T07:37:05Z</time>
      </trkpt>
      <trkpt lat="42.92631" lon="0.31046">
        <ele>1392.5999755859</ele>
        <time>2019-08-23T07:37:10Z</time>
      </trkpt>
      <trkpt lat="42.92639" lon="0.31053">
        <ele>1392.5999755859</ele>
        <time>2019-08-23T07:37:15Z</time>
      </trkpt>
      <trkpt lat="42.92648" lon="0.3106">
        <ele>1393</ele>
        <time>2019-08-23T07:37:21Z</time>
      </trkpt>
      <trkpt lat="42.9265" lon="0.31062">
        <ele>1393.8000488281</ele>
        <time>2019-08-23T07:37:22Z</time>
      </trkpt>
      <trkpt lat="42.92652" lon="0.31063">
        <ele>1394.4000244141</ele>
        <time>2019-08-23T07:37:23Z</time>
      </trkpt>
      <trkpt lat="42.92654" lon="0.31064">
        <ele>1394.8000488281</ele>
        <time>2019-08-23T07:37:24Z</time>
      </trkpt>
      <trkpt lat="42.92658" lon="0.31066">
        <ele>1394.8000488281</ele>
        <time>2019-08-23T07:37:27Z</time>
      </trkpt>
      <trkpt lat="42.92668" lon="0.31072">
        <ele>1394.8000488281</ele>
        <time>2019-08-23T07:37:34Z</time>
      </trkpt>
      <trkpt lat="42.9267" lon="0.31073">
        <ele>1395.1999511719</ele>
        <time>2019-08-23T07:37:35Z</time>
      </trkpt>
      <trkpt lat="42.92672" lon="0.31074">
        <ele>1395.5999755859</ele>
        <time>2019-08-23T07:37:36Z</time>
      </trkpt>
      <trkpt lat="42.92674" lon="0.31075">
        <ele>1396</ele>
        <time>2019-08-23T07:37:37Z</time>
      </trkpt>
      <trkpt lat="42.92675" lon="0.31076">
        <ele>1396.4000244141</ele>
        <time>2019-08-23T07:37:38Z</time>
      </trkpt>
      <trkpt lat="42.92676" lon="0.31077">
        <ele>1396.8000488281</ele>
        <time>2019-08-23T07:37:39Z</time>
      </trkpt>
      <trkpt lat="42.92686" lon="0.31084">
        <ele>1396.8000488281</ele>
        <time>2019-08-23T07:37:44Z</time>
      </trkpt>
      <trkpt lat="42.92694" lon="0.3109">
        <ele>1397.1999511719</ele>
        <time>2019-08-23T07:37:49Z</time>
      </trkpt>
      <trkpt lat="42.92695" lon="0.31092">
        <ele>1397.5999755859</ele>
        <time>2019-08-23T07:37:50Z</time>
      </trkpt>
      <trkpt lat="42.92697" lon="0.31093">
        <ele>1398</ele>
        <time>2019-08-23T07:37:51Z</time>
      </trkpt>
      <trkpt lat="42.92698" lon="0.31095">
        <ele>1398.4000244141</ele>
        <time>2019-08-23T07:37:52Z</time>
      </trkpt>
      <trkpt lat="42.92699" lon="0.31096">
        <ele>1398.8000488281</ele>
        <time>2019-08-23T07:37:53Z</time>
      </trkpt>
      <trkpt lat="42.92705" lon="0.31101">
        <ele>1398.8000488281</ele>
        <time>2019-08-23T07:37:57Z</time>
      </trkpt>
      <trkpt lat="42.92712" lon="0.31108">
        <ele>1398.8000488281</ele>
        <time>2019-08-23T07:38:01Z</time>
      </trkpt>
      <trkpt lat="42.92715" lon="0.31112">
        <ele>1399.4000244141</ele>
        <time>2019-08-23T07:38:03Z</time>
      </trkpt>
      <trkpt lat="42.92716" lon="0.31113">
        <ele>1399.8000488281</ele>
        <time>2019-08-23T07:38:04Z</time>
      </trkpt>
      <trkpt lat="42.92717" lon="0.31115">
        <ele>1400.1999511719</ele>
        <time>2019-08-23T07:38:05Z</time>
      </trkpt>
      <trkpt lat="42.92718" lon="0.31117">
        <ele>1400.5999755859</ele>
        <time>2019-08-23T07:38:06Z</time>
      </trkpt>
      <trkpt lat="42.92719" lon="0.31119">
        <ele>1401</ele>
        <time>2019-08-23T07:38:07Z</time>
      </trkpt>
      <trkpt lat="42.92721" lon="0.31123">
        <ele>1401</ele>
        <time>2019-08-23T07:38:10Z</time>
      </trkpt>
      <trkpt lat="42.92723" lon="0.31135">
        <ele>1401</ele>
        <time>2019-08-23T07:38:17Z</time>
      </trkpt>
      <trkpt lat="42.92723" lon="0.3114">
        <ele>1401.4000244141</ele>
        <time>2019-08-23T07:38:19Z</time>
      </trkpt>
      <trkpt lat="42.92724" lon="0.31142">
        <ele>1401.8000488281</ele>
        <time>2019-08-23T07:38:20Z</time>
      </trkpt>
      <trkpt lat="42.92724" lon="0.31144">
        <ele>1402.1999511719</ele>
        <time>2019-08-23T07:38:21Z</time>
      </trkpt>
      <trkpt lat="42.92724" lon="0.31146">
        <ele>1402.8000488281</ele>
        <time>2019-08-23T07:38:22Z</time>
      </trkpt>
      <trkpt lat="42.92725" lon="0.31148">
        <ele>1403.1999511719</ele>
        <time>2019-08-23T07:38:23Z</time>
      </trkpt>
      <trkpt lat="42.92726" lon="0.31151">
        <ele>1403.1999511719</ele>
        <time>2019-08-23T07:38:24Z</time>
      </trkpt>
      <trkpt lat="42.92723" lon="0.31162">
        <ele>1403.1999511719</ele>
        <time>2019-08-23T07:38:30Z</time>
      </trkpt>
      <trkpt lat="42.92724" lon="0.31167">
        <ele>1403.5999755859</ele>
        <time>2019-08-23T07:38:32Z</time>
      </trkpt>
      <trkpt lat="42.92724" lon="0.31169">
        <ele>1404</ele>
        <time>2019-08-23T07:38:33Z</time>
      </trkpt>
      <trkpt lat="42.92724" lon="0.3117">
        <ele>1404.4000244141</ele>
        <time>2019-08-23T07:38:34Z</time>
      </trkpt>
      <trkpt lat="42.92724" lon="0.31172">
        <ele>1404.8000488281</ele>
        <time>2019-08-23T07:38:35Z</time>
      </trkpt>
      <trkpt lat="42.92723" lon="0.31174">
        <ele>1405.1999511719</ele>
        <time>2019-08-23T07:38:36Z</time>
      </trkpt>
      <trkpt lat="42.92724" lon="0.31188">
        <ele>1405.1999511719</ele>
        <time>2019-08-23T07:38:43Z</time>
      </trkpt>
      <trkpt lat="42.92723" lon="0.3119">
        <ele>1405.5999755859</ele>
        <time>2019-08-23T07:38:44Z</time>
      </trkpt>
      <trkpt lat="42.92723" lon="0.31191">
        <ele>1406</ele>
        <time>2019-08-23T07:38:45Z</time>
      </trkpt>
      <trkpt lat="42.92723" lon="0.31193">
        <ele>1406.4000244141</ele>
        <time>2019-08-23T07:38:46Z</time>
      </trkpt>
      <trkpt lat="42.92723" lon="0.31195">
        <ele>1406.8000488281</ele>
        <time>2019-08-23T07:38:47Z</time>
      </trkpt>
      <trkpt lat="42.92723" lon="0.31197">
        <ele>1407.1999511719</ele>
        <time>2019-08-23T07:38:48Z</time>
      </trkpt>
      <trkpt lat="42.92722" lon="0.312">
        <ele>1407.1999511719</ele>
        <time>2019-08-23T07:38:49Z</time>
      </trkpt>
      <trkpt lat="42.92722" lon="0.31204">
        <ele>1407.1999511719</ele>
        <time>2019-08-23T07:38:51Z</time>
      </trkpt>
      <trkpt lat="42.92724" lon="0.31211">
        <ele>1407.1999511719</ele>
        <time>2019-08-23T07:38:54Z</time>
      </trkpt>
      <trkpt lat="42.92726" lon="0.31224">
        <ele>1407.1999511719</ele>
        <time>2019-08-23T07:38:59Z</time>
      </trkpt>
      <trkpt lat="42.92726" lon="0.31226">
        <ele>1407.5999755859</ele>
        <time>2019-08-23T07:39:00Z</time>
      </trkpt>
      <trkpt lat="42.92726" lon="0.31228">
        <ele>1408.5999755859</ele>
        <time>2019-08-23T07:39:01Z</time>
      </trkpt>
      <trkpt lat="42.92726" lon="0.3123">
        <ele>1409</ele>
        <time>2019-08-23T07:39:02Z</time>
      </trkpt>
      <trkpt lat="42.92725" lon="0.31232">
        <ele>1409.4000244141</ele>
        <time>2019-08-23T07:39:03Z</time>
      </trkpt>
      <trkpt lat="42.92725" lon="0.31239">
        <ele>1409.4000244141</ele>
        <time>2019-08-23T07:39:07Z</time>
      </trkpt>
      <trkpt lat="42.92726" lon="0.31252">
        <ele>1409.4000244141</ele>
        <time>2019-08-23T07:39:13Z</time>
      </trkpt>
      <trkpt lat="42.92729" lon="0.31256">
        <ele>1409.8000488281</ele>
        <time>2019-08-23T07:39:15Z</time>
      </trkpt>
      <trkpt lat="42.9273" lon="0.31258">
        <ele>1410.1999511719</ele>
        <time>2019-08-23T07:39:16Z</time>
      </trkpt>
      <trkpt lat="42.92731" lon="0.31259">
        <ele>1410.5999755859</ele>
        <time>2019-08-23T07:39:17Z</time>
      </trkpt>
      <trkpt lat="42.92732" lon="0.31261">
        <ele>1411</ele>
        <time>2019-08-23T07:39:18Z</time>
      </trkpt>
      <trkpt lat="42.92733" lon="0.31263">
        <ele>1411.4000244141</ele>
        <time>2019-08-23T07:39:19Z</time>
      </trkpt>
      <trkpt lat="42.92741" lon="0.31271">
        <ele>1411.4000244141</ele>
        <time>2019-08-23T07:39:24Z</time>
      </trkpt>
      <trkpt lat="42.92744" lon="0.31274">
        <ele>1411.4000244141</ele>
        <time>2019-08-23T07:39:26Z</time>
      </trkpt>
      <trkpt lat="42.92747" lon="0.31277">
        <ele>1411.4000244141</ele>
        <time>2019-08-23T07:39:28Z</time>
      </trkpt>
      <trkpt lat="42.92752" lon="0.31286">
        <ele>1411.4000244141</ele>
        <time>2019-08-23T07:39:33Z</time>
      </trkpt>
      <trkpt lat="42.92763" lon="0.31298">
        <ele>1411.4000244141</ele>
        <time>2019-08-23T07:39:38Z</time>
      </trkpt>
      <trkpt lat="42.92778" lon="0.3131">
        <ele>1411.4000244141</ele>
        <time>2019-08-23T07:39:44Z</time>
      </trkpt>
      <trkpt lat="42.92793" lon="0.31318">
        <ele>1411.4000244141</ele>
        <time>2019-08-23T07:39:50Z</time>
      </trkpt>
      <trkpt lat="42.92808" lon="0.31329">
        <ele>1411.4000244141</ele>
        <time>2019-08-23T07:39:55Z</time>
      </trkpt>
      <trkpt lat="42.92822" lon="0.31341">
        <ele>1411.4000244141</ele>
        <time>2019-08-23T07:40:01Z</time>
      </trkpt>
      <trkpt lat="42.92832" lon="0.31351">
        <ele>1411.4000244141</ele>
        <time>2019-08-23T07:40:07Z</time>
      </trkpt>
      <trkpt lat="42.92843" lon="0.31362">
        <ele>1411.4000244141</ele>
        <time>2019-08-23T07:40:13Z</time>
      </trkpt>
      <trkpt lat="42.92856" lon="0.31375">
        <ele>1411.4000244141</ele>
        <time>2019-08-23T07:40:20Z</time>
      </trkpt>
      <trkpt lat="42.92865" lon="0.31381">
        <ele>1411.4000244141</ele>
        <time>2019-08-23T07:40:24Z</time>
      </trkpt>
      <trkpt lat="42.92867" lon="0.31382">
        <ele>1411.4000244141</ele>
        <time>2019-08-23T07:40:25Z</time>
      </trkpt>
      <trkpt lat="42.92872" lon="0.31382">
        <ele>1411.8000488281</ele>
        <time>2019-08-23T07:40:27Z</time>
      </trkpt>
      <trkpt lat="42.92875" lon="0.31382">
        <ele>1412.1999511719</ele>
        <time>2019-08-23T07:40:28Z</time>
      </trkpt>
      <trkpt lat="42.92877" lon="0.31382">
        <ele>1412.5999755859</ele>
        <time>2019-08-23T07:40:29Z</time>
      </trkpt>
      <trkpt lat="42.9288" lon="0.31382">
        <ele>1413</ele>
        <time>2019-08-23T07:40:30Z</time>
      </trkpt>
      <trkpt lat="42.92882" lon="0.31381">
        <ele>1413.4000244141</ele>
        <time>2019-08-23T07:40:31Z</time>
      </trkpt>
      <trkpt lat="42.92896" lon="0.31378">
        <ele>1413.4000244141</ele>
        <time>2019-08-23T07:40:36Z</time>
      </trkpt>
      <trkpt lat="42.92914" lon="0.31378">
        <ele>1413.4000244141</ele>
        <time>2019-08-23T07:40:42Z</time>
      </trkpt>
      <trkpt lat="42.92928" lon="0.31382">
        <ele>1413.4000244141</ele>
        <time>2019-08-23T07:40:47Z</time>
      </trkpt>
      <trkpt lat="42.92945" lon="0.3139">
        <ele>1413.4000244141</ele>
        <time>2019-08-23T07:40:52Z</time>
      </trkpt>
      <trkpt lat="42.92967" lon="0.314">
        <ele>1413.4000244141</ele>
        <time>2019-08-23T07:40:57Z</time>
      </trkpt>
      <trkpt lat="42.92984" lon="0.3141">
        <ele>1413</ele>
        <time>2019-08-23T07:41:00Z</time>
      </trkpt>
      <trkpt lat="42.92989" lon="0.31415">
        <ele>1412.4000244141</ele>
        <time>2019-08-23T07:41:01Z</time>
      </trkpt>
      <trkpt lat="42.92992" lon="0.31421">
        <ele>1412</ele>
        <time>2019-08-23T07:41:02Z</time>
      </trkpt>
      <trkpt lat="42.92996" lon="0.31427">
        <ele>1411</ele>
        <time>2019-08-23T07:41:03Z</time>
      </trkpt>
      <trkpt lat="42.93001" lon="0.31431">
        <ele>1410.5999755859</ele>
        <time>2019-08-23T07:41:04Z</time>
      </trkpt>
      <trkpt lat="42.93006" lon="0.31435">
        <ele>1410.1999511719</ele>
        <time>2019-08-23T07:41:05Z</time>
      </trkpt>
      <trkpt lat="42.93012" lon="0.31438">
        <ele>1409.8000488281</ele>
        <time>2019-08-23T07:41:06Z</time>
      </trkpt>
      <trkpt lat="42.93018" lon="0.31442">
        <ele>1409.4000244141</ele>
        <time>2019-08-23T07:41:07Z</time>
      </trkpt>
      <trkpt lat="42.93024" lon="0.31445">
        <ele>1409</ele>
        <time>2019-08-23T07:41:08Z</time>
      </trkpt>
      <trkpt lat="42.93029" lon="0.3145">
        <ele>1408.5999755859</ele>
        <time>2019-08-23T07:41:09Z</time>
      </trkpt>
      <trkpt lat="42.93036" lon="0.31454">
        <ele>1408.1999511719</ele>
        <time>2019-08-23T07:41:10Z</time>
      </trkpt>
      <trkpt lat="42.93042" lon="0.31459">
        <ele>1407.8000488281</ele>
        <time>2019-08-23T07:41:11Z</time>
      </trkpt>
      <trkpt lat="42.93048" lon="0.31464">
        <ele>1407.4000244141</ele>
        <time>2019-08-23T07:41:12Z</time>
      </trkpt>
      <trkpt lat="42.93055" lon="0.31468">
        <ele>1406.8000488281</ele>
        <time>2019-08-23T07:41:13Z</time>
      </trkpt>
      <trkpt lat="42.93063" lon="0.31468">
        <ele>1406.4000244141</ele>
        <time>2019-08-23T07:41:14Z</time>
      </trkpt>
      <trkpt lat="42.93071" lon="0.31468">
        <ele>1405.8000488281</ele>
        <time>2019-08-23T07:41:15Z</time>
      </trkpt>
      <trkpt lat="42.93078" lon="0.31465">
        <ele>1405.4000244141</ele>
        <time>2019-08-23T07:41:16Z</time>
      </trkpt>
      <trkpt lat="42.93085" lon="0.3146">
        <ele>1404.8000488281</ele>
        <time>2019-08-23T07:41:17Z</time>
      </trkpt>
      <trkpt lat="42.93091" lon="0.31455">
        <ele>1404.8000488281</ele>
        <time>2019-08-23T07:41:18Z</time>
      </trkpt>
      <trkpt lat="42.93097" lon="0.31449">
        <ele>1404.8000488281</ele>
        <time>2019-08-23T07:41:19Z</time>
      </trkpt>
      <trkpt lat="42.93109" lon="0.31432">
        <ele>1404.8000488281</ele>
        <time>2019-08-23T07:41:22Z</time>
      </trkpt>
      <trkpt lat="42.93116" lon="0.3142">
        <ele>1404.8000488281</ele>
        <time>2019-08-23T07:41:24Z</time>
      </trkpt>
      <trkpt lat="42.93126" lon="0.31408">
        <ele>1404.8000488281</ele>
        <time>2019-08-23T07:41:26Z</time>
      </trkpt>
      <trkpt lat="42.93133" lon="0.31396">
        <ele>1404</ele>
        <time>2019-08-23T07:41:28Z</time>
      </trkpt>
      <trkpt lat="42.93135" lon="0.31388">
        <ele>1403.5999755859</ele>
        <time>2019-08-23T07:41:29Z</time>
      </trkpt>
      <trkpt lat="42.93136" lon="0.3138">
        <ele>1403</ele>
        <time>2019-08-23T07:41:30Z</time>
      </trkpt>
      <trkpt lat="42.93137" lon="0.31372">
        <ele>1402.5999755859</ele>
        <time>2019-08-23T07:41:31Z</time>
      </trkpt>
      <trkpt lat="42.93139" lon="0.31365">
        <ele>1402.5999755859</ele>
        <time>2019-08-23T07:41:32Z</time>
      </trkpt>
      <trkpt lat="42.93141" lon="0.31358">
        <ele>1402.1999511719</ele>
        <time>2019-08-23T07:41:33Z</time>
      </trkpt>
      <trkpt lat="42.93144" lon="0.31351">
        <ele>1401.5999755859</ele>
        <time>2019-08-23T07:41:34Z</time>
      </trkpt>
      <trkpt lat="42.93148" lon="0.31344">
        <ele>1401.1999511719</ele>
        <time>2019-08-23T07:41:35Z</time>
      </trkpt>
      <trkpt lat="42.93154" lon="0.31338">
        <ele>1400.5999755859</ele>
        <time>2019-08-23T07:41:36Z</time>
      </trkpt>
      <trkpt lat="42.9316" lon="0.31332">
        <ele>1400</ele>
        <time>2019-08-23T07:41:37Z</time>
      </trkpt>
      <trkpt lat="42.93167" lon="0.31327">
        <ele>1399.4000244141</ele>
        <time>2019-08-23T07:41:38Z</time>
      </trkpt>
      <trkpt lat="42.93174" lon="0.31322">
        <ele>1398.5999755859</ele>
        <time>2019-08-23T07:41:39Z</time>
      </trkpt>
      <trkpt lat="42.93181" lon="0.31316">
        <ele>1397.8000488281</ele>
        <time>2019-08-23T07:41:40Z</time>
      </trkpt>
      <trkpt lat="42.93189" lon="0.3131">
        <ele>1397</ele>
        <time>2019-08-23T07:41:41Z</time>
      </trkpt>
      <trkpt lat="42.93196" lon="0.31304">
        <ele>1396</ele>
        <time>2019-08-23T07:41:42Z</time>
      </trkpt>
      <trkpt lat="42.93204" lon="0.31297">
        <ele>1395.1999511719</ele>
        <time>2019-08-23T07:41:43Z</time>
      </trkpt>
      <trkpt lat="42.93211" lon="0.31291">
        <ele>1394.4000244141</ele>
        <time>2019-08-23T07:41:44Z</time>
      </trkpt>
      <trkpt lat="42.93219" lon="0.31285">
        <ele>1393.5999755859</ele>
        <time>2019-08-23T07:41:45Z</time>
      </trkpt>
      <trkpt lat="42.93226" lon="0.31278">
        <ele>1392.8000488281</ele>
        <time>2019-08-23T07:41:46Z</time>
      </trkpt>
      <trkpt lat="42.93234" lon="0.31271">
        <ele>1392</ele>
        <time>2019-08-23T07:41:47Z</time>
      </trkpt>
      <trkpt lat="42.93241" lon="0.31265">
        <ele>1391.1999511719</ele>
        <time>2019-08-23T07:41:48Z</time>
      </trkpt>
      <trkpt lat="42.93249" lon="0.31259">
        <ele>1390.5999755859</ele>
        <time>2019-08-23T07:41:49Z</time>
      </trkpt>
      <trkpt lat="42.93256" lon="0.31254">
        <ele>1389.8000488281</ele>
        <time>2019-08-23T07:41:50Z</time>
      </trkpt>
      <trkpt lat="42.93264" lon="0.31248">
        <ele>1389</ele>
        <time>2019-08-23T07:41:51Z</time>
      </trkpt>
      <trkpt lat="42.93272" lon="0.31241">
        <ele>1388.4000244141</ele>
        <time>2019-08-23T07:41:52Z</time>
      </trkpt>
      <trkpt lat="42.93279" lon="0.31233">
        <ele>1387</ele>
        <time>2019-08-23T07:41:53Z</time>
      </trkpt>
      <trkpt lat="42.93286" lon="0.31225">
        <ele>1386.1999511719</ele>
        <time>2019-08-23T07:41:54Z</time>
      </trkpt>
      <trkpt lat="42.93294" lon="0.31217">
        <ele>1385.5999755859</ele>
        <time>2019-08-23T07:41:55Z</time>
      </trkpt>
      <trkpt lat="42.933" lon="0.3121">
        <ele>1384.8000488281</ele>
        <time>2019-08-23T07:41:56Z</time>
      </trkpt>
      <trkpt lat="42.93306" lon="0.31203">
        <ele>1384.1999511719</ele>
        <time>2019-08-23T07:41:57Z</time>
      </trkpt>
      <trkpt lat="42.93311" lon="0.31196">
        <ele>1383.8000488281</ele>
        <time>2019-08-23T07:41:58Z</time>
      </trkpt>
      <trkpt lat="42.93316" lon="0.31189">
        <ele>1383.1999511719</ele>
        <time>2019-08-23T07:41:59Z</time>
      </trkpt>
      <trkpt lat="42.9332" lon="0.31183">
        <ele>1382.5999755859</ele>
        <time>2019-08-23T07:42:00Z</time>
      </trkpt>
      <trkpt lat="42.93322" lon="0.31175">
        <ele>1382</ele>
        <time>2019-08-23T07:42:01Z</time>
      </trkpt>
      <trkpt lat="42.93324" lon="0.31168">
        <ele>1382.5999755859</ele>
        <time>2019-08-23T07:42:02Z</time>
      </trkpt>
      <trkpt lat="42.93325" lon="0.31161">
        <ele>1383</ele>
        <time>2019-08-23T07:42:03Z</time>
      </trkpt>
      <trkpt lat="42.93326" lon="0.31155">
        <ele>1383.4000244141</ele>
        <time>2019-08-23T07:42:04Z</time>
      </trkpt>
      <trkpt lat="42.93327" lon="0.3115">
        <ele>1383.8000488281</ele>
        <time>2019-08-23T07:42:05Z</time>
      </trkpt>
      <trkpt lat="42.93328" lon="0.31145">
        <ele>1384.1999511719</ele>
        <time>2019-08-23T07:42:06Z</time>
      </trkpt>
      <trkpt lat="42.93329" lon="0.3114">
        <ele>1384.8000488281</ele>
        <time>2019-08-23T07:42:07Z</time>
      </trkpt>
      <trkpt lat="42.9333" lon="0.31135">
        <ele>1385.1999511719</ele>
        <time>2019-08-23T07:42:08Z</time>
      </trkpt>
      <trkpt lat="42.93332" lon="0.31132">
        <ele>1385.5999755859</ele>
        <time>2019-08-23T07:42:09Z</time>
      </trkpt>
      <trkpt lat="42.93333" lon="0.31127">
        <ele>1386</ele>
        <time>2019-08-23T07:42:10Z</time>
      </trkpt>
      <trkpt lat="42.93334" lon="0.31123">
        <ele>1386.4000244141</ele>
        <time>2019-08-23T07:42:11Z</time>
      </trkpt>
      <trkpt lat="42.93334" lon="0.31114">
        <ele>1386.4000244141</ele>
        <time>2019-08-23T07:42:13Z</time>
      </trkpt>
      <trkpt lat="42.93334" lon="0.311">
        <ele>1387.4000244141</ele>
        <time>2019-08-23T07:42:17Z</time>
      </trkpt>
      <trkpt lat="42.93335" lon="0.31097">
        <ele>1387.8000488281</ele>
        <time>2019-08-23T07:42:18Z</time>
      </trkpt>
      <trkpt lat="42.93335" lon="0.31094">
        <ele>1388.1999511719</ele>
        <time>2019-08-23T07:42:19Z</time>
      </trkpt>
      <trkpt lat="42.93336" lon="0.31091">
        <ele>1388.5999755859</ele>
        <time>2019-08-23T07:42:20Z</time>
      </trkpt>
      <trkpt lat="42.93341" lon="0.31081">
        <ele>1389.1999511719</ele>
        <time>2019-08-23T07:42:25Z</time>
      </trkpt>
      <trkpt lat="42.93343" lon="0.31079">
        <ele>1389.5999755859</ele>
        <time>2019-08-23T07:42:26Z</time>
      </trkpt>
      <trkpt lat="42.93344" lon="0.31077">
        <ele>1390</ele>
        <time>2019-08-23T07:42:27Z</time>
      </trkpt>
      <trkpt lat="42.93346" lon="0.31076">
        <ele>1390.4000244141</ele>
        <time>2019-08-23T07:42:28Z</time>
      </trkpt>
      <trkpt lat="42.93348" lon="0.31074">
        <ele>1390.8000488281</ele>
        <time>2019-08-23T07:42:29Z</time>
      </trkpt>
      <trkpt lat="42.93357" lon="0.31073">
        <ele>1390.8000488281</ele>
        <time>2019-08-23T07:42:34Z</time>
      </trkpt>
      <trkpt lat="42.93368" lon="0.31079">
        <ele>1391.1999511719</ele>
        <time>2019-08-23T07:42:40Z</time>
      </trkpt>
      <trkpt lat="42.9337" lon="0.31081">
        <ele>1391.5999755859</ele>
        <time>2019-08-23T07:42:41Z</time>
      </trkpt>
      <trkpt lat="42.93371" lon="0.31083">
        <ele>1392.4000244141</ele>
        <time>2019-08-23T07:42:42Z</time>
      </trkpt>
      <trkpt lat="42.93372" lon="0.31084">
        <ele>1392.8000488281</ele>
        <time>2019-08-23T07:42:43Z</time>
      </trkpt>
      <trkpt lat="42.93377" lon="0.31088">
        <ele>1392.8000488281</ele>
        <time>2019-08-23T07:42:46Z</time>
      </trkpt>
      <trkpt lat="42.93384" lon="0.311">
        <ele>1393.1999511719</ele>
        <time>2019-08-23T07:42:51Z</time>
      </trkpt>
      <trkpt lat="42.93386" lon="0.31102">
        <ele>1393.5999755859</ele>
        <time>2019-08-23T07:42:52Z</time>
      </trkpt>
      <trkpt lat="42.93387" lon="0.31105">
        <ele>1394</ele>
        <time>2019-08-23T07:42:53Z</time>
      </trkpt>
      <trkpt lat="42.93388" lon="0.31107">
        <ele>1394.4000244141</ele>
        <time>2019-08-23T07:42:54Z</time>
      </trkpt>
      <trkpt lat="42.93389" lon="0.3111">
        <ele>1395</ele>
        <time>2019-08-23T07:42:55Z</time>
      </trkpt>
      <trkpt lat="42.93393" lon="0.31116">
        <ele>1395</ele>
        <time>2019-08-23T07:42:58Z</time>
      </trkpt>
      <trkpt lat="42.93396" lon="0.31129">
        <ele>1395</ele>
        <time>2019-08-23T07:43:04Z</time>
      </trkpt>
      <trkpt lat="42.93396" lon="0.31131">
        <ele>1395.4000244141</ele>
        <time>2019-08-23T07:43:05Z</time>
      </trkpt>
      <trkpt lat="42.93397" lon="0.31133">
        <ele>1395.8000488281</ele>
        <time>2019-08-23T07:43:06Z</time>
      </trkpt>
      <trkpt lat="42.93397" lon="0.31136">
        <ele>1396.5999755859</ele>
        <time>2019-08-23T07:43:07Z</time>
      </trkpt>
      <trkpt lat="42.93398" lon="0.31138">
        <ele>1397</ele>
        <time>2019-08-23T07:43:08Z</time>
      </trkpt>
      <trkpt lat="42.93401" lon="0.31146">
        <ele>1397</ele>
        <time>2019-08-23T07:43:11Z</time>
      </trkpt>
      <trkpt lat="42.93404" lon="0.31161">
        <ele>1397</ele>
        <time>2019-08-23T07:43:17Z</time>
      </trkpt>
      <trkpt lat="42.93405" lon="0.31163">
        <ele>1397.4000244141</ele>
        <time>2019-08-23T07:43:18Z</time>
      </trkpt>
      <trkpt lat="42.93406" lon="0.31166">
        <ele>1397.8000488281</ele>
        <time>2019-08-23T07:43:19Z</time>
      </trkpt>
      <trkpt lat="42.93406" lon="0.31168">
        <ele>1398.1999511719</ele>
        <time>2019-08-23T07:43:20Z</time>
      </trkpt>
      <trkpt lat="42.93407" lon="0.31171">
        <ele>1398.5999755859</ele>
        <time>2019-08-23T07:43:21Z</time>
      </trkpt>
      <trkpt lat="42.93408" lon="0.31172">
        <ele>1399</ele>
        <time>2019-08-23T07:43:22Z</time>
      </trkpt>
      <trkpt lat="42.93409" lon="0.31176">
        <ele>1399</ele>
        <time>2019-08-23T07:43:24Z</time>
      </trkpt>
      <trkpt lat="42.93411" lon="0.31186">
        <ele>1399</ele>
        <time>2019-08-23T07:43:29Z</time>
      </trkpt>
      <trkpt lat="42.93412" lon="0.31192">
        <ele>1399.8000488281</ele>
        <time>2019-08-23T07:43:32Z</time>
      </trkpt>
      <trkpt lat="42.93412" lon="0.31195">
        <ele>1400.1999511719</ele>
        <time>2019-08-23T07:43:33Z</time>
      </trkpt>
      <trkpt lat="42.93412" lon="0.31197">
        <ele>1400.5999755859</ele>
        <time>2019-08-23T07:43:34Z</time>
      </trkpt>
      <trkpt lat="42.93412" lon="0.31199">
        <ele>1401</ele>
        <time>2019-08-23T07:43:35Z</time>
      </trkpt>
      <trkpt lat="42.93413" lon="0.31201">
        <ele>1401</ele>
        <time>2019-08-23T07:43:36Z</time>
      </trkpt>
      <trkpt lat="42.93416" lon="0.31212">
        <ele>1401</ele>
        <time>2019-08-23T07:43:42Z</time>
      </trkpt>
      <trkpt lat="42.93417" lon="0.31216">
        <ele>1401</ele>
        <time>2019-08-23T07:43:44Z</time>
      </trkpt>
      <trkpt lat="42.93418" lon="0.31221">
        <ele>1401.4000244141</ele>
        <time>2019-08-23T07:43:47Z</time>
      </trkpt>
      <trkpt lat="42.93418" lon="0.31223">
        <ele>1401.8000488281</ele>
        <time>2019-08-23T07:43:48Z</time>
      </trkpt>
      <trkpt lat="42.93418" lon="0.31224">
        <ele>1402.1999511719</ele>
        <time>2019-08-23T07:43:49Z</time>
      </trkpt>
      <trkpt lat="42.93418" lon="0.31226">
        <ele>1402.8000488281</ele>
        <time>2019-08-23T07:43:50Z</time>
      </trkpt>
      <trkpt lat="42.93419" lon="0.31227">
        <ele>1403.1999511719</ele>
        <time>2019-08-23T07:43:51Z</time>
      </trkpt>
      <trkpt lat="42.93422" lon="0.31232">
        <ele>1403.1999511719</ele>
        <time>2019-08-23T07:43:53Z</time>
      </trkpt>
      <trkpt lat="42.93426" lon="0.31241">
        <ele>1403.1999511719</ele>
        <time>2019-08-23T07:43:58Z</time>
      </trkpt>
      <trkpt lat="42.93426" lon="0.31243">
        <ele>1403.5999755859</ele>
        <time>2019-08-23T07:43:59Z</time>
      </trkpt>
      <trkpt lat="42.93426" lon="0.31245">
        <ele>1404</ele>
        <time>2019-08-23T07:44:00Z</time>
      </trkpt>
      <trkpt lat="42.93426" lon="0.31246">
        <ele>1404.4000244141</ele>
        <time>2019-08-23T07:44:01Z</time>
      </trkpt>
      <trkpt lat="42.93426" lon="0.31248">
        <ele>1404.8000488281</ele>
        <time>2019-08-23T07:44:02Z</time>
      </trkpt>
      <trkpt lat="42.93426" lon="0.31249">
        <ele>1405.1999511719</ele>
        <time>2019-08-23T07:44:03Z</time>
      </trkpt>
      <trkpt lat="42.93426" lon="0.3125">
        <ele>1405.1999511719</ele>
        <time>2019-08-23T07:44:04Z</time>
      </trkpt>
      <trkpt lat="42.93429" lon="0.31261">
        <ele>1405.1999511719</ele>
        <time>2019-08-23T07:44:11Z</time>
      </trkpt>
      <trkpt lat="42.93432" lon="0.31264">
        <ele>1405.5999755859</ele>
        <time>2019-08-23T07:44:13Z</time>
      </trkpt>
      <trkpt lat="42.93432" lon="0.31266">
        <ele>1406</ele>
        <time>2019-08-23T07:44:14Z</time>
      </trkpt>
      <trkpt lat="42.93433" lon="0.31267">
        <ele>1406.4000244141</ele>
        <time>2019-08-23T07:44:15Z</time>
      </trkpt>
      <trkpt lat="42.93433" lon="0.31268">
        <ele>1406.8000488281</ele>
        <time>2019-08-23T07:44:16Z</time>
      </trkpt>
      <trkpt lat="42.93433" lon="0.3127">
        <ele>1407.1999511719</ele>
        <time>2019-08-23T07:44:17Z</time>
      </trkpt>
      <trkpt lat="42.93437" lon="0.31278">
        <ele>1407.1999511719</ele>
        <time>2019-08-23T07:44:22Z</time>
      </trkpt>
      <trkpt lat="42.93449" lon="0.31294">
        <ele>1407.5999755859</ele>
        <time>2019-08-23T07:44:27Z</time>
      </trkpt>
      <trkpt lat="42.9345" lon="0.31297">
        <ele>1408</ele>
        <time>2019-08-23T07:44:28Z</time>
      </trkpt>
      <trkpt lat="42.93452" lon="0.31299">
        <ele>1408.4000244141</ele>
        <time>2019-08-23T07:44:29Z</time>
      </trkpt>
      <trkpt lat="42.93452" lon="0.31302">
        <ele>1408.8000488281</ele>
        <time>2019-08-23T07:44:30Z</time>
      </trkpt>
      <trkpt lat="42.93453" lon="0.31304">
        <ele>1409.1999511719</ele>
        <time>2019-08-23T07:44:31Z</time>
      </trkpt>
      <trkpt lat="42.93455" lon="0.31311">
        <ele>1409.1999511719</ele>
        <time>2019-08-23T07:44:34Z</time>
      </trkpt>
      <trkpt lat="42.93459" lon="0.31324">
        <ele>1409.1999511719</ele>
        <time>2019-08-23T07:44:40Z</time>
      </trkpt>
      <trkpt lat="42.9346" lon="0.31328">
        <ele>1409.5999755859</ele>
        <time>2019-08-23T07:44:42Z</time>
      </trkpt>
      <trkpt lat="42.9346" lon="0.31331">
        <ele>1410</ele>
        <time>2019-08-23T07:44:43Z</time>
      </trkpt>
      <trkpt lat="42.93461" lon="0.31333">
        <ele>1410.4000244141</ele>
        <time>2019-08-23T07:44:44Z</time>
      </trkpt>
      <trkpt lat="42.93462" lon="0.31336">
        <ele>1410.8000488281</ele>
        <time>2019-08-23T07:44:45Z</time>
      </trkpt>
      <trkpt lat="42.93463" lon="0.31338">
        <ele>1411.1999511719</ele>
        <time>2019-08-23T07:44:46Z</time>
      </trkpt>
      <trkpt lat="42.93464" lon="0.31342">
        <ele>1411.1999511719</ele>
        <time>2019-08-23T07:44:48Z</time>
      </trkpt>
      <trkpt lat="42.93464" lon="0.31344">
        <ele>1411.1999511719</ele>
        <time>2019-08-23T07:44:49Z</time>
      </trkpt>
      <trkpt lat="42.93464" lon="0.31353">
        <ele>1411.1999511719</ele>
        <time>2019-08-23T07:44:53Z</time>
      </trkpt>
      <trkpt lat="42.93464" lon="0.31358">
        <ele>1411.5999755859</ele>
        <time>2019-08-23T07:44:55Z</time>
      </trkpt>
      <trkpt lat="42.93464" lon="0.3136">
        <ele>1412</ele>
        <time>2019-08-23T07:44:56Z</time>
      </trkpt>
      <trkpt lat="42.93464" lon="0.31363">
        <ele>1412.4000244141</ele>
        <time>2019-08-23T07:44:57Z</time>
      </trkpt>
      <trkpt lat="42.93465" lon="0.31365">
        <ele>1412.8000488281</ele>
        <time>2019-08-23T07:44:58Z</time>
      </trkpt>
      <trkpt lat="42.93465" lon="0.31368">
        <ele>1413.1999511719</ele>
        <time>2019-08-23T07:44:59Z</time>
      </trkpt>
      <trkpt lat="42.93468" lon="0.31385">
        <ele>1413.1999511719</ele>
        <time>2019-08-23T07:45:06Z</time>
      </trkpt>
      <trkpt lat="42.93467" lon="0.31392">
        <ele>1413.5999755859</ele>
        <time>2019-08-23T07:45:09Z</time>
      </trkpt>
      <trkpt lat="42.93468" lon="0.31395">
        <ele>1414.1999511719</ele>
        <time>2019-08-23T07:45:10Z</time>
      </trkpt>
      <trkpt lat="42.93468" lon="0.31398">
        <ele>1415</ele>
        <time>2019-08-23T07:45:11Z</time>
      </trkpt>
      <trkpt lat="42.93469" lon="0.314">
        <ele>1415.4000244141</ele>
        <time>2019-08-23T07:45:12Z</time>
      </trkpt>
      <trkpt lat="42.93469" lon="0.31404">
        <ele>1415.4000244141</ele>
        <time>2019-08-23T07:45:14Z</time>
      </trkpt>
      <trkpt lat="42.93468" lon="0.3141">
        <ele>1415.4000244141</ele>
        <time>2019-08-23T07:45:17Z</time>
      </trkpt>
      <trkpt lat="42.93467" lon="0.31418">
        <ele>1415.8000488281</ele>
        <time>2019-08-23T07:45:21Z</time>
      </trkpt>
      <trkpt lat="42.93467" lon="0.3142">
        <ele>1416.1999511719</ele>
        <time>2019-08-23T07:45:22Z</time>
      </trkpt>
      <trkpt lat="42.93467" lon="0.31421">
        <ele>1416.5999755859</ele>
        <time>2019-08-23T07:45:23Z</time>
      </trkpt>
      <trkpt lat="42.93467" lon="0.31423">
        <ele>1417</ele>
        <time>2019-08-23T07:45:24Z</time>
      </trkpt>
      <trkpt lat="42.93466" lon="0.31425">
        <ele>1417.4000244141</ele>
        <time>2019-08-23T07:45:25Z</time>
      </trkpt>
      <trkpt lat="42.93464" lon="0.31436">
        <ele>1417.4000244141</ele>
        <time>2019-08-23T07:45:30Z</time>
      </trkpt>
      <trkpt lat="42.93464" lon="0.31438">
        <ele>1417.4000244141</ele>
        <time>2019-08-23T07:45:31Z</time>
      </trkpt>
      <trkpt lat="42.93463" lon="0.31447">
        <ele>1417.8000488281</ele>
        <time>2019-08-23T07:45:35Z</time>
      </trkpt>
      <trkpt lat="42.93462" lon="0.31449">
        <ele>1418.5999755859</ele>
        <time>2019-08-23T07:45:36Z</time>
      </trkpt>
      <trkpt lat="42.93462" lon="0.31451">
        <ele>1419.1999511719</ele>
        <time>2019-08-23T07:45:37Z</time>
      </trkpt>
      <trkpt lat="42.93462" lon="0.31453">
        <ele>1419.5999755859</ele>
        <time>2019-08-23T07:45:38Z</time>
      </trkpt>
      <trkpt lat="42.93462" lon="0.31462">
        <ele>1419.5999755859</ele>
        <time>2019-08-23T07:45:42Z</time>
      </trkpt>
      <trkpt lat="42.93458" lon="0.31474">
        <ele>1419.5999755859</ele>
        <time>2019-08-23T07:45:48Z</time>
      </trkpt>
      <trkpt lat="42.93457" lon="0.31476">
        <ele>1420</ele>
        <time>2019-08-23T07:45:49Z</time>
      </trkpt>
      <trkpt lat="42.93456" lon="0.31477">
        <ele>1420.4000244141</ele>
        <time>2019-08-23T07:45:50Z</time>
      </trkpt>
      <trkpt lat="42.93456" lon="0.31479">
        <ele>1420.8000488281</ele>
        <time>2019-08-23T07:45:51Z</time>
      </trkpt>
      <trkpt lat="42.93455" lon="0.31481">
        <ele>1421.1999511719</ele>
        <time>2019-08-23T07:45:52Z</time>
      </trkpt>
      <trkpt lat="42.93455" lon="0.31483">
        <ele>1421.5999755859</ele>
        <time>2019-08-23T07:45:53Z</time>
      </trkpt>
      <trkpt lat="42.93455" lon="0.315">
        <ele>1421.5999755859</ele>
        <time>2019-08-23T07:46:01Z</time>
      </trkpt>
      <trkpt lat="42.93455" lon="0.31506">
        <ele>1422</ele>
        <time>2019-08-23T07:46:03Z</time>
      </trkpt>
      <trkpt lat="42.93455" lon="0.31508">
        <ele>1422.4000244141</ele>
        <time>2019-08-23T07:46:04Z</time>
      </trkpt>
      <trkpt lat="42.93455" lon="0.3151">
        <ele>1422.8000488281</ele>
        <time>2019-08-23T07:46:05Z</time>
      </trkpt>
      <trkpt lat="42.93455" lon="0.31512">
        <ele>1423.1999511719</ele>
        <time>2019-08-23T07:46:06Z</time>
      </trkpt>
      <trkpt lat="42.93455" lon="0.31515">
        <ele>1423.5999755859</ele>
        <time>2019-08-23T07:46:07Z</time>
      </trkpt>
      <trkpt lat="42.93455" lon="0.31533">
        <ele>1423.5999755859</ele>
        <time>2019-08-23T07:46:15Z</time>
      </trkpt>
      <trkpt lat="42.93454" lon="0.31539">
        <ele>1424</ele>
        <time>2019-08-23T07:46:18Z</time>
      </trkpt>
      <trkpt lat="42.93454" lon="0.31542">
        <ele>1424.4000244141</ele>
        <time>2019-08-23T07:46:19Z</time>
      </trkpt>
      <trkpt lat="42.93454" lon="0.31544">
        <ele>1424.8000488281</ele>
        <time>2019-08-23T07:46:20Z</time>
      </trkpt>
      <trkpt lat="42.93454" lon="0.31547">
        <ele>1425.4000244141</ele>
        <time>2019-08-23T07:46:21Z</time>
      </trkpt>
      <trkpt lat="42.93454" lon="0.31549">
        <ele>1425.8000488281</ele>
        <time>2019-08-23T07:46:22Z</time>
      </trkpt>
      <trkpt lat="42.93456" lon="0.31558">
        <ele>1425.8000488281</ele>
        <time>2019-08-23T07:46:25Z</time>
      </trkpt>
      <trkpt lat="42.93455" lon="0.3157">
        <ele>1425.8000488281</ele>
        <time>2019-08-23T07:46:30Z</time>
      </trkpt>
      <trkpt lat="42.93454" lon="0.31576">
        <ele>1426.1999511719</ele>
        <time>2019-08-23T07:46:33Z</time>
      </trkpt>
      <trkpt lat="42.93454" lon="0.31578">
        <ele>1426.5999755859</ele>
        <time>2019-08-23T07:46:34Z</time>
      </trkpt>
      <trkpt lat="42.93454" lon="0.3158">
        <ele>1427</ele>
        <time>2019-08-23T07:46:35Z</time>
      </trkpt>
      <trkpt lat="42.93454" lon="0.31582">
        <ele>1427.4000244141</ele>
        <time>2019-08-23T07:46:36Z</time>
      </trkpt>
      <trkpt lat="42.93454" lon="0.31585">
        <ele>1427.8000488281</ele>
        <time>2019-08-23T07:46:37Z</time>
      </trkpt>
      <trkpt lat="42.9345" lon="0.31595">
        <ele>1427.8000488281</ele>
        <time>2019-08-23T07:46:42Z</time>
      </trkpt>
      <trkpt lat="42.93451" lon="0.31606">
        <ele>1427.8000488281</ele>
        <time>2019-08-23T07:46:47Z</time>
      </trkpt>
      <trkpt lat="42.9345" lon="0.31609">
        <ele>1428.1999511719</ele>
        <time>2019-08-23T07:46:49Z</time>
      </trkpt>
      <trkpt lat="42.9345" lon="0.31612">
        <ele>1429</ele>
        <time>2019-08-23T07:46:50Z</time>
      </trkpt>
      <trkpt lat="42.9345" lon="0.31614">
        <ele>1429.4000244141</ele>
        <time>2019-08-23T07:46:51Z</time>
      </trkpt>
      <trkpt lat="42.93449" lon="0.31616">
        <ele>1429.8000488281</ele>
        <time>2019-08-23T07:46:52Z</time>
      </trkpt>
      <trkpt lat="42.93448" lon="0.31619">
        <ele>1429.8000488281</ele>
        <time>2019-08-23T07:46:53Z</time>
      </trkpt>
      <trkpt lat="42.93448" lon="0.31632">
        <ele>1429.8000488281</ele>
        <time>2019-08-23T07:46:59Z</time>
      </trkpt>
      <trkpt lat="42.93447" lon="0.3164">
        <ele>1430.1999511719</ele>
        <time>2019-08-23T07:47:02Z</time>
      </trkpt>
      <trkpt lat="42.93447" lon="0.31642">
        <ele>1430.8000488281</ele>
        <time>2019-08-23T07:47:03Z</time>
      </trkpt>
      <trkpt lat="42.93446" lon="0.31644">
        <ele>1431.1999511719</ele>
        <time>2019-08-23T07:47:04Z</time>
      </trkpt>
      <trkpt lat="42.93446" lon="0.31646">
        <ele>1431.5999755859</ele>
        <time>2019-08-23T07:47:05Z</time>
      </trkpt>
      <trkpt lat="42.93446" lon="0.31648">
        <ele>1432</ele>
        <time>2019-08-23T07:47:06Z</time>
      </trkpt>
      <trkpt lat="42.93447" lon="0.31649">
        <ele>1432</ele>
        <time>2019-08-23T07:47:07Z</time>
      </trkpt>
      <trkpt lat="42.93447" lon="0.31656">
        <ele>1432</ele>
        <time>2019-08-23T07:47:11Z</time>
      </trkpt>
      <trkpt lat="42.93446" lon="0.31659">
        <ele>1432</ele>
        <time>2019-08-23T07:47:13Z</time>
      </trkpt>
      <trkpt lat="42.93442" lon="0.31664">
        <ele>1432.4000244141</ele>
        <time>2019-08-23T07:47:16Z</time>
      </trkpt>
      <trkpt lat="42.93441" lon="0.31666">
        <ele>1432.8000488281</ele>
        <time>2019-08-23T07:47:17Z</time>
      </trkpt>
      <trkpt lat="42.9344" lon="0.31668">
        <ele>1433.1999511719</ele>
        <time>2019-08-23T07:47:18Z</time>
      </trkpt>
      <trkpt lat="42.9344" lon="0.31669">
        <ele>1433.8000488281</ele>
        <time>2019-08-23T07:47:19Z</time>
      </trkpt>
      <trkpt lat="42.93439" lon="0.31671">
        <ele>1434.1999511719</ele>
        <time>2019-08-23T07:47:20Z</time>
      </trkpt>
      <trkpt lat="42.93435" lon="0.31681">
        <ele>1434.1999511719</ele>
        <time>2019-08-23T07:47:25Z</time>
      </trkpt>
      <trkpt lat="42.93432" lon="0.31689">
        <ele>1434.5999755859</ele>
        <time>2019-08-23T07:47:30Z</time>
      </trkpt>
      <trkpt lat="42.93432" lon="0.3169">
        <ele>1435</ele>
        <time>2019-08-23T07:47:31Z</time>
      </trkpt>
      <trkpt lat="42.93432" lon="0.31692">
        <ele>1435.4000244141</ele>
        <time>2019-08-23T07:47:32Z</time>
      </trkpt>
      <trkpt lat="42.93432" lon="0.31693">
        <ele>1435.8000488281</ele>
        <time>2019-08-23T07:47:33Z</time>
      </trkpt>
      <trkpt lat="42.93432" lon="0.31695">
        <ele>1436.1999511719</ele>
        <time>2019-08-23T07:47:34Z</time>
      </trkpt>
      <trkpt lat="42.93431" lon="0.31699">
        <ele>1436.1999511719</ele>
        <time>2019-08-23T07:47:36Z</time>
      </trkpt>
      <trkpt lat="42.9343" lon="0.31701">
        <ele>1436.1999511719</ele>
        <time>2019-08-23T07:47:37Z</time>
      </trkpt>
      <trkpt lat="42.93431" lon="0.3171">
        <ele>1436.1999511719</ele>
        <time>2019-08-23T07:47:41Z</time>
      </trkpt>
      <trkpt lat="42.93432" lon="0.31714">
        <ele>1436.5999755859</ele>
        <time>2019-08-23T07:47:43Z</time>
      </trkpt>
      <trkpt lat="42.93433" lon="0.31716">
        <ele>1437</ele>
        <time>2019-08-23T07:47:44Z</time>
      </trkpt>
      <trkpt lat="42.93433" lon="0.31718">
        <ele>1437.4000244141</ele>
        <time>2019-08-23T07:47:45Z</time>
      </trkpt>
      <trkpt lat="42.93434" lon="0.3172">
        <ele>1437.8000488281</ele>
        <time>2019-08-23T07:47:46Z</time>
      </trkpt>
      <trkpt lat="42.93434" lon="0.31722">
        <ele>1438.4000244141</ele>
        <time>2019-08-23T07:47:47Z</time>
      </trkpt>
      <trkpt lat="42.93436" lon="0.31732">
        <ele>1438.4000244141</ele>
        <time>2019-08-23T07:47:52Z</time>
      </trkpt>
      <trkpt lat="42.93436" lon="0.31733">
        <ele>1438.4000244141</ele>
        <time>2019-08-23T07:47:53Z</time>
      </trkpt>
      <trkpt lat="42.93436" lon="0.31739">
        <ele>1438.4000244141</ele>
        <time>2019-08-23T07:47:56Z</time>
      </trkpt>
      <trkpt lat="42.93436" lon="0.31743">
        <ele>1438.4000244141</ele>
        <time>2019-08-23T07:47:58Z</time>
      </trkpt>
      <trkpt lat="42.93435" lon="0.31749">
        <ele>1438.8000488281</ele>
        <time>2019-08-23T07:48:01Z</time>
      </trkpt>
      <trkpt lat="42.93434" lon="0.31751">
        <ele>1439.1999511719</ele>
        <time>2019-08-23T07:48:02Z</time>
      </trkpt>
      <trkpt lat="42.93434" lon="0.31754">
        <ele>1439.5999755859</ele>
        <time>2019-08-23T07:48:03Z</time>
      </trkpt>
      <trkpt lat="42.93434" lon="0.31756">
        <ele>1440.4000244141</ele>
        <time>2019-08-23T07:48:04Z</time>
      </trkpt>
      <trkpt lat="42.93434" lon="0.31768">
        <ele>1440.4000244141</ele>
        <time>2019-08-23T07:48:11Z</time>
      </trkpt>
      <trkpt lat="42.93436" lon="0.31778">
        <ele>1440.8000488281</ele>
        <time>2019-08-23T07:48:16Z</time>
      </trkpt>
      <trkpt lat="42.93436" lon="0.31781">
        <ele>1441.1999511719</ele>
        <time>2019-08-23T07:48:17Z</time>
      </trkpt>
      <trkpt lat="42.93437" lon="0.31784">
        <ele>1441.5999755859</ele>
        <time>2019-08-23T07:48:18Z</time>
      </trkpt>
      <trkpt lat="42.93438" lon="0.31786">
        <ele>1442</ele>
        <time>2019-08-23T07:48:19Z</time>
      </trkpt>
      <trkpt lat="42.93439" lon="0.31789">
        <ele>1442.4000244141</ele>
        <time>2019-08-23T07:48:20Z</time>
      </trkpt>
      <trkpt lat="42.9344" lon="0.31791">
        <ele>1442.4000244141</ele>
        <time>2019-08-23T07:48:21Z</time>
      </trkpt>
      <trkpt lat="42.93449" lon="0.31805">
        <ele>1442.4000244141</ele>
        <time>2019-08-23T07:48:27Z</time>
      </trkpt>
      <trkpt lat="42.93459" lon="0.31819">
        <ele>1442.8000488281</ele>
        <time>2019-08-23T07:48:34Z</time>
      </trkpt>
      <trkpt lat="42.93461" lon="0.3182">
        <ele>1443.1999511719</ele>
        <time>2019-08-23T07:48:35Z</time>
      </trkpt>
      <trkpt lat="42.93462" lon="0.31822">
        <ele>1443.5999755859</ele>
        <time>2019-08-23T07:48:36Z</time>
      </trkpt>
      <trkpt lat="42.93463" lon="0.31823">
        <ele>1444</ele>
        <time>2019-08-23T07:48:37Z</time>
      </trkpt>
      <trkpt lat="42.93464" lon="0.31824">
        <ele>1444.4000244141</ele>
        <time>2019-08-23T07:48:38Z</time>
      </trkpt>
      <trkpt lat="42.93468" lon="0.31829">
        <ele>1444.4000244141</ele>
        <time>2019-08-23T07:48:41Z</time>
      </trkpt>
      <trkpt lat="42.93476" lon="0.3184">
        <ele>1444.8000488281</ele>
        <time>2019-08-23T07:48:48Z</time>
      </trkpt>
      <trkpt lat="42.93477" lon="0.31842">
        <ele>1445.4000244141</ele>
        <time>2019-08-23T07:48:49Z</time>
      </trkpt>
      <trkpt lat="42.93477" lon="0.31843">
        <ele>1445.8000488281</ele>
        <time>2019-08-23T07:48:50Z</time>
      </trkpt>
      <trkpt lat="42.93478" lon="0.31845">
        <ele>1446.1999511719</ele>
        <time>2019-08-23T07:48:51Z</time>
      </trkpt>
      <trkpt lat="42.93479" lon="0.31846">
        <ele>1446.5999755859</ele>
        <time>2019-08-23T07:48:52Z</time>
      </trkpt>
      <trkpt lat="42.9348" lon="0.31849">
        <ele>1446.5999755859</ele>
        <time>2019-08-23T07:48:54Z</time>
      </trkpt>
      <trkpt lat="42.93485" lon="0.31856">
        <ele>1446.5999755859</ele>
        <time>2019-08-23T07:49:01Z</time>
      </trkpt>
      <trkpt lat="42.93487" lon="0.3186">
        <ele>1447</ele>
        <time>2019-08-23T07:49:03Z</time>
      </trkpt>
      <trkpt lat="42.93489" lon="0.31861">
        <ele>1447.4000244141</ele>
        <time>2019-08-23T07:49:04Z</time>
      </trkpt>
      <trkpt lat="42.9349" lon="0.31863">
        <ele>1447.8000488281</ele>
        <time>2019-08-23T07:49:05Z</time>
      </trkpt>
      <trkpt lat="42.93491" lon="0.31864">
        <ele>1448.1999511719</ele>
        <time>2019-08-23T07:49:06Z</time>
      </trkpt>
      <trkpt lat="42.93493" lon="0.31866">
        <ele>1448.5999755859</ele>
        <time>2019-08-23T07:49:07Z</time>
      </trkpt>
      <trkpt lat="42.93496" lon="0.31872">
        <ele>1448.5999755859</ele>
        <time>2019-08-23T07:49:11Z</time>
      </trkpt>
      <trkpt lat="42.93503" lon="0.31883">
        <ele>1448.5999755859</ele>
        <time>2019-08-23T07:49:16Z</time>
      </trkpt>
      <trkpt lat="42.93504" lon="0.31885">
        <ele>1448.5999755859</ele>
        <time>2019-08-23T07:49:17Z</time>
      </trkpt>
      <trkpt lat="42.9351" lon="0.31894">
        <ele>1449</ele>
        <time>2019-08-23T07:49:22Z</time>
      </trkpt>
      <trkpt lat="42.93511" lon="0.31896">
        <ele>1449.4000244141</ele>
        <time>2019-08-23T07:49:23Z</time>
      </trkpt>
      <trkpt lat="42.93512" lon="0.31898">
        <ele>1449.8000488281</ele>
        <time>2019-08-23T07:49:24Z</time>
      </trkpt>
      <trkpt lat="42.93514" lon="0.319">
        <ele>1450.1999511719</ele>
        <time>2019-08-23T07:49:25Z</time>
      </trkpt>
      <trkpt lat="42.93515" lon="0.31902">
        <ele>1450.5999755859</ele>
        <time>2019-08-23T07:49:26Z</time>
      </trkpt>
      <trkpt lat="42.93519" lon="0.3191">
        <ele>1450.5999755859</ele>
        <time>2019-08-23T07:49:30Z</time>
      </trkpt>
      <trkpt lat="42.93526" lon="0.31924">
        <ele>1450.5999755859</ele>
        <time>2019-08-23T07:49:36Z</time>
      </trkpt>
      <trkpt lat="42.93538" lon="0.31944">
        <ele>1450.5999755859</ele>
        <time>2019-08-23T07:49:44Z</time>
      </trkpt>
      <trkpt lat="42.93547" lon="0.31955">
        <ele>1450.5999755859</ele>
        <time>2019-08-23T07:49:49Z</time>
      </trkpt>
      <trkpt lat="42.93557" lon="0.31968">
        <ele>1450.5999755859</ele>
        <time>2019-08-23T07:49:55Z</time>
      </trkpt>
      <trkpt lat="42.93567" lon="0.31981">
        <ele>1450.5999755859</ele>
        <time>2019-08-23T07:50:01Z</time>
      </trkpt>
      <trkpt lat="42.93569" lon="0.31983">
        <ele>1451</ele>
        <time>2019-08-23T07:50:02Z</time>
      </trkpt>
      <trkpt lat="42.93572" lon="0.31985">
        <ele>1451.4000244141</ele>
        <time>2019-08-23T07:50:03Z</time>
      </trkpt>
      <trkpt lat="42.93573" lon="0.31987">
        <ele>1451.8000488281</ele>
        <time>2019-08-23T07:50:04Z</time>
      </trkpt>
      <trkpt lat="42.93575" lon="0.31989">
        <ele>1452.1999511719</ele>
        <time>2019-08-23T07:50:05Z</time>
      </trkpt>
      <trkpt lat="42.93577" lon="0.31991">
        <ele>1452.8000488281</ele>
        <time>2019-08-23T07:50:06Z</time>
      </trkpt>
      <trkpt lat="42.93589" lon="0.32001">
        <ele>1452.8000488281</ele>
        <time>2019-08-23T07:50:12Z</time>
      </trkpt>
      <trkpt lat="42.93602" lon="0.32007">
        <ele>1452.8000488281</ele>
        <time>2019-08-23T07:50:18Z</time>
      </trkpt>
      <trkpt lat="42.93617" lon="0.32019">
        <ele>1452.8000488281</ele>
        <time>2019-08-23T07:50:24Z</time>
      </trkpt>
      <trkpt lat="42.93636" lon="0.32032">
        <ele>1453.5999755859</ele>
        <time>2019-08-23T07:50:32Z</time>
      </trkpt>
      <trkpt lat="42.93638" lon="0.32033">
        <ele>1454</ele>
        <time>2019-08-23T07:50:33Z</time>
      </trkpt>
      <trkpt lat="42.9364" lon="0.32033">
        <ele>1454.4000244141</ele>
        <time>2019-08-23T07:50:34Z</time>
      </trkpt>
      <trkpt lat="42.93642" lon="0.32034">
        <ele>1454.8000488281</ele>
        <time>2019-08-23T07:50:35Z</time>
      </trkpt>
      <trkpt lat="42.9365" lon="0.32033">
        <ele>1454.8000488281</ele>
        <time>2019-08-23T07:50:38Z</time>
      </trkpt>
      <trkpt lat="42.93669" lon="0.32029">
        <ele>1454.8000488281</ele>
        <time>2019-08-23T07:50:45Z</time>
      </trkpt>
      <trkpt lat="42.93678" lon="0.32023">
        <ele>1455.1999511719</ele>
        <time>2019-08-23T07:50:49Z</time>
      </trkpt>
      <trkpt lat="42.9368" lon="0.32022">
        <ele>1455.5999755859</ele>
        <time>2019-08-23T07:50:50Z</time>
      </trkpt>
      <trkpt lat="42.93682" lon="0.32021">
        <ele>1456</ele>
        <time>2019-08-23T07:50:51Z</time>
      </trkpt>
      <trkpt lat="42.93684" lon="0.3202">
        <ele>1456.4000244141</ele>
        <time>2019-08-23T07:50:52Z</time>
      </trkpt>
      <trkpt lat="42.93686" lon="0.32019">
        <ele>1457</ele>
        <time>2019-08-23T07:50:53Z</time>
      </trkpt>
      <trkpt lat="42.93693" lon="0.32014">
        <ele>1457</ele>
        <time>2019-08-23T07:50:57Z</time>
      </trkpt>
      <trkpt lat="42.9371" lon="0.32007">
        <ele>1457.4000244141</ele>
        <time>2019-08-23T07:51:05Z</time>
      </trkpt>
      <trkpt lat="42.93712" lon="0.32006">
        <ele>1457.8000488281</ele>
        <time>2019-08-23T07:51:06Z</time>
      </trkpt>
      <trkpt lat="42.93714" lon="0.32005">
        <ele>1458.1999511719</ele>
        <time>2019-08-23T07:51:07Z</time>
      </trkpt>
      <trkpt lat="42.93716" lon="0.32004">
        <ele>1458.5999755859</ele>
        <time>2019-08-23T07:51:08Z</time>
      </trkpt>
      <trkpt lat="42.93718" lon="0.32004">
        <ele>1459</ele>
        <time>2019-08-23T07:51:09Z</time>
      </trkpt>
      <trkpt lat="42.93728" lon="0.32001">
        <ele>1459</ele>
        <time>2019-08-23T07:51:13Z</time>
      </trkpt>
      <trkpt lat="42.93741" lon="0.31998">
        <ele>1459</ele>
        <time>2019-08-23T07:51:19Z</time>
      </trkpt>
      <trkpt lat="42.93748" lon="0.31998">
        <ele>1459.4000244141</ele>
        <time>2019-08-23T07:51:22Z</time>
      </trkpt>
      <trkpt lat="42.9375" lon="0.31997">
        <ele>1459.8000488281</ele>
        <time>2019-08-23T07:51:23Z</time>
      </trkpt>
      <trkpt lat="42.93752" lon="0.31997">
        <ele>1460.1999511719</ele>
        <time>2019-08-23T07:51:24Z</time>
      </trkpt>
      <trkpt lat="42.93754" lon="0.31997">
        <ele>1460.5999755859</ele>
        <time>2019-08-23T07:51:25Z</time>
      </trkpt>
      <trkpt lat="42.93756" lon="0.31998">
        <ele>1461</ele>
        <time>2019-08-23T07:51:26Z</time>
      </trkpt>
      <trkpt lat="42.9377" lon="0.31999">
        <ele>1461</ele>
        <time>2019-08-23T07:51:33Z</time>
      </trkpt>
      <trkpt lat="42.93783" lon="0.32004">
        <ele>1461.4000244141</ele>
        <time>2019-08-23T07:51:39Z</time>
      </trkpt>
      <trkpt lat="42.93786" lon="0.32005">
        <ele>1461.8000488281</ele>
        <time>2019-08-23T07:51:40Z</time>
      </trkpt>
      <trkpt lat="42.93788" lon="0.32006">
        <ele>1462.1999511719</ele>
        <time>2019-08-23T07:51:41Z</time>
      </trkpt>
      <trkpt lat="42.9379" lon="0.32007">
        <ele>1462.5999755859</ele>
        <time>2019-08-23T07:51:42Z</time>
      </trkpt>
      <trkpt lat="42.93792" lon="0.32008">
        <ele>1463</ele>
        <time>2019-08-23T07:51:43Z</time>
      </trkpt>
      <trkpt lat="42.93796" lon="0.3201">
        <ele>1463</ele>
        <time>2019-08-23T07:51:45Z</time>
      </trkpt>
      <trkpt lat="42.93804" lon="0.32016">
        <ele>1463</ele>
        <time>2019-08-23T07:51:50Z</time>
      </trkpt>
      <trkpt lat="42.93806" lon="0.32018">
        <ele>1463</ele>
        <time>2019-08-23T07:51:51Z</time>
      </trkpt>
      <trkpt lat="42.93813" lon="0.32024">
        <ele>1463.4000244141</ele>
        <time>2019-08-23T07:51:55Z</time>
      </trkpt>
      <trkpt lat="42.93815" lon="0.32025">
        <ele>1463.8000488281</ele>
        <time>2019-08-23T07:51:56Z</time>
      </trkpt>
      <trkpt lat="42.93817" lon="0.32027">
        <ele>1464.4000244141</ele>
        <time>2019-08-23T07:51:57Z</time>
      </trkpt>
      <trkpt lat="42.93819" lon="0.32029">
        <ele>1464.8000488281</ele>
        <time>2019-08-23T07:51:58Z</time>
      </trkpt>
      <trkpt lat="42.93821" lon="0.3203">
        <ele>1465.1999511719</ele>
        <time>2019-08-23T07:51:59Z</time>
      </trkpt>
      <trkpt lat="42.93828" lon="0.32041">
        <ele>1465.1999511719</ele>
        <time>2019-08-23T07:52:05Z</time>
      </trkpt>
      <trkpt lat="42.93837" lon="0.3205">
        <ele>1465.5999755859</ele>
        <time>2019-08-23T07:52:10Z</time>
      </trkpt>
      <trkpt lat="42.93838" lon="0.32051">
        <ele>1466.4000244141</ele>
        <time>2019-08-23T07:52:11Z</time>
      </trkpt>
      <trkpt lat="42.93839" lon="0.32052">
        <ele>1466.8000488281</ele>
        <time>2019-08-23T07:52:12Z</time>
      </trkpt>
      <trkpt lat="42.9384" lon="0.32053">
        <ele>1467.1999511719</ele>
        <time>2019-08-23T07:52:13Z</time>
      </trkpt>
      <trkpt lat="42.93845" lon="0.32058">
        <ele>1467.1999511719</ele>
        <time>2019-08-23T07:52:16Z</time>
      </trkpt>
      <trkpt lat="42.93855" lon="0.3207">
        <ele>1467.1999511719</ele>
        <time>2019-08-23T07:52:22Z</time>
      </trkpt>
      <trkpt lat="42.9386" lon="0.3208">
        <ele>1467.1999511719</ele>
        <time>2019-08-23T07:52:26Z</time>
      </trkpt>
      <trkpt lat="42.93862" lon="0.32082">
        <ele>1467.5999755859</ele>
        <time>2019-08-23T07:52:27Z</time>
      </trkpt>
      <trkpt lat="42.93863" lon="0.32085">
        <ele>1468</ele>
        <time>2019-08-23T07:52:28Z</time>
      </trkpt>
      <trkpt lat="42.93865" lon="0.32088">
        <ele>1468.4000244141</ele>
        <time>2019-08-23T07:52:29Z</time>
      </trkpt>
      <trkpt lat="42.93866" lon="0.32091">
        <ele>1468.8000488281</ele>
        <time>2019-08-23T07:52:30Z</time>
      </trkpt>
      <trkpt lat="42.93868" lon="0.32093">
        <ele>1469.1999511719</ele>
        <time>2019-08-23T07:52:31Z</time>
      </trkpt>
      <trkpt lat="42.93869" lon="0.32096">
        <ele>1469.1999511719</ele>
        <time>2019-08-23T07:52:32Z</time>
      </trkpt>
      <trkpt lat="42.93878" lon="0.32108">
        <ele>1469.1999511719</ele>
        <time>2019-08-23T07:52:37Z</time>
      </trkpt>
      <trkpt lat="42.9389" lon="0.32123">
        <ele>1469.1999511719</ele>
        <time>2019-08-23T07:52:44Z</time>
      </trkpt>
      <trkpt lat="42.93898" lon="0.32134">
        <ele>1469.1999511719</ele>
        <time>2019-08-23T07:52:49Z</time>
      </trkpt>
      <trkpt lat="42.93907" lon="0.32145">
        <ele>1469.1999511719</ele>
        <time>2019-08-23T07:52:54Z</time>
      </trkpt>
      <trkpt lat="42.93909" lon="0.32148">
        <ele>1469.5999755859</ele>
        <time>2019-08-23T07:52:55Z</time>
      </trkpt>
      <trkpt lat="42.93911" lon="0.32149">
        <ele>1470</ele>
        <time>2019-08-23T07:52:56Z</time>
      </trkpt>
      <trkpt lat="42.93912" lon="0.32151">
        <ele>1470.4000244141</ele>
        <time>2019-08-23T07:52:57Z</time>
      </trkpt>
      <trkpt lat="42.93913" lon="0.32153">
        <ele>1470.8000488281</ele>
        <time>2019-08-23T07:52:58Z</time>
      </trkpt>
      <trkpt lat="42.93915" lon="0.32155">
        <ele>1471.1999511719</ele>
        <time>2019-08-23T07:52:59Z</time>
      </trkpt>
      <trkpt lat="42.93917" lon="0.32157">
        <ele>1471.1999511719</ele>
        <time>2019-08-23T07:53:00Z</time>
      </trkpt>
      <trkpt lat="42.93927" lon="0.32168">
        <ele>1471.1999511719</ele>
        <time>2019-08-23T07:53:06Z</time>
      </trkpt>
      <trkpt lat="42.93933" lon="0.32173">
        <ele>1471.8000488281</ele>
        <time>2019-08-23T07:53:09Z</time>
      </trkpt>
      <trkpt lat="42.93935" lon="0.32175">
        <ele>1472.1999511719</ele>
        <time>2019-08-23T07:53:10Z</time>
      </trkpt>
      <trkpt lat="42.93937" lon="0.32176">
        <ele>1472.5999755859</ele>
        <time>2019-08-23T07:53:11Z</time>
      </trkpt>
      <trkpt lat="42.93938" lon="0.32178">
        <ele>1473</ele>
        <time>2019-08-23T07:53:12Z</time>
      </trkpt>
      <trkpt lat="42.9394" lon="0.32179">
        <ele>1473.4000244141</ele>
        <time>2019-08-23T07:53:13Z</time>
      </trkpt>
      <trkpt lat="42.93948" lon="0.32181">
        <ele>1473.4000244141</ele>
        <time>2019-08-23T07:53:17Z</time>
      </trkpt>
      <trkpt lat="42.93962" lon="0.32184">
        <ele>1473.8000488281</ele>
        <time>2019-08-23T07:53:23Z</time>
      </trkpt>
      <trkpt lat="42.93964" lon="0.32184">
        <ele>1474.1999511719</ele>
        <time>2019-08-23T07:53:24Z</time>
      </trkpt>
      <trkpt lat="42.93966" lon="0.32185">
        <ele>1475</ele>
        <time>2019-08-23T07:53:25Z</time>
      </trkpt>
      <trkpt lat="42.93969" lon="0.32185">
        <ele>1475.4000244141</ele>
        <time>2019-08-23T07:53:26Z</time>
      </trkpt>
      <trkpt lat="42.9398" lon="0.32185">
        <ele>1475.4000244141</ele>
        <time>2019-08-23T07:53:30Z</time>
      </trkpt>
      <trkpt lat="42.9399" lon="0.32185">
        <ele>1475.4000244141</ele>
        <time>2019-08-23T07:53:35Z</time>
      </trkpt>
      <trkpt lat="42.93992" lon="0.32184">
        <ele>1475.8000488281</ele>
        <time>2019-08-23T07:53:36Z</time>
      </trkpt>
      <trkpt lat="42.93995" lon="0.32184">
        <ele>1476.1999511719</ele>
        <time>2019-08-23T07:53:37Z</time>
      </trkpt>
      <trkpt lat="42.93997" lon="0.32183">
        <ele>1476.5999755859</ele>
        <time>2019-08-23T07:53:38Z</time>
      </trkpt>
      <trkpt lat="42.93999" lon="0.32182">
        <ele>1477</ele>
        <time>2019-08-23T07:53:39Z</time>
      </trkpt>
      <trkpt lat="42.94001" lon="0.32181">
        <ele>1477.4000244141</ele>
        <time>2019-08-23T07:53:40Z</time>
      </trkpt>
      <trkpt lat="42.94003" lon="0.32181">
        <ele>1477.4000244141</ele>
        <time>2019-08-23T07:53:41Z</time>
      </trkpt>
      <trkpt lat="42.94016" lon="0.3218">
        <ele>1477.4000244141</ele>
        <time>2019-08-23T07:53:48Z</time>
      </trkpt>
      <trkpt lat="42.94018" lon="0.32179">
        <ele>1478</ele>
        <time>2019-08-23T07:53:49Z</time>
      </trkpt>
      <trkpt lat="42.9402" lon="0.32179">
        <ele>1478.4000244141</ele>
        <time>2019-08-23T07:53:50Z</time>
      </trkpt>
      <trkpt lat="42.94022" lon="0.32178">
        <ele>1478.8000488281</ele>
        <time>2019-08-23T07:53:51Z</time>
      </trkpt>
      <trkpt lat="42.94023" lon="0.32177">
        <ele>1479.1999511719</ele>
        <time>2019-08-23T07:53:52Z</time>
      </trkpt>
      <trkpt lat="42.94025" lon="0.32176">
        <ele>1479.8000488281</ele>
        <time>2019-08-23T07:53:53Z</time>
      </trkpt>
      <trkpt lat="42.94029" lon="0.32174">
        <ele>1479.8000488281</ele>
        <time>2019-08-23T07:53:55Z</time>
      </trkpt>
      <trkpt lat="42.94039" lon="0.32173">
        <ele>1480.1999511719</ele>
        <time>2019-08-23T07:54:01Z</time>
      </trkpt>
      <trkpt lat="42.94041" lon="0.32172">
        <ele>1480.5999755859</ele>
        <time>2019-08-23T07:54:02Z</time>
      </trkpt>
      <trkpt lat="42.94043" lon="0.32171">
        <ele>1481</ele>
        <time>2019-08-23T07:54:03Z</time>
      </trkpt>
      <trkpt lat="42.94045" lon="0.3217">
        <ele>1481.4000244141</ele>
        <time>2019-08-23T07:54:04Z</time>
      </trkpt>
      <trkpt lat="42.94048" lon="0.3217">
        <ele>1481.8000488281</ele>
        <time>2019-08-23T07:54:05Z</time>
      </trkpt>
      <trkpt lat="42.94052" lon="0.3217">
        <ele>1481.8000488281</ele>
        <time>2019-08-23T07:54:07Z</time>
      </trkpt>
      <trkpt lat="42.94063" lon="0.32171">
        <ele>1481.8000488281</ele>
        <time>2019-08-23T07:54:13Z</time>
      </trkpt>
      <trkpt lat="42.94078" lon="0.32175">
        <ele>1481.8000488281</ele>
        <time>2019-08-23T07:54:19Z</time>
      </trkpt>
      <trkpt lat="42.94087" lon="0.3218">
        <ele>1481.8000488281</ele>
        <time>2019-08-23T07:54:25Z</time>
      </trkpt>
      <trkpt lat="42.94096" lon="0.3219">
        <ele>1481.8000488281</ele>
        <time>2019-08-23T07:54:31Z</time>
      </trkpt>
      <trkpt lat="42.94108" lon="0.32212">
        <ele>1481.8000488281</ele>
        <time>2019-08-23T07:54:37Z</time>
      </trkpt>
      <trkpt lat="42.94117" lon="0.32242">
        <ele>1481.8000488281</ele>
        <time>2019-08-23T07:54:43Z</time>
      </trkpt>
      <trkpt lat="42.94128" lon="0.32278">
        <ele>1481.8000488281</ele>
        <time>2019-08-23T07:54:49Z</time>
      </trkpt>
      <trkpt lat="42.94132" lon="0.32291">
        <ele>1481.1999511719</ele>
        <time>2019-08-23T07:54:51Z</time>
      </trkpt>
      <trkpt lat="42.94133" lon="0.32298">
        <ele>1480.8000488281</ele>
        <time>2019-08-23T07:54:52Z</time>
      </trkpt>
      <trkpt lat="42.94135" lon="0.32305">
        <ele>1480.4000244141</ele>
        <time>2019-08-23T07:54:53Z</time>
      </trkpt>
      <trkpt lat="42.94136" lon="0.32312">
        <ele>1480</ele>
        <time>2019-08-23T07:54:54Z</time>
      </trkpt>
      <trkpt lat="42.94137" lon="0.32319">
        <ele>1479.5999755859</ele>
        <time>2019-08-23T07:54:55Z</time>
      </trkpt>
      <trkpt lat="42.9414" lon="0.32332">
        <ele>1479.5999755859</ele>
        <time>2019-08-23T07:54:57Z</time>
      </trkpt>
      <trkpt lat="42.94142" lon="0.32346">
        <ele>1479.5999755859</ele>
        <time>2019-08-23T07:54:59Z</time>
      </trkpt>
      <trkpt lat="42.94143" lon="0.32359">
        <ele>1479.5999755859</ele>
        <time>2019-08-23T07:55:01Z</time>
      </trkpt>
      <trkpt lat="42.9415" lon="0.32411">
        <ele>1479.5999755859</ele>
        <time>2019-08-23T07:55:09Z</time>
      </trkpt>
      <trkpt lat="42.94152" lon="0.32458">
        <ele>1479.5999755859</ele>
        <time>2019-08-23T07:55:16Z</time>
      </trkpt>
      <trkpt lat="42.94159" lon="0.32511">
        <ele>1479.5999755859</ele>
        <time>2019-08-23T07:55:24Z</time>
      </trkpt>
      <trkpt lat="42.94161" lon="0.32525">
        <ele>1479</ele>
        <time>2019-08-23T07:55:26Z</time>
      </trkpt>
      <trkpt lat="42.94162" lon="0.32531">
        <ele>1478.5999755859</ele>
        <time>2019-08-23T07:55:27Z</time>
      </trkpt>
      <trkpt lat="42.94163" lon="0.32537">
        <ele>1477.8000488281</ele>
        <time>2019-08-23T07:55:28Z</time>
      </trkpt>
      <trkpt lat="42.94164" lon="0.32544">
        <ele>1477.4000244141</ele>
        <time>2019-08-23T07:55:29Z</time>
      </trkpt>
      <trkpt lat="42.94167" lon="0.32558">
        <ele>1477.4000244141</ele>
        <time>2019-08-23T07:55:31Z</time>
      </trkpt>
      <trkpt lat="42.94174" lon="0.32592">
        <ele>1477.4000244141</ele>
        <time>2019-08-23T07:55:37Z</time>
      </trkpt>
      <trkpt lat="42.94177" lon="0.32617">
        <ele>1477.4000244141</ele>
        <time>2019-08-23T07:55:41Z</time>
      </trkpt>
      <trkpt lat="42.9418" lon="0.32629">
        <ele>1477.4000244141</ele>
        <time>2019-08-23T07:55:43Z</time>
      </trkpt>
      <trkpt lat="42.94187" lon="0.3265">
        <ele>1477.4000244141</ele>
        <time>2019-08-23T07:55:47Z</time>
      </trkpt>
      <trkpt lat="42.94191" lon="0.32666">
        <ele>1477.4000244141</ele>
        <time>2019-08-23T07:55:50Z</time>
      </trkpt>
      <trkpt lat="42.94192" lon="0.32672">
        <ele>1477.4000244141</ele>
        <time>2019-08-23T07:55:51Z</time>
      </trkpt>
      <trkpt lat="42.94197" lon="0.32688">
        <ele>1477.4000244141</ele>
        <time>2019-08-23T07:55:54Z</time>
      </trkpt>
      <trkpt lat="42.94198" lon="0.32693">
        <ele>1477.4000244141</ele>
        <time>2019-08-23T07:55:55Z</time>
      </trkpt>
      <trkpt lat="42.94201" lon="0.32711">
        <ele>1477.4000244141</ele>
        <time>2019-08-23T07:56:00Z</time>
      </trkpt>
      <trkpt lat="42.94203" lon="0.32718">
        <ele>1477.4000244141</ele>
        <time>2019-08-23T07:56:05Z</time>
      </trkpt>
      <trkpt lat="42.94203" lon="0.32718">
        <ele>1477.4000244141</ele>
        <time>2019-08-23T07:56:18Z</time>
      </trkpt>
      <trkpt lat="42.94203" lon="0.32718">
        <ele>1477.4000244141</ele>
        <time>2019-08-23T07:56:31Z</time>
      </trkpt>
      <trkpt lat="42.94203" lon="0.32718">
        <ele>1477.4000244141</ele>
        <time>2019-08-23T07:56:43Z</time>
      </trkpt>
      <trkpt lat="42.94203" lon="0.32717">
        <ele>1477.4000244141</ele>
        <time>2019-08-23T07:56:49Z</time>
      </trkpt>
      <trkpt lat="42.94205" lon="0.32719">
        <ele>1477.4000244141</ele>
        <time>2019-08-23T07:56:53Z</time>
      </trkpt>
      <trkpt lat="42.94205" lon="0.32721">
        <ele>1477.4000244141</ele>
        <time>2019-08-23T07:56:54Z</time>
      </trkpt>
      <trkpt lat="42.9421" lon="0.3273">
        <ele>1477.4000244141</ele>
        <time>2019-08-23T07:56:58Z</time>
      </trkpt>
      <trkpt lat="42.94223" lon="0.32739">
        <ele>1477</ele>
        <time>2019-08-23T07:57:04Z</time>
      </trkpt>
      <trkpt lat="42.94224" lon="0.32742">
        <ele>1476.5999755859</ele>
        <time>2019-08-23T07:57:05Z</time>
      </trkpt>
      <trkpt lat="42.94225" lon="0.32744">
        <ele>1475.5999755859</ele>
        <time>2019-08-23T07:57:06Z</time>
      </trkpt>
      <trkpt lat="42.94226" lon="0.32745">
        <ele>1475.1999511719</ele>
        <time>2019-08-23T07:57:07Z</time>
      </trkpt>
      <trkpt lat="42.9423" lon="0.32747">
        <ele>1475.1999511719</ele>
        <time>2019-08-23T07:57:09Z</time>
      </trkpt>
      <trkpt lat="42.94237" lon="0.3274">
        <ele>1475.1999511719</ele>
        <time>2019-08-23T07:57:13Z</time>
      </trkpt>
      <trkpt lat="42.94242" lon="0.32728">
        <ele>1475.1999511719</ele>
        <time>2019-08-23T07:57:18Z</time>
      </trkpt>
      <trkpt lat="42.94246" lon="0.32719">
        <ele>1475.1999511719</ele>
        <time>2019-08-23T07:57:21Z</time>
      </trkpt>
      <trkpt lat="42.94249" lon="0.32717">
        <ele>1475.1999511719</ele>
        <time>2019-08-23T07:57:22Z</time>
      </trkpt>
      <trkpt lat="42.94262" lon="0.327">
        <ele>1475.1999511719</ele>
        <time>2019-08-23T07:57:27Z</time>
      </trkpt>
      <trkpt lat="42.9427" lon="0.32691">
        <ele>1474.8000488281</ele>
        <time>2019-08-23T07:57:29Z</time>
      </trkpt>
      <trkpt lat="42.94275" lon="0.32687">
        <ele>1474.1999511719</ele>
        <time>2019-08-23T07:57:30Z</time>
      </trkpt>
      <trkpt lat="42.9428" lon="0.32682">
        <ele>1473.4000244141</ele>
        <time>2019-08-23T07:57:31Z</time>
      </trkpt>
      <trkpt lat="42.94285" lon="0.32676">
        <ele>1472.8000488281</ele>
        <time>2019-08-23T07:57:32Z</time>
      </trkpt>
      <trkpt lat="42.94289" lon="0.3267">
        <ele>1472.4000244141</ele>
        <time>2019-08-23T07:57:33Z</time>
      </trkpt>
      <trkpt lat="42.94294" lon="0.32663">
        <ele>1471.8000488281</ele>
        <time>2019-08-23T07:57:34Z</time>
      </trkpt>
      <trkpt lat="42.94298" lon="0.32655">
        <ele>1471.4000244141</ele>
        <time>2019-08-23T07:57:35Z</time>
      </trkpt>
      <trkpt lat="42.94303" lon="0.32647">
        <ele>1470.8000488281</ele>
        <time>2019-08-23T07:57:36Z</time>
      </trkpt>
      <trkpt lat="42.94307" lon="0.32638">
        <ele>1470.1999511719</ele>
        <time>2019-08-23T07:57:37Z</time>
      </trkpt>
      <trkpt lat="42.94312" lon="0.32629">
        <ele>1469.5999755859</ele>
        <time>2019-08-23T07:57:38Z</time>
      </trkpt>
      <trkpt lat="42.94317" lon="0.32619">
        <ele>1468.8000488281</ele>
        <time>2019-08-23T07:57:39Z</time>
      </trkpt>
      <trkpt lat="42.94321" lon="0.32608">
        <ele>1468</ele>
        <time>2019-08-23T07:57:40Z</time>
      </trkpt>
      <trkpt lat="42.94324" lon="0.32596">
        <ele>1467.1999511719</ele>
        <time>2019-08-23T07:57:41Z</time>
      </trkpt>
      <trkpt lat="42.94326" lon="0.32585">
        <ele>1466.4000244141</ele>
        <time>2019-08-23T07:57:42Z</time>
      </trkpt>
      <trkpt lat="42.94329" lon="0.32573">
        <ele>1465.8000488281</ele>
        <time>2019-08-23T07:57:43Z</time>
      </trkpt>
      <trkpt lat="42.94331" lon="0.3256">
        <ele>1465</ele>
        <time>2019-08-23T07:57:44Z</time>
      </trkpt>
      <trkpt lat="42.94333" lon="0.32547">
        <ele>1464.1999511719</ele>
        <time>2019-08-23T07:57:45Z</time>
      </trkpt>
      <trkpt lat="42.94335" lon="0.32533">
        <ele>1463.4000244141</ele>
        <time>2019-08-23T07:57:46Z</time>
      </trkpt>
      <trkpt lat="42.94338" lon="0.32519">
        <ele>1462.5999755859</ele>
        <time>2019-08-23T07:57:47Z</time>
      </trkpt>
      <trkpt lat="42.9434" lon="0.32505">
        <ele>1461.8000488281</ele>
        <time>2019-08-23T07:57:48Z</time>
      </trkpt>
      <trkpt lat="42.94342" lon="0.32492">
        <ele>1461</ele>
        <time>2019-08-23T07:57:49Z</time>
      </trkpt>
      <trkpt lat="42.94344" lon="0.32477">
        <ele>1460.1999511719</ele>
        <time>2019-08-23T07:57:50Z</time>
      </trkpt>
      <trkpt lat="42.94347" lon="0.32463">
        <ele>1459.5999755859</ele>
        <time>2019-08-23T07:57:51Z</time>
      </trkpt>
      <trkpt lat="42.94351" lon="0.32448">
        <ele>1458.5999755859</ele>
        <time>2019-08-23T07:57:52Z</time>
      </trkpt>
      <trkpt lat="42.94355" lon="0.32433">
        <ele>1457.8000488281</ele>
        <time>2019-08-23T07:57:53Z</time>
      </trkpt>
      <trkpt lat="42.94358" lon="0.32417">
        <ele>1457</ele>
        <time>2019-08-23T07:57:54Z</time>
      </trkpt>
      <trkpt lat="42.94359" lon="0.324">
        <ele>1455.1999511719</ele>
        <time>2019-08-23T07:57:55Z</time>
      </trkpt>
      <trkpt lat="42.9436" lon="0.32384">
        <ele>1454.4000244141</ele>
        <time>2019-08-23T07:57:56Z</time>
      </trkpt>
      <trkpt lat="42.94361" lon="0.32367">
        <ele>1453.4000244141</ele>
        <time>2019-08-23T07:57:57Z</time>
      </trkpt>
      <trkpt lat="42.94362" lon="0.32351">
        <ele>1452.4000244141</ele>
        <time>2019-08-23T07:57:58Z</time>
      </trkpt>
      <trkpt lat="42.94364" lon="0.32335">
        <ele>1451.4000244141</ele>
        <time>2019-08-23T07:57:59Z</time>
      </trkpt>
      <trkpt lat="42.94367" lon="0.3232">
        <ele>1450.4000244141</ele>
        <time>2019-08-23T07:58:00Z</time>
      </trkpt>
      <trkpt lat="42.94372" lon="0.32305">
        <ele>1449.4000244141</ele>
        <time>2019-08-23T07:58:01Z</time>
      </trkpt>
      <trkpt lat="42.94378" lon="0.32291">
        <ele>1448.4000244141</ele>
        <time>2019-08-23T07:58:02Z</time>
      </trkpt>
      <trkpt lat="42.94385" lon="0.32277">
        <ele>1447.8000488281</ele>
        <time>2019-08-23T07:58:03Z</time>
      </trkpt>
      <trkpt lat="42.94392" lon="0.32264">
        <ele>1447</ele>
        <time>2019-08-23T07:58:04Z</time>
      </trkpt>
      <trkpt lat="42.944" lon="0.32252">
        <ele>1446.1999511719</ele>
        <time>2019-08-23T07:58:05Z</time>
      </trkpt>
      <trkpt lat="42.94407" lon="0.32239">
        <ele>1445.4000244141</ele>
        <time>2019-08-23T07:58:06Z</time>
      </trkpt>
      <trkpt lat="42.94414" lon="0.32225">
        <ele>1444.5999755859</ele>
        <time>2019-08-23T07:58:07Z</time>
      </trkpt>
      <trkpt lat="42.94421" lon="0.3221">
        <ele>1444</ele>
        <time>2019-08-23T07:58:08Z</time>
      </trkpt>
      <trkpt lat="42.94427" lon="0.32194">
        <ele>1443</ele>
        <time>2019-08-23T07:58:09Z</time>
      </trkpt>
      <trkpt lat="42.94433" lon="0.32179">
        <ele>1442.1999511719</ele>
        <time>2019-08-23T07:58:10Z</time>
      </trkpt>
      <trkpt lat="42.94438" lon="0.32163">
        <ele>1441.1999511719</ele>
        <time>2019-08-23T07:58:11Z</time>
      </trkpt>
      <trkpt lat="42.94444" lon="0.32147">
        <ele>1440.1999511719</ele>
        <time>2019-08-23T07:58:12Z</time>
      </trkpt>
      <trkpt lat="42.94451" lon="0.32132">
        <ele>1439.1999511719</ele>
        <time>2019-08-23T07:58:13Z</time>
      </trkpt>
      <trkpt lat="42.94456" lon="0.32117">
        <ele>1438.1999511719</ele>
        <time>2019-08-23T07:58:14Z</time>
      </trkpt>
      <trkpt lat="42.94462" lon="0.32103">
        <ele>1437.1999511719</ele>
        <time>2019-08-23T07:58:15Z</time>
      </trkpt>
      <trkpt lat="42.94469" lon="0.32088">
        <ele>1436.1999511719</ele>
        <time>2019-08-23T07:58:16Z</time>
      </trkpt>
      <trkpt lat="42.94475" lon="0.32072">
        <ele>1435.4000244141</ele>
        <time>2019-08-23T07:58:17Z</time>
      </trkpt>
      <trkpt lat="42.94481" lon="0.32057">
        <ele>1434.5999755859</ele>
        <time>2019-08-23T07:58:18Z</time>
      </trkpt>
      <trkpt lat="42.94487" lon="0.32042">
        <ele>1433.5999755859</ele>
        <time>2019-08-23T07:58:19Z</time>
      </trkpt>
      <trkpt lat="42.94493" lon="0.32027">
        <ele>1431.8000488281</ele>
        <time>2019-08-23T07:58:20Z</time>
      </trkpt>
      <trkpt lat="42.945" lon="0.32012">
        <ele>1430.8000488281</ele>
        <time>2019-08-23T07:58:21Z</time>
      </trkpt>
      <trkpt lat="42.94507" lon="0.31997">
        <ele>1429.8000488281</ele>
        <time>2019-08-23T07:58:22Z</time>
      </trkpt>
      <trkpt lat="42.94514" lon="0.31981">
        <ele>1428.8000488281</ele>
        <time>2019-08-23T07:58:23Z</time>
      </trkpt>
      <trkpt lat="42.94521" lon="0.31967">
        <ele>1427.8000488281</ele>
        <time>2019-08-23T07:58:24Z</time>
      </trkpt>
      <trkpt lat="42.9453" lon="0.31954">
        <ele>1426.8000488281</ele>
        <time>2019-08-23T07:58:25Z</time>
      </trkpt>
      <trkpt lat="42.94538" lon="0.3194">
        <ele>1426</ele>
        <time>2019-08-23T07:58:26Z</time>
      </trkpt>
      <trkpt lat="42.94546" lon="0.31927">
        <ele>1425.1999511719</ele>
        <time>2019-08-23T07:58:27Z</time>
      </trkpt>
      <trkpt lat="42.94554" lon="0.31915">
        <ele>1424.1999511719</ele>
        <time>2019-08-23T07:58:28Z</time>
      </trkpt>
      <trkpt lat="42.94559" lon="0.319">
        <ele>1423.4000244141</ele>
        <time>2019-08-23T07:58:29Z</time>
      </trkpt>
      <trkpt lat="42.94564" lon="0.31885">
        <ele>1422.8000488281</ele>
        <time>2019-08-23T07:58:30Z</time>
      </trkpt>
      <trkpt lat="42.94568" lon="0.31869">
        <ele>1422.1999511719</ele>
        <time>2019-08-23T07:58:31Z</time>
      </trkpt>
      <trkpt lat="42.94572" lon="0.31853">
        <ele>1421.5999755859</ele>
        <time>2019-08-23T07:58:32Z</time>
      </trkpt>
      <trkpt lat="42.94578" lon="0.31838">
        <ele>1421</ele>
        <time>2019-08-23T07:58:33Z</time>
      </trkpt>
      <trkpt lat="42.94583" lon="0.31822">
        <ele>1420.1999511719</ele>
        <time>2019-08-23T07:58:34Z</time>
      </trkpt>
      <trkpt lat="42.94588" lon="0.31806">
        <ele>1419.4000244141</ele>
        <time>2019-08-23T07:58:35Z</time>
      </trkpt>
      <trkpt lat="42.94594" lon="0.31791">
        <ele>1418.4000244141</ele>
        <time>2019-08-23T07:58:36Z</time>
      </trkpt>
      <trkpt lat="42.94601" lon="0.31776">
        <ele>1417.5999755859</ele>
        <time>2019-08-23T07:58:37Z</time>
      </trkpt>
      <trkpt lat="42.94609" lon="0.31763">
        <ele>1416.8000488281</ele>
        <time>2019-08-23T07:58:38Z</time>
      </trkpt>
      <trkpt lat="42.94617" lon="0.31751">
        <ele>1415.8000488281</ele>
        <time>2019-08-23T07:58:39Z</time>
      </trkpt>
      <trkpt lat="42.94625" lon="0.31742">
        <ele>1415</ele>
        <time>2019-08-23T07:58:40Z</time>
      </trkpt>
      <trkpt lat="42.94633" lon="0.31737">
        <ele>1414.1999511719</ele>
        <time>2019-08-23T07:58:41Z</time>
      </trkpt>
      <trkpt lat="42.94641" lon="0.31732">
        <ele>1413.1999511719</ele>
        <time>2019-08-23T07:58:42Z</time>
      </trkpt>
      <trkpt lat="42.94652" lon="0.3172">
        <ele>1413.1999511719</ele>
        <time>2019-08-23T07:58:44Z</time>
      </trkpt>
      <trkpt lat="42.94655" lon="0.31714">
        <ele>1413.1999511719</ele>
        <time>2019-08-23T07:58:45Z</time>
      </trkpt>
      <trkpt lat="42.94658" lon="0.317">
        <ele>1413.1999511719</ele>
        <time>2019-08-23T07:58:48Z</time>
      </trkpt>
      <trkpt lat="42.94656" lon="0.31692">
        <ele>1412.8000488281</ele>
        <time>2019-08-23T07:58:51Z</time>
      </trkpt>
      <trkpt lat="42.94652" lon="0.31684">
        <ele>1412.4000244141</ele>
        <time>2019-08-23T07:58:52Z</time>
      </trkpt>
      <trkpt lat="42.94644" lon="0.31673">
        <ele>1412</ele>
        <time>2019-08-23T07:58:53Z</time>
      </trkpt>
      <trkpt lat="42.94633" lon="0.3166">
        <ele>1411.1999511719</ele>
        <time>2019-08-23T07:58:54Z</time>
      </trkpt>
      <trkpt lat="42.94622" lon="0.31652">
        <ele>1410.4000244141</ele>
        <time>2019-08-23T07:58:55Z</time>
      </trkpt>
      <trkpt lat="42.94609" lon="0.31642">
        <ele>1409.8000488281</ele>
        <time>2019-08-23T07:58:56Z</time>
      </trkpt>
      <trkpt lat="42.94597" lon="0.31632">
        <ele>1409</ele>
        <time>2019-08-23T07:58:57Z</time>
      </trkpt>
      <trkpt lat="42.94586" lon="0.31621">
        <ele>1408.1999511719</ele>
        <time>2019-08-23T07:58:58Z</time>
      </trkpt>
      <trkpt lat="42.94575" lon="0.31609">
        <ele>1407.4000244141</ele>
        <time>2019-08-23T07:58:59Z</time>
      </trkpt>
      <trkpt lat="42.94565" lon="0.31596">
        <ele>1406.4000244141</ele>
        <time>2019-08-23T07:59:00Z</time>
      </trkpt>
      <trkpt lat="42.94555" lon="0.31582">
        <ele>1405.5999755859</ele>
        <time>2019-08-23T07:59:01Z</time>
      </trkpt>
      <trkpt lat="42.94545" lon="0.31569">
        <ele>1404.5999755859</ele>
        <time>2019-08-23T07:59:02Z</time>
      </trkpt>
      <trkpt lat="42.94536" lon="0.31555">
        <ele>1403.5999755859</ele>
        <time>2019-08-23T07:59:03Z</time>
      </trkpt>
      <trkpt lat="42.94527" lon="0.31542">
        <ele>1402.4000244141</ele>
        <time>2019-08-23T07:59:04Z</time>
      </trkpt>
      <trkpt lat="42.94517" lon="0.31529">
        <ele>1401.1999511719</ele>
        <time>2019-08-23T07:59:05Z</time>
      </trkpt>
      <trkpt lat="42.94508" lon="0.31516">
        <ele>1399.8000488281</ele>
        <time>2019-08-23T07:59:06Z</time>
      </trkpt>
      <trkpt lat="42.945" lon="0.31504">
        <ele>1398.5999755859</ele>
        <time>2019-08-23T07:59:07Z</time>
      </trkpt>
      <trkpt lat="42.94492" lon="0.31491">
        <ele>1397.4000244141</ele>
        <time>2019-08-23T07:59:08Z</time>
      </trkpt>
      <trkpt lat="42.94486" lon="0.31477">
        <ele>1395.5999755859</ele>
        <time>2019-08-23T07:59:09Z</time>
      </trkpt>
      <trkpt lat="42.94481" lon="0.31463">
        <ele>1394.5999755859</ele>
        <time>2019-08-23T07:59:10Z</time>
      </trkpt>
      <trkpt lat="42.94478" lon="0.31448">
        <ele>1393.8000488281</ele>
        <time>2019-08-23T07:59:11Z</time>
      </trkpt>
      <trkpt lat="42.94473" lon="0.31433">
        <ele>1393</ele>
        <time>2019-08-23T07:59:12Z</time>
      </trkpt>
      <trkpt lat="42.94468" lon="0.31419">
        <ele>1392</ele>
        <time>2019-08-23T07:59:13Z</time>
      </trkpt>
      <trkpt lat="42.94461" lon="0.31405">
        <ele>1391.1999511719</ele>
        <time>2019-08-23T07:59:14Z</time>
      </trkpt>
      <trkpt lat="42.94454" lon="0.31391">
        <ele>1390.4000244141</ele>
        <time>2019-08-23T07:59:15Z</time>
      </trkpt>
      <trkpt lat="42.94446" lon="0.31376">
        <ele>1389.4000244141</ele>
        <time>2019-08-23T07:59:16Z</time>
      </trkpt>
      <trkpt lat="42.94439" lon="0.31362">
        <ele>1388.5999755859</ele>
        <time>2019-08-23T07:59:17Z</time>
      </trkpt>
      <trkpt lat="42.94434" lon="0.31348">
        <ele>1387.5999755859</ele>
        <time>2019-08-23T07:59:18Z</time>
      </trkpt>
      <trkpt lat="42.9443" lon="0.31338">
        <ele>1386.5999755859</ele>
        <time>2019-08-23T07:59:19Z</time>
      </trkpt>
      <trkpt lat="42.94425" lon="0.31328">
        <ele>1385.5999755859</ele>
        <time>2019-08-23T07:59:20Z</time>
      </trkpt>
      <trkpt lat="42.94421" lon="0.31318">
        <ele>1384.5999755859</ele>
        <time>2019-08-23T07:59:21Z</time>
      </trkpt>
      <trkpt lat="42.94416" lon="0.31308">
        <ele>1383.5999755859</ele>
        <time>2019-08-23T07:59:22Z</time>
      </trkpt>
      <trkpt lat="42.94411" lon="0.31298">
        <ele>1383.5999755859</ele>
        <time>2019-08-23T07:59:23Z</time>
      </trkpt>
      <trkpt lat="42.94384" lon="0.31261">
        <ele>1383.1999511719</ele>
        <time>2019-08-23T07:59:27Z</time>
      </trkpt>
      <trkpt lat="42.94375" lon="0.31254">
        <ele>1382.8000488281</ele>
        <time>2019-08-23T07:59:28Z</time>
      </trkpt>
      <trkpt lat="42.94366" lon="0.31247">
        <ele>1382.4000244141</ele>
        <time>2019-08-23T07:59:29Z</time>
      </trkpt>
      <trkpt lat="42.94358" lon="0.31239">
        <ele>1381.8000488281</ele>
        <time>2019-08-23T07:59:30Z</time>
      </trkpt>
      <trkpt lat="42.94349" lon="0.31229">
        <ele>1381</ele>
        <time>2019-08-23T07:59:31Z</time>
      </trkpt>
      <trkpt lat="42.94342" lon="0.31218">
        <ele>1380.4000244141</ele>
        <time>2019-08-23T07:59:32Z</time>
      </trkpt>
      <trkpt lat="42.94335" lon="0.31206">
        <ele>1379.4000244141</ele>
        <time>2019-08-23T07:59:33Z</time>
      </trkpt>
      <trkpt lat="42.94328" lon="0.31195">
        <ele>1377.8000488281</ele>
        <time>2019-08-23T07:59:34Z</time>
      </trkpt>
      <trkpt lat="42.9432" lon="0.31185">
        <ele>1376.8000488281</ele>
        <time>2019-08-23T07:59:35Z</time>
      </trkpt>
      <trkpt lat="42.94311" lon="0.31175">
        <ele>1375.8000488281</ele>
        <time>2019-08-23T07:59:36Z</time>
      </trkpt>
      <trkpt lat="42.94303" lon="0.31165">
        <ele>1375</ele>
        <time>2019-08-23T07:59:37Z</time>
      </trkpt>
      <trkpt lat="42.94295" lon="0.31156">
        <ele>1374.1999511719</ele>
        <time>2019-08-23T07:59:38Z</time>
      </trkpt>
      <trkpt lat="42.94286" lon="0.31151">
        <ele>1373.5999755859</ele>
        <time>2019-08-23T07:59:39Z</time>
      </trkpt>
      <trkpt lat="42.94276" lon="0.31148">
        <ele>1372.8000488281</ele>
        <time>2019-08-23T07:59:40Z</time>
      </trkpt>
      <trkpt lat="42.94266" lon="0.31146">
        <ele>1372.1999511719</ele>
        <time>2019-08-23T07:59:41Z</time>
      </trkpt>
      <trkpt lat="42.94257" lon="0.31145">
        <ele>1371.4000244141</ele>
        <time>2019-08-23T07:59:42Z</time>
      </trkpt>
      <trkpt lat="42.94249" lon="0.31142">
        <ele>1371.4000244141</ele>
        <time>2019-08-23T07:59:43Z</time>
      </trkpt>
      <trkpt lat="42.94244" lon="0.31126">
        <ele>1371.4000244141</ele>
        <time>2019-08-23T07:59:45Z</time>
      </trkpt>
      <trkpt lat="42.94244" lon="0.31114">
        <ele>1371</ele>
        <time>2019-08-23T07:59:46Z</time>
      </trkpt>
      <trkpt lat="42.94245" lon="0.31103">
        <ele>1370.4000244141</ele>
        <time>2019-08-23T07:59:47Z</time>
      </trkpt>
      <trkpt lat="42.94247" lon="0.31091">
        <ele>1370</ele>
        <time>2019-08-23T07:59:48Z</time>
      </trkpt>
      <trkpt lat="42.94248" lon="0.31078">
        <ele>1369.4000244141</ele>
        <time>2019-08-23T07:59:49Z</time>
      </trkpt>
      <trkpt lat="42.94249" lon="0.31065">
        <ele>1368.8000488281</ele>
        <time>2019-08-23T07:59:50Z</time>
      </trkpt>
      <trkpt lat="42.9425" lon="0.31052">
        <ele>1368.1999511719</ele>
        <time>2019-08-23T07:59:51Z</time>
      </trkpt>
      <trkpt lat="42.94251" lon="0.31038">
        <ele>1367.4000244141</ele>
        <time>2019-08-23T07:59:52Z</time>
      </trkpt>
      <trkpt lat="42.94253" lon="0.31023">
        <ele>1366.5999755859</ele>
        <time>2019-08-23T07:59:53Z</time>
      </trkpt>
      <trkpt lat="42.94254" lon="0.31007">
        <ele>1365.5999755859</ele>
        <time>2019-08-23T07:59:54Z</time>
      </trkpt>
      <trkpt lat="42.94255" lon="0.30992">
        <ele>1364.5999755859</ele>
        <time>2019-08-23T07:59:55Z</time>
      </trkpt>
      <trkpt lat="42.94256" lon="0.30976">
        <ele>1363.4000244141</ele>
        <time>2019-08-23T07:59:56Z</time>
      </trkpt>
      <trkpt lat="42.94257" lon="0.30959">
        <ele>1362.4000244141</ele>
        <time>2019-08-23T07:59:57Z</time>
      </trkpt>
      <trkpt lat="42.94258" lon="0.30943">
        <ele>1361.1999511719</ele>
        <time>2019-08-23T07:59:58Z</time>
      </trkpt>
      <trkpt lat="42.94259" lon="0.30926">
        <ele>1359</ele>
        <time>2019-08-23T07:59:59Z</time>
      </trkpt>
      <trkpt lat="42.94261" lon="0.30909">
        <ele>1357.8000488281</ele>
        <time>2019-08-23T08:00:00Z</time>
      </trkpt>
      <trkpt lat="42.94263" lon="0.30891">
        <ele>1356.5999755859</ele>
        <time>2019-08-23T08:00:01Z</time>
      </trkpt>
      <trkpt lat="42.94266" lon="0.30873">
        <ele>1355.4000244141</ele>
        <time>2019-08-23T08:00:02Z</time>
      </trkpt>
      <trkpt lat="42.94269" lon="0.30856">
        <ele>1354.1999511719</ele>
        <time>2019-08-23T08:00:03Z</time>
      </trkpt>
      <trkpt lat="42.94272" lon="0.30838">
        <ele>1352.8000488281</ele>
        <time>2019-08-23T08:00:04Z</time>
      </trkpt>
      <trkpt lat="42.94276" lon="0.3082">
        <ele>1351.5999755859</ele>
        <time>2019-08-23T08:00:05Z</time>
      </trkpt>
      <trkpt lat="42.9428" lon="0.30803">
        <ele>1350.4000244141</ele>
        <time>2019-08-23T08:00:06Z</time>
      </trkpt>
      <trkpt lat="42.94284" lon="0.30786">
        <ele>1349.1999511719</ele>
        <time>2019-08-23T08:00:07Z</time>
      </trkpt>
      <trkpt lat="42.94289" lon="0.30769">
        <ele>1348.1999511719</ele>
        <time>2019-08-23T08:00:08Z</time>
      </trkpt>
      <trkpt lat="42.94294" lon="0.30754">
        <ele>1347</ele>
        <time>2019-08-23T08:00:09Z</time>
      </trkpt>
      <trkpt lat="42.94296" lon="0.30747">
        <ele>1346</ele>
        <time>2019-08-23T08:00:10Z</time>
      </trkpt>
      <trkpt lat="42.94301" lon="0.30736">
        <ele>1345</ele>
        <time>2019-08-23T08:00:11Z</time>
      </trkpt>
      <trkpt lat="42.94304" lon="0.30726">
        <ele>1343.8000488281</ele>
        <time>2019-08-23T08:00:12Z</time>
      </trkpt>
      <trkpt lat="42.94308" lon="0.30708">
        <ele>1343.8000488281</ele>
        <time>2019-08-23T08:00:14Z</time>
      </trkpt>
      <trkpt lat="42.94308" lon="0.307">
        <ele>1343.8000488281</ele>
        <time>2019-08-23T08:00:15Z</time>
      </trkpt>
      <trkpt lat="42.94306" lon="0.30667">
        <ele>1343.8000488281</ele>
        <time>2019-08-23T08:00:19Z</time>
      </trkpt>
      <trkpt lat="42.94309" lon="0.30647">
        <ele>1343.8000488281</ele>
        <time>2019-08-23T08:00:23Z</time>
      </trkpt>
      <trkpt lat="42.94309" lon="0.30643">
        <ele>1344.8000488281</ele>
        <time>2019-08-23T08:00:24Z</time>
      </trkpt>
      <trkpt lat="42.9431" lon="0.30639">
        <ele>1345.1999511719</ele>
        <time>2019-08-23T08:00:25Z</time>
      </trkpt>
      <trkpt lat="42.9431" lon="0.30635">
        <ele>1345.5999755859</ele>
        <time>2019-08-23T08:00:26Z</time>
      </trkpt>
      <trkpt lat="42.94311" lon="0.30632">
        <ele>1346.1999511719</ele>
        <time>2019-08-23T08:00:27Z</time>
      </trkpt>
      <trkpt lat="42.94313" lon="0.30627">
        <ele>1346.1999511719</ele>
        <time>2019-08-23T08:00:29Z</time>
      </trkpt>
      <trkpt lat="42.94314" lon="0.30623">
        <ele>1346.5999755859</ele>
        <time>2019-08-23T08:00:30Z</time>
      </trkpt>
      <trkpt lat="42.94315" lon="0.3062">
        <ele>1347</ele>
        <time>2019-08-23T08:00:31Z</time>
      </trkpt>
      <trkpt lat="42.94317" lon="0.30617">
        <ele>1347.4000244141</ele>
        <time>2019-08-23T08:00:32Z</time>
      </trkpt>
      <trkpt lat="42.94318" lon="0.30613">
        <ele>1347.8000488281</ele>
        <time>2019-08-23T08:00:33Z</time>
      </trkpt>
      <trkpt lat="42.94318" lon="0.30609">
        <ele>1348.1999511719</ele>
        <time>2019-08-23T08:00:34Z</time>
      </trkpt>
      <trkpt lat="42.94321" lon="0.30593">
        <ele>1348.5999755859</ele>
        <time>2019-08-23T08:00:39Z</time>
      </trkpt>
      <trkpt lat="42.94321" lon="0.30591">
        <ele>1349.1999511719</ele>
        <time>2019-08-23T08:00:40Z</time>
      </trkpt>
      <trkpt lat="42.94322" lon="0.30587">
        <ele>1349.5999755859</ele>
        <time>2019-08-23T08:00:41Z</time>
      </trkpt>
      <trkpt lat="42.94321" lon="0.30583">
        <ele>1350</ele>
        <time>2019-08-23T08:00:42Z</time>
      </trkpt>
      <trkpt lat="42.94322" lon="0.3058">
        <ele>1350.4000244141</ele>
        <time>2019-08-23T08:00:43Z</time>
      </trkpt>
      <trkpt lat="42.94323" lon="0.30574">
        <ele>1350.4000244141</ele>
        <time>2019-08-23T08:00:45Z</time>
      </trkpt>
      <trkpt lat="42.9433" lon="0.30553">
        <ele>1350.4000244141</ele>
        <time>2019-08-23T08:00:50Z</time>
      </trkpt>
      <trkpt lat="42.94331" lon="0.30548">
        <ele>1350.8000488281</ele>
        <time>2019-08-23T08:00:51Z</time>
      </trkpt>
      <trkpt lat="42.94332" lon="0.30544">
        <ele>1351.1999511719</ele>
        <time>2019-08-23T08:00:52Z</time>
      </trkpt>
      <trkpt lat="42.94333" lon="0.3054">
        <ele>1351.5999755859</ele>
        <time>2019-08-23T08:00:53Z</time>
      </trkpt>
      <trkpt lat="42.94334" lon="0.30535">
        <ele>1352</ele>
        <time>2019-08-23T08:00:54Z</time>
      </trkpt>
      <trkpt lat="42.94334" lon="0.30531">
        <ele>1352.4000244141</ele>
        <time>2019-08-23T08:00:55Z</time>
      </trkpt>
      <trkpt lat="42.94332" lon="0.30523">
        <ele>1352.4000244141</ele>
        <time>2019-08-23T08:00:57Z</time>
      </trkpt>
      <trkpt lat="42.94322" lon="0.30509">
        <ele>1352.4000244141</ele>
        <time>2019-08-23T08:01:02Z</time>
      </trkpt>
      <trkpt lat="42.94308" lon="0.30502">
        <ele>1352.8000488281</ele>
        <time>2019-08-23T08:01:07Z</time>
      </trkpt>
      <trkpt lat="42.94305" lon="0.30501">
        <ele>1353.1999511719</ele>
        <time>2019-08-23T08:01:08Z</time>
      </trkpt>
      <trkpt lat="42.94302" lon="0.30501">
        <ele>1353.5999755859</ele>
        <time>2019-08-23T08:01:09Z</time>
      </trkpt>
      <trkpt lat="42.943" lon="0.305">
        <ele>1354</ele>
        <time>2019-08-23T08:01:10Z</time>
      </trkpt>
      <trkpt lat="42.94297" lon="0.305">
        <ele>1354.4000244141</ele>
        <time>2019-08-23T08:01:11Z</time>
      </trkpt>
      <trkpt lat="42.94286" lon="0.30498">
        <ele>1354.4000244141</ele>
        <time>2019-08-23T08:01:15Z</time>
      </trkpt>
      <trkpt lat="42.94277" lon="0.30487">
        <ele>1354.4000244141</ele>
        <time>2019-08-23T08:01:19Z</time>
      </trkpt>
      <trkpt lat="42.9427" lon="0.30465">
        <ele>1354.4000244141</ele>
        <time>2019-08-23T08:01:24Z</time>
      </trkpt>
      <trkpt lat="42.94263" lon="0.30432">
        <ele>1354.4000244141</ele>
        <time>2019-08-23T08:01:31Z</time>
      </trkpt>
      <trkpt lat="42.94259" lon="0.30419">
        <ele>1355</ele>
        <time>2019-08-23T08:01:34Z</time>
      </trkpt>
      <trkpt lat="42.94258" lon="0.30414">
        <ele>1355.4000244141</ele>
        <time>2019-08-23T08:01:35Z</time>
      </trkpt>
      <trkpt lat="42.94257" lon="0.3041">
        <ele>1355.8000488281</ele>
        <time>2019-08-23T08:01:36Z</time>
      </trkpt>
      <trkpt lat="42.94255" lon="0.30405">
        <ele>1356.1999511719</ele>
        <time>2019-08-23T08:01:37Z</time>
      </trkpt>
      <trkpt lat="42.94254" lon="0.30401">
        <ele>1356.5999755859</ele>
        <time>2019-08-23T08:01:38Z</time>
      </trkpt>
      <trkpt lat="42.9425" lon="0.30387">
        <ele>1356.5999755859</ele>
        <time>2019-08-23T08:01:41Z</time>
      </trkpt>
      <trkpt lat="42.94239" lon="0.30349">
        <ele>1356.5999755859</ele>
        <time>2019-08-23T08:01:49Z</time>
      </trkpt>
      <trkpt lat="42.94237" lon="0.3032">
        <ele>1356.5999755859</ele>
        <time>2019-08-23T08:01:55Z</time>
      </trkpt>
      <trkpt lat="42.94227" lon="0.30302">
        <ele>1356.5999755859</ele>
        <time>2019-08-23T08:02:00Z</time>
      </trkpt>
      <trkpt lat="42.9422" lon="0.30276">
        <ele>1357</ele>
        <time>2019-08-23T08:02:06Z</time>
      </trkpt>
      <trkpt lat="42.94219" lon="0.30271">
        <ele>1357.4000244141</ele>
        <time>2019-08-23T08:02:07Z</time>
      </trkpt>
      <trkpt lat="42.94219" lon="0.30266">
        <ele>1357.8000488281</ele>
        <time>2019-08-23T08:02:08Z</time>
      </trkpt>
      <trkpt lat="42.94219" lon="0.30261">
        <ele>1358.1999511719</ele>
        <time>2019-08-23T08:02:09Z</time>
      </trkpt>
      <trkpt lat="42.94219" lon="0.30256">
        <ele>1358.5999755859</ele>
        <time>2019-08-23T08:02:10Z</time>
      </trkpt>
      <trkpt lat="42.94217" lon="0.30236">
        <ele>1358.5999755859</ele>
        <time>2019-08-23T08:02:14Z</time>
      </trkpt>
      <trkpt lat="42.94209" lon="0.30215">
        <ele>1358.5999755859</ele>
        <time>2019-08-23T08:02:19Z</time>
      </trkpt>
      <trkpt lat="42.94191" lon="0.3019">
        <ele>1358.5999755859</ele>
        <time>2019-08-23T08:02:26Z</time>
      </trkpt>
      <trkpt lat="42.94181" lon="0.30159">
        <ele>1358.5999755859</ele>
        <time>2019-08-23T08:02:33Z</time>
      </trkpt>
      <trkpt lat="42.9418" lon="0.30124">
        <ele>1358.5999755859</ele>
        <time>2019-08-23T08:02:40Z</time>
      </trkpt>
      <trkpt lat="42.94182" lon="0.30105">
        <ele>1359</ele>
        <time>2019-08-23T08:02:44Z</time>
      </trkpt>
      <trkpt lat="42.94182" lon="0.301">
        <ele>1359.4000244141</ele>
        <time>2019-08-23T08:02:45Z</time>
      </trkpt>
      <trkpt lat="42.94182" lon="0.30095">
        <ele>1359.8000488281</ele>
        <time>2019-08-23T08:02:46Z</time>
      </trkpt>
      <trkpt lat="42.94183" lon="0.30089">
        <ele>1360.1999511719</ele>
        <time>2019-08-23T08:02:47Z</time>
      </trkpt>
      <trkpt lat="42.94184" lon="0.30084">
        <ele>1360.5999755859</ele>
        <time>2019-08-23T08:02:48Z</time>
      </trkpt>
      <trkpt lat="42.94187" lon="0.30069">
        <ele>1360.5999755859</ele>
        <time>2019-08-23T08:02:51Z</time>
      </trkpt>
      <trkpt lat="42.942" lon="0.3004">
        <ele>1360.5999755859</ele>
        <time>2019-08-23T08:02:58Z</time>
      </trkpt>
      <trkpt lat="42.94216" lon="0.30027">
        <ele>1360.5999755859</ele>
        <time>2019-08-23T08:03:03Z</time>
      </trkpt>
      <trkpt lat="42.94234" lon="0.30016">
        <ele>1361</ele>
        <time>2019-08-23T08:03:09Z</time>
      </trkpt>
      <trkpt lat="42.94237" lon="0.30014">
        <ele>1361.4000244141</ele>
        <time>2019-08-23T08:03:10Z</time>
      </trkpt>
      <trkpt lat="42.94241" lon="0.30013">
        <ele>1361.8000488281</ele>
        <time>2019-08-23T08:03:11Z</time>
      </trkpt>
      <trkpt lat="42.94244" lon="0.30013">
        <ele>1362.4000244141</ele>
        <time>2019-08-23T08:03:12Z</time>
      </trkpt>
      <trkpt lat="42.94247" lon="0.30014">
        <ele>1362.8000488281</ele>
        <time>2019-08-23T08:03:13Z</time>
      </trkpt>
      <trkpt lat="42.94253" lon="0.30016">
        <ele>1362.8000488281</ele>
        <time>2019-08-23T08:03:15Z</time>
      </trkpt>
      <trkpt lat="42.94267" lon="0.30019">
        <ele>1362.8000488281</ele>
        <time>2019-08-23T08:03:20Z</time>
      </trkpt>
      <trkpt lat="42.9427" lon="0.30021">
        <ele>1363.1999511719</ele>
        <time>2019-08-23T08:03:21Z</time>
      </trkpt>
      <trkpt lat="42.94273" lon="0.30022">
        <ele>1363.5999755859</ele>
        <time>2019-08-23T08:03:22Z</time>
      </trkpt>
      <trkpt lat="42.94276" lon="0.30024">
        <ele>1364</ele>
        <time>2019-08-23T08:03:23Z</time>
      </trkpt>
      <trkpt lat="42.94278" lon="0.30025">
        <ele>1364.4000244141</ele>
        <time>2019-08-23T08:03:24Z</time>
      </trkpt>
      <trkpt lat="42.94281" lon="0.30025">
        <ele>1364.8000488281</ele>
        <time>2019-08-23T08:03:25Z</time>
      </trkpt>
      <trkpt lat="42.94294" lon="0.30029">
        <ele>1364.8000488281</ele>
        <time>2019-08-23T08:03:30Z</time>
      </trkpt>
      <trkpt lat="42.94299" lon="0.3003">
        <ele>1365.1999511719</ele>
        <time>2019-08-23T08:03:32Z</time>
      </trkpt>
      <trkpt lat="42.94301" lon="0.30031">
        <ele>1365.5999755859</ele>
        <time>2019-08-23T08:03:33Z</time>
      </trkpt>
      <trkpt lat="42.94303" lon="0.3003">
        <ele>1366</ele>
        <time>2019-08-23T08:03:34Z</time>
      </trkpt>
      <trkpt lat="42.94305" lon="0.3003">
        <ele>1366.4000244141</ele>
        <time>2019-08-23T08:03:35Z</time>
      </trkpt>
      <trkpt lat="42.94307" lon="0.3003">
        <ele>1366.8000488281</ele>
        <time>2019-08-23T08:03:36Z</time>
      </trkpt>
      <trkpt lat="42.94308" lon="0.3003">
        <ele>1366.8000488281</ele>
        <time>2019-08-23T08:03:37Z</time>
      </trkpt>
      <trkpt lat="42.94316" lon="0.3003">
        <ele>1367.1999511719</ele>
        <time>2019-08-23T08:03:42Z</time>
      </trkpt>
      <trkpt lat="42.94317" lon="0.3003">
        <ele>1367.5999755859</ele>
        <time>2019-08-23T08:03:43Z</time>
      </trkpt>
      <trkpt lat="42.94318" lon="0.30031">
        <ele>1368.1999511719</ele>
        <time>2019-08-23T08:03:44Z</time>
      </trkpt>
      <trkpt lat="42.9432" lon="0.30031">
        <ele>1368.5999755859</ele>
        <time>2019-08-23T08:03:45Z</time>
      </trkpt>
      <trkpt lat="42.94323" lon="0.30031">
        <ele>1369</ele>
        <time>2019-08-23T08:03:46Z</time>
      </trkpt>
      <trkpt lat="42.94333" lon="0.30029">
        <ele>1369</ele>
        <time>2019-08-23T08:03:50Z</time>
      </trkpt>
      <trkpt lat="42.94341" lon="0.30029">
        <ele>1369.4000244141</ele>
        <time>2019-08-23T08:03:54Z</time>
      </trkpt>
      <trkpt lat="42.94343" lon="0.30029">
        <ele>1369.8000488281</ele>
        <time>2019-08-23T08:03:55Z</time>
      </trkpt>
      <trkpt lat="42.94346" lon="0.3003">
        <ele>1370.1999511719</ele>
        <time>2019-08-23T08:03:56Z</time>
      </trkpt>
      <trkpt lat="42.94348" lon="0.3003">
        <ele>1370.5999755859</ele>
        <time>2019-08-23T08:03:57Z</time>
      </trkpt>
      <trkpt lat="42.94351" lon="0.30029">
        <ele>1371</ele>
        <time>2019-08-23T08:03:58Z</time>
      </trkpt>
      <trkpt lat="42.9436" lon="0.30029">
        <ele>1371</ele>
        <time>2019-08-23T08:04:02Z</time>
      </trkpt>
      <trkpt lat="42.94373" lon="0.30029">
        <ele>1371.4000244141</ele>
        <time>2019-08-23T08:04:08Z</time>
      </trkpt>
      <trkpt lat="42.94376" lon="0.30029">
        <ele>1371.8000488281</ele>
        <time>2019-08-23T08:04:09Z</time>
      </trkpt>
      <trkpt lat="42.94378" lon="0.30029">
        <ele>1372.1999511719</ele>
        <time>2019-08-23T08:04:10Z</time>
      </trkpt>
      <trkpt lat="42.9438" lon="0.30029">
        <ele>1372.8000488281</ele>
        <time>2019-08-23T08:04:11Z</time>
      </trkpt>
      <trkpt lat="42.94382" lon="0.3003">
        <ele>1373.1999511719</ele>
        <time>2019-08-23T08:04:12Z</time>
      </trkpt>
      <trkpt lat="42.94389" lon="0.30028">
        <ele>1373.1999511719</ele>
        <time>2019-08-23T08:04:15Z</time>
      </trkpt>
      <trkpt lat="42.944" lon="0.30028">
        <ele>1373.1999511719</ele>
        <time>2019-08-23T08:04:21Z</time>
      </trkpt>
      <trkpt lat="42.94408" lon="0.30028">
        <ele>1373.5999755859</ele>
        <time>2019-08-23T08:04:24Z</time>
      </trkpt>
      <trkpt lat="42.9441" lon="0.30028">
        <ele>1374</ele>
        <time>2019-08-23T08:04:25Z</time>
      </trkpt>
      <trkpt lat="42.94412" lon="0.30028">
        <ele>1374.4000244141</ele>
        <time>2019-08-23T08:04:26Z</time>
      </trkpt>
      <trkpt lat="42.94414" lon="0.30028">
        <ele>1374.8000488281</ele>
        <time>2019-08-23T08:04:27Z</time>
      </trkpt>
      <trkpt lat="42.94416" lon="0.30028">
        <ele>1375.1999511719</ele>
        <time>2019-08-23T08:04:28Z</time>
      </trkpt>
      <trkpt lat="42.94427" lon="0.30027">
        <ele>1375.1999511719</ele>
        <time>2019-08-23T08:04:33Z</time>
      </trkpt>
      <trkpt lat="42.94441" lon="0.3003">
        <ele>1375.1999511719</ele>
        <time>2019-08-23T08:04:39Z</time>
      </trkpt>
      <trkpt lat="42.94448" lon="0.30031">
        <ele>1375.8000488281</ele>
        <time>2019-08-23T08:04:42Z</time>
      </trkpt>
      <trkpt lat="42.94451" lon="0.30032">
        <ele>1376.1999511719</ele>
        <time>2019-08-23T08:04:43Z</time>
      </trkpt>
      <trkpt lat="42.94454" lon="0.30033">
        <ele>1376.5999755859</ele>
        <time>2019-08-23T08:04:44Z</time>
      </trkpt>
      <trkpt lat="42.94456" lon="0.30033">
        <ele>1377</ele>
        <time>2019-08-23T08:04:45Z</time>
      </trkpt>
      <trkpt lat="42.94458" lon="0.30034">
        <ele>1377.4000244141</ele>
        <time>2019-08-23T08:04:46Z</time>
      </trkpt>
      <trkpt lat="42.94467" lon="0.30037">
        <ele>1377.4000244141</ele>
        <time>2019-08-23T08:04:50Z</time>
      </trkpt>
      <trkpt lat="42.94477" lon="0.30041">
        <ele>1377.8000488281</ele>
        <time>2019-08-23T08:04:55Z</time>
      </trkpt>
      <trkpt lat="42.94479" lon="0.30042">
        <ele>1378.1999511719</ele>
        <time>2019-08-23T08:04:56Z</time>
      </trkpt>
      <trkpt lat="42.94481" lon="0.30044">
        <ele>1378.5999755859</ele>
        <time>2019-08-23T08:04:57Z</time>
      </trkpt>
      <trkpt lat="42.94483" lon="0.30045">
        <ele>1379</ele>
        <time>2019-08-23T08:04:58Z</time>
      </trkpt>
      <trkpt lat="42.94485" lon="0.30047">
        <ele>1379.4000244141</ele>
        <time>2019-08-23T08:04:59Z</time>
      </trkpt>
      <trkpt lat="42.94491" lon="0.3005">
        <ele>1379.4000244141</ele>
        <time>2019-08-23T08:05:02Z</time>
      </trkpt>
      <trkpt lat="42.94502" lon="0.30059">
        <ele>1379.4000244141</ele>
        <time>2019-08-23T08:05:08Z</time>
      </trkpt>
      <trkpt lat="42.94504" lon="0.30062">
        <ele>1379.8000488281</ele>
        <time>2019-08-23T08:05:09Z</time>
      </trkpt>
      <trkpt lat="42.94505" lon="0.30064">
        <ele>1380.1999511719</ele>
        <time>2019-08-23T08:05:10Z</time>
      </trkpt>
      <trkpt lat="42.94507" lon="0.30066">
        <ele>1380.5999755859</ele>
        <time>2019-08-23T08:05:11Z</time>
      </trkpt>
      <trkpt lat="42.94508" lon="0.30068">
        <ele>1381</ele>
        <time>2019-08-23T08:05:12Z</time>
      </trkpt>
      <trkpt lat="42.94509" lon="0.30069">
        <ele>1381.4000244141</ele>
        <time>2019-08-23T08:05:13Z</time>
      </trkpt>
      <trkpt lat="42.94511" lon="0.30071">
        <ele>1381.4000244141</ele>
        <time>2019-08-23T08:05:14Z</time>
      </trkpt>
      <trkpt lat="42.94519" lon="0.30082">
        <ele>1381.4000244141</ele>
        <time>2019-08-23T08:05:20Z</time>
      </trkpt>
      <trkpt lat="42.94522" lon="0.30086">
        <ele>1381.8000488281</ele>
        <time>2019-08-23T08:05:22Z</time>
      </trkpt>
      <trkpt lat="42.94523" lon="0.30088">
        <ele>1382.1999511719</ele>
        <time>2019-08-23T08:05:23Z</time>
      </trkpt>
      <trkpt lat="42.94524" lon="0.3009">
        <ele>1382.5999755859</ele>
        <time>2019-08-23T08:05:24Z</time>
      </trkpt>
      <trkpt lat="42.94524" lon="0.30093">
        <ele>1383</ele>
        <time>2019-08-23T08:05:25Z</time>
      </trkpt>
      <trkpt lat="42.94526" lon="0.30095">
        <ele>1383.4000244141</ele>
        <time>2019-08-23T08:05:26Z</time>
      </trkpt>
      <trkpt lat="42.94531" lon="0.30109">
        <ele>1383.4000244141</ele>
        <time>2019-08-23T08:05:32Z</time>
      </trkpt>
      <trkpt lat="42.94537" lon="0.30116">
        <ele>1383.8000488281</ele>
        <time>2019-08-23T08:05:36Z</time>
      </trkpt>
      <trkpt lat="42.94538" lon="0.30118">
        <ele>1384.5999755859</ele>
        <time>2019-08-23T08:05:37Z</time>
      </trkpt>
      <trkpt lat="42.9454" lon="0.30119">
        <ele>1385.1999511719</ele>
        <time>2019-08-23T08:05:38Z</time>
      </trkpt>
      <trkpt lat="42.94541" lon="0.30121">
        <ele>1385.5999755859</ele>
        <time>2019-08-23T08:05:39Z</time>
      </trkpt>
      <trkpt lat="42.94552" lon="0.30133">
        <ele>1385.5999755859</ele>
        <time>2019-08-23T08:05:45Z</time>
      </trkpt>
      <trkpt lat="42.94563" lon="0.30147">
        <ele>1385.5999755859</ele>
        <time>2019-08-23T08:05:51Z</time>
      </trkpt>
      <trkpt lat="42.94577" lon="0.30161">
        <ele>1385.5999755859</ele>
        <time>2019-08-23T08:05:57Z</time>
      </trkpt>
      <trkpt lat="42.94596" lon="0.30178">
        <ele>1385.5999755859</ele>
        <time>2019-08-23T08:06:05Z</time>
      </trkpt>
      <trkpt lat="42.94605" lon="0.30185">
        <ele>1386</ele>
        <time>2019-08-23T08:06:09Z</time>
      </trkpt>
      <trkpt lat="42.94608" lon="0.30188">
        <ele>1386.4000244141</ele>
        <time>2019-08-23T08:06:10Z</time>
      </trkpt>
      <trkpt lat="42.9461" lon="0.3019">
        <ele>1386.8000488281</ele>
        <time>2019-08-23T08:06:11Z</time>
      </trkpt>
      <trkpt lat="42.94613" lon="0.30192">
        <ele>1387.1999511719</ele>
        <time>2019-08-23T08:06:12Z</time>
      </trkpt>
      <trkpt lat="42.94615" lon="0.30194">
        <ele>1387.5999755859</ele>
        <time>2019-08-23T08:06:13Z</time>
      </trkpt>
      <trkpt lat="42.9462" lon="0.30202">
        <ele>1387.5999755859</ele>
        <time>2019-08-23T08:06:16Z</time>
      </trkpt>
      <trkpt lat="42.94623" lon="0.30217">
        <ele>1387.5999755859</ele>
        <time>2019-08-23T08:06:21Z</time>
      </trkpt>
      <trkpt lat="42.94624" lon="0.30236">
        <ele>1387.5999755859</ele>
        <time>2019-08-23T08:06:26Z</time>
      </trkpt>
      <trkpt lat="42.94625" lon="0.30248">
        <ele>1388</ele>
        <time>2019-08-23T08:06:29Z</time>
      </trkpt>
      <trkpt lat="42.94626" lon="0.30252">
        <ele>1388.4000244141</ele>
        <time>2019-08-23T08:06:30Z</time>
      </trkpt>
      <trkpt lat="42.94626" lon="0.30255">
        <ele>1388.8000488281</ele>
        <time>2019-08-23T08:06:31Z</time>
      </trkpt>
      <trkpt lat="42.94627" lon="0.30259">
        <ele>1389.1999511719</ele>
        <time>2019-08-23T08:06:32Z</time>
      </trkpt>
      <trkpt lat="42.94628" lon="0.30263">
        <ele>1389.5999755859</ele>
        <time>2019-08-23T08:06:33Z</time>
      </trkpt>
      <trkpt lat="42.94629" lon="0.3028">
        <ele>1389.5999755859</ele>
        <time>2019-08-23T08:06:38Z</time>
      </trkpt>
      <trkpt lat="42.94633" lon="0.303">
        <ele>1390</ele>
        <time>2019-08-23T08:06:44Z</time>
      </trkpt>
      <trkpt lat="42.94633" lon="0.30304">
        <ele>1390.5999755859</ele>
        <time>2019-08-23T08:06:45Z</time>
      </trkpt>
      <trkpt lat="42.94634" lon="0.30307">
        <ele>1391</ele>
        <time>2019-08-23T08:06:46Z</time>
      </trkpt>
      <trkpt lat="42.94636" lon="0.3031">
        <ele>1391.4000244141</ele>
        <time>2019-08-23T08:06:47Z</time>
      </trkpt>
      <trkpt lat="42.94637" lon="0.30313">
        <ele>1391.8000488281</ele>
        <time>2019-08-23T08:06:48Z</time>
      </trkpt>
      <trkpt lat="42.94638" lon="0.30315">
        <ele>1391.8000488281</ele>
        <time>2019-08-23T08:06:49Z</time>
      </trkpt>
      <trkpt lat="42.94647" lon="0.30323">
        <ele>1391.8000488281</ele>
        <time>2019-08-23T08:06:53Z</time>
      </trkpt>
      <trkpt lat="42.94654" lon="0.30331">
        <ele>1392.1999511719</ele>
        <time>2019-08-23T08:06:57Z</time>
      </trkpt>
      <trkpt lat="42.94655" lon="0.30333">
        <ele>1392.5999755859</ele>
        <time>2019-08-23T08:06:58Z</time>
      </trkpt>
      <trkpt lat="42.94657" lon="0.30335">
        <ele>1393</ele>
        <time>2019-08-23T08:06:59Z</time>
      </trkpt>
      <trkpt lat="42.94658" lon="0.30336">
        <ele>1393.4000244141</ele>
        <time>2019-08-23T08:07:00Z</time>
      </trkpt>
      <trkpt lat="42.9466" lon="0.30337">
        <ele>1393.8000488281</ele>
        <time>2019-08-23T08:07:01Z</time>
      </trkpt>
      <trkpt lat="42.94671" lon="0.30346">
        <ele>1393.8000488281</ele>
        <time>2019-08-23T08:07:07Z</time>
      </trkpt>
      <trkpt lat="42.94681" lon="0.30354">
        <ele>1393.8000488281</ele>
        <time>2019-08-23T08:07:12Z</time>
      </trkpt>
      <trkpt lat="42.94694" lon="0.30365">
        <ele>1393.8000488281</ele>
        <time>2019-08-23T08:07:17Z</time>
      </trkpt>
      <trkpt lat="42.9471" lon="0.30375">
        <ele>1393.8000488281</ele>
        <time>2019-08-23T08:07:23Z</time>
      </trkpt>
      <trkpt lat="42.94721" lon="0.30383">
        <ele>1393.8000488281</ele>
        <time>2019-08-23T08:07:26Z</time>
      </trkpt>
      <trkpt lat="42.94729" lon="0.30388">
        <ele>1393.8000488281</ele>
        <time>2019-08-23T08:07:28Z</time>
      </trkpt>
      <trkpt lat="42.94747" lon="0.30398">
        <ele>1393.8000488281</ele>
        <time>2019-08-23T08:07:33Z</time>
      </trkpt>
      <trkpt lat="42.9477" lon="0.30416">
        <ele>1393.8000488281</ele>
        <time>2019-08-23T08:07:38Z</time>
      </trkpt>
      <trkpt lat="42.94774" lon="0.3042">
        <ele>1393.4000244141</ele>
        <time>2019-08-23T08:07:39Z</time>
      </trkpt>
      <trkpt lat="42.94779" lon="0.30423">
        <ele>1392.5999755859</ele>
        <time>2019-08-23T08:07:40Z</time>
      </trkpt>
      <trkpt lat="42.94784" lon="0.30427">
        <ele>1392.1999511719</ele>
        <time>2019-08-23T08:07:41Z</time>
      </trkpt>
      <trkpt lat="42.94789" lon="0.3043">
        <ele>1391.8000488281</ele>
        <time>2019-08-23T08:07:42Z</time>
      </trkpt>
      <trkpt lat="42.94794" lon="0.30433">
        <ele>1391.8000488281</ele>
        <time>2019-08-23T08:07:43Z</time>
      </trkpt>
      <trkpt lat="42.94824" lon="0.30441">
        <ele>1391.4000244141</ele>
        <time>2019-08-23T08:07:48Z</time>
      </trkpt>
      <trkpt lat="42.94829" lon="0.30442">
        <ele>1390.8000488281</ele>
        <time>2019-08-23T08:07:49Z</time>
      </trkpt>
      <trkpt lat="42.94835" lon="0.30444">
        <ele>1390.4000244141</ele>
        <time>2019-08-23T08:07:50Z</time>
      </trkpt>
      <trkpt lat="42.94841" lon="0.30445">
        <ele>1390</ele>
        <time>2019-08-23T08:07:51Z</time>
      </trkpt>
      <trkpt lat="42.94847" lon="0.30447">
        <ele>1389.4000244141</ele>
        <time>2019-08-23T08:07:52Z</time>
      </trkpt>
      <trkpt lat="42.94866" lon="0.3045">
        <ele>1389.4000244141</ele>
        <time>2019-08-23T08:07:55Z</time>
      </trkpt>
      <trkpt lat="42.94899" lon="0.30456">
        <ele>1389</ele>
        <time>2019-08-23T08:08:00Z</time>
      </trkpt>
      <trkpt lat="42.94906" lon="0.30457">
        <ele>1388.5999755859</ele>
        <time>2019-08-23T08:08:01Z</time>
      </trkpt>
      <trkpt lat="42.94912" lon="0.30459">
        <ele>1388.1999511719</ele>
        <time>2019-08-23T08:08:02Z</time>
      </trkpt>
      <trkpt lat="42.94919" lon="0.3046">
        <ele>1387.8000488281</ele>
        <time>2019-08-23T08:08:03Z</time>
      </trkpt>
      <trkpt lat="42.94926" lon="0.30461">
        <ele>1387.4000244141</ele>
        <time>2019-08-23T08:08:04Z</time>
      </trkpt>
      <trkpt lat="42.94953" lon="0.30467">
        <ele>1387.4000244141</ele>
        <time>2019-08-23T08:08:08Z</time>
      </trkpt>
      <trkpt lat="42.94989" lon="0.30487">
        <ele>1387.4000244141</ele>
        <time>2019-08-23T08:08:14Z</time>
      </trkpt>
      <trkpt lat="42.94993" lon="0.30492">
        <ele>1387.4000244141</ele>
        <time>2019-08-23T08:08:15Z</time>
      </trkpt>
      <trkpt lat="42.94997" lon="0.30499">
        <ele>1387</ele>
        <time>2019-08-23T08:08:16Z</time>
      </trkpt>
      <trkpt lat="42.95" lon="0.30505">
        <ele>1386.4000244141</ele>
        <time>2019-08-23T08:08:17Z</time>
      </trkpt>
      <trkpt lat="42.95003" lon="0.30512">
        <ele>1386</ele>
        <time>2019-08-23T08:08:18Z</time>
      </trkpt>
      <trkpt lat="42.95005" lon="0.30518">
        <ele>1385.5999755859</ele>
        <time>2019-08-23T08:08:19Z</time>
      </trkpt>
      <trkpt lat="42.95007" lon="0.30525">
        <ele>1385.1999511719</ele>
        <time>2019-08-23T08:08:20Z</time>
      </trkpt>
      <trkpt lat="42.95013" lon="0.30544">
        <ele>1385.1999511719</ele>
        <time>2019-08-23T08:08:23Z</time>
      </trkpt>
      <trkpt lat="42.9502" lon="0.3058">
        <ele>1385.1999511719</ele>
        <time>2019-08-23T08:08:29Z</time>
      </trkpt>
      <trkpt lat="42.95023" lon="0.3059">
        <ele>1385.1999511719</ele>
        <time>2019-08-23T08:08:31Z</time>
      </trkpt>
      <trkpt lat="42.95028" lon="0.30606">
        <ele>1385.1999511719</ele>
        <time>2019-08-23T08:08:34Z</time>
      </trkpt>
      <trkpt lat="42.9503" lon="0.30611">
        <ele>1385.1999511719</ele>
        <time>2019-08-23T08:08:35Z</time>
      </trkpt>
      <trkpt lat="42.9504" lon="0.30618">
        <ele>1385.1999511719</ele>
        <time>2019-08-23T08:08:38Z</time>
      </trkpt>
      <trkpt lat="42.95051" lon="0.30615">
        <ele>1385.1999511719</ele>
        <time>2019-08-23T08:08:41Z</time>
      </trkpt>
      <trkpt lat="42.95054" lon="0.30613">
        <ele>1385.1999511719</ele>
        <time>2019-08-23T08:08:42Z</time>
      </trkpt>
      <trkpt lat="42.95072" lon="0.306">
        <ele>1385.1999511719</ele>
        <time>2019-08-23T08:08:49Z</time>
      </trkpt>
      <trkpt lat="42.95081" lon="0.30597">
        <ele>1385.1999511719</ele>
        <time>2019-08-23T08:08:52Z</time>
      </trkpt>
      <trkpt lat="42.95084" lon="0.30596">
        <ele>1385.5999755859</ele>
        <time>2019-08-23T08:08:53Z</time>
      </trkpt>
      <trkpt lat="42.95087" lon="0.30595">
        <ele>1386.4000244141</ele>
        <time>2019-08-23T08:08:54Z</time>
      </trkpt>
      <trkpt lat="42.9509" lon="0.30593">
        <ele>1386.8000488281</ele>
        <time>2019-08-23T08:08:55Z</time>
      </trkpt>
      <trkpt lat="42.95092" lon="0.30591">
        <ele>1387.1999511719</ele>
        <time>2019-08-23T08:08:56Z</time>
      </trkpt>
      <trkpt lat="42.95098" lon="0.30584">
        <ele>1387.1999511719</ele>
        <time>2019-08-23T08:08:59Z</time>
      </trkpt>
      <trkpt lat="42.95108" lon="0.30576">
        <ele>1387.5999755859</ele>
        <time>2019-08-23T08:09:03Z</time>
      </trkpt>
      <trkpt lat="42.9511" lon="0.30573">
        <ele>1388</ele>
        <time>2019-08-23T08:09:04Z</time>
      </trkpt>
      <trkpt lat="42.95113" lon="0.30571">
        <ele>1388.4000244141</ele>
        <time>2019-08-23T08:09:05Z</time>
      </trkpt>
      <trkpt lat="42.95115" lon="0.30569">
        <ele>1388.8000488281</ele>
        <time>2019-08-23T08:09:06Z</time>
      </trkpt>
      <trkpt lat="42.95117" lon="0.30566">
        <ele>1389.1999511719</ele>
        <time>2019-08-23T08:09:07Z</time>
      </trkpt>
      <trkpt lat="42.95127" lon="0.30554">
        <ele>1389.1999511719</ele>
        <time>2019-08-23T08:09:12Z</time>
      </trkpt>
      <trkpt lat="42.95134" lon="0.30549">
        <ele>1389.8000488281</ele>
        <time>2019-08-23T08:09:15Z</time>
      </trkpt>
      <trkpt lat="42.95137" lon="0.30547">
        <ele>1390.1999511719</ele>
        <time>2019-08-23T08:09:16Z</time>
      </trkpt>
      <trkpt lat="42.95139" lon="0.30545">
        <ele>1390.5999755859</ele>
        <time>2019-08-23T08:09:17Z</time>
      </trkpt>
      <trkpt lat="42.95141" lon="0.30543">
        <ele>1391</ele>
        <time>2019-08-23T08:09:18Z</time>
      </trkpt>
      <trkpt lat="42.95144" lon="0.30541">
        <ele>1391.4000244141</ele>
        <time>2019-08-23T08:09:19Z</time>
      </trkpt>
      <trkpt lat="42.95156" lon="0.30532">
        <ele>1391.4000244141</ele>
        <time>2019-08-23T08:09:24Z</time>
      </trkpt>
      <trkpt lat="42.95174" lon="0.3052">
        <ele>1391.4000244141</ele>
        <time>2019-08-23T08:09:31Z</time>
      </trkpt>
      <trkpt lat="42.9518" lon="0.30516">
        <ele>1391.8000488281</ele>
        <time>2019-08-23T08:09:33Z</time>
      </trkpt>
      <trkpt lat="42.95183" lon="0.30514">
        <ele>1392.1999511719</ele>
        <time>2019-08-23T08:09:34Z</time>
      </trkpt>
      <trkpt lat="42.95186" lon="0.30513">
        <ele>1392.5999755859</ele>
        <time>2019-08-23T08:09:35Z</time>
      </trkpt>
      <trkpt lat="42.95188" lon="0.30511">
        <ele>1393</ele>
        <time>2019-08-23T08:09:36Z</time>
      </trkpt>
      <trkpt lat="42.95191" lon="0.3051">
        <ele>1393.4000244141</ele>
        <time>2019-08-23T08:09:37Z</time>
      </trkpt>
      <trkpt lat="42.95193" lon="0.30509">
        <ele>1393.4000244141</ele>
        <time>2019-08-23T08:09:38Z</time>
      </trkpt>
      <trkpt lat="42.95207" lon="0.30502">
        <ele>1393.8000488281</ele>
        <time>2019-08-23T08:09:44Z</time>
      </trkpt>
      <trkpt lat="42.95209" lon="0.30501">
        <ele>1394.1999511719</ele>
        <time>2019-08-23T08:09:45Z</time>
      </trkpt>
      <trkpt lat="42.95212" lon="0.305">
        <ele>1394.5999755859</ele>
        <time>2019-08-23T08:09:46Z</time>
      </trkpt>
      <trkpt lat="42.95215" lon="0.305">
        <ele>1395</ele>
        <time>2019-08-23T08:09:47Z</time>
      </trkpt>
      <trkpt lat="42.95217" lon="0.30499">
        <ele>1395.4000244141</ele>
        <time>2019-08-23T08:09:48Z</time>
      </trkpt>
      <trkpt lat="42.95222" lon="0.30499">
        <ele>1395.4000244141</ele>
        <time>2019-08-23T08:09:50Z</time>
      </trkpt>
      <trkpt lat="42.95233" lon="0.30497">
        <ele>1395.4000244141</ele>
        <time>2019-08-23T08:09:55Z</time>
      </trkpt>
      <trkpt lat="42.95235" lon="0.30497">
        <ele>1395.4000244141</ele>
        <time>2019-08-23T08:09:56Z</time>
      </trkpt>
      <trkpt lat="42.95238" lon="0.30497">
        <ele>1396</ele>
        <time>2019-08-23T08:09:57Z</time>
      </trkpt>
      <trkpt lat="42.9524" lon="0.30497">
        <ele>1396.4000244141</ele>
        <time>2019-08-23T08:09:58Z</time>
      </trkpt>
      <trkpt lat="42.95243" lon="0.30497">
        <ele>1396.8000488281</ele>
        <time>2019-08-23T08:09:59Z</time>
      </trkpt>
      <trkpt lat="42.95246" lon="0.30497">
        <ele>1397.1999511719</ele>
        <time>2019-08-23T08:10:00Z</time>
      </trkpt>
      <trkpt lat="42.95248" lon="0.30497">
        <ele>1397.8000488281</ele>
        <time>2019-08-23T08:10:01Z</time>
      </trkpt>
      <trkpt lat="42.95251" lon="0.30497">
        <ele>1397.8000488281</ele>
        <time>2019-08-23T08:10:02Z</time>
      </trkpt>
      <trkpt lat="42.95264" lon="0.30499">
        <ele>1397.8000488281</ele>
        <time>2019-08-23T08:10:08Z</time>
      </trkpt>
      <trkpt lat="42.95266" lon="0.30499">
        <ele>1398.5999755859</ele>
        <time>2019-08-23T08:10:09Z</time>
      </trkpt>
      <trkpt lat="42.95269" lon="0.305">
        <ele>1399</ele>
        <time>2019-08-23T08:10:10Z</time>
      </trkpt>
      <trkpt lat="42.95271" lon="0.305">
        <ele>1399.4000244141</ele>
        <time>2019-08-23T08:10:11Z</time>
      </trkpt>
      <trkpt lat="42.95274" lon="0.30501">
        <ele>1399.8000488281</ele>
        <time>2019-08-23T08:10:12Z</time>
      </trkpt>
      <trkpt lat="42.95276" lon="0.30501">
        <ele>1399.8000488281</ele>
        <time>2019-08-23T08:10:13Z</time>
      </trkpt>
      <trkpt lat="42.95285" lon="0.30504">
        <ele>1399.8000488281</ele>
        <time>2019-08-23T08:10:17Z</time>
      </trkpt>
      <trkpt lat="42.953" lon="0.30511">
        <ele>1399.8000488281</ele>
        <time>2019-08-23T08:10:23Z</time>
      </trkpt>
      <trkpt lat="42.95304" lon="0.30513">
        <ele>1400.1999511719</ele>
        <time>2019-08-23T08:10:25Z</time>
      </trkpt>
      <trkpt lat="42.95306" lon="0.30515">
        <ele>1400.5999755859</ele>
        <time>2019-08-23T08:10:26Z</time>
      </trkpt>
      <trkpt lat="42.95308" lon="0.30516">
        <ele>1401.1999511719</ele>
        <time>2019-08-23T08:10:27Z</time>
      </trkpt>
      <trkpt lat="42.9531" lon="0.30518">
        <ele>1401.5999755859</ele>
        <time>2019-08-23T08:10:28Z</time>
      </trkpt>
      <trkpt lat="42.95311" lon="0.3052">
        <ele>1402</ele>
        <time>2019-08-23T08:10:29Z</time>
      </trkpt>
      <trkpt lat="42.95316" lon="0.30526">
        <ele>1402</ele>
        <time>2019-08-23T08:10:32Z</time>
      </trkpt>
      <trkpt lat="42.9532" lon="0.30538">
        <ele>1402.4000244141</ele>
        <time>2019-08-23T08:10:37Z</time>
      </trkpt>
      <trkpt lat="42.95321" lon="0.30541">
        <ele>1402.8000488281</ele>
        <time>2019-08-23T08:10:38Z</time>
      </trkpt>
      <trkpt lat="42.95322" lon="0.30542">
        <ele>1403.1999511719</ele>
        <time>2019-08-23T08:10:39Z</time>
      </trkpt>
      <trkpt lat="42.95323" lon="0.30545">
        <ele>1403.5999755859</ele>
        <time>2019-08-23T08:10:40Z</time>
      </trkpt>
      <trkpt lat="42.95324" lon="0.30547">
        <ele>1404</ele>
        <time>2019-08-23T08:10:41Z</time>
      </trkpt>
      <trkpt lat="42.95326" lon="0.30552">
        <ele>1404</ele>
        <time>2019-08-23T08:10:43Z</time>
      </trkpt>
      <trkpt lat="42.95331" lon="0.30568">
        <ele>1404</ele>
        <time>2019-08-23T08:10:49Z</time>
      </trkpt>
      <trkpt lat="42.95338" lon="0.30578">
        <ele>1404</ele>
        <time>2019-08-23T08:10:54Z</time>
      </trkpt>
      <trkpt lat="42.9534" lon="0.3058">
        <ele>1404.4000244141</ele>
        <time>2019-08-23T08:10:55Z</time>
      </trkpt>
      <trkpt lat="42.95341" lon="0.30581">
        <ele>1404.8000488281</ele>
        <time>2019-08-23T08:10:56Z</time>
      </trkpt>
      <trkpt lat="42.95342" lon="0.30582">
        <ele>1405.1999511719</ele>
        <time>2019-08-23T08:10:57Z</time>
      </trkpt>
      <trkpt lat="42.95344" lon="0.30584">
        <ele>1406.1999511719</ele>
        <time>2019-08-23T08:10:58Z</time>
      </trkpt>
      <trkpt lat="42.95347" lon="0.30587">
        <ele>1406.1999511719</ele>
        <time>2019-08-23T08:11:00Z</time>
      </trkpt>
      <trkpt lat="42.95358" lon="0.30598">
        <ele>1406.1999511719</ele>
        <time>2019-08-23T08:11:06Z</time>
      </trkpt>
      <trkpt lat="42.95368" lon="0.30609">
        <ele>1406.5999755859</ele>
        <time>2019-08-23T08:11:12Z</time>
      </trkpt>
      <trkpt lat="42.9537" lon="0.30611">
        <ele>1407</ele>
        <time>2019-08-23T08:11:13Z</time>
      </trkpt>
      <trkpt lat="42.95372" lon="0.30614">
        <ele>1407.4000244141</ele>
        <time>2019-08-23T08:11:14Z</time>
      </trkpt>
      <trkpt lat="42.95373" lon="0.30616">
        <ele>1407.8000488281</ele>
        <time>2019-08-23T08:11:15Z</time>
      </trkpt>
      <trkpt lat="42.95375" lon="0.30618">
        <ele>1408.1999511719</ele>
        <time>2019-08-23T08:11:16Z</time>
      </trkpt>
      <trkpt lat="42.95382" lon="0.30625">
        <ele>1408.1999511719</ele>
        <time>2019-08-23T08:11:20Z</time>
      </trkpt>
      <trkpt lat="42.95389" lon="0.30632">
        <ele>1408.5999755859</ele>
        <time>2019-08-23T08:11:24Z</time>
      </trkpt>
      <trkpt lat="42.9539" lon="0.30634">
        <ele>1409</ele>
        <time>2019-08-23T08:11:25Z</time>
      </trkpt>
      <trkpt lat="42.95392" lon="0.30637">
        <ele>1409.4000244141</ele>
        <time>2019-08-23T08:11:26Z</time>
      </trkpt>
      <trkpt lat="42.95393" lon="0.30638">
        <ele>1410</ele>
        <time>2019-08-23T08:11:27Z</time>
      </trkpt>
      <trkpt lat="42.95395" lon="0.3064">
        <ele>1410.4000244141</ele>
        <time>2019-08-23T08:11:28Z</time>
      </trkpt>
      <trkpt lat="42.95407" lon="0.30654">
        <ele>1410.4000244141</ele>
        <time>2019-08-23T08:11:35Z</time>
      </trkpt>
      <trkpt lat="42.9542" lon="0.30666">
        <ele>1410.8000488281</ele>
        <time>2019-08-23T08:11:42Z</time>
      </trkpt>
      <trkpt lat="42.95421" lon="0.30667">
        <ele>1411.1999511719</ele>
        <time>2019-08-23T08:11:43Z</time>
      </trkpt>
      <trkpt lat="42.95423" lon="0.3067">
        <ele>1411.5999755859</ele>
        <time>2019-08-23T08:11:44Z</time>
      </trkpt>
      <trkpt lat="42.95424" lon="0.30672">
        <ele>1412</ele>
        <time>2019-08-23T08:11:45Z</time>
      </trkpt>
      <trkpt lat="42.95426" lon="0.30674">
        <ele>1412.4000244141</ele>
        <time>2019-08-23T08:11:46Z</time>
      </trkpt>
      <trkpt lat="42.95428" lon="0.30676">
        <ele>1412.4000244141</ele>
        <time>2019-08-23T08:11:47Z</time>
      </trkpt>
      <trkpt lat="42.95436" lon="0.3069">
        <ele>1412.4000244141</ele>
        <time>2019-08-23T08:11:53Z</time>
      </trkpt>
      <trkpt lat="42.9544" lon="0.30698">
        <ele>1412.8000488281</ele>
        <time>2019-08-23T08:11:56Z</time>
      </trkpt>
      <trkpt lat="42.95442" lon="0.30701">
        <ele>1413.1999511719</ele>
        <time>2019-08-23T08:11:57Z</time>
      </trkpt>
      <trkpt lat="42.95443" lon="0.30704">
        <ele>1413.5999755859</ele>
        <time>2019-08-23T08:11:58Z</time>
      </trkpt>
      <trkpt lat="42.95445" lon="0.30706">
        <ele>1414</ele>
        <time>2019-08-23T08:11:59Z</time>
      </trkpt>
      <trkpt lat="42.95446" lon="0.30709">
        <ele>1414.4000244141</ele>
        <time>2019-08-23T08:12:00Z</time>
      </trkpt>
      <trkpt lat="42.95454" lon="0.30722">
        <ele>1414.4000244141</ele>
        <time>2019-08-23T08:12:05Z</time>
      </trkpt>
      <trkpt lat="42.95465" lon="0.30735">
        <ele>1414.4000244141</ele>
        <time>2019-08-23T08:12:11Z</time>
      </trkpt>
      <trkpt lat="42.95467" lon="0.30738">
        <ele>1415.1999511719</ele>
        <time>2019-08-23T08:12:12Z</time>
      </trkpt>
      <trkpt lat="42.95468" lon="0.30741">
        <ele>1415.5999755859</ele>
        <time>2019-08-23T08:12:13Z</time>
      </trkpt>
      <trkpt lat="42.9547" lon="0.30743">
        <ele>1416</ele>
        <time>2019-08-23T08:12:14Z</time>
      </trkpt>
      <trkpt lat="42.95471" lon="0.30745">
        <ele>1416.4000244141</ele>
        <time>2019-08-23T08:12:15Z</time>
      </trkpt>
      <trkpt lat="42.95475" lon="0.30753">
        <ele>1416.4000244141</ele>
        <time>2019-08-23T08:12:18Z</time>
      </trkpt>
      <trkpt lat="42.95485" lon="0.30769">
        <ele>1416.4000244141</ele>
        <time>2019-08-23T08:12:24Z</time>
      </trkpt>
      <trkpt lat="42.95494" lon="0.30786">
        <ele>1416.4000244141</ele>
        <time>2019-08-23T08:12:30Z</time>
      </trkpt>
      <trkpt lat="42.95509" lon="0.30807">
        <ele>1416.4000244141</ele>
        <time>2019-08-23T08:12:38Z</time>
      </trkpt>
      <trkpt lat="42.95526" lon="0.30821">
        <ele>1416.4000244141</ele>
        <time>2019-08-23T08:12:45Z</time>
      </trkpt>
      <trkpt lat="42.95532" lon="0.30824">
        <ele>1416.4000244141</ele>
        <time>2019-08-23T08:12:47Z</time>
      </trkpt>
      <trkpt lat="42.9554" lon="0.30824">
        <ele>1416.4000244141</ele>
        <time>2019-08-23T08:12:50Z</time>
      </trkpt>
      <trkpt lat="42.95552" lon="0.30809">
        <ele>1416.4000244141</ele>
        <time>2019-08-23T08:12:54Z</time>
      </trkpt>
      <trkpt lat="42.95562" lon="0.30794">
        <ele>1416.8000488281</ele>
        <time>2019-08-23T08:12:58Z</time>
      </trkpt>
      <trkpt lat="42.95564" lon="0.30791">
        <ele>1417.1999511719</ele>
        <time>2019-08-23T08:12:59Z</time>
      </trkpt>
      <trkpt lat="42.95566" lon="0.30787">
        <ele>1417.5999755859</ele>
        <time>2019-08-23T08:13:00Z</time>
      </trkpt>
      <trkpt lat="42.95567" lon="0.30782">
        <ele>1418.4000244141</ele>
        <time>2019-08-23T08:13:01Z</time>
      </trkpt>
      <trkpt lat="42.9557" lon="0.30773">
        <ele>1418.4000244141</ele>
        <time>2019-08-23T08:13:03Z</time>
      </trkpt>
      <trkpt lat="42.95579" lon="0.3075">
        <ele>1418.4000244141</ele>
        <time>2019-08-23T08:13:09Z</time>
      </trkpt>
      <trkpt lat="42.95587" lon="0.30727">
        <ele>1418.4000244141</ele>
        <time>2019-08-23T08:13:14Z</time>
      </trkpt>
      <trkpt lat="42.95592" lon="0.30706">
        <ele>1418.4000244141</ele>
        <time>2019-08-23T08:13:18Z</time>
      </trkpt>
      <trkpt lat="42.95593" lon="0.30696">
        <ele>1418.4000244141</ele>
        <time>2019-08-23T08:13:20Z</time>
      </trkpt>
      <trkpt lat="42.95593" lon="0.30687">
        <ele>1418.4000244141</ele>
        <time>2019-08-23T08:13:22Z</time>
      </trkpt>
      <trkpt lat="42.95594" lon="0.30667">
        <ele>1418.4000244141</ele>
        <time>2019-08-23T08:13:26Z</time>
      </trkpt>
      <trkpt lat="42.95599" lon="0.30644">
        <ele>1418.4000244141</ele>
        <time>2019-08-23T08:13:31Z</time>
      </trkpt>
      <trkpt lat="42.95605" lon="0.30623">
        <ele>1418.4000244141</ele>
        <time>2019-08-23T08:13:36Z</time>
      </trkpt>
      <trkpt lat="42.95607" lon="0.30619">
        <ele>1418.8000488281</ele>
        <time>2019-08-23T08:13:37Z</time>
      </trkpt>
      <trkpt lat="42.95609" lon="0.30614">
        <ele>1419.1999511719</ele>
        <time>2019-08-23T08:13:38Z</time>
      </trkpt>
      <trkpt lat="42.9561" lon="0.3061">
        <ele>1419.5999755859</ele>
        <time>2019-08-23T08:13:39Z</time>
      </trkpt>
      <trkpt lat="42.95612" lon="0.30606">
        <ele>1420</ele>
        <time>2019-08-23T08:13:40Z</time>
      </trkpt>
      <trkpt lat="42.95613" lon="0.30601">
        <ele>1420.5999755859</ele>
        <time>2019-08-23T08:13:41Z</time>
      </trkpt>
      <trkpt lat="42.95615" lon="0.30597">
        <ele>1420.5999755859</ele>
        <time>2019-08-23T08:13:42Z</time>
      </trkpt>
      <trkpt lat="42.95621" lon="0.30566">
        <ele>1420.5999755859</ele>
        <time>2019-08-23T08:13:49Z</time>
      </trkpt>
      <trkpt lat="42.95622" lon="0.30561">
        <ele>1421</ele>
        <time>2019-08-23T08:13:50Z</time>
      </trkpt>
      <trkpt lat="42.95623" lon="0.30557">
        <ele>1421.8000488281</ele>
        <time>2019-08-23T08:13:51Z</time>
      </trkpt>
      <trkpt lat="42.95623" lon="0.30552">
        <ele>1422.1999511719</ele>
        <time>2019-08-23T08:13:52Z</time>
      </trkpt>
      <trkpt lat="42.95624" lon="0.30548">
        <ele>1422.5999755859</ele>
        <time>2019-08-23T08:13:53Z</time>
      </trkpt>
      <trkpt lat="42.95626" lon="0.30535">
        <ele>1422.5999755859</ele>
        <time>2019-08-23T08:13:56Z</time>
      </trkpt>
      <trkpt lat="42.95632" lon="0.30513">
        <ele>1423</ele>
        <time>2019-08-23T08:14:01Z</time>
      </trkpt>
      <trkpt lat="42.95634" lon="0.30509">
        <ele>1423.4000244141</ele>
        <time>2019-08-23T08:14:02Z</time>
      </trkpt>
      <trkpt lat="42.95636" lon="0.30504">
        <ele>1423.8000488281</ele>
        <time>2019-08-23T08:14:03Z</time>
      </trkpt>
      <trkpt lat="42.95638" lon="0.305">
        <ele>1424.1999511719</ele>
        <time>2019-08-23T08:14:05Z</time>
      </trkpt>
      <trkpt lat="42.95639" lon="0.30496">
        <ele>1424.5999755859</ele>
        <time>2019-08-23T08:14:06Z</time>
      </trkpt>
      <trkpt lat="42.95647" lon="0.30482">
        <ele>1424.5999755859</ele>
        <time>2019-08-23T08:14:10Z</time>
      </trkpt>
      <trkpt lat="42.95659" lon="0.3046">
        <ele>1425</ele>
        <time>2019-08-23T08:14:16Z</time>
      </trkpt>
      <trkpt lat="42.95661" lon="0.30457">
        <ele>1425.8000488281</ele>
        <time>2019-08-23T08:14:17Z</time>
      </trkpt>
      <trkpt lat="42.95664" lon="0.30455">
        <ele>1426.4000244141</ele>
        <time>2019-08-23T08:14:18Z</time>
      </trkpt>
      <trkpt lat="42.95666" lon="0.30452">
        <ele>1426.8000488281</ele>
        <time>2019-08-23T08:14:19Z</time>
      </trkpt>
      <trkpt lat="42.95672" lon="0.30442">
        <ele>1426.8000488281</ele>
        <time>2019-08-23T08:14:22Z</time>
      </trkpt>
      <trkpt lat="42.9568" lon="0.3043">
        <ele>1427.1999511719</ele>
        <time>2019-08-23T08:14:26Z</time>
      </trkpt>
      <trkpt lat="42.95682" lon="0.30427">
        <ele>1427.5999755859</ele>
        <time>2019-08-23T08:14:27Z</time>
      </trkpt>
      <trkpt lat="42.95684" lon="0.30424">
        <ele>1428</ele>
        <time>2019-08-23T08:14:28Z</time>
      </trkpt>
      <trkpt lat="42.95686" lon="0.30421">
        <ele>1428.4000244141</ele>
        <time>2019-08-23T08:14:29Z</time>
      </trkpt>
      <trkpt lat="42.95688" lon="0.30418">
        <ele>1428.8000488281</ele>
        <time>2019-08-23T08:14:30Z</time>
      </trkpt>
      <trkpt lat="42.95703" lon="0.30399">
        <ele>1428.8000488281</ele>
        <time>2019-08-23T08:14:37Z</time>
      </trkpt>
      <trkpt lat="42.95708" lon="0.30394">
        <ele>1429.1999511719</ele>
        <time>2019-08-23T08:14:39Z</time>
      </trkpt>
      <trkpt lat="42.9571" lon="0.30392">
        <ele>1429.5999755859</ele>
        <time>2019-08-23T08:14:40Z</time>
      </trkpt>
      <trkpt lat="42.95712" lon="0.3039">
        <ele>1430.4000244141</ele>
        <time>2019-08-23T08:14:41Z</time>
      </trkpt>
      <trkpt lat="42.95714" lon="0.30387">
        <ele>1430.8000488281</ele>
        <time>2019-08-23T08:14:42Z</time>
      </trkpt>
      <trkpt lat="42.95719" lon="0.30381">
        <ele>1430.8000488281</ele>
        <time>2019-08-23T08:14:44Z</time>
      </trkpt>
      <trkpt lat="42.95734" lon="0.30364">
        <ele>1430.8000488281</ele>
        <time>2019-08-23T08:14:50Z</time>
      </trkpt>
      <trkpt lat="42.95736" lon="0.30362">
        <ele>1431.1999511719</ele>
        <time>2019-08-23T08:14:51Z</time>
      </trkpt>
      <trkpt lat="42.95739" lon="0.3036">
        <ele>1431.5999755859</ele>
        <time>2019-08-23T08:14:52Z</time>
      </trkpt>
      <trkpt lat="42.95741" lon="0.30358">
        <ele>1432</ele>
        <time>2019-08-23T08:14:53Z</time>
      </trkpt>
      <trkpt lat="42.95744" lon="0.30355">
        <ele>1432.4000244141</ele>
        <time>2019-08-23T08:14:54Z</time>
      </trkpt>
      <trkpt lat="42.95747" lon="0.30353">
        <ele>1433</ele>
        <time>2019-08-23T08:14:55Z</time>
      </trkpt>
      <trkpt lat="42.95749" lon="0.30351">
        <ele>1433</ele>
        <time>2019-08-23T08:14:56Z</time>
      </trkpt>
      <trkpt lat="42.95768" lon="0.30334">
        <ele>1433</ele>
        <time>2019-08-23T08:15:03Z</time>
      </trkpt>
      <trkpt lat="42.9577" lon="0.30332">
        <ele>1433.4000244141</ele>
        <time>2019-08-23T08:15:04Z</time>
      </trkpt>
      <trkpt lat="42.95772" lon="0.30329">
        <ele>1433.8000488281</ele>
        <time>2019-08-23T08:15:05Z</time>
      </trkpt>
      <trkpt lat="42.95775" lon="0.30327">
        <ele>1434.5999755859</ele>
        <time>2019-08-23T08:15:06Z</time>
      </trkpt>
      <trkpt lat="42.95777" lon="0.30323">
        <ele>1435</ele>
        <time>2019-08-23T08:15:07Z</time>
      </trkpt>
      <trkpt lat="42.95782" lon="0.30318">
        <ele>1435</ele>
        <time>2019-08-23T08:15:09Z</time>
      </trkpt>
      <trkpt lat="42.95799" lon="0.30305">
        <ele>1435</ele>
        <time>2019-08-23T08:15:15Z</time>
      </trkpt>
      <trkpt lat="42.95807" lon="0.30302">
        <ele>1435.4000244141</ele>
        <time>2019-08-23T08:15:18Z</time>
      </trkpt>
      <trkpt lat="42.9581" lon="0.30302">
        <ele>1435.8000488281</ele>
        <time>2019-08-23T08:15:19Z</time>
      </trkpt>
      <trkpt lat="42.95813" lon="0.30303">
        <ele>1436.1999511719</ele>
        <time>2019-08-23T08:15:20Z</time>
      </trkpt>
      <trkpt lat="42.95816" lon="0.30303">
        <ele>1436.5999755859</ele>
        <time>2019-08-23T08:15:21Z</time>
      </trkpt>
      <trkpt lat="42.95818" lon="0.30303">
        <ele>1437</ele>
        <time>2019-08-23T08:15:22Z</time>
      </trkpt>
      <trkpt lat="42.95826" lon="0.30305">
        <ele>1437</ele>
        <time>2019-08-23T08:15:25Z</time>
      </trkpt>
      <trkpt lat="42.9584" lon="0.30312">
        <ele>1437.4000244141</ele>
        <time>2019-08-23T08:15:30Z</time>
      </trkpt>
      <trkpt lat="42.95842" lon="0.30313">
        <ele>1438.1999511719</ele>
        <time>2019-08-23T08:15:31Z</time>
      </trkpt>
      <trkpt lat="42.95845" lon="0.30316">
        <ele>1438.5999755859</ele>
        <time>2019-08-23T08:15:32Z</time>
      </trkpt>
      <trkpt lat="42.95847" lon="0.30318">
        <ele>1439</ele>
        <time>2019-08-23T08:15:33Z</time>
      </trkpt>
      <trkpt lat="42.95855" lon="0.30322">
        <ele>1439</ele>
        <time>2019-08-23T08:15:36Z</time>
      </trkpt>
      <trkpt lat="42.95868" lon="0.30332">
        <ele>1439</ele>
        <time>2019-08-23T08:15:41Z</time>
      </trkpt>
      <trkpt lat="42.9588" lon="0.30346">
        <ele>1439</ele>
        <time>2019-08-23T08:15:46Z</time>
      </trkpt>
      <trkpt lat="42.95897" lon="0.30372">
        <ele>1439</ele>
        <time>2019-08-23T08:15:54Z</time>
      </trkpt>
      <trkpt lat="42.95914" lon="0.30401">
        <ele>1439</ele>
        <time>2019-08-23T08:16:01Z</time>
      </trkpt>
      <trkpt lat="42.95929" lon="0.30429">
        <ele>1438.5999755859</ele>
        <time>2019-08-23T08:16:06Z</time>
      </trkpt>
      <trkpt lat="42.95933" lon="0.30435">
        <ele>1438.1999511719</ele>
        <time>2019-08-23T08:16:07Z</time>
      </trkpt>
      <trkpt lat="42.95937" lon="0.30441">
        <ele>1437.8000488281</ele>
        <time>2019-08-23T08:16:08Z</time>
      </trkpt>
      <trkpt lat="42.95941" lon="0.30448">
        <ele>1437.4000244141</ele>
        <time>2019-08-23T08:16:09Z</time>
      </trkpt>
      <trkpt lat="42.95946" lon="0.30455">
        <ele>1437</ele>
        <time>2019-08-23T08:16:10Z</time>
      </trkpt>
      <trkpt lat="42.9595" lon="0.30462">
        <ele>1436.4000244141</ele>
        <time>2019-08-23T08:16:11Z</time>
      </trkpt>
      <trkpt lat="42.95955" lon="0.30469">
        <ele>1436</ele>
        <time>2019-08-23T08:16:12Z</time>
      </trkpt>
      <trkpt lat="42.9596" lon="0.30476">
        <ele>1435.4000244141</ele>
        <time>2019-08-23T08:16:13Z</time>
      </trkpt>
      <trkpt lat="42.95965" lon="0.30484">
        <ele>1435</ele>
        <time>2019-08-23T08:16:14Z</time>
      </trkpt>
      <trkpt lat="42.9597" lon="0.30491">
        <ele>1434.4000244141</ele>
        <time>2019-08-23T08:16:15Z</time>
      </trkpt>
      <trkpt lat="42.95976" lon="0.30498">
        <ele>1434</ele>
        <time>2019-08-23T08:16:16Z</time>
      </trkpt>
      <trkpt lat="42.95981" lon="0.30506">
        <ele>1433.5999755859</ele>
        <time>2019-08-23T08:16:17Z</time>
      </trkpt>
      <trkpt lat="42.95986" lon="0.30513">
        <ele>1433.1999511719</ele>
        <time>2019-08-23T08:16:18Z</time>
      </trkpt>
      <trkpt lat="42.95992" lon="0.30521">
        <ele>1432.8000488281</ele>
        <time>2019-08-23T08:16:19Z</time>
      </trkpt>
      <trkpt lat="42.95997" lon="0.30529">
        <ele>1431.8000488281</ele>
        <time>2019-08-23T08:16:20Z</time>
      </trkpt>
      <trkpt lat="42.96003" lon="0.30538">
        <ele>1431.4000244141</ele>
        <time>2019-08-23T08:16:21Z</time>
      </trkpt>
      <trkpt lat="42.96009" lon="0.30546">
        <ele>1431</ele>
        <time>2019-08-23T08:16:22Z</time>
      </trkpt>
      <trkpt lat="42.96014" lon="0.30554">
        <ele>1430.4000244141</ele>
        <time>2019-08-23T08:16:23Z</time>
      </trkpt>
      <trkpt lat="42.96019" lon="0.30562">
        <ele>1430</ele>
        <time>2019-08-23T08:16:24Z</time>
      </trkpt>
      <trkpt lat="42.96029" lon="0.30577">
        <ele>1429.4000244141</ele>
        <time>2019-08-23T08:16:26Z</time>
      </trkpt>
      <trkpt lat="42.96034" lon="0.30584">
        <ele>1429</ele>
        <time>2019-08-23T08:16:27Z</time>
      </trkpt>
      <trkpt lat="42.96039" lon="0.30591">
        <ele>1428.5999755859</ele>
        <time>2019-08-23T08:16:28Z</time>
      </trkpt>
      <trkpt lat="42.96044" lon="0.30597">
        <ele>1428</ele>
        <time>2019-08-23T08:16:29Z</time>
      </trkpt>
      <trkpt lat="42.9605" lon="0.30605">
        <ele>1427.5999755859</ele>
        <time>2019-08-23T08:16:30Z</time>
      </trkpt>
      <trkpt lat="42.96055" lon="0.30612">
        <ele>1427.1999511719</ele>
        <time>2019-08-23T08:16:31Z</time>
      </trkpt>
      <trkpt lat="42.9606" lon="0.30619">
        <ele>1426.8000488281</ele>
        <time>2019-08-23T08:16:32Z</time>
      </trkpt>
      <trkpt lat="42.96065" lon="0.30627">
        <ele>1426.4000244141</ele>
        <time>2019-08-23T08:16:33Z</time>
      </trkpt>
      <trkpt lat="42.9607" lon="0.30635">
        <ele>1426</ele>
        <time>2019-08-23T08:16:34Z</time>
      </trkpt>
      <trkpt lat="42.96075" lon="0.30643">
        <ele>1425.5999755859</ele>
        <time>2019-08-23T08:16:35Z</time>
      </trkpt>
      <trkpt lat="42.9608" lon="0.30651">
        <ele>1425.5999755859</ele>
        <time>2019-08-23T08:16:36Z</time>
      </trkpt>
      <trkpt lat="42.96084" lon="0.30659">
        <ele>1425.1999511719</ele>
        <time>2019-08-23T08:16:37Z</time>
      </trkpt>
      <trkpt lat="42.96089" lon="0.30667">
        <ele>1424.8000488281</ele>
        <time>2019-08-23T08:16:38Z</time>
      </trkpt>
      <trkpt lat="42.96094" lon="0.30675">
        <ele>1424.4000244141</ele>
        <time>2019-08-23T08:16:39Z</time>
      </trkpt>
      <trkpt lat="42.96099" lon="0.30684">
        <ele>1424</ele>
        <time>2019-08-23T08:16:40Z</time>
      </trkpt>
      <trkpt lat="42.96103" lon="0.30693">
        <ele>1423.4000244141</ele>
        <time>2019-08-23T08:16:41Z</time>
      </trkpt>
      <trkpt lat="42.96108" lon="0.30702">
        <ele>1423</ele>
        <time>2019-08-23T08:16:42Z</time>
      </trkpt>
      <trkpt lat="42.96113" lon="0.30711">
        <ele>1422.5999755859</ele>
        <time>2019-08-23T08:16:43Z</time>
      </trkpt>
      <trkpt lat="42.96119" lon="0.30721">
        <ele>1422.1999511719</ele>
        <time>2019-08-23T08:16:44Z</time>
      </trkpt>
      <trkpt lat="42.96124" lon="0.3073">
        <ele>1421</ele>
        <time>2019-08-23T08:16:45Z</time>
      </trkpt>
      <trkpt lat="42.9613" lon="0.30739">
        <ele>1420.4000244141</ele>
        <time>2019-08-23T08:16:46Z</time>
      </trkpt>
      <trkpt lat="42.96136" lon="0.30747">
        <ele>1419.8000488281</ele>
        <time>2019-08-23T08:16:47Z</time>
      </trkpt>
      <trkpt lat="42.96142" lon="0.30756">
        <ele>1419.1999511719</ele>
        <time>2019-08-23T08:16:48Z</time>
      </trkpt>
      <trkpt lat="42.96149" lon="0.30764">
        <ele>1418.8000488281</ele>
        <time>2019-08-23T08:16:49Z</time>
      </trkpt>
      <trkpt lat="42.96156" lon="0.30772">
        <ele>1418.1999511719</ele>
        <time>2019-08-23T08:16:50Z</time>
      </trkpt>
      <trkpt lat="42.96163" lon="0.3078">
        <ele>1417.8000488281</ele>
        <time>2019-08-23T08:16:51Z</time>
      </trkpt>
      <trkpt lat="42.96171" lon="0.30788">
        <ele>1417.1999511719</ele>
        <time>2019-08-23T08:16:52Z</time>
      </trkpt>
      <trkpt lat="42.96179" lon="0.30796">
        <ele>1416.5999755859</ele>
        <time>2019-08-23T08:16:53Z</time>
      </trkpt>
      <trkpt lat="42.96186" lon="0.30804">
        <ele>1416</ele>
        <time>2019-08-23T08:16:54Z</time>
      </trkpt>
      <trkpt lat="42.96194" lon="0.30812">
        <ele>1415.4000244141</ele>
        <time>2019-08-23T08:16:55Z</time>
      </trkpt>
      <trkpt lat="42.96202" lon="0.30819">
        <ele>1414.8000488281</ele>
        <time>2019-08-23T08:16:56Z</time>
      </trkpt>
      <trkpt lat="42.96209" lon="0.30827">
        <ele>1414.1999511719</ele>
        <time>2019-08-23T08:16:57Z</time>
      </trkpt>
      <trkpt lat="42.96224" lon="0.30842">
        <ele>1413.8000488281</ele>
        <time>2019-08-23T08:16:59Z</time>
      </trkpt>
      <trkpt lat="42.96231" lon="0.30849">
        <ele>1413.4000244141</ele>
        <time>2019-08-23T08:17:00Z</time>
      </trkpt>
      <trkpt lat="42.96238" lon="0.30856">
        <ele>1413</ele>
        <time>2019-08-23T08:17:01Z</time>
      </trkpt>
      <trkpt lat="42.96245" lon="0.30863">
        <ele>1412.5999755859</ele>
        <time>2019-08-23T08:17:02Z</time>
      </trkpt>
      <trkpt lat="42.96251" lon="0.30869">
        <ele>1412</ele>
        <time>2019-08-23T08:17:03Z</time>
      </trkpt>
      <trkpt lat="42.96261" lon="0.30879">
        <ele>1412</ele>
        <time>2019-08-23T08:17:05Z</time>
      </trkpt>
      <trkpt lat="42.96264" lon="0.30883">
        <ele>1412</ele>
        <time>2019-08-23T08:17:06Z</time>
      </trkpt>
      <trkpt lat="42.96267" lon="0.30889">
        <ele>1412</ele>
        <time>2019-08-23T08:17:08Z</time>
      </trkpt>
      <trkpt lat="42.96269" lon="0.30892">
        <ele>1412</ele>
        <time>2019-08-23T08:17:12Z</time>
      </trkpt>
      <trkpt lat="42.96269" lon="0.30892">
        <ele>1412</ele>
        <time>2019-08-23T08:17:17Z</time>
      </trkpt>
      <trkpt lat="42.96269" lon="0.30892">
        <ele>1412</ele>
        <time>2019-08-23T08:17:27Z</time>
      </trkpt>
      <trkpt lat="42.96269" lon="0.30892">
        <ele>1412</ele>
        <time>2019-08-23T08:17:36Z</time>
      </trkpt>
      <trkpt lat="42.96269" lon="0.30892">
        <ele>1412</ele>
        <time>2019-08-23T08:17:46Z</time>
      </trkpt>
      <trkpt lat="42.96268" lon="0.30893">
        <ele>1412</ele>
        <time>2019-08-23T08:17:51Z</time>
      </trkpt>
      <trkpt lat="42.96268" lon="0.30892">
        <ele>1412</ele>
        <time>2019-08-23T08:17:56Z</time>
      </trkpt>
      <trkpt lat="42.96268" lon="0.30892">
        <ele>1412</ele>
        <time>2019-08-23T08:18:00Z</time>
      </trkpt>
      <trkpt lat="42.96268" lon="0.30892">
        <ele>1412</ele>
        <time>2019-08-23T08:18:11Z</time>
      </trkpt>
      <trkpt lat="42.96268" lon="0.30892">
        <ele>1412</ele>
        <time>2019-08-23T08:18:30Z</time>
      </trkpt>
      <trkpt lat="42.96268" lon="0.30892">
        <ele>1412</ele>
        <time>2019-08-23T08:18:46Z</time>
      </trkpt>
      <trkpt lat="42.96268" lon="0.30892">
        <ele>1412</ele>
        <time>2019-08-23T08:18:48Z</time>
      </trkpt>
      <trkpt lat="42.96269" lon="0.30892">
        <ele>1412</ele>
        <time>2019-08-23T08:19:02Z</time>
      </trkpt>
      <trkpt lat="42.9627" lon="0.30891">
        <ele>1412</ele>
        <time>2019-08-23T08:19:03Z</time>
      </trkpt>
      <trkpt lat="42.9627" lon="0.30891">
        <ele>1412</ele>
        <time>2019-08-23T08:19:06Z</time>
      </trkpt>
      <trkpt lat="42.96277" lon="0.30886">
        <ele>1412</ele>
        <time>2019-08-23T08:19:11Z</time>
      </trkpt>
      <trkpt lat="42.96291" lon="0.30874">
        <ele>1412</ele>
        <time>2019-08-23T08:19:17Z</time>
      </trkpt>
      <trkpt lat="42.963" lon="0.30853">
        <ele>1412</ele>
        <time>2019-08-23T08:19:22Z</time>
      </trkpt>
      <trkpt lat="42.96316" lon="0.30827">
        <ele>1412</ele>
        <time>2019-08-23T08:19:28Z</time>
      </trkpt>
      <trkpt lat="42.96319" lon="0.30822">
        <ele>1412</ele>
        <time>2019-08-23T08:19:29Z</time>
      </trkpt>
      <trkpt lat="42.96326" lon="0.30813">
        <ele>1411.5999755859</ele>
        <time>2019-08-23T08:19:31Z</time>
      </trkpt>
      <trkpt lat="42.9633" lon="0.3081">
        <ele>1411.1999511719</ele>
        <time>2019-08-23T08:19:32Z</time>
      </trkpt>
      <trkpt lat="42.96334" lon="0.30806">
        <ele>1410.8000488281</ele>
        <time>2019-08-23T08:19:33Z</time>
      </trkpt>
      <trkpt lat="42.96339" lon="0.30802">
        <ele>1410.4000244141</ele>
        <time>2019-08-23T08:19:34Z</time>
      </trkpt>
      <trkpt lat="42.96344" lon="0.30798">
        <ele>1410</ele>
        <time>2019-08-23T08:19:35Z</time>
      </trkpt>
      <trkpt lat="42.96349" lon="0.30794">
        <ele>1409.5999755859</ele>
        <time>2019-08-23T08:19:36Z</time>
      </trkpt>
      <trkpt lat="42.96355" lon="0.30791">
        <ele>1409.1999511719</ele>
        <time>2019-08-23T08:19:37Z</time>
      </trkpt>
      <trkpt lat="42.96361" lon="0.30788">
        <ele>1408.4000244141</ele>
        <time>2019-08-23T08:19:38Z</time>
      </trkpt>
      <trkpt lat="42.96367" lon="0.30785">
        <ele>1408</ele>
        <time>2019-08-23T08:19:39Z</time>
      </trkpt>
      <trkpt lat="42.96374" lon="0.30782">
        <ele>1408</ele>
        <time>2019-08-23T08:19:40Z</time>
      </trkpt>
      <trkpt lat="42.9638" lon="0.30778">
        <ele>1407.5999755859</ele>
        <time>2019-08-23T08:19:41Z</time>
      </trkpt>
      <trkpt lat="42.96386" lon="0.30775">
        <ele>1407.1999511719</ele>
        <time>2019-08-23T08:19:42Z</time>
      </trkpt>
      <trkpt lat="42.96392" lon="0.30771">
        <ele>1406.5999755859</ele>
        <time>2019-08-23T08:19:43Z</time>
      </trkpt>
      <trkpt lat="42.96398" lon="0.30767">
        <ele>1406.1999511719</ele>
        <time>2019-08-23T08:19:44Z</time>
      </trkpt>
      <trkpt lat="42.96403" lon="0.30762">
        <ele>1405.8000488281</ele>
        <time>2019-08-23T08:19:45Z</time>
      </trkpt>
      <trkpt lat="42.96411" lon="0.30747">
        <ele>1405.8000488281</ele>
        <time>2019-08-23T08:19:47Z</time>
      </trkpt>
      <trkpt lat="42.96415" lon="0.30719">
        <ele>1405.4000244141</ele>
        <time>2019-08-23T08:19:50Z</time>
      </trkpt>
      <trkpt lat="42.96414" lon="0.3071">
        <ele>1404.8000488281</ele>
        <time>2019-08-23T08:19:51Z</time>
      </trkpt>
      <trkpt lat="42.96414" lon="0.307">
        <ele>1404.1999511719</ele>
        <time>2019-08-23T08:19:52Z</time>
      </trkpt>
      <trkpt lat="42.96414" lon="0.30689">
        <ele>1403.5999755859</ele>
        <time>2019-08-23T08:19:53Z</time>
      </trkpt>
      <trkpt lat="42.96414" lon="0.30679">
        <ele>1402.8000488281</ele>
        <time>2019-08-23T08:19:54Z</time>
      </trkpt>
      <trkpt lat="42.96414" lon="0.30668">
        <ele>1402</ele>
        <time>2019-08-23T08:19:55Z</time>
      </trkpt>
      <trkpt lat="42.96416" lon="0.30657">
        <ele>1401.1999511719</ele>
        <time>2019-08-23T08:19:56Z</time>
      </trkpt>
      <trkpt lat="42.96419" lon="0.30646">
        <ele>1400.5999755859</ele>
        <time>2019-08-23T08:19:57Z</time>
      </trkpt>
      <trkpt lat="42.96422" lon="0.30635">
        <ele>1400.1999511719</ele>
        <time>2019-08-23T08:19:58Z</time>
      </trkpt>
      <trkpt lat="42.96424" lon="0.30624">
        <ele>1399.5999755859</ele>
        <time>2019-08-23T08:19:59Z</time>
      </trkpt>
      <trkpt lat="42.96426" lon="0.30612">
        <ele>1399</ele>
        <time>2019-08-23T08:20:00Z</time>
      </trkpt>
      <trkpt lat="42.96425" lon="0.30599">
        <ele>1398.4000244141</ele>
        <time>2019-08-23T08:20:01Z</time>
      </trkpt>
      <trkpt lat="42.96424" lon="0.30587">
        <ele>1398</ele>
        <time>2019-08-23T08:20:02Z</time>
      </trkpt>
      <trkpt lat="42.96422" lon="0.30574">
        <ele>1396.8000488281</ele>
        <time>2019-08-23T08:20:03Z</time>
      </trkpt>
      <trkpt lat="42.96421" lon="0.30562">
        <ele>1396</ele>
        <time>2019-08-23T08:20:04Z</time>
      </trkpt>
      <trkpt lat="42.96422" lon="0.30548">
        <ele>1395</ele>
        <time>2019-08-23T08:20:05Z</time>
      </trkpt>
      <trkpt lat="42.96423" lon="0.30536">
        <ele>1394</ele>
        <time>2019-08-23T08:20:06Z</time>
      </trkpt>
      <trkpt lat="42.96423" lon="0.30523">
        <ele>1393.1999511719</ele>
        <time>2019-08-23T08:20:07Z</time>
      </trkpt>
      <trkpt lat="42.96421" lon="0.30511">
        <ele>1392.1999511719</ele>
        <time>2019-08-23T08:20:08Z</time>
      </trkpt>
      <trkpt lat="42.96419" lon="0.30499">
        <ele>1391.5999755859</ele>
        <time>2019-08-23T08:20:09Z</time>
      </trkpt>
      <trkpt lat="42.96416" lon="0.30489">
        <ele>1391</ele>
        <time>2019-08-23T08:20:10Z</time>
      </trkpt>
      <trkpt lat="42.96413" lon="0.30479">
        <ele>1390.1999511719</ele>
        <time>2019-08-23T08:20:11Z</time>
      </trkpt>
      <trkpt lat="42.9641" lon="0.3047">
        <ele>1389.5999755859</ele>
        <time>2019-08-23T08:20:12Z</time>
      </trkpt>
      <trkpt lat="42.96408" lon="0.30462">
        <ele>1389</ele>
        <time>2019-08-23T08:20:13Z</time>
      </trkpt>
      <trkpt lat="42.96407" lon="0.30438">
        <ele>1389</ele>
        <time>2019-08-23T08:20:17Z</time>
      </trkpt>
      <trkpt lat="42.96412" lon="0.30435">
        <ele>1389</ele>
        <time>2019-08-23T08:20:20Z</time>
      </trkpt>
      <trkpt lat="42.96415" lon="0.30432">
        <ele>1389</ele>
        <time>2019-08-23T08:20:24Z</time>
      </trkpt>
      <trkpt lat="42.96415" lon="0.30432">
        <ele>1389</ele>
        <time>2019-08-23T08:20:31Z</time>
      </trkpt>
      <trkpt lat="42.96415" lon="0.30432">
        <ele>1389</ele>
        <time>2019-08-23T08:20:37Z</time>
      </trkpt>
      <trkpt lat="42.96415" lon="0.30432">
        <ele>1389</ele>
        <time>2019-08-23T08:20:43Z</time>
      </trkpt>
      <trkpt lat="42.96415" lon="0.30432">
        <ele>1389</ele>
        <time>2019-08-23T08:20:52Z</time>
      </trkpt>
      <trkpt lat="42.9641" lon="0.3043">
        <ele>1389</ele>
        <time>2019-08-23T08:20:55Z</time>
      </trkpt>
      <trkpt lat="42.96409" lon="0.30427">
        <ele>1389</ele>
        <time>2019-08-23T08:20:56Z</time>
      </trkpt>
      <trkpt lat="42.96413" lon="0.30411">
        <ele>1389</ele>
        <time>2019-08-23T08:21:00Z</time>
      </trkpt>
      <trkpt lat="42.96414" lon="0.30405">
        <ele>1389</ele>
        <time>2019-08-23T08:21:01Z</time>
      </trkpt>
      <trkpt lat="42.96416" lon="0.30399">
        <ele>1388.5999755859</ele>
        <time>2019-08-23T08:21:02Z</time>
      </trkpt>
      <trkpt lat="42.96418" lon="0.30392">
        <ele>1388</ele>
        <time>2019-08-23T08:21:03Z</time>
      </trkpt>
      <trkpt lat="42.9642" lon="0.30386">
        <ele>1387.5999755859</ele>
        <time>2019-08-23T08:21:04Z</time>
      </trkpt>
      <trkpt lat="42.96422" lon="0.3038">
        <ele>1387</ele>
        <time>2019-08-23T08:21:05Z</time>
      </trkpt>
      <trkpt lat="42.96423" lon="0.30374">
        <ele>1386.4000244141</ele>
        <time>2019-08-23T08:21:06Z</time>
      </trkpt>
      <trkpt lat="42.96423" lon="0.30368">
        <ele>1385.8000488281</ele>
        <time>2019-08-23T08:21:07Z</time>
      </trkpt>
      <trkpt lat="42.96423" lon="0.30362">
        <ele>1385.4000244141</ele>
        <time>2019-08-23T08:21:08Z</time>
      </trkpt>
      <trkpt lat="42.96423" lon="0.30357">
        <ele>1384.8000488281</ele>
        <time>2019-08-23T08:21:09Z</time>
      </trkpt>
      <trkpt lat="42.96424" lon="0.30352">
        <ele>1384.1999511719</ele>
        <time>2019-08-23T08:21:10Z</time>
      </trkpt>
      <trkpt lat="42.96429" lon="0.30346">
        <ele>1384.1999511719</ele>
        <time>2019-08-23T08:21:12Z</time>
      </trkpt>
      <trkpt lat="42.96439" lon="0.30325">
        <ele>1384.1999511719</ele>
        <time>2019-08-23T08:21:18Z</time>
      </trkpt>
      <trkpt lat="42.9644" lon="0.30312">
        <ele>1384.1999511719</ele>
        <time>2019-08-23T08:21:22Z</time>
      </trkpt>
      <trkpt lat="42.9644" lon="0.30309">
        <ele>1384.1999511719</ele>
        <time>2019-08-23T08:21:23Z</time>
      </trkpt>
      <trkpt lat="42.9644" lon="0.30306">
        <ele>1384.5999755859</ele>
        <time>2019-08-23T08:21:24Z</time>
      </trkpt>
      <trkpt lat="42.9644" lon="0.30303">
        <ele>1385.1999511719</ele>
        <time>2019-08-23T08:21:25Z</time>
      </trkpt>
      <trkpt lat="42.96439" lon="0.303">
        <ele>1385.5999755859</ele>
        <time>2019-08-23T08:21:26Z</time>
      </trkpt>
      <trkpt lat="42.96439" lon="0.30297">
        <ele>1386</ele>
        <time>2019-08-23T08:21:27Z</time>
      </trkpt>
      <trkpt lat="42.9644" lon="0.30294">
        <ele>1386.4000244141</ele>
        <time>2019-08-23T08:21:28Z</time>
      </trkpt>
      <trkpt lat="42.96439" lon="0.3029">
        <ele>1386.4000244141</ele>
        <time>2019-08-23T08:21:29Z</time>
      </trkpt>
      <trkpt lat="42.96439" lon="0.30276">
        <ele>1386.8000488281</ele>
        <time>2019-08-23T08:21:34Z</time>
      </trkpt>
      <trkpt lat="42.9644" lon="0.30273">
        <ele>1387.4000244141</ele>
        <time>2019-08-23T08:21:35Z</time>
      </trkpt>
      <trkpt lat="42.9644" lon="0.3027">
        <ele>1387.8000488281</ele>
        <time>2019-08-23T08:21:36Z</time>
      </trkpt>
      <trkpt lat="42.9644" lon="0.30268">
        <ele>1388.1999511719</ele>
        <time>2019-08-23T08:21:37Z</time>
      </trkpt>
      <trkpt lat="42.9644" lon="0.30265">
        <ele>1388.5999755859</ele>
        <time>2019-08-23T08:21:38Z</time>
      </trkpt>
      <trkpt lat="42.9644" lon="0.30253">
        <ele>1388.5999755859</ele>
        <time>2019-08-23T08:21:43Z</time>
      </trkpt>
      <trkpt lat="42.9644" lon="0.3025">
        <ele>1389</ele>
        <time>2019-08-23T08:21:44Z</time>
      </trkpt>
      <trkpt lat="42.96441" lon="0.30248">
        <ele>1389.4000244141</ele>
        <time>2019-08-23T08:21:45Z</time>
      </trkpt>
      <trkpt lat="42.96441" lon="0.30246">
        <ele>1390</ele>
        <time>2019-08-23T08:21:46Z</time>
      </trkpt>
      <trkpt lat="42.9644" lon="0.30243">
        <ele>1390.4000244141</ele>
        <time>2019-08-23T08:21:47Z</time>
      </trkpt>
      <trkpt lat="42.9644" lon="0.30241">
        <ele>1390.8000488281</ele>
        <time>2019-08-23T08:21:48Z</time>
      </trkpt>
      <trkpt lat="42.9644" lon="0.30238">
        <ele>1390.8000488281</ele>
        <time>2019-08-23T08:21:49Z</time>
      </trkpt>
      <trkpt lat="42.96438" lon="0.30226">
        <ele>1390.8000488281</ele>
        <time>2019-08-23T08:21:54Z</time>
      </trkpt>
      <trkpt lat="42.96436" lon="0.30217">
        <ele>1391.1999511719</ele>
        <time>2019-08-23T08:21:57Z</time>
      </trkpt>
      <trkpt lat="42.96436" lon="0.30215">
        <ele>1391.5999755859</ele>
        <time>2019-08-23T08:21:58Z</time>
      </trkpt>
      <trkpt lat="42.96435" lon="0.30212">
        <ele>1392.1999511719</ele>
        <time>2019-08-23T08:21:59Z</time>
      </trkpt>
      <trkpt lat="42.96434" lon="0.30209">
        <ele>1392.5999755859</ele>
        <time>2019-08-23T08:22:00Z</time>
      </trkpt>
      <trkpt lat="42.96434" lon="0.30206">
        <ele>1393</ele>
        <time>2019-08-23T08:22:01Z</time>
      </trkpt>
      <trkpt lat="42.9643" lon="0.30192">
        <ele>1393</ele>
        <time>2019-08-23T08:22:06Z</time>
      </trkpt>
      <trkpt lat="42.96429" lon="0.30187">
        <ele>1393.4000244141</ele>
        <time>2019-08-23T08:22:08Z</time>
      </trkpt>
      <trkpt lat="42.96429" lon="0.30184">
        <ele>1393.8000488281</ele>
        <time>2019-08-23T08:22:09Z</time>
      </trkpt>
      <trkpt lat="42.96428" lon="0.30182">
        <ele>1394.1999511719</ele>
        <time>2019-08-23T08:22:10Z</time>
      </trkpt>
      <trkpt lat="42.96428" lon="0.30179">
        <ele>1394.5999755859</ele>
        <time>2019-08-23T08:22:11Z</time>
      </trkpt>
      <trkpt lat="42.96427" lon="0.30177">
        <ele>1395.1999511719</ele>
        <time>2019-08-23T08:22:12Z</time>
      </trkpt>
      <trkpt lat="42.96426" lon="0.30172">
        <ele>1395.1999511719</ele>
        <time>2019-08-23T08:22:14Z</time>
      </trkpt>
      <trkpt lat="42.96423" lon="0.30159">
        <ele>1395.5999755859</ele>
        <time>2019-08-23T08:22:19Z</time>
      </trkpt>
      <trkpt lat="42.96422" lon="0.30157">
        <ele>1396</ele>
        <time>2019-08-23T08:22:20Z</time>
      </trkpt>
      <trkpt lat="42.96422" lon="0.30154">
        <ele>1396.4000244141</ele>
        <time>2019-08-23T08:22:21Z</time>
      </trkpt>
      <trkpt lat="42.96422" lon="0.30152">
        <ele>1396.8000488281</ele>
        <time>2019-08-23T08:22:22Z</time>
      </trkpt>
      <trkpt lat="42.96422" lon="0.3015">
        <ele>1397.1999511719</ele>
        <time>2019-08-23T08:22:23Z</time>
      </trkpt>
      <trkpt lat="42.96421" lon="0.30134">
        <ele>1397.1999511719</ele>
        <time>2019-08-23T08:22:30Z</time>
      </trkpt>
      <trkpt lat="42.96421" lon="0.30131">
        <ele>1397.5999755859</ele>
        <time>2019-08-23T08:22:31Z</time>
      </trkpt>
      <trkpt lat="42.96421" lon="0.30129">
        <ele>1398</ele>
        <time>2019-08-23T08:22:32Z</time>
      </trkpt>
      <trkpt lat="42.96421" lon="0.30126">
        <ele>1398.4000244141</ele>
        <time>2019-08-23T08:22:33Z</time>
      </trkpt>
      <trkpt lat="42.96421" lon="0.30123">
        <ele>1398.8000488281</ele>
        <time>2019-08-23T08:22:34Z</time>
      </trkpt>
      <trkpt lat="42.9642" lon="0.30121">
        <ele>1399.1999511719</ele>
        <time>2019-08-23T08:22:35Z</time>
      </trkpt>
      <trkpt lat="42.9642" lon="0.30115">
        <ele>1399.1999511719</ele>
        <time>2019-08-23T08:22:37Z</time>
      </trkpt>
      <trkpt lat="42.96419" lon="0.30102">
        <ele>1399.1999511719</ele>
        <time>2019-08-23T08:22:43Z</time>
      </trkpt>
      <trkpt lat="42.96418" lon="0.301">
        <ele>1399.5999755859</ele>
        <time>2019-08-23T08:22:44Z</time>
      </trkpt>
      <trkpt lat="42.96417" lon="0.30098">
        <ele>1400</ele>
        <time>2019-08-23T08:22:45Z</time>
      </trkpt>
      <trkpt lat="42.96417" lon="0.30096">
        <ele>1400.4000244141</ele>
        <time>2019-08-23T08:22:46Z</time>
      </trkpt>
      <trkpt lat="42.96416" lon="0.30093">
        <ele>1401</ele>
        <time>2019-08-23T08:22:47Z</time>
      </trkpt>
      <trkpt lat="42.96417" lon="0.30091">
        <ele>1401.4000244141</ele>
        <time>2019-08-23T08:22:48Z</time>
      </trkpt>
      <trkpt lat="42.96417" lon="0.30083">
        <ele>1401.4000244141</ele>
        <time>2019-08-23T08:22:51Z</time>
      </trkpt>
      <trkpt lat="42.96419" lon="0.30067">
        <ele>1401.8000488281</ele>
        <time>2019-08-23T08:22:57Z</time>
      </trkpt>
      <trkpt lat="42.96419" lon="0.30065">
        <ele>1402.1999511719</ele>
        <time>2019-08-23T08:22:58Z</time>
      </trkpt>
      <trkpt lat="42.96419" lon="0.30062">
        <ele>1402.5999755859</ele>
        <time>2019-08-23T08:22:59Z</time>
      </trkpt>
      <trkpt lat="42.96419" lon="0.3006">
        <ele>1403</ele>
        <time>2019-08-23T08:23:00Z</time>
      </trkpt>
      <trkpt lat="42.96419" lon="0.30057">
        <ele>1403.4000244141</ele>
        <time>2019-08-23T08:23:01Z</time>
      </trkpt>
      <trkpt lat="42.96419" lon="0.3005">
        <ele>1403.4000244141</ele>
        <time>2019-08-23T08:23:05Z</time>
      </trkpt>
      <trkpt lat="42.96418" lon="0.30039">
        <ele>1403.8000488281</ele>
        <time>2019-08-23T08:23:10Z</time>
      </trkpt>
      <trkpt lat="42.96417" lon="0.30036">
        <ele>1404.1999511719</ele>
        <time>2019-08-23T08:23:11Z</time>
      </trkpt>
      <trkpt lat="42.96416" lon="0.30031">
        <ele>1404.5999755859</ele>
        <time>2019-08-23T08:23:12Z</time>
      </trkpt>
      <trkpt lat="42.96414" lon="0.30028">
        <ele>1405</ele>
        <time>2019-08-23T08:23:13Z</time>
      </trkpt>
      <trkpt lat="42.96412" lon="0.30024">
        <ele>1405.4000244141</ele>
        <time>2019-08-23T08:23:14Z</time>
      </trkpt>
      <trkpt lat="42.96407" lon="0.30007">
        <ele>1405.4000244141</ele>
        <time>2019-08-23T08:23:19Z</time>
      </trkpt>
      <trkpt lat="42.96403" lon="0.29996">
        <ele>1405.8000488281</ele>
        <time>2019-08-23T08:23:23Z</time>
      </trkpt>
      <trkpt lat="42.96403" lon="0.29993">
        <ele>1406.1999511719</ele>
        <time>2019-08-23T08:23:24Z</time>
      </trkpt>
      <trkpt lat="42.96402" lon="0.29991">
        <ele>1406.5999755859</ele>
        <time>2019-08-23T08:23:25Z</time>
      </trkpt>
      <trkpt lat="42.96401" lon="0.29989">
        <ele>1407</ele>
        <time>2019-08-23T08:23:26Z</time>
      </trkpt>
      <trkpt lat="42.964" lon="0.29987">
        <ele>1407.4000244141</ele>
        <time>2019-08-23T08:23:27Z</time>
      </trkpt>
      <trkpt lat="42.96395" lon="0.29973">
        <ele>1407.4000244141</ele>
        <time>2019-08-23T08:23:33Z</time>
      </trkpt>
      <trkpt lat="42.96394" lon="0.29971">
        <ele>1407.8000488281</ele>
        <time>2019-08-23T08:23:34Z</time>
      </trkpt>
      <trkpt lat="42.96394" lon="0.29969">
        <ele>1408.1999511719</ele>
        <time>2019-08-23T08:23:35Z</time>
      </trkpt>
      <trkpt lat="42.96393" lon="0.29966">
        <ele>1408.5999755859</ele>
        <time>2019-08-23T08:23:36Z</time>
      </trkpt>
      <trkpt lat="42.96392" lon="0.29964">
        <ele>1409</ele>
        <time>2019-08-23T08:23:37Z</time>
      </trkpt>
      <trkpt lat="42.96392" lon="0.29962">
        <ele>1409.4000244141</ele>
        <time>2019-08-23T08:23:38Z</time>
      </trkpt>
      <trkpt lat="42.96389" lon="0.29953">
        <ele>1409.4000244141</ele>
        <time>2019-08-23T08:23:41Z</time>
      </trkpt>
      <trkpt lat="42.96388" lon="0.29937">
        <ele>1409.8000488281</ele>
        <time>2019-08-23T08:23:45Z</time>
      </trkpt>
      <trkpt lat="42.96388" lon="0.29934">
        <ele>1410.1999511719</ele>
        <time>2019-08-23T08:23:46Z</time>
      </trkpt>
      <trkpt lat="42.96388" lon="0.2993">
        <ele>1410.8000488281</ele>
        <time>2019-08-23T08:23:47Z</time>
      </trkpt>
      <trkpt lat="42.96388" lon="0.29928">
        <ele>1411.1999511719</ele>
        <time>2019-08-23T08:23:48Z</time>
      </trkpt>
      <trkpt lat="42.96387" lon="0.29924">
        <ele>1411.5999755859</ele>
        <time>2019-08-23T08:23:49Z</time>
      </trkpt>
      <trkpt lat="42.96387" lon="0.2991">
        <ele>1411.5999755859</ele>
        <time>2019-08-23T08:23:54Z</time>
      </trkpt>
      <trkpt lat="42.9639" lon="0.29892">
        <ele>1412</ele>
        <time>2019-08-23T08:24:00Z</time>
      </trkpt>
      <trkpt lat="42.9639" lon="0.29889">
        <ele>1412.4000244141</ele>
        <time>2019-08-23T08:24:01Z</time>
      </trkpt>
      <trkpt lat="42.9639" lon="0.29886">
        <ele>1412.8000488281</ele>
        <time>2019-08-23T08:24:02Z</time>
      </trkpt>
      <trkpt lat="42.9639" lon="0.29883">
        <ele>1413.1999511719</ele>
        <time>2019-08-23T08:24:03Z</time>
      </trkpt>
      <trkpt lat="42.96391" lon="0.2988">
        <ele>1413.5999755859</ele>
        <time>2019-08-23T08:24:04Z</time>
      </trkpt>
      <trkpt lat="42.96392" lon="0.2987">
        <ele>1413.5999755859</ele>
        <time>2019-08-23T08:24:07Z</time>
      </trkpt>
      <trkpt lat="42.96393" lon="0.29852">
        <ele>1413.5999755859</ele>
        <time>2019-08-23T08:24:13Z</time>
      </trkpt>
      <trkpt lat="42.96393" lon="0.29849">
        <ele>1414</ele>
        <time>2019-08-23T08:24:14Z</time>
      </trkpt>
      <trkpt lat="42.96393" lon="0.29846">
        <ele>1414.4000244141</ele>
        <time>2019-08-23T08:24:15Z</time>
      </trkpt>
      <trkpt lat="42.96393" lon="0.29842">
        <ele>1414.8000488281</ele>
        <time>2019-08-23T08:24:16Z</time>
      </trkpt>
      <trkpt lat="42.96393" lon="0.29839">
        <ele>1415.1999511719</ele>
        <time>2019-08-23T08:24:17Z</time>
      </trkpt>
      <trkpt lat="42.96394" lon="0.29836">
        <ele>1415.5999755859</ele>
        <time>2019-08-23T08:24:18Z</time>
      </trkpt>
      <trkpt lat="42.96395" lon="0.29834">
        <ele>1415.5999755859</ele>
        <time>2019-08-23T08:24:19Z</time>
      </trkpt>
      <trkpt lat="42.96397" lon="0.29816">
        <ele>1415.5999755859</ele>
        <time>2019-08-23T08:24:25Z</time>
      </trkpt>
      <trkpt lat="42.964" lon="0.29797">
        <ele>1416</ele>
        <time>2019-08-23T08:24:31Z</time>
      </trkpt>
      <trkpt lat="42.96399" lon="0.29793">
        <ele>1416.4000244141</ele>
        <time>2019-08-23T08:24:32Z</time>
      </trkpt>
      <trkpt lat="42.964" lon="0.2979">
        <ele>1416.8000488281</ele>
        <time>2019-08-23T08:24:33Z</time>
      </trkpt>
      <trkpt lat="42.964" lon="0.29787">
        <ele>1417.1999511719</ele>
        <time>2019-08-23T08:24:34Z</time>
      </trkpt>
      <trkpt lat="42.964" lon="0.29784">
        <ele>1417.5999755859</ele>
        <time>2019-08-23T08:24:35Z</time>
      </trkpt>
      <trkpt lat="42.96401" lon="0.29777">
        <ele>1417.5999755859</ele>
        <time>2019-08-23T08:24:37Z</time>
      </trkpt>
      <trkpt lat="42.96403" lon="0.29758">
        <ele>1417.5999755859</ele>
        <time>2019-08-23T08:24:43Z</time>
      </trkpt>
      <trkpt lat="42.96407" lon="0.29727">
        <ele>1417.5999755859</ele>
        <time>2019-08-23T08:24:52Z</time>
      </trkpt>
      <trkpt lat="42.96408" lon="0.29714">
        <ele>1418</ele>
        <time>2019-08-23T08:24:56Z</time>
      </trkpt>
      <trkpt lat="42.96409" lon="0.2971">
        <ele>1418.4000244141</ele>
        <time>2019-08-23T08:24:57Z</time>
      </trkpt>
      <trkpt lat="42.96409" lon="0.29707">
        <ele>1418.8000488281</ele>
        <time>2019-08-23T08:24:58Z</time>
      </trkpt>
      <trkpt lat="42.9641" lon="0.29703">
        <ele>1419.5999755859</ele>
        <time>2019-08-23T08:24:59Z</time>
      </trkpt>
      <trkpt lat="42.96412" lon="0.29679">
        <ele>1419.5999755859</ele>
        <time>2019-08-23T08:25:06Z</time>
      </trkpt>
      <trkpt lat="42.96419" lon="0.29656">
        <ele>1420.1999511719</ele>
        <time>2019-08-23T08:25:14Z</time>
      </trkpt>
      <trkpt lat="42.9642" lon="0.29653">
        <ele>1420.5999755859</ele>
        <time>2019-08-23T08:25:15Z</time>
      </trkpt>
      <trkpt lat="42.96421" lon="0.29651">
        <ele>1421</ele>
        <time>2019-08-23T08:25:16Z</time>
      </trkpt>
      <trkpt lat="42.96423" lon="0.29648">
        <ele>1421.4000244141</ele>
        <time>2019-08-23T08:25:17Z</time>
      </trkpt>
      <trkpt lat="42.96424" lon="0.29646">
        <ele>1421.8000488281</ele>
        <time>2019-08-23T08:25:18Z</time>
      </trkpt>
      <trkpt lat="42.96426" lon="0.29642">
        <ele>1421.8000488281</ele>
        <time>2019-08-23T08:25:20Z</time>
      </trkpt>
      <trkpt lat="42.96436" lon="0.29627">
        <ele>1422.4000244141</ele>
        <time>2019-08-23T08:25:27Z</time>
      </trkpt>
      <trkpt lat="42.96438" lon="0.29626">
        <ele>1422.8000488281</ele>
        <time>2019-08-23T08:25:28Z</time>
      </trkpt>
      <trkpt lat="42.96439" lon="0.29624">
        <ele>1423.1999511719</ele>
        <time>2019-08-23T08:25:29Z</time>
      </trkpt>
      <trkpt lat="42.96441" lon="0.29622">
        <ele>1423.5999755859</ele>
        <time>2019-08-23T08:25:30Z</time>
      </trkpt>
      <trkpt lat="42.96442" lon="0.29621">
        <ele>1424.1999511719</ele>
        <time>2019-08-23T08:25:31Z</time>
      </trkpt>
      <trkpt lat="42.96454" lon="0.29611">
        <ele>1424.1999511719</ele>
        <time>2019-08-23T08:25:38Z</time>
      </trkpt>
      <trkpt lat="42.96466" lon="0.296">
        <ele>1424.5999755859</ele>
        <time>2019-08-23T08:25:44Z</time>
      </trkpt>
      <trkpt lat="42.96468" lon="0.29598">
        <ele>1425</ele>
        <time>2019-08-23T08:25:45Z</time>
      </trkpt>
      <trkpt lat="42.96469" lon="0.29595">
        <ele>1425.4000244141</ele>
        <time>2019-08-23T08:25:46Z</time>
      </trkpt>
      <trkpt lat="42.96469" lon="0.29592">
        <ele>1425.8000488281</ele>
        <time>2019-08-23T08:25:47Z</time>
      </trkpt>
      <trkpt lat="42.9647" lon="0.2959">
        <ele>1426.1999511719</ele>
        <time>2019-08-23T08:25:48Z</time>
      </trkpt>
      <trkpt lat="42.96471" lon="0.29584">
        <ele>1426.1999511719</ele>
        <time>2019-08-23T08:25:50Z</time>
      </trkpt>
      <trkpt lat="42.96472" lon="0.29572">
        <ele>1426.5999755859</ele>
        <time>2019-08-23T08:25:54Z</time>
      </trkpt>
      <trkpt lat="42.96472" lon="0.2957">
        <ele>1427</ele>
        <time>2019-08-23T08:25:55Z</time>
      </trkpt>
      <trkpt lat="42.96471" lon="0.29567">
        <ele>1427.4000244141</ele>
        <time>2019-08-23T08:25:56Z</time>
      </trkpt>
      <trkpt lat="42.96471" lon="0.29564">
        <ele>1427.8000488281</ele>
        <time>2019-08-23T08:25:57Z</time>
      </trkpt>
      <trkpt lat="42.9647" lon="0.29561">
        <ele>1428.1999511719</ele>
        <time>2019-08-23T08:25:58Z</time>
      </trkpt>
      <trkpt lat="42.96467" lon="0.29539">
        <ele>1428.1999511719</ele>
        <time>2019-08-23T08:26:06Z</time>
      </trkpt>
      <trkpt lat="42.96466" lon="0.29536">
        <ele>1428.5999755859</ele>
        <time>2019-08-23T08:26:07Z</time>
      </trkpt>
      <trkpt lat="42.96465" lon="0.29534">
        <ele>1429.1999511719</ele>
        <time>2019-08-23T08:26:08Z</time>
      </trkpt>
      <trkpt lat="42.96464" lon="0.29532">
        <ele>1429.5999755859</ele>
        <time>2019-08-23T08:26:09Z</time>
      </trkpt>
      <trkpt lat="42.96463" lon="0.29529">
        <ele>1430</ele>
        <time>2019-08-23T08:26:10Z</time>
      </trkpt>
      <trkpt lat="42.96462" lon="0.29527">
        <ele>1430.4000244141</ele>
        <time>2019-08-23T08:26:11Z</time>
      </trkpt>
      <trkpt lat="42.96462" lon="0.29525">
        <ele>1430.4000244141</ele>
        <time>2019-08-23T08:26:12Z</time>
      </trkpt>
      <trkpt lat="42.9646" lon="0.29508">
        <ele>1430.4000244141</ele>
        <time>2019-08-23T08:26:19Z</time>
      </trkpt>
      <trkpt lat="42.96459" lon="0.29504">
        <ele>1430.8000488281</ele>
        <time>2019-08-23T08:26:21Z</time>
      </trkpt>
      <trkpt lat="42.96459" lon="0.29501">
        <ele>1431.1999511719</ele>
        <time>2019-08-23T08:26:22Z</time>
      </trkpt>
      <trkpt lat="42.9646" lon="0.29499">
        <ele>1431.5999755859</ele>
        <time>2019-08-23T08:26:23Z</time>
      </trkpt>
      <trkpt lat="42.96461" lon="0.29497">
        <ele>1432.1999511719</ele>
        <time>2019-08-23T08:26:24Z</time>
      </trkpt>
      <trkpt lat="42.96462" lon="0.29495">
        <ele>1432.5999755859</ele>
        <time>2019-08-23T08:26:25Z</time>
      </trkpt>
      <trkpt lat="42.96463" lon="0.29493">
        <ele>1432.5999755859</ele>
        <time>2019-08-23T08:26:26Z</time>
      </trkpt>
      <trkpt lat="42.96466" lon="0.29487">
        <ele>1433</ele>
        <time>2019-08-23T08:26:29Z</time>
      </trkpt>
      <trkpt lat="42.96467" lon="0.29486">
        <ele>1433.4000244141</ele>
        <time>2019-08-23T08:26:30Z</time>
      </trkpt>
      <trkpt lat="42.96468" lon="0.29485">
        <ele>1433.8000488281</ele>
        <time>2019-08-23T08:26:31Z</time>
      </trkpt>
      <trkpt lat="42.9647" lon="0.29484">
        <ele>1434.1999511719</ele>
        <time>2019-08-23T08:26:32Z</time>
      </trkpt>
      <trkpt lat="42.96471" lon="0.29482">
        <ele>1434.8000488281</ele>
        <time>2019-08-23T08:26:33Z</time>
      </trkpt>
      <trkpt lat="42.9648" lon="0.29483">
        <ele>1434.8000488281</ele>
        <time>2019-08-23T08:26:38Z</time>
      </trkpt>
      <trkpt lat="42.9649" lon="0.29491">
        <ele>1435.1999511719</ele>
        <time>2019-08-23T08:26:44Z</time>
      </trkpt>
      <trkpt lat="42.96491" lon="0.29493">
        <ele>1435.5999755859</ele>
        <time>2019-08-23T08:26:45Z</time>
      </trkpt>
      <trkpt lat="42.96492" lon="0.29495">
        <ele>1436</ele>
        <time>2019-08-23T08:26:46Z</time>
      </trkpt>
      <trkpt lat="42.96494" lon="0.29497">
        <ele>1436.4000244141</ele>
        <time>2019-08-23T08:26:47Z</time>
      </trkpt>
      <trkpt lat="42.96495" lon="0.29499">
        <ele>1436.8000488281</ele>
        <time>2019-08-23T08:26:48Z</time>
      </trkpt>
      <trkpt lat="42.96497" lon="0.29505">
        <ele>1436.8000488281</ele>
        <time>2019-08-23T08:26:51Z</time>
      </trkpt>
      <trkpt lat="42.965" lon="0.29521">
        <ele>1436.8000488281</ele>
        <time>2019-08-23T08:26:57Z</time>
      </trkpt>
      <trkpt lat="42.96501" lon="0.29523">
        <ele>1437.1999511719</ele>
        <time>2019-08-23T08:26:58Z</time>
      </trkpt>
      <trkpt lat="42.96501" lon="0.29526">
        <ele>1437.5999755859</ele>
        <time>2019-08-23T08:26:59Z</time>
      </trkpt>
      <trkpt lat="42.96502" lon="0.29528">
        <ele>1438</ele>
        <time>2019-08-23T08:27:00Z</time>
      </trkpt>
      <trkpt lat="42.96503" lon="0.2953">
        <ele>1438.4000244141</ele>
        <time>2019-08-23T08:27:01Z</time>
      </trkpt>
      <trkpt lat="42.96504" lon="0.29532">
        <ele>1438.8000488281</ele>
        <time>2019-08-23T08:27:02Z</time>
      </trkpt>
      <trkpt lat="42.96505" lon="0.29539">
        <ele>1438.8000488281</ele>
        <time>2019-08-23T08:27:05Z</time>
      </trkpt>
      <trkpt lat="42.96508" lon="0.29546">
        <ele>1438.8000488281</ele>
        <time>2019-08-23T08:27:08Z</time>
      </trkpt>
      <trkpt lat="42.96509" lon="0.29553">
        <ele>1439.1999511719</ele>
        <time>2019-08-23T08:27:11Z</time>
      </trkpt>
      <trkpt lat="42.9651" lon="0.29555">
        <ele>1439.5999755859</ele>
        <time>2019-08-23T08:27:12Z</time>
      </trkpt>
      <trkpt lat="42.9651" lon="0.29558">
        <ele>1440</ele>
        <time>2019-08-23T08:27:13Z</time>
      </trkpt>
      <trkpt lat="42.96511" lon="0.2956">
        <ele>1440.4000244141</ele>
        <time>2019-08-23T08:27:14Z</time>
      </trkpt>
      <trkpt lat="42.96513" lon="0.29562">
        <ele>1440.8000488281</ele>
        <time>2019-08-23T08:27:15Z</time>
      </trkpt>
      <trkpt lat="42.96515" lon="0.29571">
        <ele>1440.8000488281</ele>
        <time>2019-08-23T08:27:19Z</time>
      </trkpt>
      <trkpt lat="42.9652" lon="0.29583">
        <ele>1440.8000488281</ele>
        <time>2019-08-23T08:27:25Z</time>
      </trkpt>
      <trkpt lat="42.96522" lon="0.29585">
        <ele>1441.4000244141</ele>
        <time>2019-08-23T08:27:26Z</time>
      </trkpt>
      <trkpt lat="42.96523" lon="0.29586">
        <ele>1442.1999511719</ele>
        <time>2019-08-23T08:27:27Z</time>
      </trkpt>
      <trkpt lat="42.96525" lon="0.29585">
        <ele>1442.5999755859</ele>
        <time>2019-08-23T08:27:28Z</time>
      </trkpt>
      <trkpt lat="42.96527" lon="0.29586">
        <ele>1443</ele>
        <time>2019-08-23T08:27:29Z</time>
      </trkpt>
      <trkpt lat="42.96532" lon="0.29579">
        <ele>1443</ele>
        <time>2019-08-23T08:27:33Z</time>
      </trkpt>
      <trkpt lat="42.96532" lon="0.29577">
        <ele>1443</ele>
        <time>2019-08-23T08:27:34Z</time>
      </trkpt>
      <trkpt lat="42.96532" lon="0.29568">
        <ele>1443.4000244141</ele>
        <time>2019-08-23T08:27:37Z</time>
      </trkpt>
      <trkpt lat="42.96531" lon="0.29566">
        <ele>1443.8000488281</ele>
        <time>2019-08-23T08:27:38Z</time>
      </trkpt>
      <trkpt lat="42.96531" lon="0.29563">
        <ele>1444.1999511719</ele>
        <time>2019-08-23T08:27:39Z</time>
      </trkpt>
      <trkpt lat="42.9653" lon="0.2956">
        <ele>1444.5999755859</ele>
        <time>2019-08-23T08:27:40Z</time>
      </trkpt>
      <trkpt lat="42.9653" lon="0.29558">
        <ele>1445</ele>
        <time>2019-08-23T08:27:41Z</time>
      </trkpt>
      <trkpt lat="42.96526" lon="0.29541">
        <ele>1445</ele>
        <time>2019-08-23T08:27:47Z</time>
      </trkpt>
      <trkpt lat="42.96525" lon="0.29526">
        <ele>1445</ele>
        <time>2019-08-23T08:27:53Z</time>
      </trkpt>
      <trkpt lat="42.96525" lon="0.29515">
        <ele>1445.5999755859</ele>
        <time>2019-08-23T08:27:57Z</time>
      </trkpt>
      <trkpt lat="42.96525" lon="0.29513">
        <ele>1446</ele>
        <time>2019-08-23T08:27:58Z</time>
      </trkpt>
      <trkpt lat="42.96526" lon="0.2951">
        <ele>1446.4000244141</ele>
        <time>2019-08-23T08:27:59Z</time>
      </trkpt>
      <trkpt lat="42.96526" lon="0.29508">
        <ele>1446.8000488281</ele>
        <time>2019-08-23T08:28:00Z</time>
      </trkpt>
      <trkpt lat="42.96526" lon="0.29506">
        <ele>1447.1999511719</ele>
        <time>2019-08-23T08:28:01Z</time>
      </trkpt>
      <trkpt lat="42.96529" lon="0.29492">
        <ele>1447.1999511719</ele>
        <time>2019-08-23T08:28:07Z</time>
      </trkpt>
      <trkpt lat="42.96531" lon="0.29488">
        <ele>1447.5999755859</ele>
        <time>2019-08-23T08:28:09Z</time>
      </trkpt>
      <trkpt lat="42.96531" lon="0.29486">
        <ele>1448</ele>
        <time>2019-08-23T08:28:10Z</time>
      </trkpt>
      <trkpt lat="42.96532" lon="0.29484">
        <ele>1448.4000244141</ele>
        <time>2019-08-23T08:28:11Z</time>
      </trkpt>
      <trkpt lat="42.96533" lon="0.29482">
        <ele>1448.8000488281</ele>
        <time>2019-08-23T08:28:12Z</time>
      </trkpt>
      <trkpt lat="42.96534" lon="0.2948">
        <ele>1449.1999511719</ele>
        <time>2019-08-23T08:28:13Z</time>
      </trkpt>
      <trkpt lat="42.96536" lon="0.29476">
        <ele>1449.1999511719</ele>
        <time>2019-08-23T08:28:15Z</time>
      </trkpt>
      <trkpt lat="42.9654" lon="0.29464">
        <ele>1449.5999755859</ele>
        <time>2019-08-23T08:28:21Z</time>
      </trkpt>
      <trkpt lat="42.96541" lon="0.29462">
        <ele>1450.1999511719</ele>
        <time>2019-08-23T08:28:22Z</time>
      </trkpt>
      <trkpt lat="42.96542" lon="0.2946">
        <ele>1450.5999755859</ele>
        <time>2019-08-23T08:28:23Z</time>
      </trkpt>
      <trkpt lat="42.96543" lon="0.29458">
        <ele>1451</ele>
        <time>2019-08-23T08:28:24Z</time>
      </trkpt>
      <trkpt lat="42.96544" lon="0.29457">
        <ele>1451.4000244141</ele>
        <time>2019-08-23T08:28:25Z</time>
      </trkpt>
      <trkpt lat="42.96548" lon="0.2945">
        <ele>1451.4000244141</ele>
        <time>2019-08-23T08:28:29Z</time>
      </trkpt>
      <trkpt lat="42.9655" lon="0.29446">
        <ele>1451.8000488281</ele>
        <time>2019-08-23T08:28:31Z</time>
      </trkpt>
      <trkpt lat="42.9655" lon="0.29444">
        <ele>1452.1999511719</ele>
        <time>2019-08-23T08:28:32Z</time>
      </trkpt>
      <trkpt lat="42.96551" lon="0.29441">
        <ele>1452.5999755859</ele>
        <time>2019-08-23T08:28:33Z</time>
      </trkpt>
      <trkpt lat="42.96552" lon="0.2944">
        <ele>1453</ele>
        <time>2019-08-23T08:28:34Z</time>
      </trkpt>
      <trkpt lat="42.96552" lon="0.29438">
        <ele>1453.4000244141</ele>
        <time>2019-08-23T08:28:35Z</time>
      </trkpt>
      <trkpt lat="42.9655" lon="0.29429">
        <ele>1453.4000244141</ele>
        <time>2019-08-23T08:28:39Z</time>
      </trkpt>
      <trkpt lat="42.96549" lon="0.29426">
        <ele>1453.4000244141</ele>
        <time>2019-08-23T08:28:40Z</time>
      </trkpt>
      <trkpt lat="42.96548" lon="0.29425">
        <ele>1453.8000488281</ele>
        <time>2019-08-23T08:28:41Z</time>
      </trkpt>
      <trkpt lat="42.96547" lon="0.29422">
        <ele>1454.1999511719</ele>
        <time>2019-08-23T08:28:42Z</time>
      </trkpt>
      <trkpt lat="42.96546" lon="0.2942">
        <ele>1454.5999755859</ele>
        <time>2019-08-23T08:28:43Z</time>
      </trkpt>
      <trkpt lat="42.96544" lon="0.29419">
        <ele>1455</ele>
        <time>2019-08-23T08:28:44Z</time>
      </trkpt>
      <trkpt lat="42.96542" lon="0.29417">
        <ele>1455.4000244141</ele>
        <time>2019-08-23T08:28:45Z</time>
      </trkpt>
      <trkpt lat="42.96541" lon="0.29416">
        <ele>1455.4000244141</ele>
        <time>2019-08-23T08:28:46Z</time>
      </trkpt>
      <trkpt lat="42.9653" lon="0.29406">
        <ele>1456</ele>
        <time>2019-08-23T08:28:54Z</time>
      </trkpt>
      <trkpt lat="42.96529" lon="0.29404">
        <ele>1456.4000244141</ele>
        <time>2019-08-23T08:28:55Z</time>
      </trkpt>
      <trkpt lat="42.96528" lon="0.29403">
        <ele>1456.8000488281</ele>
        <time>2019-08-23T08:28:56Z</time>
      </trkpt>
      <trkpt lat="42.96527" lon="0.29402">
        <ele>1457.1999511719</ele>
        <time>2019-08-23T08:28:57Z</time>
      </trkpt>
      <trkpt lat="42.96526" lon="0.29401">
        <ele>1457.5999755859</ele>
        <time>2019-08-23T08:28:58Z</time>
      </trkpt>
      <trkpt lat="42.96523" lon="0.294">
        <ele>1457.5999755859</ele>
        <time>2019-08-23T08:29:00Z</time>
      </trkpt>
      <trkpt lat="42.96515" lon="0.29397">
        <ele>1458.4000244141</ele>
        <time>2019-08-23T08:29:06Z</time>
      </trkpt>
      <trkpt lat="42.96514" lon="0.29396">
        <ele>1458.8000488281</ele>
        <time>2019-08-23T08:29:07Z</time>
      </trkpt>
      <trkpt lat="42.96513" lon="0.29395">
        <ele>1459.1999511719</ele>
        <time>2019-08-23T08:29:08Z</time>
      </trkpt>
      <trkpt lat="42.96511" lon="0.29395">
        <ele>1459.5999755859</ele>
        <time>2019-08-23T08:29:09Z</time>
      </trkpt>
      <trkpt lat="42.9651" lon="0.29397">
        <ele>1459.5999755859</ele>
        <time>2019-08-23T08:29:10Z</time>
      </trkpt>
      <trkpt lat="42.96505" lon="0.29396">
        <ele>1460.1999511719</ele>
        <time>2019-08-23T08:29:13Z</time>
      </trkpt>
      <trkpt lat="42.96504" lon="0.29397">
        <ele>1461</ele>
        <time>2019-08-23T08:29:14Z</time>
      </trkpt>
      <trkpt lat="42.96502" lon="0.29397">
        <ele>1461.5999755859</ele>
        <time>2019-08-23T08:29:15Z</time>
      </trkpt>
      <trkpt lat="42.96501" lon="0.29397">
        <ele>1462.1999511719</ele>
        <time>2019-08-23T08:29:16Z</time>
      </trkpt>
      <trkpt lat="42.96499" lon="0.29396">
        <ele>1462.8000488281</ele>
        <time>2019-08-23T08:29:17Z</time>
      </trkpt>
      <trkpt lat="42.96494" lon="0.29398">
        <ele>1462.8000488281</ele>
        <time>2019-08-23T08:29:20Z</time>
      </trkpt>
      <trkpt lat="42.96481" lon="0.29399">
        <ele>1462.8000488281</ele>
        <time>2019-08-23T08:29:28Z</time>
      </trkpt>
      <trkpt lat="42.96477" lon="0.29399">
        <ele>1462.8000488281</ele>
        <time>2019-08-23T08:29:30Z</time>
      </trkpt>
      <trkpt lat="42.9647" lon="0.29398">
        <ele>1462.8000488281</ele>
        <time>2019-08-23T08:29:35Z</time>
      </trkpt>
      <trkpt lat="42.96458" lon="0.29397">
        <ele>1462.8000488281</ele>
        <time>2019-08-23T08:29:42Z</time>
      </trkpt>
      <trkpt lat="42.96456" lon="0.29397">
        <ele>1463.4000244141</ele>
        <time>2019-08-23T08:29:43Z</time>
      </trkpt>
      <trkpt lat="42.96455" lon="0.29396">
        <ele>1463.8000488281</ele>
        <time>2019-08-23T08:29:44Z</time>
      </trkpt>
      <trkpt lat="42.96453" lon="0.29395">
        <ele>1464.1999511719</ele>
        <time>2019-08-23T08:29:45Z</time>
      </trkpt>
      <trkpt lat="42.96452" lon="0.29394">
        <ele>1464.5999755859</ele>
        <time>2019-08-23T08:29:46Z</time>
      </trkpt>
      <trkpt lat="42.9645" lon="0.29393">
        <ele>1465</ele>
        <time>2019-08-23T08:29:47Z</time>
      </trkpt>
      <trkpt lat="42.96449" lon="0.29393">
        <ele>1465</ele>
        <time>2019-08-23T08:29:48Z</time>
      </trkpt>
      <trkpt lat="42.96441" lon="0.29381">
        <ele>1465</ele>
        <time>2019-08-23T08:29:55Z</time>
      </trkpt>
      <trkpt lat="42.96439" lon="0.29373">
        <ele>1465.4000244141</ele>
        <time>2019-08-23T08:29:59Z</time>
      </trkpt>
      <trkpt lat="42.96438" lon="0.2937">
        <ele>1465.8000488281</ele>
        <time>2019-08-23T08:30:00Z</time>
      </trkpt>
      <trkpt lat="42.96438" lon="0.29368">
        <ele>1466.1999511719</ele>
        <time>2019-08-23T08:30:01Z</time>
      </trkpt>
      <trkpt lat="42.96438" lon="0.29366">
        <ele>1466.8000488281</ele>
        <time>2019-08-23T08:30:02Z</time>
      </trkpt>
      <trkpt lat="42.96438" lon="0.29364">
        <ele>1467.1999511719</ele>
        <time>2019-08-23T08:30:03Z</time>
      </trkpt>
      <trkpt lat="42.96438" lon="0.29347">
        <ele>1467.1999511719</ele>
        <time>2019-08-23T08:30:11Z</time>
      </trkpt>
      <trkpt lat="42.96438" lon="0.29345">
        <ele>1467.5999755859</ele>
        <time>2019-08-23T08:30:12Z</time>
      </trkpt>
      <trkpt lat="42.96438" lon="0.29342">
        <ele>1468</ele>
        <time>2019-08-23T08:30:13Z</time>
      </trkpt>
      <trkpt lat="42.96439" lon="0.2934">
        <ele>1468.4000244141</ele>
        <time>2019-08-23T08:30:14Z</time>
      </trkpt>
      <trkpt lat="42.96438" lon="0.29338">
        <ele>1468.8000488281</ele>
        <time>2019-08-23T08:30:15Z</time>
      </trkpt>
      <trkpt lat="42.96438" lon="0.29336">
        <ele>1469.1999511719</ele>
        <time>2019-08-23T08:30:16Z</time>
      </trkpt>
      <trkpt lat="42.96437" lon="0.29332">
        <ele>1469.1999511719</ele>
        <time>2019-08-23T08:30:18Z</time>
      </trkpt>
      <trkpt lat="42.96438" lon="0.29319">
        <ele>1469.5999755859</ele>
        <time>2019-08-23T08:30:23Z</time>
      </trkpt>
      <trkpt lat="42.96438" lon="0.29317">
        <ele>1470</ele>
        <time>2019-08-23T08:30:24Z</time>
      </trkpt>
      <trkpt lat="42.96439" lon="0.29315">
        <ele>1470.4000244141</ele>
        <time>2019-08-23T08:30:25Z</time>
      </trkpt>
      <trkpt lat="42.96439" lon="0.29313">
        <ele>1470.8000488281</ele>
        <time>2019-08-23T08:30:26Z</time>
      </trkpt>
      <trkpt lat="42.9644" lon="0.29311">
        <ele>1471.1999511719</ele>
        <time>2019-08-23T08:30:27Z</time>
      </trkpt>
      <trkpt lat="42.9644" lon="0.29304">
        <ele>1471.1999511719</ele>
        <time>2019-08-23T08:30:30Z</time>
      </trkpt>
      <trkpt lat="42.9644" lon="0.29291">
        <ele>1471.5999755859</ele>
        <time>2019-08-23T08:30:36Z</time>
      </trkpt>
      <trkpt lat="42.96441" lon="0.29289">
        <ele>1472</ele>
        <time>2019-08-23T08:30:37Z</time>
      </trkpt>
      <trkpt lat="42.96441" lon="0.29287">
        <ele>1472.4000244141</ele>
        <time>2019-08-23T08:30:38Z</time>
      </trkpt>
      <trkpt lat="42.96441" lon="0.29285">
        <ele>1472.8000488281</ele>
        <time>2019-08-23T08:30:39Z</time>
      </trkpt>
      <trkpt lat="42.96441" lon="0.29282">
        <ele>1473.1999511719</ele>
        <time>2019-08-23T08:30:40Z</time>
      </trkpt>
      <trkpt lat="42.96443" lon="0.29268">
        <ele>1473.1999511719</ele>
        <time>2019-08-23T08:30:47Z</time>
      </trkpt>
      <trkpt lat="42.96447" lon="0.29251">
        <ele>1473.1999511719</ele>
        <time>2019-08-23T08:30:55Z</time>
      </trkpt>
      <trkpt lat="42.96448" lon="0.29249">
        <ele>1473.5999755859</ele>
        <time>2019-08-23T08:30:56Z</time>
      </trkpt>
      <trkpt lat="42.9645" lon="0.29247">
        <ele>1474</ele>
        <time>2019-08-23T08:30:57Z</time>
      </trkpt>
      <trkpt lat="42.96451" lon="0.29246">
        <ele>1474.5999755859</ele>
        <time>2019-08-23T08:30:58Z</time>
      </trkpt>
      <trkpt lat="42.96452" lon="0.29244">
        <ele>1475</ele>
        <time>2019-08-23T08:30:59Z</time>
      </trkpt>
      <trkpt lat="42.96453" lon="0.29242">
        <ele>1475.4000244141</ele>
        <time>2019-08-23T08:31:00Z</time>
      </trkpt>
      <trkpt lat="42.96457" lon="0.29237">
        <ele>1475.4000244141</ele>
        <time>2019-08-23T08:31:03Z</time>
      </trkpt>
      <trkpt lat="42.96463" lon="0.29231">
        <ele>1475.8000488281</ele>
        <time>2019-08-23T08:31:07Z</time>
      </trkpt>
      <trkpt lat="42.96465" lon="0.2923">
        <ele>1476.1999511719</ele>
        <time>2019-08-23T08:31:08Z</time>
      </trkpt>
      <trkpt lat="42.96466" lon="0.2923">
        <ele>1476.5999755859</ele>
        <time>2019-08-23T08:31:09Z</time>
      </trkpt>
      <trkpt lat="42.96468" lon="0.29229">
        <ele>1477.4000244141</ele>
        <time>2019-08-23T08:31:10Z</time>
      </trkpt>
      <trkpt lat="42.9647" lon="0.29228">
        <ele>1477.4000244141</ele>
        <time>2019-08-23T08:31:11Z</time>
      </trkpt>
      <trkpt lat="42.96483" lon="0.29217">
        <ele>1477.4000244141</ele>
        <time>2019-08-23T08:31:20Z</time>
      </trkpt>
      <trkpt lat="42.96486" lon="0.29215">
        <ele>1477.8000488281</ele>
        <time>2019-08-23T08:31:22Z</time>
      </trkpt>
      <trkpt lat="42.96488" lon="0.29213">
        <ele>1478.1999511719</ele>
        <time>2019-08-23T08:31:23Z</time>
      </trkpt>
      <trkpt lat="42.9649" lon="0.29212">
        <ele>1478.5999755859</ele>
        <time>2019-08-23T08:31:24Z</time>
      </trkpt>
      <trkpt lat="42.96491" lon="0.2921">
        <ele>1479</ele>
        <time>2019-08-23T08:31:25Z</time>
      </trkpt>
      <trkpt lat="42.96493" lon="0.29209">
        <ele>1479.4000244141</ele>
        <time>2019-08-23T08:31:26Z</time>
      </trkpt>
      <trkpt lat="42.96496" lon="0.29206">
        <ele>1479.4000244141</ele>
        <time>2019-08-23T08:31:28Z</time>
      </trkpt>
      <trkpt lat="42.96508" lon="0.29194">
        <ele>1479.4000244141</ele>
        <time>2019-08-23T08:31:36Z</time>
      </trkpt>
      <trkpt lat="42.96513" lon="0.29186">
        <ele>1480</ele>
        <time>2019-08-23T08:31:40Z</time>
      </trkpt>
      <trkpt lat="42.96514" lon="0.29184">
        <ele>1480.4000244141</ele>
        <time>2019-08-23T08:31:41Z</time>
      </trkpt>
      <trkpt lat="42.96515" lon="0.29182">
        <ele>1480.8000488281</ele>
        <time>2019-08-23T08:31:42Z</time>
      </trkpt>
      <trkpt lat="42.96516" lon="0.29179">
        <ele>1481.1999511719</ele>
        <time>2019-08-23T08:31:43Z</time>
      </trkpt>
      <trkpt lat="42.96517" lon="0.29177">
        <ele>1481.5999755859</ele>
        <time>2019-08-23T08:31:44Z</time>
      </trkpt>
      <trkpt lat="42.96517" lon="0.29175">
        <ele>1481.5999755859</ele>
        <time>2019-08-23T08:31:45Z</time>
      </trkpt>
      <trkpt lat="42.96521" lon="0.29154">
        <ele>1481.5999755859</ele>
        <time>2019-08-23T08:31:53Z</time>
      </trkpt>
      <trkpt lat="42.96524" lon="0.29128">
        <ele>1481.5999755859</ele>
        <time>2019-08-23T08:32:03Z</time>
      </trkpt>
      <trkpt lat="42.96526" lon="0.29113">
        <ele>1481.5999755859</ele>
        <time>2019-08-23T08:32:09Z</time>
      </trkpt>
      <trkpt lat="42.96527" lon="0.29106">
        <ele>1481.5999755859</ele>
        <time>2019-08-23T08:32:12Z</time>
      </trkpt>
      <trkpt lat="42.96528" lon="0.29101">
        <ele>1482</ele>
        <time>2019-08-23T08:32:14Z</time>
      </trkpt>
      <trkpt lat="42.96529" lon="0.29099">
        <ele>1482.4000244141</ele>
        <time>2019-08-23T08:32:15Z</time>
      </trkpt>
      <trkpt lat="42.9653" lon="0.29096">
        <ele>1482.8000488281</ele>
        <time>2019-08-23T08:32:16Z</time>
      </trkpt>
      <trkpt lat="42.96531" lon="0.29094">
        <ele>1483.1999511719</ele>
        <time>2019-08-23T08:32:17Z</time>
      </trkpt>
      <trkpt lat="42.96531" lon="0.29092">
        <ele>1483.8000488281</ele>
        <time>2019-08-23T08:32:18Z</time>
      </trkpt>
      <trkpt lat="42.96535" lon="0.2908">
        <ele>1483.8000488281</ele>
        <time>2019-08-23T08:32:23Z</time>
      </trkpt>
      <trkpt lat="42.96541" lon="0.29061">
        <ele>1483.8000488281</ele>
        <time>2019-08-23T08:32:31Z</time>
      </trkpt>
      <trkpt lat="42.96547" lon="0.29046">
        <ele>1483.8000488281</ele>
        <time>2019-08-23T08:32:38Z</time>
      </trkpt>
      <trkpt lat="42.96552" lon="0.29033">
        <ele>1483.8000488281</ele>
        <time>2019-08-23T08:32:44Z</time>
      </trkpt>
      <trkpt lat="42.96554" lon="0.29029">
        <ele>1484.1999511719</ele>
        <time>2019-08-23T08:32:46Z</time>
      </trkpt>
      <trkpt lat="42.96554" lon="0.29027">
        <ele>1484.5999755859</ele>
        <time>2019-08-23T08:32:47Z</time>
      </trkpt>
      <trkpt lat="42.96555" lon="0.29025">
        <ele>1485.4000244141</ele>
        <time>2019-08-23T08:32:48Z</time>
      </trkpt>
      <trkpt lat="42.96556" lon="0.29023">
        <ele>1485.8000488281</ele>
        <time>2019-08-23T08:32:49Z</time>
      </trkpt>
      <trkpt lat="42.96565" lon="0.29009">
        <ele>1485.8000488281</ele>
        <time>2019-08-23T08:32:57Z</time>
      </trkpt>
      <trkpt lat="42.96571" lon="0.28999">
        <ele>1485.8000488281</ele>
        <time>2019-08-23T08:33:03Z</time>
      </trkpt>
      <trkpt lat="42.96578" lon="0.28987">
        <ele>1485.8000488281</ele>
        <time>2019-08-23T08:33:10Z</time>
      </trkpt>
      <trkpt lat="42.96584" lon="0.2898">
        <ele>1485.8000488281</ele>
        <time>2019-08-23T08:33:16Z</time>
      </trkpt>
      <trkpt lat="42.96588" lon="0.28971">
        <ele>1485.8000488281</ele>
        <time>2019-08-23T08:33:21Z</time>
      </trkpt>
      <trkpt lat="42.96589" lon="0.28969">
        <ele>1485.8000488281</ele>
        <time>2019-08-23T08:33:22Z</time>
      </trkpt>
      <trkpt lat="42.96595" lon="0.2896">
        <ele>1485.8000488281</ele>
        <time>2019-08-23T08:33:26Z</time>
      </trkpt>
      <trkpt lat="42.96607" lon="0.28943">
        <ele>1485.8000488281</ele>
        <time>2019-08-23T08:33:32Z</time>
      </trkpt>
      <trkpt lat="42.96625" lon="0.28919">
        <ele>1485.8000488281</ele>
        <time>2019-08-23T08:33:39Z</time>
      </trkpt>
      <trkpt lat="42.96629" lon="0.28915">
        <ele>1485.4000244141</ele>
        <time>2019-08-23T08:33:40Z</time>
      </trkpt>
      <trkpt lat="42.96632" lon="0.28911">
        <ele>1485</ele>
        <time>2019-08-23T08:33:41Z</time>
      </trkpt>
      <trkpt lat="42.96635" lon="0.28907">
        <ele>1484.5999755859</ele>
        <time>2019-08-23T08:33:42Z</time>
      </trkpt>
      <trkpt lat="42.96638" lon="0.28904">
        <ele>1484.1999511719</ele>
        <time>2019-08-23T08:33:43Z</time>
      </trkpt>
      <trkpt lat="42.96641" lon="0.289">
        <ele>1483.8000488281</ele>
        <time>2019-08-23T08:33:44Z</time>
      </trkpt>
      <trkpt lat="42.96646" lon="0.28893">
        <ele>1483.8000488281</ele>
        <time>2019-08-23T08:33:46Z</time>
      </trkpt>
      <trkpt lat="42.96662" lon="0.28876">
        <ele>1483.4000244141</ele>
        <time>2019-08-23T08:33:51Z</time>
      </trkpt>
      <trkpt lat="42.96665" lon="0.28873">
        <ele>1483</ele>
        <time>2019-08-23T08:33:52Z</time>
      </trkpt>
      <trkpt lat="42.96669" lon="0.2887">
        <ele>1482.5999755859</ele>
        <time>2019-08-23T08:33:53Z</time>
      </trkpt>
      <trkpt lat="42.96672" lon="0.28866">
        <ele>1482.1999511719</ele>
        <time>2019-08-23T08:33:54Z</time>
      </trkpt>
      <trkpt lat="42.96676" lon="0.28861">
        <ele>1481.5999755859</ele>
        <time>2019-08-23T08:33:55Z</time>
      </trkpt>
      <trkpt lat="42.9668" lon="0.28857">
        <ele>1481.1999511719</ele>
        <time>2019-08-23T08:33:56Z</time>
      </trkpt>
      <trkpt lat="42.96684" lon="0.28853">
        <ele>1480.8000488281</ele>
        <time>2019-08-23T08:33:57Z</time>
      </trkpt>
      <trkpt lat="42.96688" lon="0.28848">
        <ele>1480.4000244141</ele>
        <time>2019-08-23T08:33:58Z</time>
      </trkpt>
      <trkpt lat="42.96692" lon="0.28844">
        <ele>1480</ele>
        <time>2019-08-23T08:33:59Z</time>
      </trkpt>
      <trkpt lat="42.96697" lon="0.28839">
        <ele>1479.5999755859</ele>
        <time>2019-08-23T08:34:00Z</time>
      </trkpt>
      <trkpt lat="42.96701" lon="0.28834">
        <ele>1479.1999511719</ele>
        <time>2019-08-23T08:34:01Z</time>
      </trkpt>
      <trkpt lat="42.96705" lon="0.2883">
        <ele>1478.1999511719</ele>
        <time>2019-08-23T08:34:02Z</time>
      </trkpt>
      <trkpt lat="42.9671" lon="0.28825">
        <ele>1477.5999755859</ele>
        <time>2019-08-23T08:34:03Z</time>
      </trkpt>
      <trkpt lat="42.96715" lon="0.2882">
        <ele>1477</ele>
        <time>2019-08-23T08:34:04Z</time>
      </trkpt>
      <trkpt lat="42.9672" lon="0.28815">
        <ele>1476.4000244141</ele>
        <time>2019-08-23T08:34:05Z</time>
      </trkpt>
      <trkpt lat="42.96725" lon="0.2881">
        <ele>1475.8000488281</ele>
        <time>2019-08-23T08:34:06Z</time>
      </trkpt>
      <trkpt lat="42.96729" lon="0.28805">
        <ele>1475.1999511719</ele>
        <time>2019-08-23T08:34:07Z</time>
      </trkpt>
      <trkpt lat="42.96736" lon="0.28799">
        <ele>1474.4000244141</ele>
        <time>2019-08-23T08:34:08Z</time>
      </trkpt>
      <trkpt lat="42.96741" lon="0.28793">
        <ele>1473.8000488281</ele>
        <time>2019-08-23T08:34:09Z</time>
      </trkpt>
      <trkpt lat="42.96746" lon="0.28789">
        <ele>1473.1999511719</ele>
        <time>2019-08-23T08:34:10Z</time>
      </trkpt>
      <trkpt lat="42.96751" lon="0.28784">
        <ele>1472.5999755859</ele>
        <time>2019-08-23T08:34:11Z</time>
      </trkpt>
      <trkpt lat="42.96756" lon="0.2878">
        <ele>1472</ele>
        <time>2019-08-23T08:34:12Z</time>
      </trkpt>
      <trkpt lat="42.96761" lon="0.28775">
        <ele>1471.1999511719</ele>
        <time>2019-08-23T08:34:13Z</time>
      </trkpt>
      <trkpt lat="42.96766" lon="0.2877">
        <ele>1470.5999755859</ele>
        <time>2019-08-23T08:34:14Z</time>
      </trkpt>
      <trkpt lat="42.96771" lon="0.28766">
        <ele>1470.1999511719</ele>
        <time>2019-08-23T08:34:15Z</time>
      </trkpt>
      <trkpt lat="42.96777" lon="0.28761">
        <ele>1469.8000488281</ele>
        <time>2019-08-23T08:34:16Z</time>
      </trkpt>
      <trkpt lat="42.96783" lon="0.28757">
        <ele>1469.1999511719</ele>
        <time>2019-08-23T08:34:17Z</time>
      </trkpt>
      <trkpt lat="42.96788" lon="0.28753">
        <ele>1468.8000488281</ele>
        <time>2019-08-23T08:34:18Z</time>
      </trkpt>
      <trkpt lat="42.96794" lon="0.28749">
        <ele>1468.1999511719</ele>
        <time>2019-08-23T08:34:19Z</time>
      </trkpt>
      <trkpt lat="42.96799" lon="0.28745">
        <ele>1467.8000488281</ele>
        <time>2019-08-23T08:34:20Z</time>
      </trkpt>
      <trkpt lat="42.96804" lon="0.28741">
        <ele>1467.1999511719</ele>
        <time>2019-08-23T08:34:21Z</time>
      </trkpt>
      <trkpt lat="42.96809" lon="0.28737">
        <ele>1466.5999755859</ele>
        <time>2019-08-23T08:34:22Z</time>
      </trkpt>
      <trkpt lat="42.96814" lon="0.28733">
        <ele>1466</ele>
        <time>2019-08-23T08:34:23Z</time>
      </trkpt>
      <trkpt lat="42.9682" lon="0.28729">
        <ele>1465.4000244141</ele>
        <time>2019-08-23T08:34:24Z</time>
      </trkpt>
      <trkpt lat="42.96825" lon="0.28725">
        <ele>1464.8000488281</ele>
        <time>2019-08-23T08:34:25Z</time>
      </trkpt>
      <trkpt lat="42.9683" lon="0.28721">
        <ele>1463.5999755859</ele>
        <time>2019-08-23T08:34:26Z</time>
      </trkpt>
      <trkpt lat="42.96836" lon="0.28717">
        <ele>1463</ele>
        <time>2019-08-23T08:34:27Z</time>
      </trkpt>
      <trkpt lat="42.96842" lon="0.28713">
        <ele>1462.5999755859</ele>
        <time>2019-08-23T08:34:28Z</time>
      </trkpt>
      <trkpt lat="42.96849" lon="0.2871">
        <ele>1461.8000488281</ele>
        <time>2019-08-23T08:34:29Z</time>
      </trkpt>
      <trkpt lat="42.96856" lon="0.28706">
        <ele>1461.1999511719</ele>
        <time>2019-08-23T08:34:30Z</time>
      </trkpt>
      <trkpt lat="42.96862" lon="0.28702">
        <ele>1460.5999755859</ele>
        <time>2019-08-23T08:34:31Z</time>
      </trkpt>
      <trkpt lat="42.96869" lon="0.28697">
        <ele>1460</ele>
        <time>2019-08-23T08:34:32Z</time>
      </trkpt>
      <trkpt lat="42.96876" lon="0.28693">
        <ele>1459.1999511719</ele>
        <time>2019-08-23T08:34:33Z</time>
      </trkpt>
      <trkpt lat="42.96882" lon="0.2869">
        <ele>1458.8000488281</ele>
        <time>2019-08-23T08:34:34Z</time>
      </trkpt>
      <trkpt lat="42.96888" lon="0.28686">
        <ele>1458.4000244141</ele>
        <time>2019-08-23T08:34:35Z</time>
      </trkpt>
      <trkpt lat="42.96894" lon="0.28684">
        <ele>1458</ele>
        <time>2019-08-23T08:34:36Z</time>
      </trkpt>
      <trkpt lat="42.96898" lon="0.28682">
        <ele>1457.5999755859</ele>
        <time>2019-08-23T08:34:37Z</time>
      </trkpt>
      <trkpt lat="42.96904" lon="0.2868">
        <ele>1457.1999511719</ele>
        <time>2019-08-23T08:34:38Z</time>
      </trkpt>
      <trkpt lat="42.96932" lon="0.28673">
        <ele>1457.1999511719</ele>
        <time>2019-08-23T08:34:43Z</time>
      </trkpt>
      <trkpt lat="42.96941" lon="0.28668">
        <ele>1456.8000488281</ele>
        <time>2019-08-23T08:34:45Z</time>
      </trkpt>
      <trkpt lat="42.96945" lon="0.28666">
        <ele>1456.1999511719</ele>
        <time>2019-08-23T08:34:46Z</time>
      </trkpt>
      <trkpt lat="42.96948" lon="0.28663">
        <ele>1455.8000488281</ele>
        <time>2019-08-23T08:34:47Z</time>
      </trkpt>
      <trkpt lat="42.96949" lon="0.28659">
        <ele>1455.4000244141</ele>
        <time>2019-08-23T08:34:48Z</time>
      </trkpt>
      <trkpt lat="42.96949" lon="0.28655">
        <ele>1455</ele>
        <time>2019-08-23T08:34:49Z</time>
      </trkpt>
      <trkpt lat="42.96948" lon="0.28652">
        <ele>1455</ele>
        <time>2019-08-23T08:34:50Z</time>
      </trkpt>
      <trkpt lat="42.96941" lon="0.28648">
        <ele>1454.5999755859</ele>
        <time>2019-08-23T08:34:52Z</time>
      </trkpt>
      <trkpt lat="42.96937" lon="0.28648">
        <ele>1454.1999511719</ele>
        <time>2019-08-23T08:34:53Z</time>
      </trkpt>
      <trkpt lat="42.96933" lon="0.28648">
        <ele>1453.8000488281</ele>
        <time>2019-08-23T08:34:54Z</time>
      </trkpt>
      <trkpt lat="42.96927" lon="0.28649">
        <ele>1453.4000244141</ele>
        <time>2019-08-23T08:34:55Z</time>
      </trkpt>
      <trkpt lat="42.96922" lon="0.28649">
        <ele>1453</ele>
        <time>2019-08-23T08:34:56Z</time>
      </trkpt>
      <trkpt lat="42.96915" lon="0.2865">
        <ele>1452.4000244141</ele>
        <time>2019-08-23T08:34:57Z</time>
      </trkpt>
      <trkpt lat="42.96909" lon="0.2865">
        <ele>1452</ele>
        <time>2019-08-23T08:34:58Z</time>
      </trkpt>
      <trkpt lat="42.96902" lon="0.2865">
        <ele>1451.1999511719</ele>
        <time>2019-08-23T08:34:59Z</time>
      </trkpt>
      <trkpt lat="42.96895" lon="0.2865">
        <ele>1450.4000244141</ele>
        <time>2019-08-23T08:35:00Z</time>
      </trkpt>
      <trkpt lat="42.96888" lon="0.2865">
        <ele>1449.5999755859</ele>
        <time>2019-08-23T08:35:01Z</time>
      </trkpt>
      <trkpt lat="42.96881" lon="0.28649">
        <ele>1448.8000488281</ele>
        <time>2019-08-23T08:35:02Z</time>
      </trkpt>
      <trkpt lat="42.96874" lon="0.28649">
        <ele>1448</ele>
        <time>2019-08-23T08:35:03Z</time>
      </trkpt>
      <trkpt lat="42.96866" lon="0.28649">
        <ele>1447</ele>
        <time>2019-08-23T08:35:04Z</time>
      </trkpt>
      <trkpt lat="42.96858" lon="0.28649">
        <ele>1446.1999511719</ele>
        <time>2019-08-23T08:35:05Z</time>
      </trkpt>
      <trkpt lat="42.9685" lon="0.2865">
        <ele>1445.5999755859</ele>
        <time>2019-08-23T08:35:06Z</time>
      </trkpt>
      <trkpt lat="42.96842" lon="0.2865">
        <ele>1444.8000488281</ele>
        <time>2019-08-23T08:35:07Z</time>
      </trkpt>
      <trkpt lat="42.96834" lon="0.2865">
        <ele>1443.8000488281</ele>
        <time>2019-08-23T08:35:08Z</time>
      </trkpt>
      <trkpt lat="42.96826" lon="0.2865">
        <ele>1443</ele>
        <time>2019-08-23T08:35:09Z</time>
      </trkpt>
      <trkpt lat="42.96817" lon="0.28648">
        <ele>1442.1999511719</ele>
        <time>2019-08-23T08:35:10Z</time>
      </trkpt>
      <trkpt lat="42.96809" lon="0.28646">
        <ele>1441.4000244141</ele>
        <time>2019-08-23T08:35:11Z</time>
      </trkpt>
      <trkpt lat="42.96801" lon="0.28644">
        <ele>1440.4000244141</ele>
        <time>2019-08-23T08:35:12Z</time>
      </trkpt>
      <trkpt lat="42.96794" lon="0.28642">
        <ele>1439.5999755859</ele>
        <time>2019-08-23T08:35:13Z</time>
      </trkpt>
      <trkpt lat="42.96787" lon="0.2864">
        <ele>1438.8000488281</ele>
        <time>2019-08-23T08:35:14Z</time>
      </trkpt>
      <trkpt lat="42.9678" lon="0.28639">
        <ele>1438.1999511719</ele>
        <time>2019-08-23T08:35:15Z</time>
      </trkpt>
      <trkpt lat="42.96773" lon="0.28639">
        <ele>1437</ele>
        <time>2019-08-23T08:35:16Z</time>
      </trkpt>
      <trkpt lat="42.96765" lon="0.28641">
        <ele>1436.4000244141</ele>
        <time>2019-08-23T08:35:17Z</time>
      </trkpt>
      <trkpt lat="42.96757" lon="0.28643">
        <ele>1435.8000488281</ele>
        <time>2019-08-23T08:35:18Z</time>
      </trkpt>
      <trkpt lat="42.96751" lon="0.28646">
        <ele>1435.4000244141</ele>
        <time>2019-08-23T08:35:19Z</time>
      </trkpt>
      <trkpt lat="42.96744" lon="0.28649">
        <ele>1435</ele>
        <time>2019-08-23T08:35:20Z</time>
      </trkpt>
      <trkpt lat="42.96739" lon="0.28653">
        <ele>1434.5999755859</ele>
        <time>2019-08-23T08:35:21Z</time>
      </trkpt>
      <trkpt lat="42.96734" lon="0.28657">
        <ele>1434</ele>
        <time>2019-08-23T08:35:22Z</time>
      </trkpt>
      <trkpt lat="42.9673" lon="0.28658">
        <ele>1433.5999755859</ele>
        <time>2019-08-23T08:35:23Z</time>
      </trkpt>
      <trkpt lat="42.96722" lon="0.2865">
        <ele>1433.5999755859</ele>
        <time>2019-08-23T08:35:26Z</time>
      </trkpt>
      <trkpt lat="42.96725" lon="0.2864">
        <ele>1433.1999511719</ele>
        <time>2019-08-23T08:35:28Z</time>
      </trkpt>
      <trkpt lat="42.96727" lon="0.28636">
        <ele>1432.5999755859</ele>
        <time>2019-08-23T08:35:29Z</time>
      </trkpt>
      <trkpt lat="42.96731" lon="0.28634">
        <ele>1432.1999511719</ele>
        <time>2019-08-23T08:35:30Z</time>
      </trkpt>
      <trkpt lat="42.96735" lon="0.28631">
        <ele>1431.8000488281</ele>
        <time>2019-08-23T08:35:31Z</time>
      </trkpt>
      <trkpt lat="42.96739" lon="0.28628">
        <ele>1431.1999511719</ele>
        <time>2019-08-23T08:35:32Z</time>
      </trkpt>
      <trkpt lat="42.96742" lon="0.28625">
        <ele>1430.8000488281</ele>
        <time>2019-08-23T08:35:33Z</time>
      </trkpt>
      <trkpt lat="42.96746" lon="0.28621">
        <ele>1430.4000244141</ele>
        <time>2019-08-23T08:35:34Z</time>
      </trkpt>
      <trkpt lat="42.9675" lon="0.28617">
        <ele>1430</ele>
        <time>2019-08-23T08:35:35Z</time>
      </trkpt>
      <trkpt lat="42.96755" lon="0.28614">
        <ele>1429.5999755859</ele>
        <time>2019-08-23T08:35:36Z</time>
      </trkpt>
      <trkpt lat="42.96759" lon="0.28611">
        <ele>1429.1999511719</ele>
        <time>2019-08-23T08:35:37Z</time>
      </trkpt>
      <trkpt lat="42.96763" lon="0.28609">
        <ele>1429.1999511719</ele>
        <time>2019-08-23T08:35:38Z</time>
      </trkpt>
      <trkpt lat="42.96768" lon="0.28606">
        <ele>1428.8000488281</ele>
        <time>2019-08-23T08:35:39Z</time>
      </trkpt>
      <trkpt lat="42.96772" lon="0.28604">
        <ele>1428</ele>
        <time>2019-08-23T08:35:40Z</time>
      </trkpt>
      <trkpt lat="42.96776" lon="0.28602">
        <ele>1427.4000244141</ele>
        <time>2019-08-23T08:35:41Z</time>
      </trkpt>
      <trkpt lat="42.96779" lon="0.286">
        <ele>1427</ele>
        <time>2019-08-23T08:35:42Z</time>
      </trkpt>
      <trkpt lat="42.96783" lon="0.28597">
        <ele>1427</ele>
        <time>2019-08-23T08:35:44Z</time>
      </trkpt>
      <trkpt lat="42.96788" lon="0.28589">
        <ele>1427</ele>
        <time>2019-08-23T08:35:48Z</time>
      </trkpt>
      <trkpt lat="42.96787" lon="0.28584">
        <ele>1427</ele>
        <time>2019-08-23T08:35:52Z</time>
      </trkpt>
      <trkpt lat="42.96786" lon="0.28582">
        <ele>1426.5999755859</ele>
        <time>2019-08-23T08:35:53Z</time>
      </trkpt>
      <trkpt lat="42.96783" lon="0.28582">
        <ele>1426.1999511719</ele>
        <time>2019-08-23T08:35:54Z</time>
      </trkpt>
      <trkpt lat="42.9678" lon="0.28582">
        <ele>1425.8000488281</ele>
        <time>2019-08-23T08:35:55Z</time>
      </trkpt>
      <trkpt lat="42.96777" lon="0.28582">
        <ele>1425.4000244141</ele>
        <time>2019-08-23T08:35:56Z</time>
      </trkpt>
      <trkpt lat="42.96773" lon="0.28582">
        <ele>1425</ele>
        <time>2019-08-23T08:35:57Z</time>
      </trkpt>
      <trkpt lat="42.96759" lon="0.28583">
        <ele>1424.5999755859</ele>
        <time>2019-08-23T08:36:02Z</time>
      </trkpt>
      <trkpt lat="42.96757" lon="0.28583">
        <ele>1424.1999511719</ele>
        <time>2019-08-23T08:36:03Z</time>
      </trkpt>
      <trkpt lat="42.96755" lon="0.28582">
        <ele>1423.8000488281</ele>
        <time>2019-08-23T08:36:04Z</time>
      </trkpt>
      <trkpt lat="42.96753" lon="0.28583">
        <ele>1423</ele>
        <time>2019-08-23T08:36:05Z</time>
      </trkpt>
      <trkpt lat="42.96745" lon="0.28587">
        <ele>1423</ele>
        <time>2019-08-23T08:36:08Z</time>
      </trkpt>
      <trkpt lat="42.96739" lon="0.2859">
        <ele>1422.5999755859</ele>
        <time>2019-08-23T08:36:10Z</time>
      </trkpt>
      <trkpt lat="42.96736" lon="0.28591">
        <ele>1422</ele>
        <time>2019-08-23T08:36:11Z</time>
      </trkpt>
      <trkpt lat="42.96732" lon="0.28593">
        <ele>1421.5999755859</ele>
        <time>2019-08-23T08:36:12Z</time>
      </trkpt>
      <trkpt lat="42.96729" lon="0.28594">
        <ele>1421.1999511719</ele>
        <time>2019-08-23T08:36:13Z</time>
      </trkpt>
      <trkpt lat="42.96725" lon="0.28595">
        <ele>1420.8000488281</ele>
        <time>2019-08-23T08:36:14Z</time>
      </trkpt>
      <trkpt lat="42.96722" lon="0.28593">
        <ele>1420.8000488281</ele>
        <time>2019-08-23T08:36:15Z</time>
      </trkpt>
      <trkpt lat="42.9672" lon="0.28589">
        <ele>1420.4000244141</ele>
        <time>2019-08-23T08:36:16Z</time>
      </trkpt>
      <trkpt lat="42.96718" lon="0.28583">
        <ele>1419.8000488281</ele>
        <time>2019-08-23T08:36:17Z</time>
      </trkpt>
      <trkpt lat="42.96718" lon="0.28577">
        <ele>1419.4000244141</ele>
        <time>2019-08-23T08:36:18Z</time>
      </trkpt>
      <trkpt lat="42.96718" lon="0.2857">
        <ele>1419</ele>
        <time>2019-08-23T08:36:19Z</time>
      </trkpt>
      <trkpt lat="42.96718" lon="0.28563">
        <ele>1418.5999755859</ele>
        <time>2019-08-23T08:36:20Z</time>
      </trkpt>
      <trkpt lat="42.96717" lon="0.28551">
        <ele>1418.1999511719</ele>
        <time>2019-08-23T08:36:22Z</time>
      </trkpt>
      <trkpt lat="42.96716" lon="0.28545">
        <ele>1417.8000488281</ele>
        <time>2019-08-23T08:36:23Z</time>
      </trkpt>
      <trkpt lat="42.96715" lon="0.28539">
        <ele>1417.1999511719</ele>
        <time>2019-08-23T08:36:24Z</time>
      </trkpt>
      <trkpt lat="42.96714" lon="0.28533">
        <ele>1416.8000488281</ele>
        <time>2019-08-23T08:36:25Z</time>
      </trkpt>
      <trkpt lat="42.96713" lon="0.28527">
        <ele>1416.4000244141</ele>
        <time>2019-08-23T08:36:26Z</time>
      </trkpt>
      <trkpt lat="42.96712" lon="0.28521">
        <ele>1415.8000488281</ele>
        <time>2019-08-23T08:36:27Z</time>
      </trkpt>
      <trkpt lat="42.96711" lon="0.28516">
        <ele>1415.4000244141</ele>
        <time>2019-08-23T08:36:28Z</time>
      </trkpt>
      <trkpt lat="42.96709" lon="0.2851">
        <ele>1414.8000488281</ele>
        <time>2019-08-23T08:36:29Z</time>
      </trkpt>
      <trkpt lat="42.96707" lon="0.28504">
        <ele>1413.8000488281</ele>
        <time>2019-08-23T08:36:30Z</time>
      </trkpt>
      <trkpt lat="42.96705" lon="0.28498">
        <ele>1413.1999511719</ele>
        <time>2019-08-23T08:36:31Z</time>
      </trkpt>
      <trkpt lat="42.96703" lon="0.28493">
        <ele>1412.8000488281</ele>
        <time>2019-08-23T08:36:32Z</time>
      </trkpt>
      <trkpt lat="42.96701" lon="0.28486">
        <ele>1412.1999511719</ele>
        <time>2019-08-23T08:36:33Z</time>
      </trkpt>
      <trkpt lat="42.96698" lon="0.2848">
        <ele>1411.5999755859</ele>
        <time>2019-08-23T08:36:34Z</time>
      </trkpt>
      <trkpt lat="42.96695" lon="0.28473">
        <ele>1411.1999511719</ele>
        <time>2019-08-23T08:36:35Z</time>
      </trkpt>
      <trkpt lat="42.96692" lon="0.28466">
        <ele>1410.8000488281</ele>
        <time>2019-08-23T08:36:36Z</time>
      </trkpt>
      <trkpt lat="42.96689" lon="0.28461">
        <ele>1410.4000244141</ele>
        <time>2019-08-23T08:36:37Z</time>
      </trkpt>
      <trkpt lat="42.96687" lon="0.28455">
        <ele>1410</ele>
        <time>2019-08-23T08:36:38Z</time>
      </trkpt>
      <trkpt lat="42.96684" lon="0.28449">
        <ele>1409.5999755859</ele>
        <time>2019-08-23T08:36:39Z</time>
      </trkpt>
      <trkpt lat="42.96677" lon="0.28437">
        <ele>1409.1999511719</ele>
        <time>2019-08-23T08:36:41Z</time>
      </trkpt>
      <trkpt lat="42.96673" lon="0.28432">
        <ele>1408.5999755859</ele>
        <time>2019-08-23T08:36:42Z</time>
      </trkpt>
      <trkpt lat="42.96669" lon="0.28425">
        <ele>1408.1999511719</ele>
        <time>2019-08-23T08:36:43Z</time>
      </trkpt>
      <trkpt lat="42.96665" lon="0.28419">
        <ele>1407.4000244141</ele>
        <time>2019-08-23T08:36:44Z</time>
      </trkpt>
      <trkpt lat="42.9666" lon="0.28412">
        <ele>1406.8000488281</ele>
        <time>2019-08-23T08:36:45Z</time>
      </trkpt>
      <trkpt lat="42.96656" lon="0.28406">
        <ele>1405.8000488281</ele>
        <time>2019-08-23T08:36:46Z</time>
      </trkpt>
      <trkpt lat="42.96651" lon="0.28399">
        <ele>1405</ele>
        <time>2019-08-23T08:36:47Z</time>
      </trkpt>
      <trkpt lat="42.96646" lon="0.28392">
        <ele>1404</ele>
        <time>2019-08-23T08:36:48Z</time>
      </trkpt>
      <trkpt lat="42.96642" lon="0.28386">
        <ele>1403.1999511719</ele>
        <time>2019-08-23T08:36:49Z</time>
      </trkpt>
      <trkpt lat="42.96638" lon="0.2838">
        <ele>1402.1999511719</ele>
        <time>2019-08-23T08:36:50Z</time>
      </trkpt>
      <trkpt lat="42.96634" lon="0.28373">
        <ele>1401.4000244141</ele>
        <time>2019-08-23T08:36:51Z</time>
      </trkpt>
      <trkpt lat="42.9663" lon="0.28367">
        <ele>1400.4000244141</ele>
        <time>2019-08-23T08:36:52Z</time>
      </trkpt>
      <trkpt lat="42.96625" lon="0.2836">
        <ele>1399.5999755859</ele>
        <time>2019-08-23T08:36:53Z</time>
      </trkpt>
      <trkpt lat="42.96621" lon="0.28353">
        <ele>1399</ele>
        <time>2019-08-23T08:36:54Z</time>
      </trkpt>
      <trkpt lat="42.96617" lon="0.28345">
        <ele>1398.1999511719</ele>
        <time>2019-08-23T08:36:55Z</time>
      </trkpt>
      <trkpt lat="42.96612" lon="0.28337">
        <ele>1397.5999755859</ele>
        <time>2019-08-23T08:36:56Z</time>
      </trkpt>
      <trkpt lat="42.96607" lon="0.2833">
        <ele>1397</ele>
        <time>2019-08-23T08:36:57Z</time>
      </trkpt>
      <trkpt lat="42.96602" lon="0.28323">
        <ele>1396.4000244141</ele>
        <time>2019-08-23T08:36:58Z</time>
      </trkpt>
      <trkpt lat="42.96597" lon="0.28316">
        <ele>1395.8000488281</ele>
        <time>2019-08-23T08:36:59Z</time>
      </trkpt>
      <trkpt lat="42.96591" lon="0.28309">
        <ele>1395</ele>
        <time>2019-08-23T08:37:00Z</time>
      </trkpt>
      <trkpt lat="42.96586" lon="0.28301">
        <ele>1394.4000244141</ele>
        <time>2019-08-23T08:37:01Z</time>
      </trkpt>
      <trkpt lat="42.96581" lon="0.28292">
        <ele>1393.4000244141</ele>
        <time>2019-08-23T08:37:02Z</time>
      </trkpt>
      <trkpt lat="42.96575" lon="0.28282">
        <ele>1392.5999755859</ele>
        <time>2019-08-23T08:37:03Z</time>
      </trkpt>
      <trkpt lat="42.96571" lon="0.28273">
        <ele>1391.5999755859</ele>
        <time>2019-08-23T08:37:04Z</time>
      </trkpt>
      <trkpt lat="42.96565" lon="0.28264">
        <ele>1390.5999755859</ele>
        <time>2019-08-23T08:37:05Z</time>
      </trkpt>
      <trkpt lat="42.9656" lon="0.28256">
        <ele>1389.4000244141</ele>
        <time>2019-08-23T08:37:06Z</time>
      </trkpt>
      <trkpt lat="42.96555" lon="0.28247">
        <ele>1388.5999755859</ele>
        <time>2019-08-23T08:37:07Z</time>
      </trkpt>
      <trkpt lat="42.9655" lon="0.28239">
        <ele>1387.5999755859</ele>
        <time>2019-08-23T08:37:08Z</time>
      </trkpt>
      <trkpt lat="42.96545" lon="0.28231">
        <ele>1386.8000488281</ele>
        <time>2019-08-23T08:37:09Z</time>
      </trkpt>
      <trkpt lat="42.9654" lon="0.28223">
        <ele>1385.8000488281</ele>
        <time>2019-08-23T08:37:10Z</time>
      </trkpt>
      <trkpt lat="42.96534" lon="0.28215">
        <ele>1385.1999511719</ele>
        <time>2019-08-23T08:37:11Z</time>
      </trkpt>
      <trkpt lat="42.96529" lon="0.28207">
        <ele>1384.4000244141</ele>
        <time>2019-08-23T08:37:12Z</time>
      </trkpt>
      <trkpt lat="42.96524" lon="0.28201">
        <ele>1383.8000488281</ele>
        <time>2019-08-23T08:37:13Z</time>
      </trkpt>
      <trkpt lat="42.96519" lon="0.28194">
        <ele>1383</ele>
        <time>2019-08-23T08:37:14Z</time>
      </trkpt>
      <trkpt lat="42.96514" lon="0.28188">
        <ele>1382.4000244141</ele>
        <time>2019-08-23T08:37:15Z</time>
      </trkpt>
      <trkpt lat="42.96509" lon="0.28181">
        <ele>1381.8000488281</ele>
        <time>2019-08-23T08:37:16Z</time>
      </trkpt>
      <trkpt lat="42.96504" lon="0.28173">
        <ele>1381.4000244141</ele>
        <time>2019-08-23T08:37:17Z</time>
      </trkpt>
      <trkpt lat="42.96499" lon="0.28166">
        <ele>1380.8000488281</ele>
        <time>2019-08-23T08:37:18Z</time>
      </trkpt>
      <trkpt lat="42.96494" lon="0.28157">
        <ele>1379.1999511719</ele>
        <time>2019-08-23T08:37:19Z</time>
      </trkpt>
      <trkpt lat="42.9649" lon="0.28149">
        <ele>1378.4000244141</ele>
        <time>2019-08-23T08:37:20Z</time>
      </trkpt>
      <trkpt lat="42.96485" lon="0.28142">
        <ele>1377.5999755859</ele>
        <time>2019-08-23T08:37:21Z</time>
      </trkpt>
      <trkpt lat="42.96481" lon="0.28134">
        <ele>1376.8000488281</ele>
        <time>2019-08-23T08:37:22Z</time>
      </trkpt>
      <trkpt lat="42.96476" lon="0.28127">
        <ele>1375.8000488281</ele>
        <time>2019-08-23T08:37:23Z</time>
      </trkpt>
      <trkpt lat="42.9647" lon="0.2812">
        <ele>1375</ele>
        <time>2019-08-23T08:37:24Z</time>
      </trkpt>
      <trkpt lat="42.96465" lon="0.28113">
        <ele>1374.1999511719</ele>
        <time>2019-08-23T08:37:25Z</time>
      </trkpt>
      <trkpt lat="42.9646" lon="0.28106">
        <ele>1373.4000244141</ele>
        <time>2019-08-23T08:37:26Z</time>
      </trkpt>
      <trkpt lat="42.96454" lon="0.28098">
        <ele>1372.5999755859</ele>
        <time>2019-08-23T08:37:27Z</time>
      </trkpt>
      <trkpt lat="42.96449" lon="0.2809">
        <ele>1371.8000488281</ele>
        <time>2019-08-23T08:37:28Z</time>
      </trkpt>
      <trkpt lat="42.96445" lon="0.28083">
        <ele>1371.1999511719</ele>
        <time>2019-08-23T08:37:29Z</time>
      </trkpt>
      <trkpt lat="42.96442" lon="0.28075">
        <ele>1370.5999755859</ele>
        <time>2019-08-23T08:37:30Z</time>
      </trkpt>
      <trkpt lat="42.96438" lon="0.28068">
        <ele>1369.8000488281</ele>
        <time>2019-08-23T08:37:31Z</time>
      </trkpt>
      <trkpt lat="42.96435" lon="0.2806">
        <ele>1369.4000244141</ele>
        <time>2019-08-23T08:37:32Z</time>
      </trkpt>
      <trkpt lat="42.96431" lon="0.28053">
        <ele>1368.8000488281</ele>
        <time>2019-08-23T08:37:33Z</time>
      </trkpt>
      <trkpt lat="42.96426" lon="0.28046">
        <ele>1368.1999511719</ele>
        <time>2019-08-23T08:37:34Z</time>
      </trkpt>
      <trkpt lat="42.96422" lon="0.2804">
        <ele>1367.5999755859</ele>
        <time>2019-08-23T08:37:35Z</time>
      </trkpt>
      <trkpt lat="42.96417" lon="0.28034">
        <ele>1367</ele>
        <time>2019-08-23T08:37:36Z</time>
      </trkpt>
      <trkpt lat="42.96412" lon="0.28028">
        <ele>1366.4000244141</ele>
        <time>2019-08-23T08:37:37Z</time>
      </trkpt>
      <trkpt lat="42.96407" lon="0.28023">
        <ele>1365.5999755859</ele>
        <time>2019-08-23T08:37:38Z</time>
      </trkpt>
      <trkpt lat="42.96402" lon="0.28018">
        <ele>1365</ele>
        <time>2019-08-23T08:37:39Z</time>
      </trkpt>
      <trkpt lat="42.96395" lon="0.28015">
        <ele>1365</ele>
        <time>2019-08-23T08:37:40Z</time>
      </trkpt>
      <trkpt lat="42.96389" lon="0.28013">
        <ele>1364.5999755859</ele>
        <time>2019-08-23T08:37:41Z</time>
      </trkpt>
      <trkpt lat="42.96382" lon="0.28011">
        <ele>1364</ele>
        <time>2019-08-23T08:37:42Z</time>
      </trkpt>
      <trkpt lat="42.96377" lon="0.28009">
        <ele>1363.4000244141</ele>
        <time>2019-08-23T08:37:43Z</time>
      </trkpt>
      <trkpt lat="42.96372" lon="0.28006">
        <ele>1362.4000244141</ele>
        <time>2019-08-23T08:37:44Z</time>
      </trkpt>
      <trkpt lat="42.96364" lon="0.27996">
        <ele>1362.4000244141</ele>
        <time>2019-08-23T08:37:47Z</time>
      </trkpt>
      <trkpt lat="42.96364" lon="0.27983">
        <ele>1362</ele>
        <time>2019-08-23T08:37:50Z</time>
      </trkpt>
      <trkpt lat="42.96367" lon="0.27981">
        <ele>1361.5999755859</ele>
        <time>2019-08-23T08:37:51Z</time>
      </trkpt>
      <trkpt lat="42.9637" lon="0.2798">
        <ele>1361</ele>
        <time>2019-08-23T08:37:52Z</time>
      </trkpt>
      <trkpt lat="42.96374" lon="0.2798">
        <ele>1360.5999755859</ele>
        <time>2019-08-23T08:37:53Z</time>
      </trkpt>
      <trkpt lat="42.96378" lon="0.27979">
        <ele>1360.1999511719</ele>
        <time>2019-08-23T08:37:54Z</time>
      </trkpt>
      <trkpt lat="42.96385" lon="0.27977">
        <ele>1359.8000488281</ele>
        <time>2019-08-23T08:37:56Z</time>
      </trkpt>
      <trkpt lat="42.96389" lon="0.27977">
        <ele>1359.4000244141</ele>
        <time>2019-08-23T08:37:57Z</time>
      </trkpt>
      <trkpt lat="42.96394" lon="0.27976">
        <ele>1358.8000488281</ele>
        <time>2019-08-23T08:37:58Z</time>
      </trkpt>
      <trkpt lat="42.96398" lon="0.27976">
        <ele>1358.4000244141</ele>
        <time>2019-08-23T08:37:59Z</time>
      </trkpt>
      <trkpt lat="42.96402" lon="0.27977">
        <ele>1357.8000488281</ele>
        <time>2019-08-23T08:38:00Z</time>
      </trkpt>
      <trkpt lat="42.9641" lon="0.27976">
        <ele>1357.1999511719</ele>
        <time>2019-08-23T08:38:01Z</time>
      </trkpt>
      <trkpt lat="42.96416" lon="0.27976">
        <ele>1356.8000488281</ele>
        <time>2019-08-23T08:38:02Z</time>
      </trkpt>
      <trkpt lat="42.96423" lon="0.27976">
        <ele>1356</ele>
        <time>2019-08-23T08:38:03Z</time>
      </trkpt>
      <trkpt lat="42.96431" lon="0.27976">
        <ele>1355.1999511719</ele>
        <time>2019-08-23T08:38:04Z</time>
      </trkpt>
      <trkpt lat="42.96438" lon="0.27977">
        <ele>1354.4000244141</ele>
        <time>2019-08-23T08:38:05Z</time>
      </trkpt>
      <trkpt lat="42.96446" lon="0.27977">
        <ele>1353.5999755859</ele>
        <time>2019-08-23T08:38:06Z</time>
      </trkpt>
      <trkpt lat="42.96454" lon="0.27978">
        <ele>1352.8000488281</ele>
        <time>2019-08-23T08:38:07Z</time>
      </trkpt>
      <trkpt lat="42.96461" lon="0.27978">
        <ele>1352.1999511719</ele>
        <time>2019-08-23T08:38:08Z</time>
      </trkpt>
      <trkpt lat="42.96469" lon="0.2798">
        <ele>1351.1999511719</ele>
        <time>2019-08-23T08:38:09Z</time>
      </trkpt>
      <trkpt lat="42.96476" lon="0.27981">
        <ele>1349.5999755859</ele>
        <time>2019-08-23T08:38:10Z</time>
      </trkpt>
      <trkpt lat="42.96483" lon="0.27983">
        <ele>1349</ele>
        <time>2019-08-23T08:38:11Z</time>
      </trkpt>
      <trkpt lat="42.96489" lon="0.27986">
        <ele>1348.1999511719</ele>
        <time>2019-08-23T08:38:12Z</time>
      </trkpt>
      <trkpt lat="42.96495" lon="0.27988">
        <ele>1347.5999755859</ele>
        <time>2019-08-23T08:38:13Z</time>
      </trkpt>
      <trkpt lat="42.965" lon="0.27989">
        <ele>1346.8000488281</ele>
        <time>2019-08-23T08:38:14Z</time>
      </trkpt>
      <trkpt lat="42.96504" lon="0.27989">
        <ele>1346</ele>
        <time>2019-08-23T08:38:15Z</time>
      </trkpt>
      <trkpt lat="42.96509" lon="0.27987">
        <ele>1346</ele>
        <time>2019-08-23T08:38:16Z</time>
      </trkpt>
      <trkpt lat="42.96518" lon="0.27979">
        <ele>1346</ele>
        <time>2019-08-23T08:38:19Z</time>
      </trkpt>
      <trkpt lat="42.96514" lon="0.27973">
        <ele>1345.5999755859</ele>
        <time>2019-08-23T08:38:21Z</time>
      </trkpt>
      <trkpt lat="42.96509" lon="0.2797">
        <ele>1345.1999511719</ele>
        <time>2019-08-23T08:38:22Z</time>
      </trkpt>
      <trkpt lat="42.96504" lon="0.27967">
        <ele>1344.8000488281</ele>
        <time>2019-08-23T08:38:23Z</time>
      </trkpt>
      <trkpt lat="42.96498" lon="0.27963">
        <ele>1344.1999511719</ele>
        <time>2019-08-23T08:38:24Z</time>
      </trkpt>
      <trkpt lat="42.96493" lon="0.2796">
        <ele>1343.4000244141</ele>
        <time>2019-08-23T08:38:25Z</time>
      </trkpt>
      <trkpt lat="42.96487" lon="0.27955">
        <ele>1342.8000488281</ele>
        <time>2019-08-23T08:38:26Z</time>
      </trkpt>
      <trkpt lat="42.96481" lon="0.2795">
        <ele>1342.1999511719</ele>
        <time>2019-08-23T08:38:27Z</time>
      </trkpt>
      <trkpt lat="42.96475" lon="0.27945">
        <ele>1341.5999755859</ele>
        <time>2019-08-23T08:38:28Z</time>
      </trkpt>
      <trkpt lat="42.9647" lon="0.27939">
        <ele>1341.1999511719</ele>
        <time>2019-08-23T08:38:29Z</time>
      </trkpt>
      <trkpt lat="42.96465" lon="0.27933">
        <ele>1340.5999755859</ele>
        <time>2019-08-23T08:38:30Z</time>
      </trkpt>
      <trkpt lat="42.9646" lon="0.27927">
        <ele>1340.1999511719</ele>
        <time>2019-08-23T08:38:31Z</time>
      </trkpt>
      <trkpt lat="42.96454" lon="0.27922">
        <ele>1339.8000488281</ele>
        <time>2019-08-23T08:38:32Z</time>
      </trkpt>
      <trkpt lat="42.96449" lon="0.27918">
        <ele>1339.1999511719</ele>
        <time>2019-08-23T08:38:33Z</time>
      </trkpt>
      <trkpt lat="42.96443" lon="0.27915">
        <ele>1338</ele>
        <time>2019-08-23T08:38:34Z</time>
      </trkpt>
      <trkpt lat="42.96437" lon="0.27911">
        <ele>1337.1999511719</ele>
        <time>2019-08-23T08:38:35Z</time>
      </trkpt>
      <trkpt lat="42.96431" lon="0.27907">
        <ele>1336.5999755859</ele>
        <time>2019-08-23T08:38:36Z</time>
      </trkpt>
      <trkpt lat="42.96425" lon="0.27904">
        <ele>1335.8000488281</ele>
        <time>2019-08-23T08:38:37Z</time>
      </trkpt>
      <trkpt lat="42.96419" lon="0.279">
        <ele>1335</ele>
        <time>2019-08-23T08:38:38Z</time>
      </trkpt>
      <trkpt lat="42.96412" lon="0.27898">
        <ele>1334.1999511719</ele>
        <time>2019-08-23T08:38:39Z</time>
      </trkpt>
      <trkpt lat="42.96406" lon="0.27896">
        <ele>1333.5999755859</ele>
        <time>2019-08-23T08:38:40Z</time>
      </trkpt>
      <trkpt lat="42.96398" lon="0.27894">
        <ele>1332.8000488281</ele>
        <time>2019-08-23T08:38:41Z</time>
      </trkpt>
      <trkpt lat="42.96391" lon="0.27893">
        <ele>1332</ele>
        <time>2019-08-23T08:38:42Z</time>
      </trkpt>
      <trkpt lat="42.96383" lon="0.27892">
        <ele>1331.4000244141</ele>
        <time>2019-08-23T08:38:43Z</time>
      </trkpt>
      <trkpt lat="42.96375" lon="0.27892">
        <ele>1330.8000488281</ele>
        <time>2019-08-23T08:38:44Z</time>
      </trkpt>
      <trkpt lat="42.96368" lon="0.27891">
        <ele>1330</ele>
        <time>2019-08-23T08:38:45Z</time>
      </trkpt>
      <trkpt lat="42.9636" lon="0.27891">
        <ele>1329.4000244141</ele>
        <time>2019-08-23T08:38:46Z</time>
      </trkpt>
      <trkpt lat="42.96353" lon="0.2789">
        <ele>1328.8000488281</ele>
        <time>2019-08-23T08:38:47Z</time>
      </trkpt>
      <trkpt lat="42.96346" lon="0.27889">
        <ele>1328</ele>
        <time>2019-08-23T08:38:48Z</time>
      </trkpt>
      <trkpt lat="42.9634" lon="0.27889">
        <ele>1327.4000244141</ele>
        <time>2019-08-23T08:38:49Z</time>
      </trkpt>
      <trkpt lat="42.96333" lon="0.27888">
        <ele>1326.8000488281</ele>
        <time>2019-08-23T08:38:50Z</time>
      </trkpt>
      <trkpt lat="42.96326" lon="0.27888">
        <ele>1326.4000244141</ele>
        <time>2019-08-23T08:38:51Z</time>
      </trkpt>
      <trkpt lat="42.9632" lon="0.27887">
        <ele>1325.8000488281</ele>
        <time>2019-08-23T08:38:52Z</time>
      </trkpt>
      <trkpt lat="42.96314" lon="0.27888">
        <ele>1325.1999511719</ele>
        <time>2019-08-23T08:38:53Z</time>
      </trkpt>
      <trkpt lat="42.96308" lon="0.27888">
        <ele>1324.5999755859</ele>
        <time>2019-08-23T08:38:54Z</time>
      </trkpt>
      <trkpt lat="42.96302" lon="0.27889">
        <ele>1324.1999511719</ele>
        <time>2019-08-23T08:38:55Z</time>
      </trkpt>
      <trkpt lat="42.96296" lon="0.27891">
        <ele>1323.5999755859</ele>
        <time>2019-08-23T08:38:56Z</time>
      </trkpt>
      <trkpt lat="42.96288" lon="0.27893">
        <ele>1323.1999511719</ele>
        <time>2019-08-23T08:38:57Z</time>
      </trkpt>
      <trkpt lat="42.96282" lon="0.27896">
        <ele>1322.4000244141</ele>
        <time>2019-08-23T08:38:58Z</time>
      </trkpt>
      <trkpt lat="42.96275" lon="0.27899">
        <ele>1321</ele>
        <time>2019-08-23T08:38:59Z</time>
      </trkpt>
      <trkpt lat="42.96268" lon="0.27902">
        <ele>1320.1999511719</ele>
        <time>2019-08-23T08:39:00Z</time>
      </trkpt>
      <trkpt lat="42.96261" lon="0.27904">
        <ele>1319.5999755859</ele>
        <time>2019-08-23T08:39:01Z</time>
      </trkpt>
      <trkpt lat="42.96254" lon="0.27907">
        <ele>1319</ele>
        <time>2019-08-23T08:39:02Z</time>
      </trkpt>
      <trkpt lat="42.96247" lon="0.2791">
        <ele>1318.4000244141</ele>
        <time>2019-08-23T08:39:03Z</time>
      </trkpt>
      <trkpt lat="42.9624" lon="0.27912">
        <ele>1317.8000488281</ele>
        <time>2019-08-23T08:39:04Z</time>
      </trkpt>
      <trkpt lat="42.96234" lon="0.27915">
        <ele>1317.1999511719</ele>
        <time>2019-08-23T08:39:05Z</time>
      </trkpt>
      <trkpt lat="42.96227" lon="0.27917">
        <ele>1316.5999755859</ele>
        <time>2019-08-23T08:39:06Z</time>
      </trkpt>
      <trkpt lat="42.96221" lon="0.27918">
        <ele>1316</ele>
        <time>2019-08-23T08:39:07Z</time>
      </trkpt>
      <trkpt lat="42.96215" lon="0.2792">
        <ele>1315.4000244141</ele>
        <time>2019-08-23T08:39:08Z</time>
      </trkpt>
      <trkpt lat="42.9621" lon="0.27921">
        <ele>1315</ele>
        <time>2019-08-23T08:39:09Z</time>
      </trkpt>
      <trkpt lat="42.96204" lon="0.27922">
        <ele>1314.4000244141</ele>
        <time>2019-08-23T08:39:10Z</time>
      </trkpt>
      <trkpt lat="42.96198" lon="0.27922">
        <ele>1314</ele>
        <time>2019-08-23T08:39:11Z</time>
      </trkpt>
      <trkpt lat="42.96192" lon="0.27921">
        <ele>1313.4000244141</ele>
        <time>2019-08-23T08:39:12Z</time>
      </trkpt>
      <trkpt lat="42.96186" lon="0.2792">
        <ele>1313</ele>
        <time>2019-08-23T08:39:13Z</time>
      </trkpt>
      <trkpt lat="42.96179" lon="0.27919">
        <ele>1312.4000244141</ele>
        <time>2019-08-23T08:39:14Z</time>
      </trkpt>
      <trkpt lat="42.96173" lon="0.27918">
        <ele>1312</ele>
        <time>2019-08-23T08:39:15Z</time>
      </trkpt>
      <trkpt lat="42.96167" lon="0.27917">
        <ele>1311.4000244141</ele>
        <time>2019-08-23T08:39:16Z</time>
      </trkpt>
      <trkpt lat="42.96161" lon="0.27915">
        <ele>1310.8000488281</ele>
        <time>2019-08-23T08:39:17Z</time>
      </trkpt>
      <trkpt lat="42.96156" lon="0.27913">
        <ele>1310.4000244141</ele>
        <time>2019-08-23T08:39:18Z</time>
      </trkpt>
      <trkpt lat="42.9615" lon="0.27912">
        <ele>1309.8000488281</ele>
        <time>2019-08-23T08:39:19Z</time>
      </trkpt>
      <trkpt lat="42.96144" lon="0.27911">
        <ele>1309.1999511719</ele>
        <time>2019-08-23T08:39:20Z</time>
      </trkpt>
      <trkpt lat="42.96138" lon="0.27911">
        <ele>1308.5999755859</ele>
        <time>2019-08-23T08:39:21Z</time>
      </trkpt>
      <trkpt lat="42.96132" lon="0.27912">
        <ele>1308</ele>
        <time>2019-08-23T08:39:22Z</time>
      </trkpt>
      <trkpt lat="42.96126" lon="0.27913">
        <ele>1307.5999755859</ele>
        <time>2019-08-23T08:39:23Z</time>
      </trkpt>
      <trkpt lat="42.9612" lon="0.27914">
        <ele>1306.8000488281</ele>
        <time>2019-08-23T08:39:24Z</time>
      </trkpt>
      <trkpt lat="42.96114" lon="0.27915">
        <ele>1306.1999511719</ele>
        <time>2019-08-23T08:39:25Z</time>
      </trkpt>
      <trkpt lat="42.96109" lon="0.27916">
        <ele>1305.8000488281</ele>
        <time>2019-08-23T08:39:26Z</time>
      </trkpt>
      <trkpt lat="42.96103" lon="0.27917">
        <ele>1305.1999511719</ele>
        <time>2019-08-23T08:39:27Z</time>
      </trkpt>
      <trkpt lat="42.96096" lon="0.27918">
        <ele>1304.5999755859</ele>
        <time>2019-08-23T08:39:28Z</time>
      </trkpt>
      <trkpt lat="42.9609" lon="0.27919">
        <ele>1304</ele>
        <time>2019-08-23T08:39:29Z</time>
      </trkpt>
      <trkpt lat="42.96083" lon="0.27921">
        <ele>1303.4000244141</ele>
        <time>2019-08-23T08:39:30Z</time>
      </trkpt>
      <trkpt lat="42.96075" lon="0.27922">
        <ele>1302.8000488281</ele>
        <time>2019-08-23T08:39:31Z</time>
      </trkpt>
      <trkpt lat="42.96068" lon="0.27924">
        <ele>1302</ele>
        <time>2019-08-23T08:39:32Z</time>
      </trkpt>
      <trkpt lat="42.96061" lon="0.27925">
        <ele>1301.1999511719</ele>
        <time>2019-08-23T08:39:33Z</time>
      </trkpt>
      <trkpt lat="42.96054" lon="0.27926">
        <ele>1300.4000244141</ele>
        <time>2019-08-23T08:39:34Z</time>
      </trkpt>
      <trkpt lat="42.96046" lon="0.27927">
        <ele>1299.5999755859</ele>
        <time>2019-08-23T08:39:35Z</time>
      </trkpt>
      <trkpt lat="42.96038" lon="0.27927">
        <ele>1298.8000488281</ele>
        <time>2019-08-23T08:39:36Z</time>
      </trkpt>
      <trkpt lat="42.96031" lon="0.27929">
        <ele>1298</ele>
        <time>2019-08-23T08:39:37Z</time>
      </trkpt>
      <trkpt lat="42.96023" lon="0.2793">
        <ele>1297.1999511719</ele>
        <time>2019-08-23T08:39:38Z</time>
      </trkpt>
      <trkpt lat="42.96017" lon="0.27932">
        <ele>1296.5999755859</ele>
        <time>2019-08-23T08:39:39Z</time>
      </trkpt>
      <trkpt lat="42.9601" lon="0.27934">
        <ele>1296</ele>
        <time>2019-08-23T08:39:40Z</time>
      </trkpt>
      <trkpt lat="42.96004" lon="0.27936">
        <ele>1295.4000244141</ele>
        <time>2019-08-23T08:39:41Z</time>
      </trkpt>
      <trkpt lat="42.95997" lon="0.27937">
        <ele>1294.8000488281</ele>
        <time>2019-08-23T08:39:42Z</time>
      </trkpt>
      <trkpt lat="42.9599" lon="0.27938">
        <ele>1294.1999511719</ele>
        <time>2019-08-23T08:39:43Z</time>
      </trkpt>
      <trkpt lat="42.95984" lon="0.27939">
        <ele>1293.5999755859</ele>
        <time>2019-08-23T08:39:44Z</time>
      </trkpt>
      <trkpt lat="42.95977" lon="0.2794">
        <ele>1293</ele>
        <time>2019-08-23T08:39:45Z</time>
      </trkpt>
      <trkpt lat="42.9597" lon="0.27939">
        <ele>1292.1999511719</ele>
        <time>2019-08-23T08:39:46Z</time>
      </trkpt>
      <trkpt lat="42.95964" lon="0.27939">
        <ele>1291.5999755859</ele>
        <time>2019-08-23T08:39:47Z</time>
      </trkpt>
      <trkpt lat="42.95957" lon="0.27938">
        <ele>1290.4000244141</ele>
        <time>2019-08-23T08:39:48Z</time>
      </trkpt>
      <trkpt lat="42.9595" lon="0.27938">
        <ele>1289.5999755859</ele>
        <time>2019-08-23T08:39:49Z</time>
      </trkpt>
      <trkpt lat="42.95943" lon="0.27938">
        <ele>1289</ele>
        <time>2019-08-23T08:39:50Z</time>
      </trkpt>
      <trkpt lat="42.95936" lon="0.27939">
        <ele>1288.4000244141</ele>
        <time>2019-08-23T08:39:51Z</time>
      </trkpt>
      <trkpt lat="42.95929" lon="0.2794">
        <ele>1287.5999755859</ele>
        <time>2019-08-23T08:39:52Z</time>
      </trkpt>
      <trkpt lat="42.95922" lon="0.27941">
        <ele>1287</ele>
        <time>2019-08-23T08:39:53Z</time>
      </trkpt>
      <trkpt lat="42.95915" lon="0.27941">
        <ele>1286.1999511719</ele>
        <time>2019-08-23T08:39:54Z</time>
      </trkpt>
      <trkpt lat="42.95908" lon="0.27941">
        <ele>1285.4000244141</ele>
        <time>2019-08-23T08:39:55Z</time>
      </trkpt>
      <trkpt lat="42.95901" lon="0.2794">
        <ele>1284.5999755859</ele>
        <time>2019-08-23T08:39:56Z</time>
      </trkpt>
      <trkpt lat="42.95894" lon="0.27939">
        <ele>1284</ele>
        <time>2019-08-23T08:39:57Z</time>
      </trkpt>
      <trkpt lat="42.95887" lon="0.27937">
        <ele>1283.4000244141</ele>
        <time>2019-08-23T08:39:58Z</time>
      </trkpt>
      <trkpt lat="42.95879" lon="0.27935">
        <ele>1282.8000488281</ele>
        <time>2019-08-23T08:39:59Z</time>
      </trkpt>
      <trkpt lat="42.95872" lon="0.27934">
        <ele>1282</ele>
        <time>2019-08-23T08:40:00Z</time>
      </trkpt>
      <trkpt lat="42.95865" lon="0.27932">
        <ele>1281.4000244141</ele>
        <time>2019-08-23T08:40:01Z</time>
      </trkpt>
      <trkpt lat="42.95858" lon="0.27931">
        <ele>1280.8000488281</ele>
        <time>2019-08-23T08:40:02Z</time>
      </trkpt>
      <trkpt lat="42.95852" lon="0.2793">
        <ele>1280</ele>
        <time>2019-08-23T08:40:03Z</time>
      </trkpt>
      <trkpt lat="42.95845" lon="0.2793">
        <ele>1279.4000244141</ele>
        <time>2019-08-23T08:40:04Z</time>
      </trkpt>
      <trkpt lat="42.95838" lon="0.27929">
        <ele>1278.8000488281</ele>
        <time>2019-08-23T08:40:05Z</time>
      </trkpt>
      <trkpt lat="42.95831" lon="0.2793">
        <ele>1278.4000244141</ele>
        <time>2019-08-23T08:40:06Z</time>
      </trkpt>
      <trkpt lat="42.95825" lon="0.27931">
        <ele>1277.8000488281</ele>
        <time>2019-08-23T08:40:07Z</time>
      </trkpt>
      <trkpt lat="42.95818" lon="0.27931">
        <ele>1277.1999511719</ele>
        <time>2019-08-23T08:40:08Z</time>
      </trkpt>
      <trkpt lat="42.95812" lon="0.27931">
        <ele>1276.5999755859</ele>
        <time>2019-08-23T08:40:09Z</time>
      </trkpt>
      <trkpt lat="42.95806" lon="0.2793">
        <ele>1276</ele>
        <time>2019-08-23T08:40:10Z</time>
      </trkpt>
      <trkpt lat="42.95799" lon="0.27928">
        <ele>1275.4000244141</ele>
        <time>2019-08-23T08:40:11Z</time>
      </trkpt>
      <trkpt lat="42.95792" lon="0.27926">
        <ele>1274.8000488281</ele>
        <time>2019-08-23T08:40:12Z</time>
      </trkpt>
      <trkpt lat="42.95784" lon="0.27923">
        <ele>1273.4000244141</ele>
        <time>2019-08-23T08:40:13Z</time>
      </trkpt>
      <trkpt lat="42.95776" lon="0.2792">
        <ele>1272.4000244141</ele>
        <time>2019-08-23T08:40:14Z</time>
      </trkpt>
      <trkpt lat="42.95767" lon="0.27916">
        <ele>1271.5999755859</ele>
        <time>2019-08-23T08:40:15Z</time>
      </trkpt>
      <trkpt lat="42.95759" lon="0.27913">
        <ele>1270.8000488281</ele>
        <time>2019-08-23T08:40:16Z</time>
      </trkpt>
      <trkpt lat="42.95751" lon="0.27909">
        <ele>1270</ele>
        <time>2019-08-23T08:40:17Z</time>
      </trkpt>
      <trkpt lat="42.95744" lon="0.27906">
        <ele>1269.1999511719</ele>
        <time>2019-08-23T08:40:18Z</time>
      </trkpt>
      <trkpt lat="42.95737" lon="0.27903">
        <ele>1268.5999755859</ele>
        <time>2019-08-23T08:40:19Z</time>
      </trkpt>
      <trkpt lat="42.9573" lon="0.279">
        <ele>1267.8000488281</ele>
        <time>2019-08-23T08:40:20Z</time>
      </trkpt>
      <trkpt lat="42.95723" lon="0.27898">
        <ele>1267.1999511719</ele>
        <time>2019-08-23T08:40:21Z</time>
      </trkpt>
      <trkpt lat="42.95716" lon="0.27896">
        <ele>1266.5999755859</ele>
        <time>2019-08-23T08:40:22Z</time>
      </trkpt>
      <trkpt lat="42.9571" lon="0.27893">
        <ele>1266</ele>
        <time>2019-08-23T08:40:23Z</time>
      </trkpt>
      <trkpt lat="42.95704" lon="0.27891">
        <ele>1265.4000244141</ele>
        <time>2019-08-23T08:40:24Z</time>
      </trkpt>
      <trkpt lat="42.95698" lon="0.27888">
        <ele>1264.8000488281</ele>
        <time>2019-08-23T08:40:25Z</time>
      </trkpt>
      <trkpt lat="42.95692" lon="0.27886">
        <ele>1264.4000244141</ele>
        <time>2019-08-23T08:40:26Z</time>
      </trkpt>
      <trkpt lat="42.95687" lon="0.27884">
        <ele>1263.8000488281</ele>
        <time>2019-08-23T08:40:27Z</time>
      </trkpt>
      <trkpt lat="42.95681" lon="0.27883">
        <ele>1263.4000244141</ele>
        <time>2019-08-23T08:40:28Z</time>
      </trkpt>
      <trkpt lat="42.95675" lon="0.27881">
        <ele>1262.8000488281</ele>
        <time>2019-08-23T08:40:29Z</time>
      </trkpt>
      <trkpt lat="42.95669" lon="0.2788">
        <ele>1262.4000244141</ele>
        <time>2019-08-23T08:40:30Z</time>
      </trkpt>
      <trkpt lat="42.95663" lon="0.27879">
        <ele>1261.8000488281</ele>
        <time>2019-08-23T08:40:31Z</time>
      </trkpt>
      <trkpt lat="42.95656" lon="0.27878">
        <ele>1261.1999511719</ele>
        <time>2019-08-23T08:40:32Z</time>
      </trkpt>
      <trkpt lat="42.95649" lon="0.27877">
        <ele>1260.5999755859</ele>
        <time>2019-08-23T08:40:33Z</time>
      </trkpt>
      <trkpt lat="42.95644" lon="0.27876">
        <ele>1260</ele>
        <time>2019-08-23T08:40:34Z</time>
      </trkpt>
      <trkpt lat="42.95638" lon="0.27876">
        <ele>1259.4000244141</ele>
        <time>2019-08-23T08:40:35Z</time>
      </trkpt>
      <trkpt lat="42.95631" lon="0.27876">
        <ele>1258.8000488281</ele>
        <time>2019-08-23T08:40:36Z</time>
      </trkpt>
      <trkpt lat="42.95625" lon="0.27876">
        <ele>1258.1999511719</ele>
        <time>2019-08-23T08:40:37Z</time>
      </trkpt>
      <trkpt lat="42.95619" lon="0.27877">
        <ele>1257</ele>
        <time>2019-08-23T08:40:38Z</time>
      </trkpt>
      <trkpt lat="42.95613" lon="0.27878">
        <ele>1256.1999511719</ele>
        <time>2019-08-23T08:40:39Z</time>
      </trkpt>
      <trkpt lat="42.95606" lon="0.27879">
        <ele>1255.5999755859</ele>
        <time>2019-08-23T08:40:40Z</time>
      </trkpt>
      <trkpt lat="42.956" lon="0.27881">
        <ele>1255</ele>
        <time>2019-08-23T08:40:41Z</time>
      </trkpt>
      <trkpt lat="42.95594" lon="0.27883">
        <ele>1254.1999511719</ele>
        <time>2019-08-23T08:40:42Z</time>
      </trkpt>
      <trkpt lat="42.95588" lon="0.27886">
        <ele>1253.5999755859</ele>
        <time>2019-08-23T08:40:43Z</time>
      </trkpt>
      <trkpt lat="42.95582" lon="0.27888">
        <ele>1253</ele>
        <time>2019-08-23T08:40:44Z</time>
      </trkpt>
      <trkpt lat="42.95577" lon="0.27893">
        <ele>1252.4000244141</ele>
        <time>2019-08-23T08:40:45Z</time>
      </trkpt>
      <trkpt lat="42.95573" lon="0.279">
        <ele>1251.8000488281</ele>
        <time>2019-08-23T08:40:46Z</time>
      </trkpt>
      <trkpt lat="42.95569" lon="0.27907">
        <ele>1251.1999511719</ele>
        <time>2019-08-23T08:40:47Z</time>
      </trkpt>
      <trkpt lat="42.95566" lon="0.27915">
        <ele>1250.5999755859</ele>
        <time>2019-08-23T08:40:48Z</time>
      </trkpt>
      <trkpt lat="42.95563" lon="0.27923">
        <ele>1249.8000488281</ele>
        <time>2019-08-23T08:40:49Z</time>
      </trkpt>
      <trkpt lat="42.95558" lon="0.27931">
        <ele>1249.1999511719</ele>
        <time>2019-08-23T08:40:50Z</time>
      </trkpt>
      <trkpt lat="42.95553" lon="0.27939">
        <ele>1248.5999755859</ele>
        <time>2019-08-23T08:40:51Z</time>
      </trkpt>
      <trkpt lat="42.95547" lon="0.27947">
        <ele>1248</ele>
        <time>2019-08-23T08:40:52Z</time>
      </trkpt>
      <trkpt lat="42.95541" lon="0.27955">
        <ele>1247.4000244141</ele>
        <time>2019-08-23T08:40:53Z</time>
      </trkpt>
      <trkpt lat="42.95535" lon="0.27962">
        <ele>1246.5999755859</ele>
        <time>2019-08-23T08:40:54Z</time>
      </trkpt>
      <trkpt lat="42.95529" lon="0.2797">
        <ele>1245.8000488281</ele>
        <time>2019-08-23T08:40:55Z</time>
      </trkpt>
      <trkpt lat="42.95524" lon="0.27977">
        <ele>1245.1999511719</ele>
        <time>2019-08-23T08:40:56Z</time>
      </trkpt>
      <trkpt lat="42.95518" lon="0.27984">
        <ele>1244.4000244141</ele>
        <time>2019-08-23T08:40:57Z</time>
      </trkpt>
      <trkpt lat="42.95513" lon="0.27991">
        <ele>1243.5999755859</ele>
        <time>2019-08-23T08:40:58Z</time>
      </trkpt>
      <trkpt lat="42.95508" lon="0.27997">
        <ele>1243</ele>
        <time>2019-08-23T08:40:59Z</time>
      </trkpt>
      <trkpt lat="42.95504" lon="0.28001">
        <ele>1242.1999511719</ele>
        <time>2019-08-23T08:41:00Z</time>
      </trkpt>
      <trkpt lat="42.95499" lon="0.28003">
        <ele>1241.5999755859</ele>
        <time>2019-08-23T08:41:01Z</time>
      </trkpt>
      <trkpt lat="42.95487" lon="0.27998">
        <ele>1241.5999755859</ele>
        <time>2019-08-23T08:41:04Z</time>
      </trkpt>
      <trkpt lat="42.95481" lon="0.27986">
        <ele>1241.1999511719</ele>
        <time>2019-08-23T08:41:06Z</time>
      </trkpt>
      <trkpt lat="42.95479" lon="0.27979">
        <ele>1240.8000488281</ele>
        <time>2019-08-23T08:41:07Z</time>
      </trkpt>
      <trkpt lat="42.95477" lon="0.27971">
        <ele>1240.1999511719</ele>
        <time>2019-08-23T08:41:08Z</time>
      </trkpt>
      <trkpt lat="42.95475" lon="0.27962">
        <ele>1239.8000488281</ele>
        <time>2019-08-23T08:41:09Z</time>
      </trkpt>
      <trkpt lat="42.95472" lon="0.27953">
        <ele>1239.4000244141</ele>
        <time>2019-08-23T08:41:10Z</time>
      </trkpt>
      <trkpt lat="42.9547" lon="0.27945">
        <ele>1239</ele>
        <time>2019-08-23T08:41:11Z</time>
      </trkpt>
      <trkpt lat="42.95469" lon="0.27936">
        <ele>1238.5999755859</ele>
        <time>2019-08-23T08:41:12Z</time>
      </trkpt>
      <trkpt lat="42.95467" lon="0.27928">
        <ele>1238</ele>
        <time>2019-08-23T08:41:13Z</time>
      </trkpt>
      <trkpt lat="42.95466" lon="0.27921">
        <ele>1237.5999755859</ele>
        <time>2019-08-23T08:41:14Z</time>
      </trkpt>
      <trkpt lat="42.95463" lon="0.27913">
        <ele>1237</ele>
        <time>2019-08-23T08:41:15Z</time>
      </trkpt>
      <trkpt lat="42.95461" lon="0.27904">
        <ele>1236.5999755859</ele>
        <time>2019-08-23T08:41:16Z</time>
      </trkpt>
      <trkpt lat="42.95459" lon="0.27895">
        <ele>1236</ele>
        <time>2019-08-23T08:41:17Z</time>
      </trkpt>
      <trkpt lat="42.95456" lon="0.27885">
        <ele>1235.1999511719</ele>
        <time>2019-08-23T08:41:18Z</time>
      </trkpt>
      <trkpt lat="42.95454" lon="0.27876">
        <ele>1234.5999755859</ele>
        <time>2019-08-23T08:41:19Z</time>
      </trkpt>
      <trkpt lat="42.95451" lon="0.27867">
        <ele>1233.8000488281</ele>
        <time>2019-08-23T08:41:20Z</time>
      </trkpt>
      <trkpt lat="42.95448" lon="0.27858">
        <ele>1233.1999511719</ele>
        <time>2019-08-23T08:41:21Z</time>
      </trkpt>
      <trkpt lat="42.95445" lon="0.27849">
        <ele>1232.5999755859</ele>
        <time>2019-08-23T08:41:22Z</time>
      </trkpt>
      <trkpt lat="42.95442" lon="0.27841">
        <ele>1231.8000488281</ele>
        <time>2019-08-23T08:41:23Z</time>
      </trkpt>
      <trkpt lat="42.95437" lon="0.27833">
        <ele>1231.1999511719</ele>
        <time>2019-08-23T08:41:24Z</time>
      </trkpt>
      <trkpt lat="42.95432" lon="0.27825">
        <ele>1230.4000244141</ele>
        <time>2019-08-23T08:41:25Z</time>
      </trkpt>
      <trkpt lat="42.95427" lon="0.27817">
        <ele>1229.8000488281</ele>
        <time>2019-08-23T08:41:26Z</time>
      </trkpt>
      <trkpt lat="42.95422" lon="0.27809">
        <ele>1229.1999511719</ele>
        <time>2019-08-23T08:41:27Z</time>
      </trkpt>
      <trkpt lat="42.95417" lon="0.27803">
        <ele>1227.8000488281</ele>
        <time>2019-08-23T08:41:28Z</time>
      </trkpt>
      <trkpt lat="42.95412" lon="0.27796">
        <ele>1227</ele>
        <time>2019-08-23T08:41:29Z</time>
      </trkpt>
      <trkpt lat="42.95407" lon="0.27789">
        <ele>1226.4000244141</ele>
        <time>2019-08-23T08:41:30Z</time>
      </trkpt>
      <trkpt lat="42.95402" lon="0.27782">
        <ele>1225.8000488281</ele>
        <time>2019-08-23T08:41:31Z</time>
      </trkpt>
      <trkpt lat="42.95398" lon="0.27776">
        <ele>1225.1999511719</ele>
        <time>2019-08-23T08:41:32Z</time>
      </trkpt>
      <trkpt lat="42.95393" lon="0.27771">
        <ele>1224.5999755859</ele>
        <time>2019-08-23T08:41:33Z</time>
      </trkpt>
      <trkpt lat="42.95387" lon="0.27766">
        <ele>1224</ele>
        <time>2019-08-23T08:41:34Z</time>
      </trkpt>
      <trkpt lat="42.95382" lon="0.27761">
        <ele>1223.4000244141</ele>
        <time>2019-08-23T08:41:35Z</time>
      </trkpt>
      <trkpt lat="42.95377" lon="0.27755">
        <ele>1222.8000488281</ele>
        <time>2019-08-23T08:41:36Z</time>
      </trkpt>
      <trkpt lat="42.95371" lon="0.27749">
        <ele>1222.1999511719</ele>
        <time>2019-08-23T08:41:37Z</time>
      </trkpt>
      <trkpt lat="42.95367" lon="0.27743">
        <ele>1221.4000244141</ele>
        <time>2019-08-23T08:41:38Z</time>
      </trkpt>
      <trkpt lat="42.95362" lon="0.27736">
        <ele>1220.8000488281</ele>
        <time>2019-08-23T08:41:39Z</time>
      </trkpt>
      <trkpt lat="42.95357" lon="0.27729">
        <ele>1220.1999511719</ele>
        <time>2019-08-23T08:41:40Z</time>
      </trkpt>
      <trkpt lat="42.95351" lon="0.27722">
        <ele>1219.4000244141</ele>
        <time>2019-08-23T08:41:41Z</time>
      </trkpt>
      <trkpt lat="42.95346" lon="0.27715">
        <ele>1218.8000488281</ele>
        <time>2019-08-23T08:41:42Z</time>
      </trkpt>
      <trkpt lat="42.9534" lon="0.27708">
        <ele>1218</ele>
        <time>2019-08-23T08:41:43Z</time>
      </trkpt>
      <trkpt lat="42.95335" lon="0.27702">
        <ele>1217.4000244141</ele>
        <time>2019-08-23T08:41:44Z</time>
      </trkpt>
      <trkpt lat="42.95329" lon="0.27696">
        <ele>1216.5999755859</ele>
        <time>2019-08-23T08:41:45Z</time>
      </trkpt>
      <trkpt lat="42.95323" lon="0.2769">
        <ele>1215.5999755859</ele>
        <time>2019-08-23T08:41:46Z</time>
      </trkpt>
      <trkpt lat="42.95317" lon="0.27684">
        <ele>1214.8000488281</ele>
        <time>2019-08-23T08:41:47Z</time>
      </trkpt>
      <trkpt lat="42.95311" lon="0.27677">
        <ele>1213.8000488281</ele>
        <time>2019-08-23T08:41:48Z</time>
      </trkpt>
      <trkpt lat="42.95304" lon="0.27669">
        <ele>1213.1999511719</ele>
        <time>2019-08-23T08:41:49Z</time>
      </trkpt>
      <trkpt lat="42.95299" lon="0.27661">
        <ele>1212.4000244141</ele>
        <time>2019-08-23T08:41:50Z</time>
      </trkpt>
      <trkpt lat="42.95293" lon="0.27653">
        <ele>1211.5999755859</ele>
        <time>2019-08-23T08:41:51Z</time>
      </trkpt>
      <trkpt lat="42.95289" lon="0.27645">
        <ele>1210</ele>
        <time>2019-08-23T08:41:52Z</time>
      </trkpt>
      <trkpt lat="42.95285" lon="0.27638">
        <ele>1209.4000244141</ele>
        <time>2019-08-23T08:41:53Z</time>
      </trkpt>
      <trkpt lat="42.95282" lon="0.2763">
        <ele>1208.5999755859</ele>
        <time>2019-08-23T08:41:54Z</time>
      </trkpt>
      <trkpt lat="42.95279" lon="0.27621">
        <ele>1208</ele>
        <time>2019-08-23T08:41:55Z</time>
      </trkpt>
      <trkpt lat="42.95277" lon="0.27612">
        <ele>1207.4000244141</ele>
        <time>2019-08-23T08:41:56Z</time>
      </trkpt>
      <trkpt lat="42.95275" lon="0.27604">
        <ele>1206.8000488281</ele>
        <time>2019-08-23T08:41:57Z</time>
      </trkpt>
      <trkpt lat="42.95272" lon="0.27596">
        <ele>1206.4000244141</ele>
        <time>2019-08-23T08:41:58Z</time>
      </trkpt>
      <trkpt lat="42.9527" lon="0.27589">
        <ele>1205.8000488281</ele>
        <time>2019-08-23T08:41:59Z</time>
      </trkpt>
      <trkpt lat="42.95269" lon="0.27582">
        <ele>1205.4000244141</ele>
        <time>2019-08-23T08:42:00Z</time>
      </trkpt>
      <trkpt lat="42.95267" lon="0.27574">
        <ele>1204.8000488281</ele>
        <time>2019-08-23T08:42:01Z</time>
      </trkpt>
      <trkpt lat="42.95264" lon="0.27566">
        <ele>1204.4000244141</ele>
        <time>2019-08-23T08:42:02Z</time>
      </trkpt>
      <trkpt lat="42.95262" lon="0.27558">
        <ele>1203.8000488281</ele>
        <time>2019-08-23T08:42:03Z</time>
      </trkpt>
      <trkpt lat="42.9526" lon="0.27549">
        <ele>1203.1999511719</ele>
        <time>2019-08-23T08:42:04Z</time>
      </trkpt>
      <trkpt lat="42.95258" lon="0.27542">
        <ele>1202.5999755859</ele>
        <time>2019-08-23T08:42:05Z</time>
      </trkpt>
      <trkpt lat="42.95256" lon="0.27533">
        <ele>1202</ele>
        <time>2019-08-23T08:42:06Z</time>
      </trkpt>
      <trkpt lat="42.95254" lon="0.27524">
        <ele>1201.4000244141</ele>
        <time>2019-08-23T08:42:07Z</time>
      </trkpt>
      <trkpt lat="42.95253" lon="0.27514">
        <ele>1200.8000488281</ele>
        <time>2019-08-23T08:42:08Z</time>
      </trkpt>
      <trkpt lat="42.95251" lon="0.27505">
        <ele>1200</ele>
        <time>2019-08-23T08:42:09Z</time>
      </trkpt>
      <trkpt lat="42.9525" lon="0.27495">
        <ele>1199.4000244141</ele>
        <time>2019-08-23T08:42:10Z</time>
      </trkpt>
      <trkpt lat="42.95249" lon="0.27485">
        <ele>1198.5999755859</ele>
        <time>2019-08-23T08:42:11Z</time>
      </trkpt>
      <trkpt lat="42.95248" lon="0.27474">
        <ele>1197.8000488281</ele>
        <time>2019-08-23T08:42:12Z</time>
      </trkpt>
      <trkpt lat="42.95246" lon="0.27464">
        <ele>1197</ele>
        <time>2019-08-23T08:42:13Z</time>
      </trkpt>
      <trkpt lat="42.95245" lon="0.27454">
        <ele>1196.4000244141</ele>
        <time>2019-08-23T08:42:14Z</time>
      </trkpt>
      <trkpt lat="42.95244" lon="0.27445">
        <ele>1195.8000488281</ele>
        <time>2019-08-23T08:42:15Z</time>
      </trkpt>
      <trkpt lat="42.95243" lon="0.27437">
        <ele>1195.1999511719</ele>
        <time>2019-08-23T08:42:16Z</time>
      </trkpt>
      <trkpt lat="42.95241" lon="0.27429">
        <ele>1194.5999755859</ele>
        <time>2019-08-23T08:42:17Z</time>
      </trkpt>
      <trkpt lat="42.95239" lon="0.27423">
        <ele>1193.5999755859</ele>
        <time>2019-08-23T08:42:18Z</time>
      </trkpt>
      <trkpt lat="42.95237" lon="0.27416">
        <ele>1193.1999511719</ele>
        <time>2019-08-23T08:42:19Z</time>
      </trkpt>
      <trkpt lat="42.95234" lon="0.2741">
        <ele>1192.8000488281</ele>
        <time>2019-08-23T08:42:20Z</time>
      </trkpt>
      <trkpt lat="42.95232" lon="0.27404">
        <ele>1192.4000244141</ele>
        <time>2019-08-23T08:42:21Z</time>
      </trkpt>
      <trkpt lat="42.95229" lon="0.27398">
        <ele>1191.8000488281</ele>
        <time>2019-08-23T08:42:22Z</time>
      </trkpt>
      <trkpt lat="42.95226" lon="0.27391">
        <ele>1191.4000244141</ele>
        <time>2019-08-23T08:42:23Z</time>
      </trkpt>
      <trkpt lat="42.95222" lon="0.27384">
        <ele>1190.8000488281</ele>
        <time>2019-08-23T08:42:24Z</time>
      </trkpt>
      <trkpt lat="42.95218" lon="0.27379">
        <ele>1190.4000244141</ele>
        <time>2019-08-23T08:42:25Z</time>
      </trkpt>
      <trkpt lat="42.95214" lon="0.27374">
        <ele>1189.8000488281</ele>
        <time>2019-08-23T08:42:26Z</time>
      </trkpt>
      <trkpt lat="42.95209" lon="0.27371">
        <ele>1189.1999511719</ele>
        <time>2019-08-23T08:42:27Z</time>
      </trkpt>
      <trkpt lat="42.95203" lon="0.27368">
        <ele>1188.5999755859</ele>
        <time>2019-08-23T08:42:28Z</time>
      </trkpt>
      <trkpt lat="42.95197" lon="0.27364">
        <ele>1188</ele>
        <time>2019-08-23T08:42:29Z</time>
      </trkpt>
      <trkpt lat="42.95191" lon="0.27361">
        <ele>1187.4000244141</ele>
        <time>2019-08-23T08:42:30Z</time>
      </trkpt>
      <trkpt lat="42.95184" lon="0.27359">
        <ele>1186.8000488281</ele>
        <time>2019-08-23T08:42:31Z</time>
      </trkpt>
      <trkpt lat="42.95177" lon="0.27355">
        <ele>1186.1999511719</ele>
        <time>2019-08-23T08:42:32Z</time>
      </trkpt>
      <trkpt lat="42.95171" lon="0.27352">
        <ele>1185.5999755859</ele>
        <time>2019-08-23T08:42:33Z</time>
      </trkpt>
      <trkpt lat="42.95165" lon="0.27348">
        <ele>1185</ele>
        <time>2019-08-23T08:42:34Z</time>
      </trkpt>
      <trkpt lat="42.95159" lon="0.27344">
        <ele>1185</ele>
        <time>2019-08-23T08:42:35Z</time>
      </trkpt>
      <trkpt lat="42.95152" lon="0.27334">
        <ele>1185</ele>
        <time>2019-08-23T08:42:37Z</time>
      </trkpt>
      <trkpt lat="42.95147" lon="0.27325">
        <ele>1185</ele>
        <time>2019-08-23T08:42:41Z</time>
      </trkpt>
      <trkpt lat="42.95148" lon="0.27326">
        <ele>1185</ele>
        <time>2019-08-23T08:42:42Z</time>
      </trkpt>
      <trkpt lat="42.95151" lon="0.27324">
        <ele>1184.4000244141</ele>
        <time>2019-08-23T08:42:44Z</time>
      </trkpt>
      <trkpt lat="42.95151" lon="0.27323">
        <ele>1184</ele>
        <time>2019-08-23T08:42:45Z</time>
      </trkpt>
      <trkpt lat="42.95151" lon="0.27324">
        <ele>1183.5999755859</ele>
        <time>2019-08-23T08:42:46Z</time>
      </trkpt>
      <trkpt lat="42.95151" lon="0.27324">
        <ele>1183.1999511719</ele>
        <time>2019-08-23T08:42:47Z</time>
      </trkpt>
      <trkpt lat="42.9515" lon="0.27323">
        <ele>1182.8000488281</ele>
        <time>2019-08-23T08:42:48Z</time>
      </trkpt>
      <trkpt lat="42.9515" lon="0.27323">
        <ele>1182.8000488281</ele>
        <time>2019-08-23T08:42:49Z</time>
      </trkpt>
      <trkpt lat="42.95152" lon="0.2732">
        <ele>1182.8000488281</ele>
        <time>2019-08-23T08:42:56Z</time>
      </trkpt>
      <trkpt lat="42.95154" lon="0.27319">
        <ele>1182.8000488281</ele>
        <time>2019-08-23T08:42:57Z</time>
      </trkpt>
      <trkpt lat="42.95161" lon="0.2732">
        <ele>1182.8000488281</ele>
        <time>2019-08-23T08:42:59Z</time>
      </trkpt>
      <trkpt lat="42.95172" lon="0.27329">
        <ele>1182.4000244141</ele>
        <time>2019-08-23T08:43:01Z</time>
      </trkpt>
      <trkpt lat="42.95176" lon="0.27331">
        <ele>1182</ele>
        <time>2019-08-23T08:43:02Z</time>
      </trkpt>
      <trkpt lat="42.9518" lon="0.27333">
        <ele>1181.5999755859</ele>
        <time>2019-08-23T08:43:03Z</time>
      </trkpt>
      <trkpt lat="42.95184" lon="0.27334">
        <ele>1181</ele>
        <time>2019-08-23T08:43:04Z</time>
      </trkpt>
      <trkpt lat="42.95187" lon="0.27336">
        <ele>1180.5999755859</ele>
        <time>2019-08-23T08:43:05Z</time>
      </trkpt>
      <trkpt lat="42.95192" lon="0.27338">
        <ele>1180.5999755859</ele>
        <time>2019-08-23T08:43:07Z</time>
      </trkpt>
      <trkpt lat="42.95198" lon="0.27341">
        <ele>1180.5999755859</ele>
        <time>2019-08-23T08:43:13Z</time>
      </trkpt>
      <trkpt lat="42.952" lon="0.27342">
        <ele>1180.5999755859</ele>
        <time>2019-08-23T08:43:20Z</time>
      </trkpt>
      <trkpt lat="42.95197" lon="0.27341">
        <ele>1180.5999755859</ele>
        <time>2019-08-23T08:43:26Z</time>
      </trkpt>
      <trkpt lat="42.95196" lon="0.27341">
        <ele>1180.5999755859</ele>
        <time>2019-08-23T08:43:32Z</time>
      </trkpt>
      <trkpt lat="42.95193" lon="0.2734">
        <ele>1180.5999755859</ele>
        <time>2019-08-23T08:43:34Z</time>
      </trkpt>
      <trkpt lat="42.95187" lon="0.27338">
        <ele>1180.5999755859</ele>
        <time>2019-08-23T08:43:38Z</time>
      </trkpt>
      <trkpt lat="42.95175" lon="0.27334">
        <ele>1180.5999755859</ele>
        <time>2019-08-23T08:43:44Z</time>
      </trkpt>
      <trkpt lat="42.95174" lon="0.27334">
        <ele>1180.5999755859</ele>
        <time>2019-08-23T08:43:45Z</time>
      </trkpt>
      <trkpt lat="42.95167" lon="0.27336">
        <ele>1180.5999755859</ele>
        <time>2019-08-23T08:43:49Z</time>
      </trkpt>
      <trkpt lat="42.95164" lon="0.27335">
        <ele>1180.5999755859</ele>
        <time>2019-08-23T08:43:54Z</time>
      </trkpt>
      <trkpt lat="42.95162" lon="0.27333">
        <ele>1180.5999755859</ele>
        <time>2019-08-23T08:44:01Z</time>
      </trkpt>
      <trkpt lat="42.95159" lon="0.27336">
        <ele>1180.5999755859</ele>
        <time>2019-08-23T08:44:06Z</time>
      </trkpt>
      <trkpt lat="42.95159" lon="0.27336">
        <ele>1180.5999755859</ele>
        <time>2019-08-23T08:44:15Z</time>
      </trkpt>
      <trkpt lat="42.95159" lon="0.27336">
        <ele>1180.5999755859</ele>
        <time>2019-08-23T08:44:27Z</time>
      </trkpt>
      <trkpt lat="42.95159" lon="0.27337">
        <ele>1180.5999755859</ele>
        <time>2019-08-23T08:44:37Z</time>
      </trkpt>
      <trkpt lat="42.95159" lon="0.27337">
        <ele>1180.5999755859</ele>
        <time>2019-08-23T08:44:45Z</time>
      </trkpt>
      <trkpt lat="42.95159" lon="0.27337">
        <ele>1180.5999755859</ele>
        <time>2019-08-23T08:44:57Z</time>
      </trkpt>
      <trkpt lat="42.95159" lon="0.27337">
        <ele>1180.5999755859</ele>
        <time>2019-08-23T08:45:08Z</time>
      </trkpt>
      <trkpt lat="42.9516" lon="0.27338">
        <ele>1180.5999755859</ele>
        <time>2019-08-23T08:45:15Z</time>
      </trkpt>
      <trkpt lat="42.9516" lon="0.27338">
        <ele>1180.5999755859</ele>
        <time>2019-08-23T08:45:27Z</time>
      </trkpt>
      <trkpt lat="42.9516" lon="0.27338">
        <ele>1180.5999755859</ele>
        <time>2019-08-23T08:45:42Z</time>
      </trkpt>
      <trkpt lat="42.95159" lon="0.27338">
        <ele>1180.5999755859</ele>
        <time>2019-08-23T08:45:53Z</time>
      </trkpt>
      <trkpt lat="42.95159" lon="0.27338">
        <ele>1180.5999755859</ele>
        <time>2019-08-23T08:46:05Z</time>
      </trkpt>
      <trkpt lat="42.95159" lon="0.27338">
        <ele>1180.5999755859</ele>
        <time>2019-08-23T08:46:14Z</time>
      </trkpt>
      <trkpt lat="42.95159" lon="0.27338">
        <ele>1180.5999755859</ele>
        <time>2019-08-23T08:46:23Z</time>
      </trkpt>
      <trkpt lat="42.95159" lon="0.27338">
        <ele>1180.5999755859</ele>
        <time>2019-08-23T08:46:28Z</time>
      </trkpt>
      <trkpt lat="42.95159" lon="0.27338">
        <ele>1180.5999755859</ele>
        <time>2019-08-23T08:46:37Z</time>
      </trkpt>
      <trkpt lat="42.95159" lon="0.27338">
        <ele>1180.5999755859</ele>
        <time>2019-08-23T08:46:52Z</time>
      </trkpt>
      <trkpt lat="42.95159" lon="0.27338">
        <ele>1180.5999755859</ele>
        <time>2019-08-23T08:47:06Z</time>
      </trkpt>
      <trkpt lat="42.95159" lon="0.27339">
        <ele>1180.5999755859</ele>
        <time>2019-08-23T08:47:17Z</time>
      </trkpt>
      <trkpt lat="42.95159" lon="0.27339">
        <ele>1180.5999755859</ele>
        <time>2019-08-23T08:47:33Z</time>
      </trkpt>
      <trkpt lat="42.95159" lon="0.27339">
        <ele>1180.5999755859</ele>
        <time>2019-08-23T08:47:47Z</time>
      </trkpt>
      <trkpt lat="42.95159" lon="0.27339">
        <ele>1180.5999755859</ele>
        <time>2019-08-23T08:48:00Z</time>
      </trkpt>
      <trkpt lat="42.95159" lon="0.27339">
        <ele>1180.5999755859</ele>
        <time>2019-08-23T08:48:14Z</time>
      </trkpt>
      <trkpt lat="42.95159" lon="0.27339">
        <ele>1180.5999755859</ele>
        <time>2019-08-23T08:48:28Z</time>
      </trkpt>
      <trkpt lat="42.95159" lon="0.27339">
        <ele>1180.5999755859</ele>
        <time>2019-08-23T08:48:41Z</time>
      </trkpt>
      <trkpt lat="42.95159" lon="0.27339">
        <ele>1180.5999755859</ele>
        <time>2019-08-23T08:48:54Z</time>
      </trkpt>
      <trkpt lat="42.95159" lon="0.27339">
        <ele>1180.5999755859</ele>
        <time>2019-08-23T08:49:03Z</time>
      </trkpt>
      <trkpt lat="42.95158" lon="0.2734">
        <ele>1180.5999755859</ele>
        <time>2019-08-23T08:49:15Z</time>
      </trkpt>
      <trkpt lat="42.95158" lon="0.2734">
        <ele>1180.5999755859</ele>
        <time>2019-08-23T08:49:28Z</time>
      </trkpt>
      <trkpt lat="42.95158" lon="0.2734">
        <ele>1180.5999755859</ele>
        <time>2019-08-23T08:49:39Z</time>
      </trkpt>
      <trkpt lat="42.95158" lon="0.2734">
        <ele>1180.5999755859</ele>
        <time>2019-08-23T08:49:51Z</time>
      </trkpt>
      <trkpt lat="42.95158" lon="0.2734">
        <ele>1180.5999755859</ele>
        <time>2019-08-23T08:50:03Z</time>
      </trkpt>
      <trkpt lat="42.95158" lon="0.2734">
        <ele>1180.5999755859</ele>
        <time>2019-08-23T08:50:18Z</time>
      </trkpt>
      <trkpt lat="42.95158" lon="0.2734">
        <ele>1180.5999755859</ele>
        <time>2019-08-23T08:50:33Z</time>
      </trkpt>
      <trkpt lat="42.95158" lon="0.2734">
        <ele>1180.5999755859</ele>
        <time>2019-08-23T08:50:49Z</time>
      </trkpt>
      <trkpt lat="42.95158" lon="0.2734">
        <ele>1180.5999755859</ele>
        <time>2019-08-23T08:51:02Z</time>
      </trkpt>
      <trkpt lat="42.95159" lon="0.27339">
        <ele>1180.5999755859</ele>
        <time>2019-08-23T08:51:21Z</time>
      </trkpt>
      <trkpt lat="42.95159" lon="0.27339">
        <ele>1180.5999755859</ele>
        <time>2019-08-23T08:51:38Z</time>
      </trkpt>
      <trkpt lat="42.95159" lon="0.27339">
        <ele>1180.5999755859</ele>
        <time>2019-08-23T08:51:48Z</time>
      </trkpt>
      <trkpt lat="42.95155" lon="0.27343">
        <ele>1180.5999755859</ele>
        <time>2019-08-23T08:51:53Z</time>
      </trkpt>
      <trkpt lat="42.95148" lon="0.27346">
        <ele>1180.5999755859</ele>
        <time>2019-08-23T08:51:58Z</time>
      </trkpt>
      <trkpt lat="42.95139" lon="0.2735">
        <ele>1180.5999755859</ele>
        <time>2019-08-23T08:52:04Z</time>
      </trkpt>
      <trkpt lat="42.95138" lon="0.27351">
        <ele>1180.5999755859</ele>
        <time>2019-08-23T08:52:05Z</time>
      </trkpt>
      <trkpt lat="42.95131" lon="0.27355">
        <ele>1180.5999755859</ele>
        <time>2019-08-23T08:52:09Z</time>
      </trkpt>
      <trkpt lat="42.95128" lon="0.27357">
        <ele>1180.5999755859</ele>
        <time>2019-08-23T08:52:11Z</time>
      </trkpt>
      <trkpt lat="42.95124" lon="0.27359">
        <ele>1181</ele>
        <time>2019-08-23T08:52:13Z</time>
      </trkpt>
      <trkpt lat="42.95122" lon="0.27359">
        <ele>1181.5999755859</ele>
        <time>2019-08-23T08:52:14Z</time>
      </trkpt>
      <trkpt lat="42.95121" lon="0.27359">
        <ele>1182</ele>
        <time>2019-08-23T08:52:15Z</time>
      </trkpt>
      <trkpt lat="42.95119" lon="0.2736">
        <ele>1182.4000244141</ele>
        <time>2019-08-23T08:52:16Z</time>
      </trkpt>
      <trkpt lat="42.95117" lon="0.2736">
        <ele>1182.8000488281</ele>
        <time>2019-08-23T08:52:17Z</time>
      </trkpt>
      <trkpt lat="42.95103" lon="0.27363">
        <ele>1182.8000488281</ele>
        <time>2019-08-23T08:52:24Z</time>
      </trkpt>
      <trkpt lat="42.95095" lon="0.27363">
        <ele>1183.1999511719</ele>
        <time>2019-08-23T08:52:29Z</time>
      </trkpt>
      <trkpt lat="42.95094" lon="0.27364">
        <ele>1183.5999755859</ele>
        <time>2019-08-23T08:52:30Z</time>
      </trkpt>
      <trkpt lat="42.95092" lon="0.27365">
        <ele>1184</ele>
        <time>2019-08-23T08:52:31Z</time>
      </trkpt>
      <trkpt lat="42.9509" lon="0.27366">
        <ele>1184.4000244141</ele>
        <time>2019-08-23T08:52:32Z</time>
      </trkpt>
      <trkpt lat="42.95089" lon="0.27367">
        <ele>1184.8000488281</ele>
        <time>2019-08-23T08:52:33Z</time>
      </trkpt>
      <trkpt lat="42.95087" lon="0.27369">
        <ele>1184.8000488281</ele>
        <time>2019-08-23T08:52:35Z</time>
      </trkpt>
      <trkpt lat="42.9508" lon="0.27372">
        <ele>1184.8000488281</ele>
        <time>2019-08-23T08:52:41Z</time>
      </trkpt>
      <trkpt lat="42.95078" lon="0.27373">
        <ele>1185.1999511719</ele>
        <time>2019-08-23T08:52:42Z</time>
      </trkpt>
      <trkpt lat="42.95076" lon="0.27374">
        <ele>1185.5999755859</ele>
        <time>2019-08-23T08:52:43Z</time>
      </trkpt>
      <trkpt lat="42.95075" lon="0.27374">
        <ele>1186</ele>
        <time>2019-08-23T08:52:44Z</time>
      </trkpt>
      <trkpt lat="42.95074" lon="0.27374">
        <ele>1186.4000244141</ele>
        <time>2019-08-23T08:52:45Z</time>
      </trkpt>
      <trkpt lat="42.95073" lon="0.27374">
        <ele>1186.8000488281</ele>
        <time>2019-08-23T08:52:46Z</time>
      </trkpt>
      <trkpt lat="42.95064" lon="0.27374">
        <ele>1186.8000488281</ele>
        <time>2019-08-23T08:52:53Z</time>
      </trkpt>
      <trkpt lat="42.9506" lon="0.27373">
        <ele>1187.1999511719</ele>
        <time>2019-08-23T08:52:56Z</time>
      </trkpt>
      <trkpt lat="42.95059" lon="0.27373">
        <ele>1187.5999755859</ele>
        <time>2019-08-23T08:52:57Z</time>
      </trkpt>
      <trkpt lat="42.95058" lon="0.27374">
        <ele>1188</ele>
        <time>2019-08-23T08:52:58Z</time>
      </trkpt>
      <trkpt lat="42.95057" lon="0.27373">
        <ele>1188.4000244141</ele>
        <time>2019-08-23T08:52:59Z</time>
      </trkpt>
      <trkpt lat="42.95055" lon="0.27373">
        <ele>1188.8000488281</ele>
        <time>2019-08-23T08:53:00Z</time>
      </trkpt>
      <trkpt lat="42.95044" lon="0.27371">
        <ele>1188.8000488281</ele>
        <time>2019-08-23T08:53:07Z</time>
      </trkpt>
      <trkpt lat="42.95036" lon="0.2737">
        <ele>1189.4000244141</ele>
        <time>2019-08-23T08:53:12Z</time>
      </trkpt>
      <trkpt lat="42.95035" lon="0.27369">
        <ele>1189.8000488281</ele>
        <time>2019-08-23T08:53:13Z</time>
      </trkpt>
      <trkpt lat="42.95033" lon="0.27369">
        <ele>1190.1999511719</ele>
        <time>2019-08-23T08:53:14Z</time>
      </trkpt>
      <trkpt lat="42.95032" lon="0.27368">
        <ele>1190.5999755859</ele>
        <time>2019-08-23T08:53:15Z</time>
      </trkpt>
      <trkpt lat="42.9503" lon="0.27368">
        <ele>1191</ele>
        <time>2019-08-23T08:53:16Z</time>
      </trkpt>
      <trkpt lat="42.95026" lon="0.27366">
        <ele>1191</ele>
        <time>2019-08-23T08:53:18Z</time>
      </trkpt>
      <trkpt lat="42.95019" lon="0.27366">
        <ele>1191</ele>
        <time>2019-08-23T08:53:22Z</time>
      </trkpt>
      <trkpt lat="42.95015" lon="0.27366">
        <ele>1191</ele>
        <time>2019-08-23T08:53:25Z</time>
      </trkpt>
      <trkpt lat="42.95012" lon="0.27366">
        <ele>1191.4000244141</ele>
        <time>2019-08-23T08:53:28Z</time>
      </trkpt>
      <trkpt lat="42.9501" lon="0.27366">
        <ele>1191.8000488281</ele>
        <time>2019-08-23T08:53:29Z</time>
      </trkpt>
      <trkpt lat="42.95008" lon="0.27365">
        <ele>1192.1999511719</ele>
        <time>2019-08-23T08:53:30Z</time>
      </trkpt>
      <trkpt lat="42.95006" lon="0.27365">
        <ele>1192.5999755859</ele>
        <time>2019-08-23T08:53:31Z</time>
      </trkpt>
      <trkpt lat="42.95005" lon="0.27364">
        <ele>1193</ele>
        <time>2019-08-23T08:53:32Z</time>
      </trkpt>
      <trkpt lat="42.94999" lon="0.27362">
        <ele>1193</ele>
        <time>2019-08-23T08:53:36Z</time>
      </trkpt>
      <trkpt lat="42.9499" lon="0.27362">
        <ele>1193</ele>
        <time>2019-08-23T08:53:42Z</time>
      </trkpt>
      <trkpt lat="42.94988" lon="0.27362">
        <ele>1193.4000244141</ele>
        <time>2019-08-23T08:53:43Z</time>
      </trkpt>
      <trkpt lat="42.94986" lon="0.27361">
        <ele>1193.8000488281</ele>
        <time>2019-08-23T08:53:44Z</time>
      </trkpt>
      <trkpt lat="42.94985" lon="0.27361">
        <ele>1194.1999511719</ele>
        <time>2019-08-23T08:53:45Z</time>
      </trkpt>
      <trkpt lat="42.94983" lon="0.27361">
        <ele>1194.8000488281</ele>
        <time>2019-08-23T08:53:46Z</time>
      </trkpt>
      <trkpt lat="42.94982" lon="0.27361">
        <ele>1195.1999511719</ele>
        <time>2019-08-23T08:53:47Z</time>
      </trkpt>
      <trkpt lat="42.9498" lon="0.27361">
        <ele>1195.1999511719</ele>
        <time>2019-08-23T08:53:48Z</time>
      </trkpt>
      <trkpt lat="42.94971" lon="0.2736">
        <ele>1195.1999511719</ele>
        <time>2019-08-23T08:53:54Z</time>
      </trkpt>
      <trkpt lat="42.94968" lon="0.2736">
        <ele>1195.1999511719</ele>
        <time>2019-08-23T08:53:56Z</time>
      </trkpt>
      <trkpt lat="42.94963" lon="0.27359">
        <ele>1195.1999511719</ele>
        <time>2019-08-23T08:53:59Z</time>
      </trkpt>
      <trkpt lat="42.94962" lon="0.27359">
        <ele>1195.5999755859</ele>
        <time>2019-08-23T08:54:00Z</time>
      </trkpt>
      <trkpt lat="42.94961" lon="0.27359">
        <ele>1196</ele>
        <time>2019-08-23T08:54:01Z</time>
      </trkpt>
      <trkpt lat="42.9496" lon="0.27359">
        <ele>1196.4000244141</ele>
        <time>2019-08-23T08:54:02Z</time>
      </trkpt>
      <trkpt lat="42.94958" lon="0.27359">
        <ele>1196.8000488281</ele>
        <time>2019-08-23T08:54:03Z</time>
      </trkpt>
      <trkpt lat="42.94957" lon="0.27359">
        <ele>1197.1999511719</ele>
        <time>2019-08-23T08:54:04Z</time>
      </trkpt>
      <trkpt lat="42.94956" lon="0.2736">
        <ele>1197.1999511719</ele>
        <time>2019-08-23T08:54:05Z</time>
      </trkpt>
      <trkpt lat="42.94947" lon="0.27358">
        <ele>1197.1999511719</ele>
        <time>2019-08-23T08:54:11Z</time>
      </trkpt>
      <trkpt lat="42.94941" lon="0.27354">
        <ele>1197.1999511719</ele>
        <time>2019-08-23T08:54:15Z</time>
      </trkpt>
      <trkpt lat="42.94937" lon="0.27352">
        <ele>1197.1999511719</ele>
        <time>2019-08-23T08:54:17Z</time>
      </trkpt>
      <trkpt lat="42.94935" lon="0.27352">
        <ele>1197.5999755859</ele>
        <time>2019-08-23T08:54:18Z</time>
      </trkpt>
      <trkpt lat="42.94933" lon="0.2735">
        <ele>1198</ele>
        <time>2019-08-23T08:54:19Z</time>
      </trkpt>
      <trkpt lat="42.94931" lon="0.27349">
        <ele>1198.4000244141</ele>
        <time>2019-08-23T08:54:20Z</time>
      </trkpt>
      <trkpt lat="42.94928" lon="0.27348">
        <ele>1198.8000488281</ele>
        <time>2019-08-23T08:54:21Z</time>
      </trkpt>
      <trkpt lat="42.94926" lon="0.27348">
        <ele>1199.4000244141</ele>
        <time>2019-08-23T08:54:22Z</time>
      </trkpt>
      <trkpt lat="42.94919" lon="0.27345">
        <ele>1199.4000244141</ele>
        <time>2019-08-23T08:54:25Z</time>
      </trkpt>
      <trkpt lat="42.94908" lon="0.27342">
        <ele>1199.4000244141</ele>
        <time>2019-08-23T08:54:31Z</time>
      </trkpt>
      <trkpt lat="42.949" lon="0.27341">
        <ele>1199.4000244141</ele>
        <time>2019-08-23T08:54:36Z</time>
      </trkpt>
      <trkpt lat="42.94898" lon="0.27341">
        <ele>1199.8000488281</ele>
        <time>2019-08-23T08:54:37Z</time>
      </trkpt>
      <trkpt lat="42.94896" lon="0.27341">
        <ele>1200.1999511719</ele>
        <time>2019-08-23T08:54:38Z</time>
      </trkpt>
      <trkpt lat="42.94894" lon="0.27341">
        <ele>1200.5999755859</ele>
        <time>2019-08-23T08:54:39Z</time>
      </trkpt>
      <trkpt lat="42.94893" lon="0.27341">
        <ele>1201.4000244141</ele>
        <time>2019-08-23T08:54:40Z</time>
      </trkpt>
      <trkpt lat="42.94889" lon="0.27341">
        <ele>1201.4000244141</ele>
        <time>2019-08-23T08:54:42Z</time>
      </trkpt>
      <trkpt lat="42.94882" lon="0.2734">
        <ele>1201.4000244141</ele>
        <time>2019-08-23T08:54:47Z</time>
      </trkpt>
      <trkpt lat="42.94879" lon="0.27341">
        <ele>1201.8000488281</ele>
        <time>2019-08-23T08:54:50Z</time>
      </trkpt>
      <trkpt lat="42.94876" lon="0.2734">
        <ele>1202.1999511719</ele>
        <time>2019-08-23T08:54:51Z</time>
      </trkpt>
      <trkpt lat="42.94874" lon="0.27339">
        <ele>1202.5999755859</ele>
        <time>2019-08-23T08:54:52Z</time>
      </trkpt>
      <trkpt lat="42.94871" lon="0.27339">
        <ele>1203</ele>
        <time>2019-08-23T08:54:53Z</time>
      </trkpt>
      <trkpt lat="42.9487" lon="0.27338">
        <ele>1203.4000244141</ele>
        <time>2019-08-23T08:54:54Z</time>
      </trkpt>
      <trkpt lat="42.94862" lon="0.27338">
        <ele>1203.4000244141</ele>
        <time>2019-08-23T08:54:57Z</time>
      </trkpt>
      <trkpt lat="42.9486" lon="0.27338">
        <ele>1203.4000244141</ele>
        <time>2019-08-23T08:54:58Z</time>
      </trkpt>
      <trkpt lat="42.94853" lon="0.27342">
        <ele>1203.4000244141</ele>
        <time>2019-08-23T08:55:04Z</time>
      </trkpt>
      <trkpt lat="42.94852" lon="0.27343">
        <ele>1203.8000488281</ele>
        <time>2019-08-23T08:55:05Z</time>
      </trkpt>
      <trkpt lat="42.94851" lon="0.27344">
        <ele>1204.1999511719</ele>
        <time>2019-08-23T08:55:06Z</time>
      </trkpt>
      <trkpt lat="42.94849" lon="0.27345">
        <ele>1204.5999755859</ele>
        <time>2019-08-23T08:55:07Z</time>
      </trkpt>
      <trkpt lat="42.94847" lon="0.27345">
        <ele>1205</ele>
        <time>2019-08-23T08:55:08Z</time>
      </trkpt>
      <trkpt lat="42.94845" lon="0.27346">
        <ele>1205.4000244141</ele>
        <time>2019-08-23T08:55:09Z</time>
      </trkpt>
      <trkpt lat="42.94844" lon="0.27347">
        <ele>1205.4000244141</ele>
        <time>2019-08-23T08:55:10Z</time>
      </trkpt>
      <trkpt lat="42.94832" lon="0.27352">
        <ele>1205.4000244141</ele>
        <time>2019-08-23T08:55:17Z</time>
      </trkpt>
      <trkpt lat="42.94827" lon="0.27358">
        <ele>1205.8000488281</ele>
        <time>2019-08-23T08:55:20Z</time>
      </trkpt>
      <trkpt lat="42.94825" lon="0.2736">
        <ele>1206.1999511719</ele>
        <time>2019-08-23T08:55:21Z</time>
      </trkpt>
      <trkpt lat="42.94824" lon="0.27362">
        <ele>1206.8000488281</ele>
        <time>2019-08-23T08:55:22Z</time>
      </trkpt>
      <trkpt lat="42.94823" lon="0.27364">
        <ele>1207.1999511719</ele>
        <time>2019-08-23T08:55:23Z</time>
      </trkpt>
      <trkpt lat="42.94821" lon="0.27365">
        <ele>1207.5999755859</ele>
        <time>2019-08-23T08:55:24Z</time>
      </trkpt>
      <trkpt lat="42.94815" lon="0.27379">
        <ele>1207.5999755859</ele>
        <time>2019-08-23T08:55:30Z</time>
      </trkpt>
      <trkpt lat="42.94812" lon="0.2739">
        <ele>1207.5999755859</ele>
        <time>2019-08-23T08:55:35Z</time>
      </trkpt>
      <trkpt lat="42.94811" lon="0.27392">
        <ele>1208</ele>
        <time>2019-08-23T08:55:36Z</time>
      </trkpt>
      <trkpt lat="42.94811" lon="0.27394">
        <ele>1208.4000244141</ele>
        <time>2019-08-23T08:55:37Z</time>
      </trkpt>
      <trkpt lat="42.94811" lon="0.27396">
        <ele>1208.8000488281</ele>
        <time>2019-08-23T08:55:38Z</time>
      </trkpt>
      <trkpt lat="42.94811" lon="0.27397">
        <ele>1209.1999511719</ele>
        <time>2019-08-23T08:55:39Z</time>
      </trkpt>
      <trkpt lat="42.9481" lon="0.27399">
        <ele>1209.5999755859</ele>
        <time>2019-08-23T08:55:40Z</time>
      </trkpt>
      <trkpt lat="42.94809" lon="0.27401">
        <ele>1209.5999755859</ele>
        <time>2019-08-23T08:55:42Z</time>
      </trkpt>
      <trkpt lat="42.94805" lon="0.27412">
        <ele>1209.5999755859</ele>
        <time>2019-08-23T08:55:47Z</time>
      </trkpt>
      <trkpt lat="42.94805" lon="0.27415">
        <ele>1209.5999755859</ele>
        <time>2019-08-23T08:55:48Z</time>
      </trkpt>
      <trkpt lat="42.94802" lon="0.27421">
        <ele>1210</ele>
        <time>2019-08-23T08:55:51Z</time>
      </trkpt>
      <trkpt lat="42.94802" lon="0.27422">
        <ele>1210.4000244141</ele>
        <time>2019-08-23T08:55:52Z</time>
      </trkpt>
      <trkpt lat="42.94801" lon="0.27425">
        <ele>1210.8000488281</ele>
        <time>2019-08-23T08:55:53Z</time>
      </trkpt>
      <trkpt lat="42.94801" lon="0.27426">
        <ele>1211.5999755859</ele>
        <time>2019-08-23T08:55:54Z</time>
      </trkpt>
      <trkpt lat="42.94801" lon="0.27428">
        <ele>1211.5999755859</ele>
        <time>2019-08-23T08:55:55Z</time>
      </trkpt>
      <trkpt lat="42.948" lon="0.27431">
        <ele>1211.5999755859</ele>
        <time>2019-08-23T08:55:57Z</time>
      </trkpt>
      <trkpt lat="42.948" lon="0.27446">
        <ele>1212</ele>
        <time>2019-08-23T08:56:03Z</time>
      </trkpt>
      <trkpt lat="42.94799" lon="0.27448">
        <ele>1212.4000244141</ele>
        <time>2019-08-23T08:56:04Z</time>
      </trkpt>
      <trkpt lat="42.94799" lon="0.2745">
        <ele>1212.8000488281</ele>
        <time>2019-08-23T08:56:05Z</time>
      </trkpt>
      <trkpt lat="42.94799" lon="0.27453">
        <ele>1213.1999511719</ele>
        <time>2019-08-23T08:56:06Z</time>
      </trkpt>
      <trkpt lat="42.94799" lon="0.27456">
        <ele>1213.5999755859</ele>
        <time>2019-08-23T08:56:07Z</time>
      </trkpt>
      <trkpt lat="42.94798" lon="0.27462">
        <ele>1213.5999755859</ele>
        <time>2019-08-23T08:56:09Z</time>
      </trkpt>
      <trkpt lat="42.94797" lon="0.27482">
        <ele>1213.5999755859</ele>
        <time>2019-08-23T08:56:17Z</time>
      </trkpt>
      <trkpt lat="42.94797" lon="0.27487">
        <ele>1213.5999755859</ele>
        <time>2019-08-23T08:56:19Z</time>
      </trkpt>
      <trkpt lat="42.94797" lon="0.27494">
        <ele>1213.5999755859</ele>
        <time>2019-08-23T08:56:22Z</time>
      </trkpt>
      <trkpt lat="42.94798" lon="0.27498">
        <ele>1213.5999755859</ele>
        <time>2019-08-23T08:56:23Z</time>
      </trkpt>
      <trkpt lat="42.94802" lon="0.27508">
        <ele>1213.5999755859</ele>
        <time>2019-08-23T08:56:25Z</time>
      </trkpt>
      <trkpt lat="42.94804" lon="0.27512">
        <ele>1213.5999755859</ele>
        <time>2019-08-23T08:56:26Z</time>
      </trkpt>
      <trkpt lat="42.94813" lon="0.27535">
        <ele>1213.5999755859</ele>
        <time>2019-08-23T08:56:31Z</time>
      </trkpt>
      <trkpt lat="42.94816" lon="0.27543">
        <ele>1213.1999511719</ele>
        <time>2019-08-23T08:56:33Z</time>
      </trkpt>
      <trkpt lat="42.94817" lon="0.27548">
        <ele>1212.8000488281</ele>
        <time>2019-08-23T08:56:34Z</time>
      </trkpt>
      <trkpt lat="42.94818" lon="0.27552">
        <ele>1212.4000244141</ele>
        <time>2019-08-23T08:56:35Z</time>
      </trkpt>
      <trkpt lat="42.94819" lon="0.27557">
        <ele>1212</ele>
        <time>2019-08-23T08:56:36Z</time>
      </trkpt>
      <trkpt lat="42.9482" lon="0.27563">
        <ele>1211.5999755859</ele>
        <time>2019-08-23T08:56:37Z</time>
      </trkpt>
      <trkpt lat="42.9482" lon="0.27569">
        <ele>1211.5999755859</ele>
        <time>2019-08-23T08:56:38Z</time>
      </trkpt>
      <trkpt lat="42.9482" lon="0.27575">
        <ele>1211.1999511719</ele>
        <time>2019-08-23T08:56:39Z</time>
      </trkpt>
      <trkpt lat="42.9482" lon="0.27581">
        <ele>1210.8000488281</ele>
        <time>2019-08-23T08:56:40Z</time>
      </trkpt>
      <trkpt lat="42.94821" lon="0.27583">
        <ele>1210.1999511719</ele>
        <time>2019-08-23T08:56:41Z</time>
      </trkpt>
      <trkpt lat="42.94821" lon="0.27585">
        <ele>1209.8000488281</ele>
        <time>2019-08-23T08:56:42Z</time>
      </trkpt>
      <trkpt lat="42.94821" lon="0.27588">
        <ele>1209.4000244141</ele>
        <time>2019-08-23T08:56:43Z</time>
      </trkpt>
      <trkpt lat="42.94821" lon="0.27595">
        <ele>1209.8000488281</ele>
        <time>2019-08-23T08:56:46Z</time>
      </trkpt>
      <trkpt lat="42.94821" lon="0.27598">
        <ele>1210.1999511719</ele>
        <time>2019-08-23T08:56:47Z</time>
      </trkpt>
      <trkpt lat="42.94822" lon="0.27599">
        <ele>1210.5999755859</ele>
        <time>2019-08-23T08:56:48Z</time>
      </trkpt>
      <trkpt lat="42.94822" lon="0.27602">
        <ele>1211</ele>
        <time>2019-08-23T08:56:49Z</time>
      </trkpt>
      <trkpt lat="42.94822" lon="0.27604">
        <ele>1211.5999755859</ele>
        <time>2019-08-23T08:56:50Z</time>
      </trkpt>
      <trkpt lat="42.94822" lon="0.27607">
        <ele>1211.5999755859</ele>
        <time>2019-08-23T08:56:52Z</time>
      </trkpt>
      <trkpt lat="42.94827" lon="0.27625">
        <ele>1211.5999755859</ele>
        <time>2019-08-23T08:56:59Z</time>
      </trkpt>
      <trkpt lat="42.9483" lon="0.27645">
        <ele>1211.5999755859</ele>
        <time>2019-08-23T08:57:03Z</time>
      </trkpt>
      <trkpt lat="42.94827" lon="0.27661">
        <ele>1211.5999755859</ele>
        <time>2019-08-23T08:57:07Z</time>
      </trkpt>
      <trkpt lat="42.9482" lon="0.27672">
        <ele>1211.5999755859</ele>
        <time>2019-08-23T08:57:12Z</time>
      </trkpt>
      <trkpt lat="42.94813" lon="0.2768">
        <ele>1211.5999755859</ele>
        <time>2019-08-23T08:57:17Z</time>
      </trkpt>
      <trkpt lat="42.94803" lon="0.27693">
        <ele>1212</ele>
        <time>2019-08-23T08:57:23Z</time>
      </trkpt>
      <trkpt lat="42.94803" lon="0.27696">
        <ele>1212.4000244141</ele>
        <time>2019-08-23T08:57:24Z</time>
      </trkpt>
      <trkpt lat="42.94801" lon="0.27696">
        <ele>1212.8000488281</ele>
        <time>2019-08-23T08:57:25Z</time>
      </trkpt>
      <trkpt lat="42.94799" lon="0.27697">
        <ele>1213.1999511719</ele>
        <time>2019-08-23T08:57:26Z</time>
      </trkpt>
      <trkpt lat="42.94798" lon="0.27699">
        <ele>1213.8000488281</ele>
        <time>2019-08-23T08:57:27Z</time>
      </trkpt>
      <trkpt lat="42.94792" lon="0.27703">
        <ele>1213.8000488281</ele>
        <time>2019-08-23T08:57:30Z</time>
      </trkpt>
      <trkpt lat="42.94789" lon="0.27709">
        <ele>1213.8000488281</ele>
        <time>2019-08-23T08:57:32Z</time>
      </trkpt>
      <trkpt lat="42.94786" lon="0.27715">
        <ele>1213.8000488281</ele>
        <time>2019-08-23T08:57:34Z</time>
      </trkpt>
      <trkpt lat="42.94779" lon="0.27721">
        <ele>1214.1999511719</ele>
        <time>2019-08-23T08:57:38Z</time>
      </trkpt>
      <trkpt lat="42.94778" lon="0.27723">
        <ele>1214.5999755859</ele>
        <time>2019-08-23T08:57:39Z</time>
      </trkpt>
      <trkpt lat="42.94776" lon="0.27724">
        <ele>1215</ele>
        <time>2019-08-23T08:57:40Z</time>
      </trkpt>
      <trkpt lat="42.94775" lon="0.27726">
        <ele>1215.4000244141</ele>
        <time>2019-08-23T08:57:41Z</time>
      </trkpt>
      <trkpt lat="42.94774" lon="0.27729">
        <ele>1216</ele>
        <time>2019-08-23T08:57:42Z</time>
      </trkpt>
      <trkpt lat="42.94771" lon="0.27735">
        <ele>1216</ele>
        <time>2019-08-23T08:57:44Z</time>
      </trkpt>
      <trkpt lat="42.94764" lon="0.27744">
        <ele>1216</ele>
        <time>2019-08-23T08:57:50Z</time>
      </trkpt>
      <trkpt lat="42.94762" lon="0.27748">
        <ele>1216.4000244141</ele>
        <time>2019-08-23T08:57:52Z</time>
      </trkpt>
      <trkpt lat="42.94761" lon="0.2775">
        <ele>1216.8000488281</ele>
        <time>2019-08-23T08:57:53Z</time>
      </trkpt>
      <trkpt lat="42.9476" lon="0.27752">
        <ele>1217.1999511719</ele>
        <time>2019-08-23T08:57:54Z</time>
      </trkpt>
      <trkpt lat="42.94758" lon="0.27753">
        <ele>1217.5999755859</ele>
        <time>2019-08-23T08:57:55Z</time>
      </trkpt>
      <trkpt lat="42.94757" lon="0.27753">
        <ele>1218</ele>
        <time>2019-08-23T08:57:56Z</time>
      </trkpt>
      <trkpt lat="42.94754" lon="0.27753">
        <ele>1218</ele>
        <time>2019-08-23T08:57:57Z</time>
      </trkpt>
      <trkpt lat="42.94749" lon="0.27755">
        <ele>1218</ele>
        <time>2019-08-23T08:58:00Z</time>
      </trkpt>
      <trkpt lat="42.94746" lon="0.2776">
        <ele>1218</ele>
        <time>2019-08-23T08:58:03Z</time>
      </trkpt>
      <trkpt lat="42.94745" lon="0.27766">
        <ele>1218</ele>
        <time>2019-08-23T08:58:05Z</time>
      </trkpt>
      <trkpt lat="42.94742" lon="0.27773">
        <ele>1218.4000244141</ele>
        <time>2019-08-23T08:58:07Z</time>
      </trkpt>
      <trkpt lat="42.9474" lon="0.27775">
        <ele>1218.8000488281</ele>
        <time>2019-08-23T08:58:08Z</time>
      </trkpt>
      <trkpt lat="42.94739" lon="0.27776">
        <ele>1219.1999511719</ele>
        <time>2019-08-23T08:58:09Z</time>
      </trkpt>
      <trkpt lat="42.94738" lon="0.27779">
        <ele>1219.5999755859</ele>
        <time>2019-08-23T08:58:10Z</time>
      </trkpt>
      <trkpt lat="42.94737" lon="0.27781">
        <ele>1220</ele>
        <time>2019-08-23T08:58:11Z</time>
      </trkpt>
      <trkpt lat="42.94737" lon="0.27783">
        <ele>1220</ele>
        <time>2019-08-23T08:58:12Z</time>
      </trkpt>
      <trkpt lat="42.9473" lon="0.27794">
        <ele>1220</ele>
        <time>2019-08-23T08:58:18Z</time>
      </trkpt>
      <trkpt lat="42.94719" lon="0.27805">
        <ele>1220</ele>
        <time>2019-08-23T08:58:24Z</time>
      </trkpt>
      <trkpt lat="42.947" lon="0.27815">
        <ele>1220</ele>
        <time>2019-08-23T08:58:30Z</time>
      </trkpt>
      <trkpt lat="42.94692" lon="0.27819">
        <ele>1219.5999755859</ele>
        <time>2019-08-23T08:58:32Z</time>
      </trkpt>
      <trkpt lat="42.94689" lon="0.27821">
        <ele>1219.1999511719</ele>
        <time>2019-08-23T08:58:33Z</time>
      </trkpt>
      <trkpt lat="42.94685" lon="0.27822">
        <ele>1218.8000488281</ele>
        <time>2019-08-23T08:58:34Z</time>
      </trkpt>
      <trkpt lat="42.94681" lon="0.27823">
        <ele>1218.4000244141</ele>
        <time>2019-08-23T08:58:35Z</time>
      </trkpt>
      <trkpt lat="42.94678" lon="0.27825">
        <ele>1218</ele>
        <time>2019-08-23T08:58:36Z</time>
      </trkpt>
      <trkpt lat="42.94666" lon="0.27832">
        <ele>1218</ele>
        <time>2019-08-23T08:58:40Z</time>
      </trkpt>
      <trkpt lat="42.94663" lon="0.27833">
        <ele>1217.4000244141</ele>
        <time>2019-08-23T08:58:41Z</time>
      </trkpt>
      <trkpt lat="42.9466" lon="0.27835">
        <ele>1217</ele>
        <time>2019-08-23T08:58:42Z</time>
      </trkpt>
      <trkpt lat="42.94657" lon="0.27837">
        <ele>1216.5999755859</ele>
        <time>2019-08-23T08:58:43Z</time>
      </trkpt>
      <trkpt lat="42.94654" lon="0.27838">
        <ele>1216.1999511719</ele>
        <time>2019-08-23T08:58:44Z</time>
      </trkpt>
      <trkpt lat="42.94651" lon="0.2784">
        <ele>1215.8000488281</ele>
        <time>2019-08-23T08:58:45Z</time>
      </trkpt>
      <trkpt lat="42.94648" lon="0.27843">
        <ele>1215.4000244141</ele>
        <time>2019-08-23T08:58:46Z</time>
      </trkpt>
      <trkpt lat="42.94645" lon="0.27844">
        <ele>1214.4000244141</ele>
        <time>2019-08-23T08:58:47Z</time>
      </trkpt>
      <trkpt lat="42.94642" lon="0.27845">
        <ele>1214</ele>
        <time>2019-08-23T08:58:48Z</time>
      </trkpt>
      <trkpt lat="42.94639" lon="0.27845">
        <ele>1213.5999755859</ele>
        <time>2019-08-23T08:58:49Z</time>
      </trkpt>
      <trkpt lat="42.94636" lon="0.27845">
        <ele>1213</ele>
        <time>2019-08-23T08:58:50Z</time>
      </trkpt>
      <trkpt lat="42.94633" lon="0.27846">
        <ele>1212.5999755859</ele>
        <time>2019-08-23T08:58:51Z</time>
      </trkpt>
      <trkpt lat="42.9463" lon="0.27848">
        <ele>1212</ele>
        <time>2019-08-23T08:58:52Z</time>
      </trkpt>
      <trkpt lat="42.94627" lon="0.27848">
        <ele>1211.4000244141</ele>
        <time>2019-08-23T08:58:53Z</time>
      </trkpt>
      <trkpt lat="42.94624" lon="0.27849">
        <ele>1210.8000488281</ele>
        <time>2019-08-23T08:58:54Z</time>
      </trkpt>
      <trkpt lat="42.94621" lon="0.2785">
        <ele>1210.4000244141</ele>
        <time>2019-08-23T08:58:55Z</time>
      </trkpt>
      <trkpt lat="42.94617" lon="0.27852">
        <ele>1209.8000488281</ele>
        <time>2019-08-23T08:58:56Z</time>
      </trkpt>
      <trkpt lat="42.94612" lon="0.27855">
        <ele>1209.1999511719</ele>
        <time>2019-08-23T08:58:57Z</time>
      </trkpt>
      <trkpt lat="42.94608" lon="0.27858">
        <ele>1208.5999755859</ele>
        <time>2019-08-23T08:58:58Z</time>
      </trkpt>
      <trkpt lat="42.94604" lon="0.27861">
        <ele>1208</ele>
        <time>2019-08-23T08:58:59Z</time>
      </trkpt>
      <trkpt lat="42.946" lon="0.27864">
        <ele>1207.4000244141</ele>
        <time>2019-08-23T08:59:00Z</time>
      </trkpt>
      <trkpt lat="42.94596" lon="0.27868">
        <ele>1206.8000488281</ele>
        <time>2019-08-23T08:59:01Z</time>
      </trkpt>
      <trkpt lat="42.94593" lon="0.27872">
        <ele>1206.1999511719</ele>
        <time>2019-08-23T08:59:02Z</time>
      </trkpt>
      <trkpt lat="42.9459" lon="0.27876">
        <ele>1205.5999755859</ele>
        <time>2019-08-23T08:59:03Z</time>
      </trkpt>
      <trkpt lat="42.94587" lon="0.27879">
        <ele>1205</ele>
        <time>2019-08-23T08:59:04Z</time>
      </trkpt>
      <trkpt lat="42.94585" lon="0.27883">
        <ele>1204.5999755859</ele>
        <time>2019-08-23T08:59:05Z</time>
      </trkpt>
      <trkpt lat="42.94583" lon="0.27887">
        <ele>1204</ele>
        <time>2019-08-23T08:59:06Z</time>
      </trkpt>
      <trkpt lat="42.94582" lon="0.27891">
        <ele>1203.4000244141</ele>
        <time>2019-08-23T08:59:07Z</time>
      </trkpt>
      <trkpt lat="42.9458" lon="0.27896">
        <ele>1203</ele>
        <time>2019-08-23T08:59:08Z</time>
      </trkpt>
      <trkpt lat="42.94579" lon="0.27901">
        <ele>1202.4000244141</ele>
        <time>2019-08-23T08:59:09Z</time>
      </trkpt>
      <trkpt lat="42.9458" lon="0.27905">
        <ele>1202.4000244141</ele>
        <time>2019-08-23T08:59:10Z</time>
      </trkpt>
      <trkpt lat="42.94584" lon="0.27918">
        <ele>1202</ele>
        <time>2019-08-23T08:59:14Z</time>
      </trkpt>
      <trkpt lat="42.94586" lon="0.2792">
        <ele>1201.4000244141</ele>
        <time>2019-08-23T08:59:15Z</time>
      </trkpt>
      <trkpt lat="42.94588" lon="0.27924">
        <ele>1201</ele>
        <time>2019-08-23T08:59:16Z</time>
      </trkpt>
      <trkpt lat="42.9459" lon="0.27926">
        <ele>1200.5999755859</ele>
        <time>2019-08-23T08:59:17Z</time>
      </trkpt>
      <trkpt lat="42.94592" lon="0.27929">
        <ele>1200</ele>
        <time>2019-08-23T08:59:18Z</time>
      </trkpt>
      <trkpt lat="42.94594" lon="0.27931">
        <ele>1199.5999755859</ele>
        <time>2019-08-23T08:59:19Z</time>
      </trkpt>
      <trkpt lat="42.94596" lon="0.27934">
        <ele>1199</ele>
        <time>2019-08-23T08:59:20Z</time>
      </trkpt>
      <trkpt lat="42.94599" lon="0.27937">
        <ele>1198.4000244141</ele>
        <time>2019-08-23T08:59:21Z</time>
      </trkpt>
      <trkpt lat="42.94601" lon="0.2794">
        <ele>1198</ele>
        <time>2019-08-23T08:59:22Z</time>
      </trkpt>
      <trkpt lat="42.94603" lon="0.27944">
        <ele>1197.4000244141</ele>
        <time>2019-08-23T08:59:23Z</time>
      </trkpt>
      <trkpt lat="42.94605" lon="0.27947">
        <ele>1197</ele>
        <time>2019-08-23T08:59:24Z</time>
      </trkpt>
      <trkpt lat="42.94607" lon="0.27951">
        <ele>1196.4000244141</ele>
        <time>2019-08-23T08:59:25Z</time>
      </trkpt>
      <trkpt lat="42.94609" lon="0.27955">
        <ele>1196</ele>
        <time>2019-08-23T08:59:26Z</time>
      </trkpt>
      <trkpt lat="42.94611" lon="0.27958">
        <ele>1195.5999755859</ele>
        <time>2019-08-23T08:59:27Z</time>
      </trkpt>
      <trkpt lat="42.94612" lon="0.27963">
        <ele>1195</ele>
        <time>2019-08-23T08:59:28Z</time>
      </trkpt>
      <trkpt lat="42.94614" lon="0.27967">
        <ele>1194.5999755859</ele>
        <time>2019-08-23T08:59:29Z</time>
      </trkpt>
      <trkpt lat="42.94615" lon="0.27972">
        <ele>1194</ele>
        <time>2019-08-23T08:59:30Z</time>
      </trkpt>
      <trkpt lat="42.94616" lon="0.27977">
        <ele>1193.5999755859</ele>
        <time>2019-08-23T08:59:31Z</time>
      </trkpt>
      <trkpt lat="42.94618" lon="0.27982">
        <ele>1193</ele>
        <time>2019-08-23T08:59:32Z</time>
      </trkpt>
      <trkpt lat="42.94619" lon="0.27986">
        <ele>1192.5999755859</ele>
        <time>2019-08-23T08:59:33Z</time>
      </trkpt>
      <trkpt lat="42.94621" lon="0.27991">
        <ele>1192.1999511719</ele>
        <time>2019-08-23T08:59:34Z</time>
      </trkpt>
      <trkpt lat="42.94623" lon="0.27994">
        <ele>1191.8000488281</ele>
        <time>2019-08-23T08:59:35Z</time>
      </trkpt>
      <trkpt lat="42.94624" lon="0.27999">
        <ele>1190.8000488281</ele>
        <time>2019-08-23T08:59:36Z</time>
      </trkpt>
      <trkpt lat="42.94626" lon="0.28003">
        <ele>1190.4000244141</ele>
        <time>2019-08-23T08:59:37Z</time>
      </trkpt>
      <trkpt lat="42.94629" lon="0.28006">
        <ele>1189.8000488281</ele>
        <time>2019-08-23T08:59:38Z</time>
      </trkpt>
      <trkpt lat="42.94632" lon="0.28009">
        <ele>1189.4000244141</ele>
        <time>2019-08-23T08:59:39Z</time>
      </trkpt>
      <trkpt lat="42.94633" lon="0.28012">
        <ele>1188.8000488281</ele>
        <time>2019-08-23T08:59:40Z</time>
      </trkpt>
      <trkpt lat="42.94636" lon="0.28015">
        <ele>1188.4000244141</ele>
        <time>2019-08-23T08:59:41Z</time>
      </trkpt>
      <trkpt lat="42.94642" lon="0.28023">
        <ele>1188</ele>
        <time>2019-08-23T08:59:43Z</time>
      </trkpt>
      <trkpt lat="42.94644" lon="0.28027">
        <ele>1187.5999755859</ele>
        <time>2019-08-23T08:59:44Z</time>
      </trkpt>
      <trkpt lat="42.94647" lon="0.28031">
        <ele>1187.1999511719</ele>
        <time>2019-08-23T08:59:45Z</time>
      </trkpt>
      <trkpt lat="42.9465" lon="0.28035">
        <ele>1186.5999755859</ele>
        <time>2019-08-23T08:59:46Z</time>
      </trkpt>
      <trkpt lat="42.94653" lon="0.2804">
        <ele>1186.1999511719</ele>
        <time>2019-08-23T08:59:47Z</time>
      </trkpt>
      <trkpt lat="42.94655" lon="0.28044">
        <ele>1185.8000488281</ele>
        <time>2019-08-23T08:59:48Z</time>
      </trkpt>
      <trkpt lat="42.94658" lon="0.28048">
        <ele>1185.1999511719</ele>
        <time>2019-08-23T08:59:49Z</time>
      </trkpt>
      <trkpt lat="42.94661" lon="0.28053">
        <ele>1184.8000488281</ele>
        <time>2019-08-23T08:59:50Z</time>
      </trkpt>
      <trkpt lat="42.94663" lon="0.28057">
        <ele>1184.1999511719</ele>
        <time>2019-08-23T08:59:51Z</time>
      </trkpt>
      <trkpt lat="42.94665" lon="0.28063">
        <ele>1183.8000488281</ele>
        <time>2019-08-23T08:59:52Z</time>
      </trkpt>
      <trkpt lat="42.94667" lon="0.28067">
        <ele>1183.1999511719</ele>
        <time>2019-08-23T08:59:53Z</time>
      </trkpt>
      <trkpt lat="42.94669" lon="0.2807">
        <ele>1182.8000488281</ele>
        <time>2019-08-23T08:59:54Z</time>
      </trkpt>
      <trkpt lat="42.9467" lon="0.28073">
        <ele>1182.1999511719</ele>
        <time>2019-08-23T08:59:55Z</time>
      </trkpt>
      <trkpt lat="42.94672" lon="0.28075">
        <ele>1181.5999755859</ele>
        <time>2019-08-23T08:59:56Z</time>
      </trkpt>
      <trkpt lat="42.94673" lon="0.2808">
        <ele>1181.5999755859</ele>
        <time>2019-08-23T08:59:58Z</time>
      </trkpt>
      <trkpt lat="42.94672" lon="0.28084">
        <ele>1181.5999755859</ele>
        <time>2019-08-23T09:00:00Z</time>
      </trkpt>
      <trkpt lat="42.94669" lon="0.28087">
        <ele>1181.5999755859</ele>
        <time>2019-08-23T09:00:05Z</time>
      </trkpt>
      <trkpt lat="42.94666" lon="0.28087">
        <ele>1181.5999755859</ele>
        <time>2019-08-23T09:00:11Z</time>
      </trkpt>
      <trkpt lat="42.94661" lon="0.28091">
        <ele>1181.5999755859</ele>
        <time>2019-08-23T09:00:16Z</time>
      </trkpt>
      <trkpt lat="42.94654" lon="0.28095">
        <ele>1181.5999755859</ele>
        <time>2019-08-23T09:00:22Z</time>
      </trkpt>
      <trkpt lat="42.94647" lon="0.281">
        <ele>1181.5999755859</ele>
        <time>2019-08-23T09:00:28Z</time>
      </trkpt>
      <trkpt lat="42.94645" lon="0.28101">
        <ele>1182</ele>
        <time>2019-08-23T09:00:30Z</time>
      </trkpt>
      <trkpt lat="42.94645" lon="0.28101">
        <ele>1182.4000244141</ele>
        <time>2019-08-23T09:00:31Z</time>
      </trkpt>
      <trkpt lat="42.94645" lon="0.28101">
        <ele>1183</ele>
        <time>2019-08-23T09:00:32Z</time>
      </trkpt>
      <trkpt lat="42.94643" lon="0.28103">
        <ele>1183.4000244141</ele>
        <time>2019-08-23T09:00:33Z</time>
      </trkpt>
      <trkpt lat="42.94642" lon="0.28104">
        <ele>1183.8000488281</ele>
        <time>2019-08-23T09:00:34Z</time>
      </trkpt>
      <trkpt lat="42.94631" lon="0.28107">
        <ele>1183.8000488281</ele>
        <time>2019-08-23T09:00:40Z</time>
      </trkpt>
      <trkpt lat="42.94626" lon="0.2811">
        <ele>1183.8000488281</ele>
        <time>2019-08-23T09:00:43Z</time>
      </trkpt>
      <trkpt lat="42.94622" lon="0.28111">
        <ele>1183.8000488281</ele>
        <time>2019-08-23T09:00:45Z</time>
      </trkpt>
      <trkpt lat="42.94614" lon="0.28116">
        <ele>1183.8000488281</ele>
        <time>2019-08-23T09:00:49Z</time>
      </trkpt>
      <trkpt lat="42.94611" lon="0.28117">
        <ele>1183.8000488281</ele>
        <time>2019-08-23T09:00:51Z</time>
      </trkpt>
      <trkpt lat="42.94609" lon="0.28118">
        <ele>1183.4000244141</ele>
        <time>2019-08-23T09:00:52Z</time>
      </trkpt>
      <trkpt lat="42.94607" lon="0.2812">
        <ele>1182.8000488281</ele>
        <time>2019-08-23T09:00:53Z</time>
      </trkpt>
      <trkpt lat="42.94604" lon="0.28121">
        <ele>1182.4000244141</ele>
        <time>2019-08-23T09:00:54Z</time>
      </trkpt>
      <trkpt lat="42.946" lon="0.28123">
        <ele>1182</ele>
        <time>2019-08-23T09:00:55Z</time>
      </trkpt>
      <trkpt lat="42.94597" lon="0.28126">
        <ele>1181.5999755859</ele>
        <time>2019-08-23T09:00:56Z</time>
      </trkpt>
      <trkpt lat="42.94592" lon="0.28129">
        <ele>1181.1999511719</ele>
        <time>2019-08-23T09:00:57Z</time>
      </trkpt>
      <trkpt lat="42.94588" lon="0.28131">
        <ele>1180.8000488281</ele>
        <time>2019-08-23T09:00:58Z</time>
      </trkpt>
      <trkpt lat="42.94585" lon="0.28133">
        <ele>1180.1999511719</ele>
        <time>2019-08-23T09:00:59Z</time>
      </trkpt>
      <trkpt lat="42.94582" lon="0.28135">
        <ele>1179.8000488281</ele>
        <time>2019-08-23T09:01:00Z</time>
      </trkpt>
      <trkpt lat="42.94578" lon="0.28137">
        <ele>1179.4000244141</ele>
        <time>2019-08-23T09:01:01Z</time>
      </trkpt>
      <trkpt lat="42.94571" lon="0.28142">
        <ele>1179</ele>
        <time>2019-08-23T09:01:03Z</time>
      </trkpt>
      <trkpt lat="42.94567" lon="0.28145">
        <ele>1178.4000244141</ele>
        <time>2019-08-23T09:01:04Z</time>
      </trkpt>
      <trkpt lat="42.94563" lon="0.28146">
        <ele>1178</ele>
        <time>2019-08-23T09:01:05Z</time>
      </trkpt>
      <trkpt lat="42.94559" lon="0.28148">
        <ele>1177.5999755859</ele>
        <time>2019-08-23T09:01:06Z</time>
      </trkpt>
      <trkpt lat="42.94557" lon="0.28152">
        <ele>1177.1999511719</ele>
        <time>2019-08-23T09:01:07Z</time>
      </trkpt>
      <trkpt lat="42.94556" lon="0.28156">
        <ele>1177.1999511719</ele>
        <time>2019-08-23T09:01:08Z</time>
      </trkpt>
      <trkpt lat="42.94552" lon="0.28164">
        <ele>1177.1999511719</ele>
        <time>2019-08-23T09:01:11Z</time>
      </trkpt>
      <trkpt lat="42.94542" lon="0.28173">
        <ele>1177.1999511719</ele>
        <time>2019-08-23T09:01:17Z</time>
      </trkpt>
      <trkpt lat="42.94531" lon="0.28191">
        <ele>1177.5999755859</ele>
        <time>2019-08-23T09:01:24Z</time>
      </trkpt>
      <trkpt lat="42.94529" lon="0.28193">
        <ele>1178</ele>
        <time>2019-08-23T09:01:25Z</time>
      </trkpt>
      <trkpt lat="42.94527" lon="0.28195">
        <ele>1178.4000244141</ele>
        <time>2019-08-23T09:01:26Z</time>
      </trkpt>
      <trkpt lat="42.94526" lon="0.28196">
        <ele>1178.8000488281</ele>
        <time>2019-08-23T09:01:27Z</time>
      </trkpt>
      <trkpt lat="42.94523" lon="0.28197">
        <ele>1179.1999511719</ele>
        <time>2019-08-23T09:01:28Z</time>
      </trkpt>
      <trkpt lat="42.94518" lon="0.28202">
        <ele>1179.1999511719</ele>
        <time>2019-08-23T09:01:31Z</time>
      </trkpt>
      <trkpt lat="42.94508" lon="0.28216">
        <ele>1179.1999511719</ele>
        <time>2019-08-23T09:01:38Z</time>
      </trkpt>
      <trkpt lat="42.94503" lon="0.28231">
        <ele>1179.1999511719</ele>
        <time>2019-08-23T09:01:43Z</time>
      </trkpt>
      <trkpt lat="42.945" lon="0.28238">
        <ele>1179.5999755859</ele>
        <time>2019-08-23T09:01:46Z</time>
      </trkpt>
      <trkpt lat="42.94499" lon="0.28239">
        <ele>1180.1999511719</ele>
        <time>2019-08-23T09:01:47Z</time>
      </trkpt>
      <trkpt lat="42.94498" lon="0.28241">
        <ele>1180.5999755859</ele>
        <time>2019-08-23T09:01:48Z</time>
      </trkpt>
      <trkpt lat="42.94497" lon="0.28242">
        <ele>1181</ele>
        <time>2019-08-23T09:01:49Z</time>
      </trkpt>
      <trkpt lat="42.94496" lon="0.28245">
        <ele>1181.4000244141</ele>
        <time>2019-08-23T09:01:50Z</time>
      </trkpt>
      <trkpt lat="42.94493" lon="0.28253">
        <ele>1181.4000244141</ele>
        <time>2019-08-23T09:01:54Z</time>
      </trkpt>
      <trkpt lat="42.94492" lon="0.2826">
        <ele>1181.4000244141</ele>
        <time>2019-08-23T09:01:56Z</time>
      </trkpt>
      <trkpt lat="42.94489" lon="0.28265">
        <ele>1181.8000488281</ele>
        <time>2019-08-23T09:01:59Z</time>
      </trkpt>
      <trkpt lat="42.94489" lon="0.28266">
        <ele>1182.1999511719</ele>
        <time>2019-08-23T09:02:00Z</time>
      </trkpt>
      <trkpt lat="42.94489" lon="0.28268">
        <ele>1182.5999755859</ele>
        <time>2019-08-23T09:02:01Z</time>
      </trkpt>
      <trkpt lat="42.94488" lon="0.2827">
        <ele>1183.1999511719</ele>
        <time>2019-08-23T09:02:02Z</time>
      </trkpt>
      <trkpt lat="42.94488" lon="0.28272">
        <ele>1183.5999755859</ele>
        <time>2019-08-23T09:02:03Z</time>
      </trkpt>
      <trkpt lat="42.94483" lon="0.28278">
        <ele>1183.5999755859</ele>
        <time>2019-08-23T09:02:07Z</time>
      </trkpt>
      <trkpt lat="42.94473" lon="0.28291">
        <ele>1183.5999755859</ele>
        <time>2019-08-23T09:02:13Z</time>
      </trkpt>
      <trkpt lat="42.94467" lon="0.28298">
        <ele>1183</ele>
        <time>2019-08-23T09:02:16Z</time>
      </trkpt>
      <trkpt lat="42.94465" lon="0.28301">
        <ele>1182.5999755859</ele>
        <time>2019-08-23T09:02:17Z</time>
      </trkpt>
      <trkpt lat="42.94463" lon="0.28304">
        <ele>1182.1999511719</ele>
        <time>2019-08-23T09:02:18Z</time>
      </trkpt>
      <trkpt lat="42.94462" lon="0.28307">
        <ele>1181.8000488281</ele>
        <time>2019-08-23T09:02:19Z</time>
      </trkpt>
      <trkpt lat="42.94459" lon="0.2831">
        <ele>1181.4000244141</ele>
        <time>2019-08-23T09:02:20Z</time>
      </trkpt>
      <trkpt lat="42.94457" lon="0.28314">
        <ele>1181</ele>
        <time>2019-08-23T09:02:21Z</time>
      </trkpt>
      <trkpt lat="42.94454" lon="0.28317">
        <ele>1180.5999755859</ele>
        <time>2019-08-23T09:02:22Z</time>
      </trkpt>
      <trkpt lat="42.94451" lon="0.28321">
        <ele>1180.1999511719</ele>
        <time>2019-08-23T09:02:23Z</time>
      </trkpt>
      <trkpt lat="42.94448" lon="0.28326">
        <ele>1179.8000488281</ele>
        <time>2019-08-23T09:02:24Z</time>
      </trkpt>
      <trkpt lat="42.94445" lon="0.28331">
        <ele>1179.1999511719</ele>
        <time>2019-08-23T09:02:25Z</time>
      </trkpt>
      <trkpt lat="42.9444" lon="0.28342">
        <ele>1178.8000488281</ele>
        <time>2019-08-23T09:02:27Z</time>
      </trkpt>
      <trkpt lat="42.94438" lon="0.28348">
        <ele>1177.8000488281</ele>
        <time>2019-08-23T09:02:28Z</time>
      </trkpt>
      <trkpt lat="42.94436" lon="0.28354">
        <ele>1177.4000244141</ele>
        <time>2019-08-23T09:02:29Z</time>
      </trkpt>
      <trkpt lat="42.94433" lon="0.28361">
        <ele>1176.8000488281</ele>
        <time>2019-08-23T09:02:30Z</time>
      </trkpt>
      <trkpt lat="42.9443" lon="0.28367">
        <ele>1176.1999511719</ele>
        <time>2019-08-23T09:02:31Z</time>
      </trkpt>
      <trkpt lat="42.94428" lon="0.28373">
        <ele>1175.8000488281</ele>
        <time>2019-08-23T09:02:32Z</time>
      </trkpt>
      <trkpt lat="42.94426" lon="0.28378">
        <ele>1175.1999511719</ele>
        <time>2019-08-23T09:02:33Z</time>
      </trkpt>
      <trkpt lat="42.94425" lon="0.28384">
        <ele>1174.5999755859</ele>
        <time>2019-08-23T09:02:34Z</time>
      </trkpt>
      <trkpt lat="42.94422" lon="0.28394">
        <ele>1174.1999511719</ele>
        <time>2019-08-23T09:02:36Z</time>
      </trkpt>
      <trkpt lat="42.94422" lon="0.284">
        <ele>1173.8000488281</ele>
        <time>2019-08-23T09:02:37Z</time>
      </trkpt>
      <trkpt lat="42.94422" lon="0.28405">
        <ele>1173.1999511719</ele>
        <time>2019-08-23T09:02:38Z</time>
      </trkpt>
      <trkpt lat="42.94421" lon="0.28409">
        <ele>1172.8000488281</ele>
        <time>2019-08-23T09:02:39Z</time>
      </trkpt>
      <trkpt lat="42.94421" lon="0.28412">
        <ele>1172.4000244141</ele>
        <time>2019-08-23T09:02:40Z</time>
      </trkpt>
      <trkpt lat="42.94419" lon="0.28425">
        <ele>1172.4000244141</ele>
        <time>2019-08-23T09:02:44Z</time>
      </trkpt>
      <trkpt lat="42.94419" lon="0.2843">
        <ele>1172</ele>
        <time>2019-08-23T09:02:45Z</time>
      </trkpt>
      <trkpt lat="42.94419" lon="0.28434">
        <ele>1171.5999755859</ele>
        <time>2019-08-23T09:02:46Z</time>
      </trkpt>
      <trkpt lat="42.94419" lon="0.28437">
        <ele>1171.1999511719</ele>
        <time>2019-08-23T09:02:47Z</time>
      </trkpt>
      <trkpt lat="42.94419" lon="0.2844">
        <ele>1170.8000488281</ele>
        <time>2019-08-23T09:02:48Z</time>
      </trkpt>
      <trkpt lat="42.94419" lon="0.28443">
        <ele>1170.4000244141</ele>
        <time>2019-08-23T09:02:49Z</time>
      </trkpt>
      <trkpt lat="42.94423" lon="0.28463">
        <ele>1169.4000244141</ele>
        <time>2019-08-23T09:02:53Z</time>
      </trkpt>
      <trkpt lat="42.94424" lon="0.28467">
        <ele>1169</ele>
        <time>2019-08-23T09:02:54Z</time>
      </trkpt>
      <trkpt lat="42.94426" lon="0.28473">
        <ele>1168.5999755859</ele>
        <time>2019-08-23T09:02:55Z</time>
      </trkpt>
      <trkpt lat="42.94427" lon="0.28479">
        <ele>1168.1999511719</ele>
        <time>2019-08-23T09:02:56Z</time>
      </trkpt>
      <trkpt lat="42.94428" lon="0.28486">
        <ele>1167.5999755859</ele>
        <time>2019-08-23T09:02:57Z</time>
      </trkpt>
      <trkpt lat="42.94429" lon="0.28493">
        <ele>1167</ele>
        <time>2019-08-23T09:02:58Z</time>
      </trkpt>
      <trkpt lat="42.9443" lon="0.28499">
        <ele>1166.4000244141</ele>
        <time>2019-08-23T09:02:59Z</time>
      </trkpt>
      <trkpt lat="42.94432" lon="0.28506">
        <ele>1165.8000488281</ele>
        <time>2019-08-23T09:03:00Z</time>
      </trkpt>
      <trkpt lat="42.94433" lon="0.28513">
        <ele>1165</ele>
        <time>2019-08-23T09:03:01Z</time>
      </trkpt>
      <trkpt lat="42.94434" lon="0.28519">
        <ele>1164.4000244141</ele>
        <time>2019-08-23T09:03:02Z</time>
      </trkpt>
      <trkpt lat="42.94435" lon="0.28525">
        <ele>1163.5999755859</ele>
        <time>2019-08-23T09:03:03Z</time>
      </trkpt>
      <trkpt lat="42.94437" lon="0.28531">
        <ele>1163.1999511719</ele>
        <time>2019-08-23T09:03:04Z</time>
      </trkpt>
      <trkpt lat="42.94438" lon="0.28537">
        <ele>1162.5999755859</ele>
        <time>2019-08-23T09:03:05Z</time>
      </trkpt>
      <trkpt lat="42.94439" lon="0.28542">
        <ele>1162</ele>
        <time>2019-08-23T09:03:06Z</time>
      </trkpt>
      <trkpt lat="42.94441" lon="0.28546">
        <ele>1161.4000244141</ele>
        <time>2019-08-23T09:03:07Z</time>
      </trkpt>
      <trkpt lat="42.94442" lon="0.28549">
        <ele>1161</ele>
        <time>2019-08-23T09:03:08Z</time>
      </trkpt>
      <trkpt lat="42.94443" lon="0.28552">
        <ele>1160.5999755859</ele>
        <time>2019-08-23T09:03:09Z</time>
      </trkpt>
      <trkpt lat="42.94443" lon="0.28554">
        <ele>1160</ele>
        <time>2019-08-23T09:03:10Z</time>
      </trkpt>
      <trkpt lat="42.94443" lon="0.28555">
        <ele>1159.5999755859</ele>
        <time>2019-08-23T09:03:11Z</time>
      </trkpt>
      <trkpt lat="42.94443" lon="0.28557">
        <ele>1159.1999511719</ele>
        <time>2019-08-23T09:03:12Z</time>
      </trkpt>
      <trkpt lat="42.94444" lon="0.28559">
        <ele>1158.8000488281</ele>
        <time>2019-08-23T09:03:13Z</time>
      </trkpt>
      <trkpt lat="42.94446" lon="0.28562">
        <ele>1158.8000488281</ele>
        <time>2019-08-23T09:03:14Z</time>
      </trkpt>
      <trkpt lat="42.94448" lon="0.28564">
        <ele>1158.4000244141</ele>
        <time>2019-08-23T09:03:15Z</time>
      </trkpt>
      <trkpt lat="42.94451" lon="0.28567">
        <ele>1157.8000488281</ele>
        <time>2019-08-23T09:03:16Z</time>
      </trkpt>
      <trkpt lat="42.94453" lon="0.2857">
        <ele>1157.4000244141</ele>
        <time>2019-08-23T09:03:17Z</time>
      </trkpt>
      <trkpt lat="42.94456" lon="0.28573">
        <ele>1156.4000244141</ele>
        <time>2019-08-23T09:03:18Z</time>
      </trkpt>
      <trkpt lat="42.94459" lon="0.28575">
        <ele>1155.8000488281</ele>
        <time>2019-08-23T09:03:19Z</time>
      </trkpt>
      <trkpt lat="42.94464" lon="0.28578">
        <ele>1155.1999511719</ele>
        <time>2019-08-23T09:03:20Z</time>
      </trkpt>
      <trkpt lat="42.94468" lon="0.28583">
        <ele>1154.5999755859</ele>
        <time>2019-08-23T09:03:21Z</time>
      </trkpt>
      <trkpt lat="42.94472" lon="0.28587">
        <ele>1154</ele>
        <time>2019-08-23T09:03:22Z</time>
      </trkpt>
      <trkpt lat="42.94469" lon="0.28587">
        <ele>1153.4000244141</ele>
        <time>2019-08-23T09:03:23Z</time>
      </trkpt>
      <trkpt lat="42.9448" lon="0.28592">
        <ele>1153</ele>
        <time>2019-08-23T09:03:24Z</time>
      </trkpt>
      <trkpt lat="42.94483" lon="0.28595">
        <ele>1152.4000244141</ele>
        <time>2019-08-23T09:03:25Z</time>
      </trkpt>
      <trkpt lat="42.94486" lon="0.28597">
        <ele>1151.8000488281</ele>
        <time>2019-08-23T09:03:26Z</time>
      </trkpt>
      <trkpt lat="42.9449" lon="0.28599">
        <ele>1151.4000244141</ele>
        <time>2019-08-23T09:03:27Z</time>
      </trkpt>
      <trkpt lat="42.94494" lon="0.28602">
        <ele>1150.8000488281</ele>
        <time>2019-08-23T09:03:28Z</time>
      </trkpt>
      <trkpt lat="42.94497" lon="0.28606">
        <ele>1150.4000244141</ele>
        <time>2019-08-23T09:03:29Z</time>
      </trkpt>
      <trkpt lat="42.945" lon="0.28609">
        <ele>1149.8000488281</ele>
        <time>2019-08-23T09:03:30Z</time>
      </trkpt>
      <trkpt lat="42.94505" lon="0.28613">
        <ele>1149.1999511719</ele>
        <time>2019-08-23T09:03:31Z</time>
      </trkpt>
      <trkpt lat="42.9451" lon="0.28616">
        <ele>1148.4000244141</ele>
        <time>2019-08-23T09:03:32Z</time>
      </trkpt>
      <trkpt lat="42.94514" lon="0.28617">
        <ele>1147.8000488281</ele>
        <time>2019-08-23T09:03:33Z</time>
      </trkpt>
      <trkpt lat="42.94518" lon="0.28618">
        <ele>1147</ele>
        <time>2019-08-23T09:03:34Z</time>
      </trkpt>
      <trkpt lat="42.94521" lon="0.2862">
        <ele>1146.4000244141</ele>
        <time>2019-08-23T09:03:35Z</time>
      </trkpt>
      <trkpt lat="42.94525" lon="0.28622">
        <ele>1145.5999755859</ele>
        <time>2019-08-23T09:03:36Z</time>
      </trkpt>
      <trkpt lat="42.94528" lon="0.28623">
        <ele>1144.8000488281</ele>
        <time>2019-08-23T09:03:37Z</time>
      </trkpt>
      <trkpt lat="42.94535" lon="0.28627">
        <ele>1144.8000488281</ele>
        <time>2019-08-23T09:03:39Z</time>
      </trkpt>
      <trkpt lat="42.94539" lon="0.28627">
        <ele>1144.4000244141</ele>
        <time>2019-08-23T09:03:40Z</time>
      </trkpt>
      <trkpt lat="42.94543" lon="0.28627">
        <ele>1144</ele>
        <time>2019-08-23T09:03:41Z</time>
      </trkpt>
      <trkpt lat="42.94547" lon="0.28628">
        <ele>1142.8000488281</ele>
        <time>2019-08-23T09:03:42Z</time>
      </trkpt>
      <trkpt lat="42.94551" lon="0.28629">
        <ele>1142</ele>
        <time>2019-08-23T09:03:43Z</time>
      </trkpt>
      <trkpt lat="42.94555" lon="0.28629">
        <ele>1141.4000244141</ele>
        <time>2019-08-23T09:03:44Z</time>
      </trkpt>
      <trkpt lat="42.94559" lon="0.28628">
        <ele>1140.5999755859</ele>
        <time>2019-08-23T09:03:45Z</time>
      </trkpt>
      <trkpt lat="42.94562" lon="0.28627">
        <ele>1140</ele>
        <time>2019-08-23T09:03:46Z</time>
      </trkpt>
      <trkpt lat="42.94566" lon="0.28627">
        <ele>1139.5999755859</ele>
        <time>2019-08-23T09:03:47Z</time>
      </trkpt>
      <trkpt lat="42.94569" lon="0.28627">
        <ele>1139</ele>
        <time>2019-08-23T09:03:48Z</time>
      </trkpt>
      <trkpt lat="42.94572" lon="0.28627">
        <ele>1138.5999755859</ele>
        <time>2019-08-23T09:03:49Z</time>
      </trkpt>
      <trkpt lat="42.94575" lon="0.28628">
        <ele>1138.1999511719</ele>
        <time>2019-08-23T09:03:50Z</time>
      </trkpt>
      <trkpt lat="42.94578" lon="0.28631">
        <ele>1137.8000488281</ele>
        <time>2019-08-23T09:03:51Z</time>
      </trkpt>
      <trkpt lat="42.9458" lon="0.28642">
        <ele>1137.4000244141</ele>
        <time>2019-08-23T09:03:53Z</time>
      </trkpt>
      <trkpt lat="42.94581" lon="0.28646">
        <ele>1136.8000488281</ele>
        <time>2019-08-23T09:03:54Z</time>
      </trkpt>
      <trkpt lat="42.94581" lon="0.2865">
        <ele>1136.1999511719</ele>
        <time>2019-08-23T09:03:55Z</time>
      </trkpt>
      <trkpt lat="42.9458" lon="0.28655">
        <ele>1135.8000488281</ele>
        <time>2019-08-23T09:03:56Z</time>
      </trkpt>
      <trkpt lat="42.94578" lon="0.28657">
        <ele>1135.1999511719</ele>
        <time>2019-08-23T09:03:57Z</time>
      </trkpt>
      <trkpt lat="42.94578" lon="0.28661">
        <ele>1135.1999511719</ele>
        <time>2019-08-23T09:03:58Z</time>
      </trkpt>
      <trkpt lat="42.94573" lon="0.2867">
        <ele>1134.8000488281</ele>
        <time>2019-08-23T09:04:00Z</time>
      </trkpt>
      <trkpt lat="42.94571" lon="0.28674">
        <ele>1134.4000244141</ele>
        <time>2019-08-23T09:04:01Z</time>
      </trkpt>
      <trkpt lat="42.9457" lon="0.28679">
        <ele>1134</ele>
        <time>2019-08-23T09:04:02Z</time>
      </trkpt>
      <trkpt lat="42.94568" lon="0.28683">
        <ele>1133.4000244141</ele>
        <time>2019-08-23T09:04:03Z</time>
      </trkpt>
      <trkpt lat="42.94564" lon="0.28688">
        <ele>1133</ele>
        <time>2019-08-23T09:04:04Z</time>
      </trkpt>
      <trkpt lat="42.94561" lon="0.28692">
        <ele>1132.5999755859</ele>
        <time>2019-08-23T09:04:05Z</time>
      </trkpt>
      <trkpt lat="42.94557" lon="0.28696">
        <ele>1132.1999511719</ele>
        <time>2019-08-23T09:04:06Z</time>
      </trkpt>
      <trkpt lat="42.94554" lon="0.28699">
        <ele>1131.4000244141</ele>
        <time>2019-08-23T09:04:07Z</time>
      </trkpt>
      <trkpt lat="42.94551" lon="0.28703">
        <ele>1131</ele>
        <time>2019-08-23T09:04:08Z</time>
      </trkpt>
      <trkpt lat="42.94545" lon="0.28709">
        <ele>1130.5999755859</ele>
        <time>2019-08-23T09:04:10Z</time>
      </trkpt>
      <trkpt lat="42.94543" lon="0.28711">
        <ele>1130.1999511719</ele>
        <time>2019-08-23T09:04:11Z</time>
      </trkpt>
      <trkpt lat="42.94539" lon="0.28714">
        <ele>1129.5999755859</ele>
        <time>2019-08-23T09:04:12Z</time>
      </trkpt>
      <trkpt lat="42.94537" lon="0.28716">
        <ele>1129.1999511719</ele>
        <time>2019-08-23T09:04:13Z</time>
      </trkpt>
      <trkpt lat="42.94534" lon="0.28719">
        <ele>1128.5999755859</ele>
        <time>2019-08-23T09:04:14Z</time>
      </trkpt>
      <trkpt lat="42.94532" lon="0.28724">
        <ele>1128.1999511719</ele>
        <time>2019-08-23T09:04:15Z</time>
      </trkpt>
      <trkpt lat="42.9453" lon="0.28727">
        <ele>1127.5999755859</ele>
        <time>2019-08-23T09:04:16Z</time>
      </trkpt>
      <trkpt lat="42.94527" lon="0.2873">
        <ele>1127.1999511719</ele>
        <time>2019-08-23T09:04:17Z</time>
      </trkpt>
      <trkpt lat="42.94525" lon="0.28733">
        <ele>1126.5999755859</ele>
        <time>2019-08-23T09:04:18Z</time>
      </trkpt>
      <trkpt lat="42.94522" lon="0.2874">
        <ele>1126.5999755859</ele>
        <time>2019-08-23T09:04:20Z</time>
      </trkpt>
      <trkpt lat="42.94523" lon="0.28744">
        <ele>1126.5999755859</ele>
        <time>2019-08-23T09:04:21Z</time>
      </trkpt>
      <trkpt lat="42.9453" lon="0.2876">
        <ele>1126.1999511719</ele>
        <time>2019-08-23T09:04:24Z</time>
      </trkpt>
      <trkpt lat="42.94532" lon="0.28767">
        <ele>1125.5999755859</ele>
        <time>2019-08-23T09:04:25Z</time>
      </trkpt>
      <trkpt lat="42.94535" lon="0.28776">
        <ele>1125</ele>
        <time>2019-08-23T09:04:26Z</time>
      </trkpt>
      <trkpt lat="42.94537" lon="0.28783">
        <ele>1124.4000244141</ele>
        <time>2019-08-23T09:04:27Z</time>
      </trkpt>
      <trkpt lat="42.94537" lon="0.2879">
        <ele>1123.5999755859</ele>
        <time>2019-08-23T09:04:28Z</time>
      </trkpt>
      <trkpt lat="42.94538" lon="0.28797">
        <ele>1122.8000488281</ele>
        <time>2019-08-23T09:04:29Z</time>
      </trkpt>
      <trkpt lat="42.94537" lon="0.28803">
        <ele>1122.1999511719</ele>
        <time>2019-08-23T09:04:30Z</time>
      </trkpt>
      <trkpt lat="42.94535" lon="0.28807">
        <ele>1121.4000244141</ele>
        <time>2019-08-23T09:04:31Z</time>
      </trkpt>
      <trkpt lat="42.94533" lon="0.28808">
        <ele>1121</ele>
        <time>2019-08-23T09:04:32Z</time>
      </trkpt>
      <trkpt lat="42.9453" lon="0.2881">
        <ele>1120.5999755859</ele>
        <time>2019-08-23T09:04:33Z</time>
      </trkpt>
      <trkpt lat="42.94526" lon="0.28811">
        <ele>1120.1999511719</ele>
        <time>2019-08-23T09:04:34Z</time>
      </trkpt>
      <trkpt lat="42.94522" lon="0.28813">
        <ele>1119.8000488281</ele>
        <time>2019-08-23T09:04:35Z</time>
      </trkpt>
      <trkpt lat="42.94516" lon="0.28815">
        <ele>1119.1999511719</ele>
        <time>2019-08-23T09:04:36Z</time>
      </trkpt>
      <trkpt lat="42.9451" lon="0.28817">
        <ele>1118.5999755859</ele>
        <time>2019-08-23T09:04:37Z</time>
      </trkpt>
      <trkpt lat="42.94504" lon="0.2882">
        <ele>1118</ele>
        <time>2019-08-23T09:04:38Z</time>
      </trkpt>
      <trkpt lat="42.94498" lon="0.28822">
        <ele>1117.1999511719</ele>
        <time>2019-08-23T09:04:39Z</time>
      </trkpt>
      <trkpt lat="42.94492" lon="0.28823">
        <ele>1116.5999755859</ele>
        <time>2019-08-23T09:04:40Z</time>
      </trkpt>
      <trkpt lat="42.94486" lon="0.28823">
        <ele>1115.8000488281</ele>
        <time>2019-08-23T09:04:41Z</time>
      </trkpt>
      <trkpt lat="42.9448" lon="0.28821">
        <ele>1115.1999511719</ele>
        <time>2019-08-23T09:04:42Z</time>
      </trkpt>
      <trkpt lat="42.94474" lon="0.28819">
        <ele>1114.5999755859</ele>
        <time>2019-08-23T09:04:43Z</time>
      </trkpt>
      <trkpt lat="42.94468" lon="0.28816">
        <ele>1114</ele>
        <time>2019-08-23T09:04:44Z</time>
      </trkpt>
      <trkpt lat="42.94462" lon="0.28812">
        <ele>1113.4000244141</ele>
        <time>2019-08-23T09:04:45Z</time>
      </trkpt>
      <trkpt lat="42.94456" lon="0.2881">
        <ele>1112.8000488281</ele>
        <time>2019-08-23T09:04:46Z</time>
      </trkpt>
      <trkpt lat="42.9445" lon="0.28807">
        <ele>1112.1999511719</ele>
        <time>2019-08-23T09:04:47Z</time>
      </trkpt>
      <trkpt lat="42.94445" lon="0.28804">
        <ele>1112.1999511719</ele>
        <time>2019-08-23T09:04:48Z</time>
      </trkpt>
      <trkpt lat="42.94439" lon="0.288">
        <ele>1112.1999511719</ele>
        <time>2019-08-23T09:04:49Z</time>
      </trkpt>
      <trkpt lat="42.94426" lon="0.28784">
        <ele>1112.1999511719</ele>
        <time>2019-08-23T09:04:52Z</time>
      </trkpt>
      <trkpt lat="42.94422" lon="0.28778">
        <ele>1112.1999511719</ele>
        <time>2019-08-23T09:04:53Z</time>
      </trkpt>
      <trkpt lat="42.94418" lon="0.28771">
        <ele>1112.1999511719</ele>
        <time>2019-08-23T09:04:54Z</time>
      </trkpt>
      <trkpt lat="42.94414" lon="0.28763">
        <ele>1111.8000488281</ele>
        <time>2019-08-23T09:04:55Z</time>
      </trkpt>
      <trkpt lat="42.9441" lon="0.28756">
        <ele>1111</ele>
        <time>2019-08-23T09:04:56Z</time>
      </trkpt>
      <trkpt lat="42.94406" lon="0.28749">
        <ele>1110.5999755859</ele>
        <time>2019-08-23T09:04:57Z</time>
      </trkpt>
      <trkpt lat="42.94401" lon="0.28741">
        <ele>1110.1999511719</ele>
        <time>2019-08-23T09:04:58Z</time>
      </trkpt>
      <trkpt lat="42.94397" lon="0.28733">
        <ele>1109.5999755859</ele>
        <time>2019-08-23T09:04:59Z</time>
      </trkpt>
      <trkpt lat="42.94392" lon="0.28725">
        <ele>1109.1999511719</ele>
        <time>2019-08-23T09:05:00Z</time>
      </trkpt>
      <trkpt lat="42.94388" lon="0.28717">
        <ele>1108.8000488281</ele>
        <time>2019-08-23T09:05:01Z</time>
      </trkpt>
      <trkpt lat="42.94383" lon="0.28709">
        <ele>1108.4000244141</ele>
        <time>2019-08-23T09:05:02Z</time>
      </trkpt>
      <trkpt lat="42.94379" lon="0.28701">
        <ele>1108</ele>
        <time>2019-08-23T09:05:03Z</time>
      </trkpt>
      <trkpt lat="42.94374" lon="0.28692">
        <ele>1108</ele>
        <time>2019-08-23T09:05:04Z</time>
      </trkpt>
      <trkpt lat="42.94369" lon="0.28683">
        <ele>1107.4000244141</ele>
        <time>2019-08-23T09:05:05Z</time>
      </trkpt>
      <trkpt lat="42.94364" lon="0.28674">
        <ele>1107</ele>
        <time>2019-08-23T09:05:06Z</time>
      </trkpt>
      <trkpt lat="42.94359" lon="0.28665">
        <ele>1106.5999755859</ele>
        <time>2019-08-23T09:05:07Z</time>
      </trkpt>
      <trkpt lat="42.94354" lon="0.28657">
        <ele>1106.1999511719</ele>
        <time>2019-08-23T09:05:08Z</time>
      </trkpt>
      <trkpt lat="42.94349" lon="0.28648">
        <ele>1105.5999755859</ele>
        <time>2019-08-23T09:05:09Z</time>
      </trkpt>
      <trkpt lat="42.94345" lon="0.28638">
        <ele>1105.5999755859</ele>
        <time>2019-08-23T09:05:10Z</time>
      </trkpt>
      <trkpt lat="42.94334" lon="0.2862">
        <ele>1105.1999511719</ele>
        <time>2019-08-23T09:05:12Z</time>
      </trkpt>
      <trkpt lat="42.94329" lon="0.2861">
        <ele>1104.8000488281</ele>
        <time>2019-08-23T09:05:13Z</time>
      </trkpt>
      <trkpt lat="42.94324" lon="0.286">
        <ele>1104.4000244141</ele>
        <time>2019-08-23T09:05:14Z</time>
      </trkpt>
      <trkpt lat="42.94319" lon="0.28591">
        <ele>1104</ele>
        <time>2019-08-23T09:05:15Z</time>
      </trkpt>
      <trkpt lat="42.94314" lon="0.28581">
        <ele>1103.5999755859</ele>
        <time>2019-08-23T09:05:16Z</time>
      </trkpt>
      <trkpt lat="42.94309" lon="0.28572">
        <ele>1103.5999755859</ele>
        <time>2019-08-23T09:05:17Z</time>
      </trkpt>
      <trkpt lat="42.94287" lon="0.28519">
        <ele>1103.5999755859</ele>
        <time>2019-08-23T09:05:22Z</time>
      </trkpt>
      <trkpt lat="42.94284" lon="0.28507">
        <ele>1103</ele>
        <time>2019-08-23T09:05:23Z</time>
      </trkpt>
      <trkpt lat="42.94283" lon="0.28496">
        <ele>1102.5999755859</ele>
        <time>2019-08-23T09:05:24Z</time>
      </trkpt>
      <trkpt lat="42.94282" lon="0.28485">
        <ele>1102.1999511719</ele>
        <time>2019-08-23T09:05:25Z</time>
      </trkpt>
      <trkpt lat="42.94281" lon="0.28475">
        <ele>1101.8000488281</ele>
        <time>2019-08-23T09:05:26Z</time>
      </trkpt>
      <trkpt lat="42.94279" lon="0.28466">
        <ele>1101.1999511719</ele>
        <time>2019-08-23T09:05:27Z</time>
      </trkpt>
      <trkpt lat="42.94278" lon="0.28451">
        <ele>1101.1999511719</ele>
        <time>2019-08-23T09:05:29Z</time>
      </trkpt>
      <trkpt lat="42.94274" lon="0.28446">
        <ele>1101.1999511719</ele>
        <time>2019-08-23T09:05:30Z</time>
      </trkpt>
      <trkpt lat="42.94259" lon="0.28443">
        <ele>1101.1999511719</ele>
        <time>2019-08-23T09:05:33Z</time>
      </trkpt>
      <trkpt lat="42.9425" lon="0.28457">
        <ele>1101.1999511719</ele>
        <time>2019-08-23T09:05:36Z</time>
      </trkpt>
      <trkpt lat="42.94247" lon="0.28461">
        <ele>1101.1999511719</ele>
        <time>2019-08-23T09:05:37Z</time>
      </trkpt>
      <trkpt lat="42.94234" lon="0.28473">
        <ele>1101.1999511719</ele>
        <time>2019-08-23T09:05:42Z</time>
      </trkpt>
      <trkpt lat="42.94224" lon="0.28487">
        <ele>1101.5999755859</ele>
        <time>2019-08-23T09:05:47Z</time>
      </trkpt>
      <trkpt lat="42.94221" lon="0.28489">
        <ele>1102.1999511719</ele>
        <time>2019-08-23T09:05:48Z</time>
      </trkpt>
      <trkpt lat="42.94218" lon="0.2849">
        <ele>1102.5999755859</ele>
        <time>2019-08-23T09:05:49Z</time>
      </trkpt>
      <trkpt lat="42.94216" lon="0.28493">
        <ele>1103</ele>
        <time>2019-08-23T09:05:50Z</time>
      </trkpt>
      <trkpt lat="42.94214" lon="0.28496">
        <ele>1103.4000244141</ele>
        <time>2019-08-23T09:05:51Z</time>
      </trkpt>
      <trkpt lat="42.94208" lon="0.28501">
        <ele>1103.4000244141</ele>
        <time>2019-08-23T09:05:53Z</time>
      </trkpt>
      <trkpt lat="42.94197" lon="0.28517">
        <ele>1103.4000244141</ele>
        <time>2019-08-23T09:06:00Z</time>
      </trkpt>
      <trkpt lat="42.94195" lon="0.2852">
        <ele>1103.8000488281</ele>
        <time>2019-08-23T09:06:02Z</time>
      </trkpt>
      <trkpt lat="42.94195" lon="0.28521">
        <ele>1104.1999511719</ele>
        <time>2019-08-23T09:06:03Z</time>
      </trkpt>
      <trkpt lat="42.94196" lon="0.28523">
        <ele>1104.5999755859</ele>
        <time>2019-08-23T09:06:04Z</time>
      </trkpt>
      <trkpt lat="42.94197" lon="0.28524">
        <ele>1105</ele>
        <time>2019-08-23T09:06:05Z</time>
      </trkpt>
      <trkpt lat="42.94197" lon="0.28524">
        <ele>1105.4000244141</ele>
        <time>2019-08-23T09:06:06Z</time>
      </trkpt>
      <trkpt lat="42.94197" lon="0.28524">
        <ele>1105.4000244141</ele>
        <time>2019-08-23T09:06:10Z</time>
      </trkpt>
    </trkseg>
  </trk>
</gpx>